# Wetter Temperatur Luftdruck Luftfeuchtigkeit Sichtweite Windgeschwindigkeit Windrichtung Zeit
1 Rain 4 990 93 7000 6.2 110 21:39 28.01.2020
2 Rain 4 990 93 7000 6.2 110 21:20 28.01.2020
3 Rain 4 990 93 7000 5.7 120 20:46 28.01.2020
4 Rain 4 991 93 8000 5.7 110 20:27 28.01.2020
5 Rain 4 991 93 7000 6.2 120 19:58 28.01.2020
6 Rain 4 991 93 5000 8.2 120 19:38 28.01.2020
7 Rain 4 991 93 5000 8.2 120 19:19 28.01.2020
8 Drizzle 4 991 93 8000 6.7 110 18:54 28.01.2020
9 Rain 4 991 93 6000 5.1 110 18:36 28.01.2020
10 Rain 4 991 93 6000 5.1 110 18:36 28.01.2020
11 Rain 4 991 93 6000 5.1 110 18:18 28.01.2020
12 Rain 4 991 93 5000 5.7 110 17:55 28.01.2020
13 Rain 4 992 93 9000 5.7 120 17:36 28.01.2020
14 Rain 4 992 93 9000 5.7 120 17:18 28.01.2020
15 Rain 4 992 93 10000 7.2 120 16:44 28.01.2020
16 Rain 4 992 93 10000 7.2 120 16:26 28.01.2020
17 Rain 4 992 93 10000 6.2 120 15:59 28.01.2020
18 Rain 4 993 93 8000 5.7 120 15:40 28.01.2020
19 Rain 4 993 93 8000 5.7 120 15:18 28.01.2020
20 Rain 4 993 93 5000 6.2 120 14:44 28.01.2020
21 Rain 4 993 93 4500 5.1 110 14:20 28.01.2020
22 Mist 4 993 93 4500 3.6 100 13:43 28.01.2020
23 Mist 4 994 93 3500 4.1 90 13:25 28.01.2020
24 Clouds 5 994 93 9000 4.1 90 12:56 28.01.2020
25 Mist 5 995 93 3600 3.6 100 12:38 28.01.2020
26 Mist 5 995 93 3600 3.6 100 12:20 28.01.2020
27 Clouds 4 995 93 10000 3.1 110 11:41 28.01.2020
28 Clouds 4 995 93 10000 3.1 110 11:22 28.01.2020
29 Clouds 4 996 100 10000 2.6 110 10:55 28.01.2020
30 Clouds 4 996 93 8000 2.1 110 10:36 28.01.2020
31 Clouds 4 996 93 8000 2.1 110 10:18 28.01.2020
32 Clouds 3 997 100 9000 3.1 150 09:42 28.01.2020
33 Clouds 3 997 100 9000 3.1 150 09:20 28.01.2020
34 Clouds 3 997 100 7000 2.1 160 08:46 28.01.2020
35 Clouds 3 997 100 5000 1.5 140 08:26 28.01.2020
36 Mist 3 997 100 3000 2.1 140 07:57 28.01.2020
37 Mist 3 997 100 3000 2.1 140 07:35 28.01.2020
38 Mist 2 997 100 3000 2.1 140 06:48 28.01.2020
39 Mist 2 997 100 3000 2.1 140 06:48 28.01.2020
40 Mist 2 997 100 1900 2.6 150 06:25 28.01.2020
41 Mist 2 997 100 5000 2.1 150 05:42 28.01.2020
42 Mist 2 997 100 7000 3.1 180 05:24 28.01.2020
43 Clouds 3 998 100 10000 1.5 0 03:51 28.01.2020
44 Clouds 4 998 93 10000 2.1 200 02:55 28.01.2020
45 Rain 4 998 100 10000 2.1 190 02:25 28.01.2020
46 Rain 4 998 100 10000 2.6 200 01:56 28.01.2020
47 Rain 4 998 100 10000 2.1 190 01:22 28.01.2020
48 Rain 4 998 100 10000 2.6 190 00:45 28.01.2020
49 Drizzle 4 999 100 10000 2.1 190 00:24 28.01.2020
50 Rain 4 999 100 10000 2.6 190 23:46 27.01.2020
51 Rain 4 999 100 10000 3.1 190 23:28 27.01.2020
52 Rain 4 999 100 10000 3.6 180 22:45 27.01.2020
53 Clouds 4 1000 100 6000 4.1 170 22:22 27.01.2020
54 Drizzle 4 1000 100 10000 3.6 160 21:59 27.01.2020
55 Drizzle 4 1000 93 8000 3.6 170 21:39 27.01.2020
56 Drizzle 4 1000 93 8000 3.6 170 21:19 27.01.2020
57 Drizzle 4 1000 93 8000 3.6 170 21:19 27.01.2020
58 Drizzle 4 1000 93 7000 3.1 170 20:59 27.01.2020
59 Drizzle 4 1001 93 7000 3.6 170 20:38 27.01.2020
60 Drizzle 4 1001 93 7000 3.6 170 20:20 27.01.2020
61 Clouds 4 1001 93 9000 3.1 160 19:57 27.01.2020
62 Clouds 4 1001 93 10000 4.1 160 19:39 27.01.2020
63 Clouds 4 1001 93 10000 4.1 160 19:21 27.01.2020
64 Clouds 4 1001 93 10000 4.1 170 18:54 27.01.2020
65 Clouds 4 1002 93 10000 4.1 160 18:36 27.01.2020
66 Clouds 4 1002 93 10000 4.1 160 18:18 27.01.2020
67 Clouds 4 1002 93 10000 4.1 180 17:39 27.01.2020
68 Clouds 4 1002 93 10000 4.1 180 17:19 27.01.2020
69 Clouds 4 1002 93 10000 4.1 180 16:56 27.01.2020
70 Clouds 4 1003 93 10000 3.6 200 16:37 27.01.2020
71 Clouds 4 1003 93 10000 3.6 200 16:19 27.01.2020
72 Clouds 5 1003 86 10000 4.1 180 15:54 27.01.2020
73 Clouds 5 1003 86 10000 3.6 170 15:36 27.01.2020
74 Clouds 5 1003 86 10000 3.6 170 15:18 27.01.2020
75 Clouds 5 1003 86 10000 3.1 160 14:40 27.01.2020
76 Clouds 5 1003 86 10000 3.1 160 14:21 27.01.2020
77 Clouds 5 1004 93 10000 3.1 160 13:54 27.01.2020
78 Clouds 5 1004 93 10000 3.1 170 13:36 27.01.2020
79 Clouds 5 1004 93 10000 3.6 170 13:18 27.01.2020
80 Clouds 5 1005 87 10000 3.6 180 12:41 27.01.2020
81 Clouds 6 1005 87 10000 3.6 180 12:22 27.01.2020
82 Clouds 5 1005 93 10000 2.6 170 11:43 27.01.2020
83 Clouds 5 1005 93 10000 2.6 170 11:23 27.01.2020
84 Clouds 5 1005 93 10000 2.6 170 10:57 27.01.2020
85 Clouds 5 1005 93 10000 2.6 170 10:57 27.01.2020
86 Clouds 5 1005 93 10000 2.6 170 10:57 27.01.2020
87 Clouds 5 1006 93 10000 2.1 170 10:39 27.01.2020
88 Clouds 5 1006 93 10000 2.1 170 10:20 27.01.2020
89 Clouds 5 1006 86 10000 2.1 170 09:40 27.01.2020
90 Clouds 5 1006 86 10000 2.1 170 09:19 27.01.2020
91 Clouds 5 1006 86 10000 2.1 160 08:57 27.01.2020
92 Clouds 5 1006 93 10000 2.1 170 08:39 27.01.2020
93 Clouds 5 1006 93 10000 2.1 170 08:19 27.01.2020
94 Clouds 5 1006 93 10000 1.5 0 07:47 27.01.2020
95 Clouds 5 1006 93 10000 1.5 0 07:47 27.01.2020
96 Clouds 5 1006 93 10000 1.5 170 07:29 27.01.2020
97 Clouds 5 1007 93 10000 2.1 200 06:38 27.01.2020
98 Clouds 5 1007 93 10000 2.1 200 05:51 27.01.2020
99 Clouds 5 1007 93 10000 2.6 220 05:18 27.01.2020
100 Clouds 5 1007 87 10000 3.1 230 03:35 27.01.2020
101 Clouds 6 1008 87 10000 2.6 230 01:56 27.01.2020
102 Clouds 6 1007 81 10000 2.6 220 01:27 27.01.2020
103 Clouds 5 1007 81 10000 2.6 230 00:42 27.01.2020
104 Clouds 5 1007 81 10000 2.6 230 00:22 27.01.2020
105 Clouds 5 1007 81 10000 2.6 220 23:44 26.01.2020
106 Clouds 5 1007 75 10000 2.1 230 23:26 26.01.2020
107 Clouds 5 1007 75 10000 3.6 250 22:59 26.01.2020
108 Clouds 5 1007 75 10000 2.6 240 22:39 26.01.2020
109 Clouds 5 1007 75 10000 2.6 240 22:20 26.01.2020
110 Clouds 6 1007 75 10000 2.6 230 21:58 26.01.2020
111 Clouds 6 1007 81 10000 4.1 250 21:39 26.01.2020
112 Clouds 6 1007 81 10000 4.1 250 21:21 26.01.2020
113 Clouds 6 1007 81 10000 3.6 240 20:58 26.01.2020
114 Clouds 6 1007 81 10000 3.6 250 20:38 26.01.2020
115 Clouds 6 1007 81 10000 3.6 250 20:19 26.01.2020
116 Clouds 6 1007 81 10000 4.1 240 19:59 26.01.2020
117 Clouds 6 1007 81 10000 4.1 240 19:59 26.01.2020
118 Clouds 6 1007 81 10000 3.1 250 19:39 26.01.2020
119 Clouds 6 1007 81 10000 3.1 250 19:21 26.01.2020
120 Clouds 6 1007 81 10000 2.6 250 18:56 26.01.2020
121 Clouds 6 1007 81 10000 3.1 250 18:38 26.01.2020
122 Clouds 6 1007 81 10000 3.1 250 18:20 26.01.2020
123 Clouds 6 1007 81 10000 4.1 250 17:55 26.01.2020
124 Clouds 6 1007 81 10000 4.1 250 17:37 26.01.2020
125 Clouds 6 1007 81 10000 3.1 260 17:18 26.01.2020
126 Clouds 6 1007 81 10000 3.1 260 16:56 26.01.2020
127 Clouds 6 1007 81 10000 3.6 250 16:38 26.01.2020
128 Clouds 6 1001 83 0 3.13 270 16:19 26.01.2020
129 Clouds 7 1001 84 0 2.24 270 15:43 26.01.2020
130 Clouds 6 1009 81 0 2.24 247 15:21 26.01.2020
131 Clouds 6 1005 72 0 3.58 244 14:58 26.01.2020
132 Clouds 7 1000 84 0 4.02 270 14:38 26.01.2020
133 Clouds 7 1009 81 0 2.68 247 14:19 26.01.2020
134 Clouds 7 1000 83 0 3.13 270 13:40 26.01.2020
135 Clouds 7 1000 83 0 4.02 270 13:19 26.01.2020
136 Clouds 7 1000 83 0 1.79 270 12:56 26.01.2020
137 Clouds 7 1007 77 0 5.01 267 12:37 26.01.2020
138 Clouds 7 1006 77 0 5.01 267 12:19 26.01.2020
139 Clouds 7 1006 77 0 5.01 267 11:57 26.01.2020
140 Clouds 7 1004 73 0 3.58 237 11:36 26.01.2020
141 Clouds 7 1005 81 10000 5.7 250 11:18 26.01.2020
142 Clouds 7 1005 81 10000 5.7 250 10:55 26.01.2020
143 Clouds 7 1005 81 10000 5.7 250 10:37 26.01.2020
144 Clouds 7 1005 81 10000 5.7 250 10:18 26.01.2020
145 Clouds 6 1005 81 10000 5.7 260 09:41 26.01.2020
146 Clouds 6 1005 87 10000 5.1 260 09:23 26.01.2020
147 Clouds 6 1005 87 10000 5.1 250 08:57 26.01.2020
148 Clouds 6 1005 87 10000 6.2 260 08:39 26.01.2020
149 Clouds 6 1005 87 10000 6.2 260 08:21 26.01.2020
150 Clouds 6 1005 87 10000 7.7 260 07:50 26.01.2020
151 Clouds 6 1005 87 10000 8.7 260 07:26 26.01.2020
152 Clouds 6 1005 81 10000 8.2 260 06:40 26.01.2020
153 Clouds 7 1005 81 10000 7.7 260 06:22 26.01.2020
154 Clouds 7 1004 81 10000 5.1 260 05:27 26.01.2020
155 Clouds 5 1004 87 10000 6.7 240 03:23 26.01.2020
156 Clouds 5 1005 86 10000 4.6 230 02:38 26.01.2020
157 Clouds 4 1005 86 10000 5.1 230 01:43 26.01.2020
158 Clouds 4 1005 86 10000 4.1 220 01:22 26.01.2020
159 Clouds 4 1006 86 10000 5.1 230 00:41 26.01.2020
160 Clouds 4 1006 86 10000 5.1 230 00:20 26.01.2020
161 Clouds 4 1009 86 0 3.58 270 23:38 25.01.2020
162 Clouds 4 1008 86 0 2.68 225 23:20 25.01.2020
163 Clouds 3 1001 90 0 1.34 247 22:45 25.01.2020
164 Clouds 3 1001 91 0 1.34 270 22:21 25.01.2020
165 Clouds 3 1001 91 0 1.79 247 21:59 25.01.2020
166 Clouds 3 1001 90 0 1.34 270 21:41 25.01.2020
167 Clouds 2 1007 91 0 5.02 226 21:22 25.01.2020
168 Clouds 2 1002 90 0 1.34 247 20:55 25.01.2020
169 Clouds 2 1010 86 0 1.34 225 20:36 25.01.2020
170 Clouds 1 1009 91 0 3.25 216 20:18 25.01.2020
171 Clouds 1 1010 80 0 3.25 216 19:42 25.01.2020
172 Clouds 1 1010 80 0 3.25 216 19:20 25.01.2020
173 Clouds 1 1010 80 0 3.25 216 18:56 25.01.2020
174 Clouds 1 1011 84 0 0.45 225 18:38 25.01.2020
175 Clouds 1 1010 80 0 3.25 216 18:20 25.01.2020
176 Clouds 1 1003 89 0 0.89 247 17:40 25.01.2020
177 Clouds 1 1012 83 0 2.16 221 17:19 25.01.2020
178 Clouds 1 1012 81 0 2.16 221 16:57 25.01.2020
179 Clouds 1 1009 70 0 0.45 135 16:38 25.01.2020
180 Clouds 2 1012 79 0 2.16 221 16:19 25.01.2020
181 Clouds 2 1009 64 0 2.16 221 15:46 25.01.2020
182 Clouds 3 1012 78 0 2.16 221 15:25 25.01.2020
183 Clouds 3 1004 78 0 0.45 247 14:57 25.01.2020
184 Clouds 4 1008 61 0 3.13 196 14:39 25.01.2020
185 Clouds 4 1010 71 0 2.92 265 14:18 25.01.2020
186 Clouds 4 1010 69 0 2.92 265 13:42 25.01.2020
187 Clouds 4 1004 68 0 1.34 270 13:22 25.01.2020
188 Clouds 4 1009 69 10000 2.6 270 12:45 25.01.2020
189 Clouds 4 1009 69 10000 2.6 270 12:25 25.01.2020
190 Clouds 3 1009 69 10000 2.6 270 11:45 25.01.2020
191 Clouds 3 1009 74 10000 2.1 270 11:22 25.01.2020
192 Clouds 3 1009 74 10000 2.1 270 11:22 25.01.2020
193 Clouds 2 1009 80 10000 2.6 260 10:59 25.01.2020
194 Clouds 2 1008 80 10000 2.1 250 10:40 25.01.2020
195 Clouds 2 1008 80 10000 2.1 250 10:20 25.01.2020
196 Clouds 1 1008 76 10000 1.5 250 09:41 25.01.2020
197 Clouds 1 1008 76 10000 1.5 250 09:22 25.01.2020
198 Clouds 1 1007 80 10000 2.1 260 08:47 25.01.2020
199 Clouds 1 1007 80 10000 2.1 260 08:28 25.01.2020
200 Clouds 1 1007 86 10000 2.6 260 07:50 25.01.2020
201 Clouds 1 1006 80 10000 1.5 250 06:53 25.01.2020
202 Clouds 1 1006 80 10000 2.1 260 06:28 25.01.2020
203 Clouds 1 1006 74 10000 3.1 270 05:48 25.01.2020
204 Clouds 1 1005 74 10000 3.6 270 05:18 25.01.2020
205 Clouds 2 1005 80 10000 3.6 280 03:51 25.01.2020
206 Clouds 2 1005 80 10000 4.1 290 03:19 25.01.2020
207 Clear 2 1004 74 10000 5.7 280 02:20 25.01.2020
208 Clear 3 1004 74 10000 5.7 280 01:48 25.01.2020
209 Clear 3 1004 67 10000 6.2 280 00:44 25.01.2020
210 Clear 3 1003 67 10000 6.2 270 00:26 25.01.2020
211 Clear 3 1003 67 10000 5.1 260 23:58 24.01.2020
212 Clear 3 1003 80 10000 5.1 260 23:40 24.01.2020
213 Clear 3 1003 80 10000 5.1 260 23:40 24.01.2020
214 Clear 3 1003 80 10000 5.1 260 23:22 24.01.2020
215 Clear 4 1003 80 10000 5.7 260 22:44 24.01.2020
216 Clear 4 1003 75 10000 5.7 260 22:25 24.01.2020
217 Clear 4 1002 86 10000 5.1 260 21:43 24.01.2020
218 Clear 4 1003 86 10000 5.7 260 21:21 24.01.2020
219 Clear 4 1003 80 10000 5.1 260 20:59 24.01.2020
220 Clear 4 1003 86 10000 5.1 250 20:40 24.01.2020
221 Clear 4 1003 86 10000 5.1 250 20:20 24.01.2020
222 Clear 4 1003 86 10000 5.1 240 19:57 24.01.2020
223 Clear 4 1003 86 10000 3.6 250 19:38 24.01.2020
224 Clear 4 1003 86 10000 3.6 250 19:20 24.01.2020
225 Clear 4 1003 86 10000 3.6 240 18:43 24.01.2020
226 Clear 4 1003 80 10000 3.6 250 18:24 24.01.2020
227 Clear 4 1003 86 10000 3.6 240 17:56 24.01.2020
228 Clear 5 1003 80 10000 3.6 240 17:38 24.01.2020
229 Clear 5 1003 80 10000 3.6 240 17:18 24.01.2020
230 Clear 5 1003 75 10000 3.6 260 16:39 24.01.2020
231 Clear 5 1003 75 10000 3.6 260 16:20 24.01.2020
232 Clear 6 1003 75 10000 3.6 250 15:43 24.01.2020
233 Clear 6 1003 75 10000 3.6 250 15:23 24.01.2020
234 Clear 6 1003 75 10000 4.1 260 14:58 24.01.2020
235 Clear 7 1003 75 10000 4.6 260 14:40 24.01.2020
236 Clouds 7 1003 75 10000 4.6 260 14:21 24.01.2020
237 Clouds 7 1004 75 10000 4.6 250 13:43 24.01.2020
238 Clouds 7 1004 75 10000 4.6 250 13:23 24.01.2020
239 Clouds 7 1004 81 10000 4.6 250 12:44 24.01.2020
240 Clouds 7 1004 81 10000 4.6 250 12:23 24.01.2020
241 Clouds 7 1004 81 10000 5.7 270 11:57 24.01.2020
242 Clouds 7 1004 81 10000 5.1 260 11:39 24.01.2020
243 Clouds 6 1004 81 10000 5.1 260 11:18 24.01.2020
244 Clouds 6 1004 87 10000 4.1 250 10:42 24.01.2020
245 Clouds 6 1004 87 10000 4.1 250 10:20 24.01.2020
246 Clouds 6 1004 87 10000 4.1 250 09:54 24.01.2020
247 Clouds 5 1004 87 10000 4.1 250 09:36 24.01.2020
248 Clouds 5 1004 87 10000 4.1 250 09:18 24.01.2020
249 Clouds 5 1004 86 10000 5.7 240 08:39 24.01.2020
250 Clouds 5 1004 86 10000 5.7 240 08:18 24.01.2020
251 Clouds 5 1004 86 10000 5.7 230 07:47 24.01.2020
252 Clouds 5 1004 81 10000 4.6 240 07:22 24.01.2020
253 Clouds 5 1004 81 10000 4.6 240 07:22 24.01.2020
254 Clouds 5 1004 81 10000 5.1 250 06:43 24.01.2020
255 Clouds 5 1004 86 10000 5.1 250 06:23 24.01.2020
256 Clouds 5 1005 86 10000 2.6 240 05:33 24.01.2020
257 Clouds 5 1006 86 10000 2.1 190 03:36 24.01.2020
258 Clouds 6 1006 87 10000 6.7 250 02:40 24.01.2020
259 Clouds 6 1006 87 10000 5.1 250 02:21 24.01.2020
260 Clouds 6 1006 81 10000 5.7 250 01:39 24.01.2020
261 Clouds 6 1006 87 10000 5.1 250 00:49 24.01.2020
262 Clouds 6 1006 87 10000 5.1 250 00:19 24.01.2020
263 Clouds 6 1006 86 10000 6.7 240 23:42 23.01.2020
264 Clouds 6 1006 86 10000 6.7 240 23:22 23.01.2020
265 Clouds 6 1008 87 10000 4.1 260 22:58 23.01.2020
266 Clouds 5 1008 93 10000 3.6 240 22:37 23.01.2020
267 Clouds 5 1008 93 10000 3.6 240 22:37 23.01.2020
268 Clouds 5 1008 93 10000 3.6 240 22:18 23.01.2020
269 Clouds 5 1008 93 10000 3.6 240 21:55 23.01.2020
270 Clouds 5 1008 93 10000 3.1 230 21:37 23.01.2020
271 Clouds 5 1008 93 10000 3.1 230 21:19 23.01.2020
272 Clouds 5 1009 93 10000 4.1 240 20:55 23.01.2020
273 Clouds 5 1009 93 10000 2.6 220 20:37 23.01.2020
274 Clouds 5 1009 93 10000 2.6 220 20:18 23.01.2020
275 Clouds 4 1009 93 10000 3.6 260 19:42 23.01.2020
276 Clouds 4 1009 93 10000 3.6 260 19:23 23.01.2020
277 Clouds 4 1010 86 10000 3.6 240 18:58 23.01.2020
278 Clouds 4 1010 86 10000 4.6 240 18:38 23.01.2020
279 Clouds 4 1010 86 10000 4.6 240 18:19 23.01.2020
280 Clouds 3 1010 86 10000 4.6 240 17:55 23.01.2020
281 Clouds 3 1011 86 10000 4.1 230 17:37 23.01.2020
282 Clouds 3 1011 86 10000 4.1 230 17:18 23.01.2020
283 Clouds 3 1011 87 10000 4.1 240 16:39 23.01.2020
284 Clouds 3 1011 87 10000 4.1 240 16:20 23.01.2020
285 Clouds 3 1011 87 10000 4.1 240 16:20 23.01.2020
286 Clouds 3 1012 87 10000 5.1 230 15:58 23.01.2020
287 Clouds 3 1012 87 10000 4.6 240 15:39 23.01.2020
288 Clouds 4 1012 87 10000 4.6 240 15:19 23.01.2020
289 Clouds 3 1013 69 10000 4.1 240 14:58 23.01.2020
290 Clouds 3 1013 69 10000 4.1 230 14:40 23.01.2020
291 Clouds 3 1013 69 10000 4.1 230 14:22 23.01.2020
292 Clouds 3 1013 69 10000 4.1 240 13:55 23.01.2020
293 Clouds 3 1015 64 10000 4.1 240 13:37 23.01.2020
294 Clouds 3 1015 64 10000 4.1 230 13:18 23.01.2020
295 Clouds 2 1016 69 10000 4.1 220 12:42 23.01.2020
296 Clouds 2 1016 69 10000 4.1 220 12:24 23.01.2020
297 Clouds 2 1017 74 10000 3.6 210 11:56 23.01.2020
298 Clouds 2 1017 69 10000 4.1 220 11:37 23.01.2020
299 Clouds 1 1017 69 10000 4.1 220 11:18 23.01.2020
300 Clouds 0 1018 56 10000 4.6 220 10:42 23.01.2020
301 Clouds 0 1018 56 10000 4.6 220 10:19 23.01.2020
302 Clouds -1 1019 74 10000 2.6 210 09:42 23.01.2020
303 Clouds -1 1019 74 10000 2.6 210 09:24 23.01.2020
304 Clouds -1 1020 79 10000 2.6 220 08:58 23.01.2020
305 Clouds -1 1021 79 10000 1.5 210 08:40 23.01.2020
306 Clear -2 1021 79 10000 1.5 210 08:21 23.01.2020
307 Clear -2 1021 86 10000 2.1 200 07:44 23.01.2020
308 Clear -2 1022 79 10000 2.6 220 07:24 23.01.2020
309 Clear -2 1022 79 10000 2.6 220 06:51 23.01.2020
310 Clear -2 1023 86 10000 1.5 220 06:20 23.01.2020
311 Clear -1 1024 80 10000 2.6 250 04:58 23.01.2020
312 Clear -1 1024 80 10000 2.6 250 04:22 23.01.2020
313 Clear -1 1025 72 10000 2.6 240 02:31 23.01.2020
314 Clear 0 1025 70 10000 3.6 260 00:56 23.01.2020
315 Clear 0 1025 69 10000 3.1 270 00:26 23.01.2020
316 Clear 0 1025 69 10000 3.6 280 23:47 22.01.2020
317 Clear 1 1025 69 10000 3.1 290 23:29 22.01.2020
318 Clear 1 1025 69 10000 3.1 270 22:58 22.01.2020
319 Clear 1 1025 69 10000 3.6 290 22:39 22.01.2020
320 Clear 1 1025 69 10000 3.6 290 22:21 22.01.2020
321 Clear 1 1024 64 10000 4.6 280 21:39 22.01.2020
322 Clear 1 1024 64 10000 4.6 280 21:21 22.01.2020
323 Clear 2 1024 69 10000 4.6 290 20:56 22.01.2020
324 Clear 2 1024 69 10000 5.1 280 20:37 22.01.2020
325 Clear 2 1024 69 10000 5.1 280 20:18 22.01.2020
326 Clear 2 1024 69 10000 5.1 290 19:55 22.01.2020
327 Clear 2 1024 69 10000 4.6 280 19:37 22.01.2020
328 Clear 2 1024 69 10000 4.6 280 19:18 22.01.2020
329 Clear 2 1023 64 10000 4.1 280 18:56 22.01.2020
330 Clear 2 1023 64 10000 3.6 280 18:37 22.01.2020
331 Clear 2 1023 64 10000 3.6 280 18:18 22.01.2020
332 Clouds 3 1022 64 10000 3.6 290 17:40 22.01.2020
333 Clouds 3 1022 64 10000 5.1 300 17:21 22.01.2020
334 Clouds 3 1022 64 10000 5.1 300 16:58 22.01.2020
335 Clear 3 1022 64 10000 5.1 300 16:39 22.01.2020
336 Clear 3 1022 64 10000 5.1 300 16:21 22.01.2020
337 Clear 4 1021 60 10000 5.1 310 15:56 22.01.2020
338 Clear 4 1020 60 10000 6.2 310 15:38 22.01.2020
339 Clouds 4 1020 56 10000 6.2 310 15:18 22.01.2020
340 Clouds 4 1019 56 10000 5.7 320 14:39 22.01.2020
341 Clouds 4 1019 56 10000 5.7 320 14:20 22.01.2020
342 Clouds 4 1019 60 10000 5.7 310 13:58 22.01.2020
343 Clouds 4 1018 52 10000 6.7 310 13:38 22.01.2020
344 Clouds 4 1018 52 10000 6.7 310 13:19 22.01.2020
345 Clear 4 1018 55 10000 5.7 300 12:57 22.01.2020
346 Clear 4 1017 55 10000 6.7 300 12:39 22.01.2020
347 Clear 4 1017 55 10000 6.7 300 12:19 22.01.2020
348 Clear 4 1017 55 10000 7.2 280 11:58 22.01.2020
349 Clear 4 1016 59 10000 8.2 290 11:39 22.01.2020
350 Clear 4 1016 59 10000 8.2 290 11:19 22.01.2020
351 Clear 3 1016 59 10000 8.2 280 10:46 22.01.2020
352 Clear 3 1016 59 10000 7.7 280 10:21 22.01.2020
353 Clear 3 1015 59 10000 8.2 280 09:59 22.01.2020
354 Clear 3 1015 59 10000 8.2 280 09:40 22.01.2020
355 Clear 3 1014 59 10000 8.2 280 09:22 22.01.2020
356 Clear 3 1014 59 10000 8.2 280 08:56 22.01.2020
357 Clear 3 1014 59 10000 9.3 280 08:37 22.01.2020
358 Clouds 3 1014 59 10000 9.3 280 08:19 22.01.2020
359 Clouds 3 1013 59 10000 8.7 280 07:44 22.01.2020
360 Clouds 3 1013 59 10000 8.7 280 07:26 22.01.2020
361 Clouds 4 1013 55 10000 8.2 280 06:36 22.01.2020
362 Clouds 4 1013 60 10000 8.2 280 05:57 22.01.2020
363 Clouds 4 1013 56 10000 9.8 280 04:26 22.01.2020
364 Clouds 5 1013 56 10000 8.7 280 03:27 22.01.2020
365 Clouds 5 1013 56 10000 7.2 280 02:48 22.01.2020
366 Clouds 5 1013 52 10000 6.2 270 00:47 22.01.2020
367 Clouds 5 1013 52 10000 5.1 270 00:28 22.01.2020
368 Clouds 5 1013 52 10000 5.7 270 23:59 21.01.2020
369 Clouds 6 1014 52 10000 5.7 270 23:37 21.01.2020
370 Clouds 6 1014 52 10000 5.7 270 23:19 21.01.2020
371 Clouds 6 1015 60 10000 5.1 250 22:41 21.01.2020
372 Clouds 6 1015 60 10000 5.1 250 22:23 21.01.2020
373 Clouds 6 1015 60 10000 4.6 260 21:58 21.01.2020
374 Clouds 6 1016 60 10000 4.6 260 21:39 21.01.2020
375 Clouds 6 1016 60 10000 4.6 260 21:20 21.01.2020
376 Clouds 6 1016 60 10000 5.1 260 20:57 21.01.2020
377 Clouds 6 1016 60 10000 4.6 260 20:39 21.01.2020
378 Clouds 6 1016 69 10000 4.6 260 20:20 21.01.2020
379 Clouds 6 1017 75 10000 4.1 260 19:58 21.01.2020
380 Clouds 6 1017 81 10000 3.1 250 19:39 21.01.2020
381 Clouds 6 1017 81 10000 3.1 250 19:20 21.01.2020
382 Clouds 5 1018 86 10000 3.1 250 18:56 21.01.2020
383 Clouds 6 1018 81 10000 3.6 260 18:38 21.01.2020
384 Clouds 6 1018 81 10000 3.6 260 18:20 21.01.2020
385 Clouds 6 1019 81 10000 4.1 260 17:45 21.01.2020
386 Clouds 6 1019 70 10000 4.6 270 17:21 21.01.2020
387 Clouds 6 1019 75 10000 4.6 280 16:59 21.01.2020
388 Clouds 6 1019 75 10000 4.6 280 16:59 21.01.2020
389 Clouds 6 1019 75 10000 4.1 270 16:37 21.01.2020
390 Clouds 7 1019 75 10000 4.1 270 16:19 21.01.2020
391 Clouds 6 1018 81 10000 2.1 240 15:56 21.01.2020
392 Clouds 6 1018 75 10000 3.1 260 15:37 21.01.2020
393 Clouds 6 1018 75 10000 3.1 260 15:18 21.01.2020
394 Clouds 7 1018 65 10000 4.6 260 14:39 21.01.2020
395 Rain 7 1018 65 10000 4.6 260 14:20 21.01.2020
396 Rain 7 1018 70 10000 4.1 270 13:42 21.01.2020
397 Rain 8 1018 70 10000 4.1 270 13:20 21.01.2020
398 Rain 7 1018 70 10000 4.1 280 12:57 21.01.2020
399 Clouds 7 1018 75 10000 4.1 270 12:39 21.01.2020
400 Clouds 8 1018 75 10000 4.1 270 12:20 21.01.2020
401 Clouds 7 1018 87 10000 5.1 290 11:41 21.01.2020
402 Clouds 7 1018 87 10000 5.1 290 11:22 21.01.2020
403 Drizzle 8 1018 81 10000 8.2 270 11:00 21.01.2020
404 Clouds 7 1017 81 10000 6.7 270 10:41 21.01.2020
405 Clouds 7 1017 81 10000 6.7 270 10:22 21.01.2020
406 Clouds 7 1016 81 10000 6.7 270 09:43 21.01.2020
407 Clouds 7 1016 87 10000 5.1 270 09:23 21.01.2020
408 Clouds 7 1015 87 10000 6.7 260 08:56 21.01.2020
409 Clouds 7 1015 87 10000 7.7 260 08:38 21.01.2020
410 Clouds 7 1015 81 10000 6.7 270 08:19 21.01.2020
411 Clouds 7 1015 87 10000 6.2 260 07:41 21.01.2020
412 Clouds 7 1015 87 10000 6.2 260 07:22 21.01.2020
413 Clouds 8 1015 81 10000 8.7 260 06:55 21.01.2020
414 Clouds 8 1015 81 10000 10.3 260 06:37 21.01.2020
415 Clouds 8 1015 81 10000 7.7 260 05:44 21.01.2020
416 Clear 8 1015 81 10000 8.2 250 04:41 21.01.2020
417 Clear 8 1016 87 10000 7.7 260 03:40 21.01.2020
418 Clear 8 1017 87 10000 6.2 250 02:26 21.01.2020
419 Clouds 7 1018 87 10000 7.2 250 01:28 21.01.2020
420 Clear 7 1018 87 10000 7.2 250 00:40 21.01.2020
421 Clear 7 1019 87 10000 6.2 250 23:59 20.01.2020
422 Clear 7 1020 81 10000 6.7 240 23:41 20.01.2020
423 Clear 7 1020 81 10000 6.2 250 23:19 20.01.2020
424 Clear 7 1020 81 10000 6.2 250 22:58 20.01.2020
425 Clear 6 1020 87 10000 8.7 250 22:38 20.01.2020
426 Clear 6 1020 87 10000 8.7 250 22:20 20.01.2020
427 Clear 6 1020 87 10000 8.7 250 22:20 20.01.2020
428 Clear 6 1021 87 10000 6.2 250 21:58 20.01.2020
429 Clear 6 1021 81 10000 6.7 260 21:37 20.01.2020
430 Clear 6 1021 81 10000 6.7 260 21:19 20.01.2020
431 Clear 6 1021 81 10000 5.7 250 20:57 20.01.2020
432 Clear 6 1022 81 10000 5.7 250 20:38 20.01.2020
433 Clouds 6 1022 81 10000 5.7 250 20:18 20.01.2020
434 Clouds 6 1022 81 10000 5.7 240 19:56 20.01.2020
435 Clouds 6 1022 81 10000 5.1 240 19:38 20.01.2020
436 Clouds 6 1022 81 10000 5.1 240 19:18 20.01.2020
437 Clouds 6 1023 81 10000 6.2 240 18:44 20.01.2020
438 Clouds 5 1023 81 10000 5.1 250 18:23 20.01.2020
439 Clouds 5 1023 81 10000 6.2 240 17:58 20.01.2020
440 Clouds 5 1023 75 10000 6.2 240 17:36 20.01.2020
441 Clouds 5 1023 75 10000 6.2 240 17:18 20.01.2020
442 Clouds 5 1024 80 10000 4.1 240 16:43 20.01.2020
443 Clouds 5 1024 80 10000 4.1 240 16:43 20.01.2020
444 Clouds 5 1024 80 10000 4.1 240 16:25 20.01.2020
445 Clouds 5 1024 80 10000 5.7 230 15:58 20.01.2020
446 Clouds 5 1025 80 10000 5.1 240 15:39 20.01.2020
447 Clouds 5 1025 80 10000 5.1 240 15:21 20.01.2020
448 Clouds 5 1025 80 10000 6.2 240 14:42 20.01.2020
449 Clouds 5 1025 80 10000 6.2 240 14:24 20.01.2020
450 Clouds 5 1026 80 10000 5.7 250 13:59 20.01.2020
451 Clouds 5 1026 75 10000 7.2 250 13:40 20.01.2020
452 Clouds 5 1026 75 10000 7.2 250 13:22 20.01.2020
453 Clouds 5 1026 75 10000 5.1 250 12:47 20.01.2020
454 Clouds 4 1027 80 10000 6.7 240 12:29 20.01.2020
455 Clouds 4 1027 80 10000 5.1 240 11:59 20.01.2020
456 Clouds 4 1027 80 10000 5.1 240 11:40 20.01.2020
457 Clouds 4 1027 80 10000 5.1 240 11:21 20.01.2020
458 Clouds 3 1027 74 10000 4.6 230 10:55 20.01.2020
459 Clouds 3 1028 74 10000 3.1 230 10:37 20.01.2020
460 Clouds 3 1028 74 10000 3.1 230 10:37 20.01.2020
461 Clouds 3 1028 74 10000 3.1 230 10:18 20.01.2020
462 Clouds 2 1028 74 10000 3.1 220 09:40 20.01.2020
463 Clouds 2 1028 74 10000 3.1 220 09:40 20.01.2020
464 Clouds 2 1028 74 10000 3.1 220 09:20 20.01.2020
465 Clouds 2 1029 69 10000 3.6 220 08:46 20.01.2020
466 Clouds 2 1029 69 10000 3.6 220 08:28 20.01.2020
467 Clouds 1 1029 74 10000 4.1 210 07:46 20.01.2020
468 Clouds 1 1029 74 10000 4.1 210 07:26 20.01.2020
469 Clouds 1 1029 74 10000 3.1 220 06:54 20.01.2020
470 Clouds 1 1030 69 10000 3.6 220 06:28 20.01.2020
471 Clouds 1 1030 74 10000 3.6 230 05:43 20.01.2020
472 Clouds 1 1030 74 10000 3.6 230 05:43 20.01.2020
473 Clouds 1 1030 74 10000 3.6 230 05:43 20.01.2020
474 Clouds 1 1030 74 10000 3.6 230 05:22 20.01.2020
475 Clouds 1 1030 74 10000 3.1 240 04:47 20.01.2020
476 Clouds 1 1032 74 10000 3.6 240 02:58 20.01.2020
477 Clouds 1 1032 74 10000 3.6 240 02:58 20.01.2020
478 Clouds 1 1031 80 10000 2.6 230 01:55 20.01.2020
479 Clouds 1 1032 80 10000 3.1 240 01:37 20.01.2020
480 Clouds 1 1032 80 10000 2.6 230 00:45 20.01.2020
481 Clouds 1 1032 80 10000 2.6 230 00:24 20.01.2020
482 Clouds 1 1032 80 10000 2.6 250 23:39 19.01.2020
483 Clouds 1 1032 80 10000 2.6 250 23:20 19.01.2020
484 Clouds 1 1032 80 10000 2.6 250 23:20 19.01.2020
485 Clouds 1 1032 80 10000 3.1 260 22:57 19.01.2020
486 Clouds 1 1031 74 10000 2.6 260 22:39 19.01.2020
487 Clouds 1 1031 74 10000 2.6 260 22:39 19.01.2020
488 Clouds 1 1031 74 10000 3.1 270 22:20 19.01.2020
489 Clouds 1 1031 74 10000 2.6 260 22:20 19.01.2020
490 Clouds 1 1031 74 10000 3.1 270 21:57 19.01.2020
491 Clouds 1 1030 80 10000 3.6 270 21:38 19.01.2020
492 Clouds 1 1030 80 10000 3.6 270 21:20 19.01.2020
493 Clouds 2 1030 80 10000 3.6 270 20:57 19.01.2020
494 Clouds 2 1030 80 10000 3.1 260 20:39 19.01.2020
495 Clear 2 1030 80 10000 3.1 260 20:20 19.01.2020
496 Clear 2 1030 80 10000 3.1 260 19:57 19.01.2020
497 Clear 2 1030 80 10000 2.6 250 19:39 19.01.2020
498 Clear 2 1030 80 10000 2.6 250 19:39 19.01.2020
499 Clear 2 1030 80 10000 2.6 250 19:20 19.01.2020
500 Clear 2 1030 80 10000 2.6 250 19:20 19.01.2020
501 Clear 2 1029 74 10000 3.1 240 18:57 19.01.2020
502 Clear 2 1029 74 10000 3.6 270 18:38 19.01.2020
503 Clear 2 1029 74 10000 3.6 270 18:20 19.01.2020
504 Clear 3 1028 74 10000 4.1 250 17:58 19.01.2020
505 Clear 3 1028 74 10000 3.1 250 17:40 19.01.2020
506 Clear 3 1028 74 10000 3.1 250 17:40 19.01.2020
507 Clear 3 1028 74 10000 3.1 250 17:21 19.01.2020
508 Clear 3 1027 69 10000 3.1 250 16:59 19.01.2020
509 Clear 3 1027 69 10000 3.1 250 16:59 19.01.2020
510 Clear 3 1027 69 10000 4.1 260 16:39 19.01.2020
511 Clear 3 1027 69 10000 4.1 260 16:21 19.01.2020
512 Clear 4 1026 69 10000 3.6 270 15:58 19.01.2020
513 Clear 4 1026 65 10000 3.6 270 15:38 19.01.2020
514 Clear 4 1026 65 10000 3.6 270 15:20 19.01.2020
515 Clear 5 1025 65 10000 3.1 260 14:58 19.01.2020
516 Clear 5 1025 65 10000 4.1 260 14:39 19.01.2020
517 Clear 5 1025 63 10000 4.1 260 14:18 19.01.2020
518 Clear 5 1025 63 10000 5.1 260 13:57 19.01.2020
519 Clear 5 1024 63 10000 4.1 260 13:38 19.01.2020
520 Clear 5 1024 61 10000 4.1 260 13:19 19.01.2020
521 Clear 4 1024 61 10000 4.6 260 12:55 19.01.2020
522 Clear 4 1023 61 10000 4.1 260 12:37 19.01.2020
523 Clear 4 1023 61 10000 4.1 260 12:19 19.01.2020
524 Clear 3 1022 86 10000 4.1 250 11:42 19.01.2020
525 Clear 3 1022 86 10000 4.1 250 11:20 19.01.2020
526 Clear 3 1022 86 10000 3.6 260 10:56 19.01.2020
527 Clear 3 1022 86 10000 3.6 260 10:56 19.01.2020
528 Clear 2 1021 93 10000 3.1 260 10:38 19.01.2020
529 Clear 2 1021 93 10000 3.1 260 10:19 19.01.2020
530 Clear 2 1020 93 10000 2.6 240 09:56 19.01.2020
531 Clear 2 1020 93 10000 2.6 240 09:56 19.01.2020
532 Clear 2 1020 93 10000 3.6 240 09:37 19.01.2020
533 Clear 2 1020 93 10000 3.6 240 09:18 19.01.2020
534 Clear 2 1019 93 10000 3.1 260 08:48 19.01.2020
535 Clear 2 1018 93 10000 3.1 230 08:28 19.01.2020
536 Clouds 2 1018 93 10000 2.6 250 07:45 19.01.2020
537 Clouds 2 1017 93 10000 2.6 260 07:26 19.01.2020
538 Clouds 2 1016 93 10000 2.6 250 06:54 19.01.2020
539 Clouds 3 1016 93 10000 2.6 260 06:21 19.01.2020
540 Clouds 5 1012 86 10000 3.6 250 03:28 19.01.2020
541 Clouds 5 1010 86 10000 4.6 240 02:26 19.01.2020
542 Clouds 5 1009 86 10000 3.6 230 01:38 19.01.2020
543 Clouds 5 1009 86 10000 3.1 230 01:18 19.01.2020
544 Clouds 5 1009 86 10000 3.1 230 00:41 19.01.2020
545 Clouds 5 1008 80 10000 4.1 230 00:19 19.01.2020
546 Clouds 5 1007 80 10000 4.1 220 23:41 18.01.2020
547 Clouds 5 1007 80 10000 4.1 220 23:23 18.01.2020
548 Clouds 5 1007 80 10000 4.1 220 23:23 18.01.2020
549 Clouds 5 1007 80 10000 4.6 220 22:56 18.01.2020
550 Clouds 5 1007 80 10000 4.1 220 22:38 18.01.2020
551 Clouds 5 1007 80 10000 4.1 220 22:20 18.01.2020
552 Clouds 5 1007 80 10000 3.1 210 21:57 18.01.2020
553 Clouds 5 1007 80 10000 3.1 220 21:38 18.01.2020
554 Clouds 5 1007 80 10000 3.1 220 21:20 18.01.2020
555 Clouds 5 1007 80 10000 3.6 200 20:44 18.01.2020
556 Clouds 5 1007 80 10000 3.6 200 20:21 18.01.2020
557 Drizzle 5 1006 80 10000 3.6 210 19:59 18.01.2020
558 Clouds 5 1006 80 10000 3.6 200 19:41 18.01.2020
559 Clouds 5 1006 80 10000 3.6 200 19:22 18.01.2020
560 Clouds 5 1006 75 10000 3.6 200 18:43 18.01.2020
561 Clouds 6 1006 81 10000 4.1 190 18:22 18.01.2020
562 Clouds 5 1006 81 10000 3.6 190 17:56 18.01.2020
563 Clouds 5 1006 87 10000 3.6 180 17:38 18.01.2020
564 Clouds 5 1006 87 10000 3.6 180 17:19 18.01.2020
565 Clouds 6 1006 87 10000 3.1 190 16:55 18.01.2020
566 Clouds 6 1006 87 10000 3.1 190 16:55 18.01.2020
567 Clouds 5 1006 87 10000 3.1 180 16:36 18.01.2020
568 Clouds 5 1006 87 10000 3.1 180 16:18 18.01.2020
569 Clouds 6 1006 93 10000 2.6 190 15:42 18.01.2020
570 Clouds 6 1006 93 10000 2.6 190 15:24 18.01.2020
571 Clouds 6 1006 93 10000 3.1 200 14:57 18.01.2020
572 Clouds 6 1006 93 9000 3.6 210 14:39 18.01.2020
573 Clouds 6 1006 93 9000 3.6 210 14:18 18.01.2020
574 Clouds 6 1006 93 10000 2.6 220 13:44 18.01.2020
575 Clouds 6 1006 87 10000 3.1 220 13:26 18.01.2020
576 Clouds 6 1006 87 10000 4.1 200 12:58 18.01.2020
577 Clouds 5 1006 93 10000 3.6 210 12:39 18.01.2020
578 Clouds 5 1006 93 10000 3.6 210 12:20 18.01.2020
579 Clouds 5 1006 93 10000 4.6 210 11:44 18.01.2020
580 Clouds 5 1006 93 10000 4.6 210 11:22 18.01.2020
581 Clouds 5 1006 93 10000 4.1 200 10:57 18.01.2020
582 Clouds 4 1006 100 10000 3.6 200 10:38 18.01.2020
583 Clouds 5 1006 100 10000 3.6 200 10:20 18.01.2020
584 Clouds 4 1006 93 8000 3.6 190 09:46 18.01.2020
585 Clouds 4 1006 93 9000 3.1 180 09:28 18.01.2020
586 Clouds 4 1006 93 8000 3.1 180 08:55 18.01.2020
587 Clouds 4 1006 93 10000 3.1 190 08:37 18.01.2020
588 Clouds 4 1006 93 10000 3.1 190 08:19 18.01.2020
589 Clouds 4 1006 93 8000 7.2 220 07:45 18.01.2020
590 Clouds 4 1006 93 10000 5.1 220 07:26 18.01.2020
591 Clouds 4 1006 100 10000 4.6 190 06:47 18.01.2020
592 Clouds 4 1006 93 10000 4.6 200 06:47 18.01.2020
593 Clouds 4 1006 100 10000 5.7 180 05:59 18.01.2020
594 Clouds 4 1007 100 10000 3.6 190 05:19 18.01.2020
595 Mist 4 1008 100 9000 5.1 170 02:53 18.01.2020
596 Clouds 4 1008 93 8000 4.6 160 01:52 18.01.2020
597 Clouds 4 1009 93 9000 4.6 150 01:29 18.01.2020
598 Clouds 4 1010 100 9000 4.1 170 00:36 18.01.2020
599 Clouds 4 1010 100 8000 4.6 160 00:18 18.01.2020
600 Clouds 4 1010 100 8000 4.6 160 23:40 17.01.2020
601 Clouds 4 1010 100 8000 4.6 160 23:19 17.01.2020
602 Clouds 5 1011 93 9000 5.7 170 22:44 17.01.2020
603 Clouds 5 1012 93 10000 2.6 170 22:21 17.01.2020
604 Clouds 5 1012 93 10000 3.6 160 21:58 17.01.2020
605 Clouds 5 1012 93 10000 4.6 170 21:40 17.01.2020
606 Clouds 5 1012 93 10000 4.6 170 21:22 17.01.2020
607 Clouds 5 1012 93 10000 4.6 170 20:57 17.01.2020
608 Clouds 5 1013 93 10000 5.1 170 20:38 17.01.2020
609 Clouds 4 1013 93 10000 5.1 170 20:20 17.01.2020
610 Clouds 4 1013 93 10000 4.1 170 19:55 17.01.2020
611 Clouds 4 1013 93 10000 4.1 170 19:37 17.01.2020
612 Clouds 4 1013 93 10000 4.1 170 19:18 17.01.2020
613 Clouds 4 1013 100 10000 3.6 160 18:45 17.01.2020
614 Clouds 4 1014 100 10000 3.1 160 18:27 17.01.2020
615 Clouds 4 1014 93 10000 2.6 160 17:56 17.01.2020
616 Clouds 4 1014 93 10000 2.1 170 17:38 17.01.2020
617 Clouds 4 1014 93 10000 2.1 170 17:20 17.01.2020
618 Clouds 4 1014 93 10000 3.1 160 16:42 17.01.2020
619 Clouds 4 1014 93 10000 3.1 160 16:42 17.01.2020
620 Clouds 4 1014 93 10000 3.1 160 16:20 17.01.2020
621 Clouds 4 1015 86 10000 3.1 170 15:49 17.01.2020
622 Clouds 4 1015 93 10000 3.6 180 15:28 17.01.2020
623 Clouds 5 1015 86 10000 4.6 190 14:57 17.01.2020
624 Clouds 5 1015 86 10000 5.1 190 14:38 17.01.2020
625 Clouds 5 1015 86 10000 5.1 190 14:20 17.01.2020
626 Clouds 5 1016 86 10000 5.7 190 13:41 17.01.2020
627 Clouds 5 1016 86 10000 5.7 190 13:22 17.01.2020
628 Clouds 5 1016 86 10000 5.7 180 12:46 17.01.2020
629 Clouds 5 1016 93 10000 6.7 190 12:23 17.01.2020
630 Clouds 5 1016 93 10000 4.6 180 11:41 17.01.2020
631 Clouds 5 1017 86 10000 4.6 180 11:20 17.01.2020
632 Clouds 5 1017 86 10000 5.1 180 10:56 17.01.2020
633 Clouds 5 1017 80 10000 4.6 170 10:37 17.01.2020
634 Clouds 4 1017 80 10000 4.6 170 10:19 17.01.2020
635 Clouds 4 1018 86 10000 3.6 170 09:43 17.01.2020
636 Clouds 4 1018 86 10000 3.6 170 09:21 17.01.2020
637 Clouds 4 1018 86 10000 3.1 190 08:56 17.01.2020
638 Clouds 4 1018 86 10000 3.1 190 08:38 17.01.2020
639 Clouds 4 1018 86 10000 3.1 190 08:19 17.01.2020
640 Clouds 4 1018 86 10000 4.1 190 07:43 17.01.2020
641 Clouds 4 1018 86 10000 4.1 190 07:25 17.01.2020
642 Clouds 4 1018 86 10000 3.6 190 06:51 17.01.2020
643 Clouds 4 1018 86 10000 2.6 190 06:30 17.01.2020
644 Clouds 4 1013 90 0 0.45 225 04:27 17.01.2020
645 Clouds 5 1022 84 0 4.95 243 02:56 17.01.2020
646 Clouds 4 1018 80 0 3.13 196 02:32 17.01.2020
647 Clouds 5 1021 83 0 1.79 247 01:44 17.01.2020
648 Clouds 5 1021 83 0 5.19 241 01:22 17.01.2020
649 Clouds 4 1021 82 0 2.68 202 00:37 17.01.2020
650 Clouds 4 1017 80 10000 4.1 230 00:19 17.01.2020
651 Clouds 4 1018 80 10000 5.1 240 23:41 16.01.2020
652 Clouds 5 1018 80 10000 5.1 240 23:22 16.01.2020
653 Clouds 5 1016 80 10000 4.6 240 22:41 16.01.2020
654 Clouds 5 1017 75 10000 6.7 240 22:21 16.01.2020
655 Clouds 5 1017 75 10000 5.7 240 21:57 16.01.2020
656 Clouds 5 1017 75 10000 5.7 240 21:38 16.01.2020
657 Clouds 5 1017 75 10000 5.7 240 21:19 16.01.2020
658 Clouds 5 1017 75 10000 5.7 240 21:19 16.01.2020
659 Clouds 5 1017 75 10000 5.7 240 20:57 16.01.2020
660 Clouds 6 1016 75 10000 6.7 250 20:38 16.01.2020
661 Clear 6 1016 75 10000 6.2 250 20:19 16.01.2020
662 Clear 6 1016 75 10000 6.2 250 19:56 16.01.2020
663 Clouds 6 1016 81 10000 7.2 250 19:37 16.01.2020
664 Clouds 6 1016 81 10000 7.2 250 19:19 16.01.2020
665 Clouds 6 1016 81 10000 7.2 250 19:19 16.01.2020
666 Clear 6 1015 75 10000 8.2 240 18:55 16.01.2020
667 Clear 6 1015 75 10000 5.7 240 18:37 16.01.2020
668 Clear 6 1015 75 10000 5.7 240 18:18 16.01.2020
669 Clear 7 1014 75 10000 6.2 250 17:42 16.01.2020
670 Clear 7 1014 75 10000 6.2 250 17:23 16.01.2020
671 Clear 7 1013 75 10000 6.2 250 16:57 16.01.2020
672 Clouds 7 1013 70 10000 8.2 250 16:39 16.01.2020
673 Clouds 7 1013 70 10000 8.2 250 16:19 16.01.2020
674 Clouds 8 1011 70 10000 8.7 250 15:44 16.01.2020
675 Clouds 8 1011 70 10000 8.7 250 15:23 16.01.2020
676 Clouds 8 1011 70 10000 8.2 260 14:57 16.01.2020
677 Clouds 8 1010 70 10000 8.2 250 14:39 16.01.2020
678 Clouds 8 1010 70 10000 8.2 250 14:20 16.01.2020
679 Clouds 8 1010 70 10000 7.7 260 13:45 16.01.2020
680 Clouds 8 1010 70 10000 7.7 260 13:26 16.01.2020
681 Clouds 8 1009 70 10000 6.2 250 12:47 16.01.2020
682 Clouds 8 1009 75 10000 6.7 250 12:29 16.01.2020
683 Clouds 8 1009 75 10000 6.7 250 12:29 16.01.2020
684 Clouds 8 1008 70 10000 7.2 240 11:59 16.01.2020
685 Clouds 7 1008 75 10000 6.7 230 11:41 16.01.2020
686 Clouds 7 1008 75 10000 6.7 230 11:22 16.01.2020
687 Clouds 7 1008 75 10000 6.2 240 10:55 16.01.2020
688 Clouds 7 1007 75 10000 6.2 230 10:36 16.01.2020
689 Clouds 7 1007 75 10000 6.2 230 10:18 16.01.2020
690 Clouds 6 1007 81 10000 5.7 230 09:42 16.01.2020
691 Clouds 6 1007 81 10000 5.7 230 09:24 16.01.2020
692 Clouds 6 1006 75 10000 6.2 220 08:56 16.01.2020
693 Clouds 6 1006 75 10000 5.7 220 08:36 16.01.2020
694 Clouds 6 1006 75 10000 5.7 220 08:18 16.01.2020
695 Clouds 5 1005 80 10000 5.7 220 07:42 16.01.2020
696 Clouds 5 1005 80 10000 5.7 220 07:23 16.01.2020
697 Clouds 5 1005 80 10000 4.6 230 06:48 16.01.2020
698 Clouds 5 1005 80 10000 4.6 220 06:28 16.01.2020
699 Clouds 5 1005 80 10000 4.6 220 05:46 16.01.2020
700 Clouds 5 1004 75 10000 5.1 230 04:46 16.01.2020
701 Clouds 5 1003 80 10000 4.1 220 03:29 16.01.2020
702 Clouds 5 1003 80 10000 4.6 220 02:45 16.01.2020
703 Clouds 6 1002 75 10000 4.6 220 01:28 16.01.2020
704 Rain 6 1002 70 10000 4.1 230 00:42 16.01.2020
705 Rain 6 1002 75 10000 3.6 230 00:22 16.01.2020
706 Rain 6 1001 75 10000 3.6 220 23:40 15.01.2020
707 -273 0 0 0 0 0 23:22 15.01.2020
708 Clouds 7 1001 75 10000 3.6 220 23:21 15.01.2020
709 Clouds 7 1001 75 10000 3.6 220 22:56 15.01.2020
710 Clouds 7 1001 75 10000 3.6 210 22:37 15.01.2020
711 Clouds 7 1001 75 10000 3.6 210 22:18 15.01.2020
712 Clouds 7 1001 75 10000 3.6 210 22:18 15.01.2020
713 Clouds 7 1001 75 10000 3.6 210 21:55 15.01.2020
714 Clouds 7 1001 75 10000 3.6 210 21:36 15.01.2020
715 Clouds 7 1001 75 10000 3.6 210 21:18 15.01.2020
716 Clouds 7 1000 75 10000 4.1 220 20:54 15.01.2020
717 Clouds 7 1000 75 10000 3.6 210 20:36 15.01.2020
718 Clouds 7 1000 75 10000 3.6 210 20:18 15.01.2020
719 Clouds 6 1000 75 10000 3.6 210 19:54 15.01.2020
720 Clouds 6 1000 75 10000 4.1 220 19:36 15.01.2020
721 Clouds 7 1000 75 10000 4.1 230 19:18 15.01.2020
722 Clouds 7 1000 75 10000 4.1 230 18:55 15.01.2020
723 Clouds 7 1000 75 10000 4.1 230 18:55 15.01.2020
724 Clouds 7 1000 75 10000 4.1 230 18:55 15.01.2020
725 Clouds 7 1000 75 10000 5.1 230 18:36 15.01.2020
726 Clouds 7 1000 75 10000 5.1 230 18:18 15.01.2020
727 Clouds 7 1000 75 10000 5.1 230 18:18 15.01.2020
728 Clouds 7 999 75 10000 5.7 240 17:40 15.01.2020
729 Clouds 7 999 75 10000 5.7 240 17:22 15.01.2020
730 Clouds 7 999 75 10000 5.7 240 17:22 15.01.2020
731 Clouds 7 998 70 10000 6.2 240 16:57 15.01.2020
732 Clouds 7 998 75 10000 5.7 240 16:38 15.01.2020
733 Clouds 7 998 75 10000 5.7 240 16:20 15.01.2020
734 Clouds 7 998 75 10000 5.7 240 16:20 15.01.2020
735 Clouds 7 998 75 10000 5.7 240 16:20 15.01.2020
736 Clouds 8 997 75 10000 5.7 230 15:43 15.01.2020
737 Rain 8 997 76 10000 6.2 230 15:21 15.01.2020
738 Clouds 9 996 81 10000 4.1 240 14:56 15.01.2020
739 Clouds 9 996 81 10000 5.1 220 14:37 15.01.2020
740 Clouds 9 995 76 10000 5.1 230 14:18 15.01.2020
741 Clouds 9 995 76 10000 5.1 230 13:44 15.01.2020
742 Clouds 9 995 76 10000 6.2 230 13:23 15.01.2020
743 Clouds 9 994 81 10000 6.2 240 12:56 15.01.2020
744 Drizzle 9 994 81 10000 7.7 230 12:37 15.01.2020
745 Drizzle 9 994 81 10000 7.7 230 12:19 15.01.2020
746 Rain 9 994 81 9000 5.1 240 11:54 15.01.2020
747 Clouds 10 991 71 10000 11.8 230 11:36 15.01.2020
748 Clouds 10 993 76 10000 7.2 240 11:18 15.01.2020
749 Clouds 10 992 81 10000 5.7 220 10:41 15.01.2020
750 Clouds 10 992 81 10000 5.7 220 10:21 15.01.2020
751 Clouds 9 991 87 10000 5.1 190 09:41 15.01.2020
752 -273 0 0 0 0 0 09:22 15.01.2020
753 Clouds 8 990 93 10000 5.7 190 08:45 15.01.2020
754 Clouds 8 990 93 10000 6.2 190 08:27 15.01.2020
755 Clouds 8 990 87 10000 7.2 190 07:56 15.01.2020
756 Clouds 8 990 87 10000 7.7 190 07:35 15.01.2020
757 Clouds 8 990 87 10000 7.7 180 06:57 15.01.2020
758 Clouds 8 990 87 10000 7.7 180 06:57 15.01.2020
759 Rain 8 990 93 10000 6.7 180 06:38 15.01.2020
760 Rain 7 990 93 10000 8.2 180 05:52 15.01.2020
761 Rain 5 993 93 6000 5.7 140 03:44 15.01.2020
762 Rain 5 997 86 10000 3.6 170 01:50 15.01.2020
763 Clouds 5 997 86 10000 3.6 170 01:22 15.01.2020
764 Clouds 5 998 86 10000 3.6 190 00:38 15.01.2020
765 Clouds 5 998 86 10000 3.6 190 00:20 15.01.2020
766 Clouds 5 998 86 10000 3.1 190 23:47 14.01.2020
767 Clouds 5 999 86 10000 3.6 210 23:28 14.01.2020
768 Clouds 5 999 86 10000 4.6 210 22:58 14.01.2020
769 Clouds 5 998 86 10000 5.1 220 22:40 14.01.2020
770 Clouds 5 998 86 10000 5.1 220 22:19 14.01.2020
771 Clouds 5 998 86 10000 4.6 210 21:58 14.01.2020
772 Clouds 4 998 86 10000 4.6 210 21:39 14.01.2020
773 Clouds 4 998 86 10000 4.6 210 21:19 14.01.2020
774 Clouds 4 998 86 10000 4.6 210 20:54 14.01.2020
775 Clouds 4 998 86 10000 4.6 210 20:54 14.01.2020
776 Clouds 5 997 93 10000 3.6 210 20:36 14.01.2020
777 Clouds 5 997 93 10000 3.6 210 20:18 14.01.2020
778 Clouds 5 997 93 10000 3.6 210 19:55 14.01.2020
779 Clouds 5 997 93 10000 5.1 220 19:37 14.01.2020
780 Clouds 5 997 93 10000 5.1 220 19:18 14.01.2020
781 Clouds 5 997 93 10000 5.1 220 19:18 14.01.2020
782 Clouds 5 996 93 10000 4.6 210 18:41 14.01.2020
783 Clouds 5 996 93 10000 4.6 210 18:20 14.01.2020
784 Clouds 5 996 93 10000 4.6 210 17:58 14.01.2020
785 Clouds 5 996 93 10000 4.6 190 17:37 14.01.2020
786 Clouds 5 996 93 10000 4.6 190 17:18 14.01.2020
787 Clouds 5 996 93 10000 6.2 190 16:43 14.01.2020
788 Clouds 5 996 93 10000 6.2 190 16:23 14.01.2020
789 Clouds 5 996 93 10000 6.2 190 16:23 14.01.2020
790 Rain 5 996 93 10000 7.2 180 15:58 14.01.2020
791 Rain 5 996 93 10000 6.7 180 15:40 14.01.2020
792 Rain 5 996 93 10000 6.7 180 15:19 14.01.2020
793 Rain 5 997 93 9000 7.7 170 14:44 14.01.2020
794 Rain 5 997 93 10000 8.7 170 14:21 14.01.2020
795 Rain 5 997 86 10000 8.2 170 13:57 14.01.2020
796 Rain 5 997 86 10000 8.7 170 13:38 14.01.2020
797 Rain 5 997 86 10000 8.7 170 13:18 14.01.2020
798 Clouds 5 999 80 10000 8.7 170 12:41 14.01.2020
799 Clouds 5 999 80 10000 8.7 170 12:21 14.01.2020
800 Clouds 5 1000 80 10000 9.8 170 11:55 14.01.2020
801 Clouds 5 1000 80 10000 8.7 170 11:36 14.01.2020
802 Clouds 5 1000 80 10000 8.7 170 11:18 14.01.2020
803 Clouds 5 1001 80 10000 8.7 170 10:40 14.01.2020
804 Clouds 5 1001 80 10000 8.7 170 10:20 14.01.2020
805 Clouds 5 1002 80 10000 8.7 170 09:58 14.01.2020
806 Clouds 5 1002 80 10000 8.2 170 09:40 14.01.2020
807 Clouds 5 1002 80 10000 8.2 170 09:21 14.01.2020
808 Clouds 4 1003 80 10000 7.2 160 08:48 14.01.2020
809 Clouds 4 1004 86 10000 5.7 170 08:25 14.01.2020
810 Clouds 3 1004 93 10000 5.1 160 07:56 14.01.2020
811 Clouds 3 1005 93 10000 4.1 160 07:34 14.01.2020
812 Clouds 3 1005 93 10000 4.1 160 07:34 14.01.2020
813 Clouds 2 1005 93 10000 3.6 160 06:57 14.01.2020
814 Clouds 2 1005 93 10000 3.1 150 06:34 14.01.2020
815 Clouds 2 1007 89 10000 3.6 160 05:28 14.01.2020
816 Clouds 1 1008 89 10000 4.1 190 03:57 14.01.2020
817 Clouds 1 1008 89 10000 3.1 190 03:35 14.01.2020
818 Clouds 2 1009 93 10000 2.6 190 02:26 14.01.2020
819 Clouds 3 1008 86 10000 3.6 210 01:18 14.01.2020
820 Clouds 3 1008 80 10000 2.6 220 00:38 14.01.2020
821 Clouds 3 1009 86 10000 3.1 230 23:59 13.01.2020
822 Clouds 3 1009 86 10000 4.1 230 23:37 13.01.2020
823 Clouds 3 1009 80 10000 5.1 240 23:18 13.01.2020
824 Clouds 3 1009 80 10000 5.1 240 22:45 13.01.2020
825 Clouds 3 1008 86 10000 4.1 220 22:22 13.01.2020
826 Clouds 3 1008 86 10000 3.6 220 21:58 13.01.2020
827 Clouds 3 1008 86 10000 3.6 230 21:39 13.01.2020
828 Clouds 3 1008 86 10000 3.6 230 21:19 13.01.2020
829 Clouds 3 1008 86 10000 3.6 220 20:59 13.01.2020
830 Clouds 3 1008 93 10000 3.6 210 20:41 13.01.2020
831 Clouds 3 1008 93 10000 3.6 210 20:22 13.01.2020
832 Clouds 3 1008 93 10000 3.6 210 20:22 13.01.2020
833 Clouds 3 1008 86 10000 4.1 220 19:59 13.01.2020
834 Clouds 3 1008 86 10000 3.6 220 19:40 13.01.2020
835 Clouds 3 1008 86 10000 3.6 220 19:20 13.01.2020
836 Clouds 3 1008 80 10000 4.6 220 18:57 13.01.2020
837 Clouds 3 1008 86 10000 4.1 230 18:37 13.01.2020
838 Clouds 3 1008 86 10000 4.1 230 18:19 13.01.2020
839 Clouds 2 1008 93 10000 3.6 220 17:55 13.01.2020
840 Clouds 2 1008 93 10000 2.6 230 17:36 13.01.2020
841 Clouds 2 1008 93 10000 2.6 230 17:18 13.01.2020
842 Clouds 2 1010 87 0 3.94 242 16:40 13.01.2020
843 Clouds 2 1010 87 0 3.94 242 16:40 13.01.2020
844 Clouds 2 1009 79 0 2.24 177 16:21 13.01.2020
845 Clouds 2 1009 79 0 2.24 177 16:21 13.01.2020
846 Clouds 3 1009 78 0 1.34 178 15:55 13.01.2020
847 Clouds 2 1010 87 0 3.94 242 15:36 13.01.2020
848 Clouds 3 1009 77 0 2.24 181 15:18 13.01.2020
849 Clouds 3 1002 88 0 0.89 270 14:42 13.01.2020
850 Clouds 3 1008 82 0 4.78 251 14:23 13.01.2020
851 Clouds 3 1010 86 0 1.34 247 13:57 13.01.2020
852 Clouds 3 1002 87 0 2.24 247 13:38 13.01.2020
853 Clouds 4 1009 77 0 3.58 237 13:20 13.01.2020
854 Clouds 4 1008 81 0 4.5 250 13:20 13.01.2020
855 Clouds 4 1007 93 10000 4.6 240 12:43 13.01.2020
856 Clouds 4 1007 93 10000 4.6 240 12:23 13.01.2020
857 Clouds 4 1007 93 10000 4.6 240 12:23 13.01.2020
858 Clouds 4 1007 93 10000 4.6 240 11:59 13.01.2020
859 Clouds 4 1007 93 10000 5.1 240 11:39 13.01.2020
860 Clouds 4 1007 93 10000 5.1 240 11:19 13.01.2020
861 Clouds 3 1008 93 10000 4.6 240 10:56 13.01.2020
862 Clouds 3 1007 93 10000 4.6 240 10:38 13.01.2020
863 Clouds 3 1007 93 10000 4.6 240 10:20 13.01.2020
864 Clouds 3 1007 93 10000 4.6 250 09:55 13.01.2020
865 Clouds 3 1007 93 10000 3.6 240 09:37 13.01.2020
866 Clouds 3 1007 93 10000 3.6 240 09:19 13.01.2020
867 Clouds 2 1006 93 10000 4.1 230 08:38 13.01.2020
868 Clouds 1 1006 93 10000 4.1 230 08:19 13.01.2020
869 Clouds 1 1006 100 10000 5.1 240 07:45 13.01.2020
870 Clouds 1 1006 86 10000 4.6 230 07:27 13.01.2020
871 Clouds 1 1006 86 10000 3.6 230 06:39 13.01.2020
872 Clouds 1 1006 86 10000 3.6 230 06:18 13.01.2020
873 Clear 1 1006 85 10000 3.1 220 05:19 13.01.2020
874 Clear 1 1005 85 10000 3.1 230 03:47 13.01.2020
875 Clear 1 1006 85 10000 2.1 220 02:51 13.01.2020
876 Clear 1 1005 85 10000 2.1 220 02:31 13.01.2020
877 Clear 1 1005 82 10000 2.1 220 01:47 13.01.2020
878 Clear 1 1005 100 10000 3.1 240 00:59 13.01.2020
879 Clear 1 1005 85 10000 2.1 230 00:37 13.01.2020
880 Clear 1 1005 85 10000 2.1 230 00:19 13.01.2020
881 Clear 1 1005 85 10000 1 0 23:41 12.01.2020
882 Clear 1 1005 79 10000 1 0 23:22 12.01.2020
883 Clear 2 1004 79 10000 2.1 230 22:57 12.01.2020
884 Clear 2 1004 86 10000 2.6 260 22:39 12.01.2020
885 Clear 2 1004 86 10000 2.6 260 22:19 12.01.2020
886 Clear 3 1004 86 10000 3.6 250 21:54 12.01.2020
887 Clear 3 1004 86 10000 3.6 250 21:54 12.01.2020
888 Clear 3 1004 86 10000 3.1 250 21:36 12.01.2020
889 Clear 3 1004 86 10000 3.1 250 21:36 12.01.2020
890 Clear 3 1004 86 10000 3.1 250 21:18 12.01.2020
891 Clear 3 1004 86 10000 3.6 240 20:54 12.01.2020
892 Clear 3 1004 86 10000 3.6 250 20:36 12.01.2020
893 Clear 3 1004 86 10000 3.6 250 20:18 12.01.2020
894 Clear 3 1003 80 10000 4.1 250 19:54 12.01.2020
895 Clear 4 1003 80 10000 5.1 250 19:36 12.01.2020
896 Clear 4 1003 80 10000 5.1 250 19:18 12.01.2020
897 Clear 4 1003 80 10000 4.6 240 18:54 12.01.2020
898 Clear 4 1003 80 10000 4.1 250 18:36 12.01.2020
899 Clear 4 1003 80 10000 4.1 250 18:18 12.01.2020
900 Clear 5 1002 75 10000 5.7 250 17:42 12.01.2020
901 Clear 5 1002 75 10000 5.7 250 17:21 12.01.2020
902 Clear 5 1002 75 10000 6.7 260 16:57 12.01.2020
903 Clear 6 1001 75 10000 6.7 250 16:38 12.01.2020
904 Clear 6 1001 75 10000 6.7 250 16:19 12.01.2020
905 Clear 6 1001 75 10000 6.2 250 15:43 12.01.2020
906 Clouds 6 1000 75 10000 7.2 260 15:25 12.01.2020
907 Clouds 7 1000 75 10000 6.7 260 14:59 12.01.2020
908 Clouds 7 1000 70 10000 7.7 260 14:41 12.01.2020
909 Clouds 7 1000 70 10000 7.7 260 14:21 12.01.2020
910 Clouds 8 1000 75 10000 6.7 260 13:56 12.01.2020
911 Clouds 8 1000 75 10000 6.7 260 13:38 12.01.2020
912 Clouds 8 1000 75 10000 6.7 260 13:20 12.01.2020
913 Clouds 8 1000 75 10000 6.7 260 13:20 12.01.2020
914 Clouds 8 1000 75 10000 7.2 250 12:43 12.01.2020
915 Clouds 8 999 81 10000 7.2 250 12:21 12.01.2020
916 Clouds 8 999 81 10000 5.7 240 11:59 12.01.2020
917 Clouds 8 999 81 10000 4.6 240 11:40 12.01.2020
918 Rain 8 999 81 10000 4.6 240 11:21 12.01.2020
919 Rain 8 999 87 10000 5.7 230 10:43 12.01.2020
920 Rain 8 999 87 10000 5.7 230 10:23 12.01.2020
921 Rain 7 999 87 10000 5.1 230 09:59 12.01.2020
922 Rain 7 999 87 10000 5.7 240 09:41 12.01.2020
923 Rain 7 999 87 10000 5.7 240 09:21 12.01.2020
924 Rain 7 999 87 10000 5.1 240 08:47 12.01.2020
925 Rain 7 999 87 10000 4.6 230 08:21 12.01.2020
926 Rain 7 999 87 10000 4.6 230 08:21 12.01.2020
927 Rain 7 999 87 10000 4.6 220 07:46 12.01.2020
928 Rain 7 999 87 10000 5.1 230 07:25 12.01.2020
929 Rain 7 999 87 10000 4.1 210 06:50 12.01.2020
930 Rain 7 999 81 10000 5.1 210 06:32 12.01.2020
931 Rain 7 999 87 10000 5.7 220 05:49 12.01.2020
932 Rain 7 999 87 10000 6.2 210 04:53 12.01.2020
933 Rain 7 1000 87 10000 6.7 220 03:33 12.01.2020
934 Rain 7 1000 87 10000 6.7 220 02:43 12.01.2020
935 Clouds 7 1000 87 10000 6.7 220 02:22 12.01.2020
936 Clouds 6 1001 81 10000 7.7 220 01:30 12.01.2020
937 Clouds 6 1001 81 10000 7.2 220 00:45 12.01.2020
938 Clouds 6 1000 81 10000 9.8 220 00:22 12.01.2020
939 Clouds 6 1002 81 10000 7.7 210 23:56 11.01.2020
940 Clouds 6 1002 87 10000 6.2 210 23:37 11.01.2020
941 Clouds 6 1002 87 10000 6.2 210 23:18 11.01.2020
942 Clouds 6 1002 81 10000 5.7 210 22:56 11.01.2020
943 Clouds 6 1003 86 10000 6.7 210 22:37 11.01.2020
944 Clouds 5 1003 86 10000 6.7 210 22:18 11.01.2020
945 Clouds 5 1004 86 10000 6.2 210 21:43 11.01.2020
946 Clouds 5 1004 86 10000 6.7 210 21:19 11.01.2020
947 Clouds 5 1005 86 10000 5.1 200 20:55 11.01.2020
948 Clouds 4 1005 86 10000 5.7 200 20:37 11.01.2020
949 Clouds 4 1005 86 10000 5.7 200 20:18 11.01.2020
950 Clouds 4 1006 86 10000 6.7 210 19:55 11.01.2020
951 Clouds 4 1006 80 10000 6.7 200 19:36 11.01.2020
952 Clouds 4 1006 80 10000 6.7 200 19:18 11.01.2020
953 Clouds 4 1006 80 10000 7.2 210 18:54 11.01.2020
954 Clouds 4 1007 80 10000 7.2 210 18:36 11.01.2020
955 Clouds 4 1007 80 10000 7.2 210 18:18 11.01.2020
956 Clouds 3 1008 86 10000 7.7 210 17:54 11.01.2020
957 Clouds 3 1008 86 10000 7.2 200 17:36 11.01.2020
958 Rain 3 1009 69 9000 6.2 190 17:18 11.01.2020
959 Snow 3 1010 69 9000 5.7 180 16:41 11.01.2020
960 Snow 3 1010 69 9000 5.7 180 16:22 11.01.2020
961 Snow 3 1010 69 9000 5.7 180 16:22 11.01.2020
962 Clouds 2 1012 80 10000 5.1 200 15:42 11.01.2020
963 Clouds 2 1012 80 10000 5.1 200 15:24 11.01.2020
964 Clouds 2 1012 80 10000 5.7 190 14:58 11.01.2020
965 Clouds 2 1013 80 10000 5.7 190 14:40 11.01.2020
966 Clouds 2 1013 80 10000 5.7 190 14:22 11.01.2020
967 Snow 2 1014 80 10000 5.1 200 13:55 11.01.2020
968 Snow 2 1014 74 10000 5.1 190 13:37 11.01.2020
969 Clouds 2 1015 74 10000 4.1 200 13:18 11.01.2020
970 Clouds 2 1016 69 10000 4.6 180 12:42 11.01.2020
971 Clouds 2 1016 69 10000 4.6 180 12:24 11.01.2020
972 Clouds 1 1017 74 10000 5.1 190 11:54 11.01.2020
973 Clouds 1 1017 58 10000 4.6 190 11:36 11.01.2020
974 Clouds 0 1017 50 10000 4.6 190 11:18 11.01.2020
975 Clouds 0 1017 50 10000 4.6 190 11:18 11.01.2020
976 Clouds -1 1018 80 10000 3.1 200 10:42 11.01.2020
977 Clouds -1 1018 80 10000 3.1 200 10:23 11.01.2020
978 Clouds -2 1019 86 10000 2.6 190 09:39 11.01.2020
979 Clouds -2 1019 86 10000 2.6 190 09:21 11.01.2020
980 Clouds -3 1019 92 10000 1.5 190 08:43 11.01.2020
981 Clouds -3 1019 92 10000 1.5 190 08:22 11.01.2020
982 Clouds -4 1019 92 10000 1.5 210 07:44 11.01.2020
983 Clouds -4 1019 100 10000 1.5 190 07:26 11.01.2020
984 -273 0 0 0 0 0 06:52 11.01.2020
985 Clouds -4 1019 100 10000 1.5 200 06:19 11.01.2020
986 Clear -5 1020 100 10000 2.62 249 04:48 11.01.2020
987 Clear -4 1020 92 10000 1 240 04:29 11.01.2020
988 Clear -5 1019 100 10000 2.62 249 03:28 11.01.2020
989 Clear -5 1019 92 10000 2.62 249 02:40 11.01.2020
990 Clear -5 1019 100 10000 0.5 0 01:44 11.01.2020
991 Clear -5 1019 100 10000 1.66 288 01:20 11.01.2020
992 Clear -4 1019 100 10000 0.5 0 00:44 11.01.2020
993 Clear -4 1019 100 10000 0.5 0 00:20 11.01.2020
994 Mist -4 1018 100 9000 1 300 23:41 10.01.2020
995 Mist -4 1018 100 9000 1 300 23:41 10.01.2020
996 Mist -5 1018 100 9000 1 300 23:22 10.01.2020
997 Mist -4 1017 92 7000 1.81 325 22:59 10.01.2020
998 Clear -4 1017 100 10000 0.5 0 22:40 10.01.2020
999 Clear -4 1017 100 10000 0.5 0 22:21 10.01.2020
1000 Clear -4 1017 92 10000 1.81 325 21:57 10.01.2020
1001 Clear -4 1017 100 10000 1 280 21:38 10.01.2020
1002 Clear -4 1017 100 10000 1 280 21:19 10.01.2020
1003 Clear -3 1017 92 10000 1.81 325 20:43 10.01.2020
1004 Clouds -3 1017 92 10000 1.6 359 20:25 10.01.2020
1005 Clouds -3 1016 100 10000 1.5 280 19:59 10.01.2020
1006 Clouds -3 1016 100 10000 1 270 19:39 10.01.2020
1007 Clouds -2 1016 100 10000 1 270 19:20 10.01.2020
1008 Clouds -2 1016 100 10000 1.5 300 18:44 10.01.2020
1009 Clouds -2 1016 100 10000 1.5 300 18:20 10.01.2020
1010 Clouds -2 1015 100 10000 1.5 300 17:58 10.01.2020
1011 Clouds -2 1015 92 10000 1 290 17:39 10.01.2020
1012 Clouds -1 1015 92 10000 1 290 17:21 10.01.2020
1013 Clouds -1 1015 86 10000 1.5 0 16:59 10.01.2020
1014 Clouds -1 1014 82 10000 1.5 0 16:40 10.01.2020
1015 Clouds -1 1014 82 10000 1.5 0 16:21 10.01.2020
1016 Clouds -1 1014 82 10000 1.5 0 16:21 10.01.2020
1017 Clouds -1 1014 82 10000 1.5 360 15:56 10.01.2020
1018 Clouds 0 1013 86 10000 2.1 10 15:37 10.01.2020
1019 Clouds 0 1013 86 10000 2.1 10 15:18 10.01.2020
1020 Clouds 0 1013 86 10000 2.1 10 14:56 10.01.2020
1021 Clouds 1 1013 82 10000 2.1 360 14:38 10.01.2020
1022 Clouds 1 1013 76 10000 2.1 360 14:19 10.01.2020
1023 Clouds 1 1013 76 10000 1.5 0 13:44 10.01.2020
1024 Clouds 2 1012 76 10000 1.5 360 13:26 10.01.2020
1025 Clouds 2 1012 76 10000 1.5 360 13:26 10.01.2020
1026 Clouds 2 1012 76 10000 1.5 40 12:59 10.01.2020
1027 Clouds 2 1012 76 10000 2.1 360 12:39 10.01.2020
1028 Clouds 1 1012 76 10000 2.1 360 12:21 10.01.2020
1029 Clouds 1 1012 76 10000 2.1 10 11:56 10.01.2020
1030 Clouds 1 1012 76 10000 2.6 20 11:38 10.01.2020
1031 Clouds 1 1012 80 10000 2.6 20 11:19 10.01.2020
1032 Clouds 1 1011 80 10000 2.1 20 10:58 10.01.2020
1033 Clouds 1 1011 80 10000 2.1 20 10:58 10.01.2020
1034 Clouds 1 1011 80 10000 2.1 20 10:58 10.01.2020
1035 Clouds 1 1011 80 10000 2.6 20 10:37 10.01.2020
1036 Clouds 1 1011 80 10000 2.6 20 10:18 10.01.2020
1037 Clouds 1 1011 80 10000 2.6 20 10:18 10.01.2020
1038 Clouds 1 1011 80 10000 1.5 30 09:45 10.01.2020
1039 Clouds 1 1011 80 10000 2.1 30 09:25 10.01.2020
1040 Clouds 1 1010 93 10000 1.5 40 08:44 10.01.2020
1041 Clouds 1 1010 93 10000 1.5 10 08:24 10.01.2020
1042 Clouds 2 1009 93 10000 3.1 30 07:58 10.01.2020
1043 Clouds 2 1009 93 10000 3.1 30 07:58 10.01.2020
1044 Clouds 1 1009 93 10000 2.6 50 07:39 10.01.2020
1045 Clouds 1 1009 93 10000 2.6 50 07:19 10.01.2020
1046 Clouds 2 1009 93 10000 2.1 50 06:37 10.01.2020
1047 Clouds 1 1009 93 10000 2.1 50 06:19 10.01.2020
1048 Snow 2 1009 93 10000 1.5 40 04:44 10.01.2020
1049 Snow 2 1009 93 10000 2.6 60 03:31 10.01.2020
1050 Snow 2 1009 93 10000 2.6 60 03:31 10.01.2020
1051 Snow 1 1009 93 10000 2.6 70 02:52 10.01.2020
1052 Clouds 2 1009 81 10000 2.6 80 01:53 10.01.2020
1053 Clouds 1 1009 81 10000 2.6 60 01:30 10.01.2020
1054 Clouds 1 1009 86 10000 2.1 60 00:49 10.01.2020
1055 Clouds 1 1008 86 10000 1.5 80 00:31 10.01.2020
1056 Clouds 0 1008 86 10000 1 80 23:55 09.01.2020
1057 Clouds 0 1009 100 10000 1.5 110 23:36 09.01.2020
1058 Clouds 0 1009 100 10000 1.5 110 23:18 09.01.2020
1059 Clouds 0 1009 100 10000 1 0 22:54 09.01.2020
1060 Clouds 0 1009 80 10000 1.52 120 22:36 09.01.2020
1061 Clouds 0 1009 80 10000 1.52 120 22:18 09.01.2020
1062 Clouds 0 1009 80 10000 1.52 120 21:54 09.01.2020
1063 Clouds 0 1009 80 10000 1.52 120 21:36 09.01.2020
1064 Clouds 0 1009 80 10000 1.52 120 21:18 09.01.2020
1065 Clouds 0 1009 80 10000 1.52 120 21:18 09.01.2020
1066 Clouds 0 1009 80 10000 1 360 20:54 09.01.2020
1067 Clouds 0 1009 80 10000 1 360 20:36 09.01.2020
1068 Clouds 0 1009 83 10000 1.36 88 20:18 09.01.2020
1069 Clouds 0 1009 83 10000 1.36 88 19:39 09.01.2020
1070 Clouds 0 1010 83 10000 1.36 88 19:20 09.01.2020
1071 Clouds 0 1010 83 10000 1 0 18:56 09.01.2020
1072 Clouds 0 1010 83 10000 1 0 18:38 09.01.2020
1073 Clouds 0 1010 83 10000 1.36 88 18:20 09.01.2020
1074 Clouds 0 1010 83 10000 1 0 17:41 09.01.2020
1075 Clouds 1 1010 86 10000 1.61 279 17:19 09.01.2020
1076 Clouds 1 1010 86 10000 1.61 279 16:56 09.01.2020
1077 Clouds 1 1010 86 10000 1.61 279 16:38 09.01.2020
1078 Clouds 1 1010 86 10000 1.61 279 16:20 09.01.2020
1079 Clouds 2 1010 86 10000 0.5 0 15:42 09.01.2020
1080 Clouds 3 1010 86 10000 2.6 240 15:22 09.01.2020
1081 Clouds 3 1010 86 10000 1.5 240 14:57 09.01.2020
1082 Clouds 3 1010 86 10000 1.5 240 14:38 09.01.2020
1083 Clouds 3 1010 80 10000 2.6 260 14:18 09.01.2020
1084 Clouds 4 1010 80 10000 2.6 270 13:55 09.01.2020
1085 Clouds 4 1010 80 10000 2.6 270 13:37 09.01.2020
1086 Clouds 4 1010 80 10000 3.6 250 13:18 09.01.2020
1087 Clouds 4 1010 81 10000 5.7 250 12:42 09.01.2020
1088 Clouds 4 1011 80 10000 4.1 250 12:24 09.01.2020
1089 Clouds 4 1010 80 10000 4.6 260 11:59 09.01.2020
1090 Clouds 4 1010 80 10000 4.6 260 11:41 09.01.2020
1091 Clouds 4 1010 80 10000 5.1 250 11:23 09.01.2020
1092 Clouds 3 1010 86 10000 4.6 230 10:56 09.01.2020
1093 Clouds 3 1010 86 10000 4.6 230 10:37 09.01.2020
1094 Clouds 3 1009 86 10000 5.1 240 10:19 09.01.2020
1095 Clouds 3 1009 86 10000 4.6 230 09:41 09.01.2020
1096 Clouds 3 1009 86 10000 4.6 230 09:41 09.01.2020
1097 Clouds 3 1009 80 10000 3.1 250 09:22 09.01.2020
1098 Clouds 3 1009 80 10000 5.1 250 08:56 09.01.2020
1099 Clouds 4 1008 80 10000 5.7 250 08:38 09.01.2020
1100 Clear 4 1008 80 10000 5.7 250 08:19 09.01.2020
1101 Clear 4 1008 80 10000 4.6 250 07:45 09.01.2020
1102 Clear 4 1008 80 10000 6.2 250 07:27 09.01.2020
1103 Clear 4 1008 80 10000 6.2 250 06:39 09.01.2020
1104 Clear 4 1008 80 10000 6.7 240 06:21 09.01.2020
1105 Clear 4 1007 76 10000 6.7 240 05:50 09.01.2020
1106 Clear 4 1007 73 10000 6.2 240 04:46 09.01.2020
1107 Clear 4 1007 73 10000 6.7 230 03:55 09.01.2020
1108 Clear 4 1006 73 10000 5.7 230 03:26 09.01.2020
1109 Clear 4 1006 68 10000 6.2 240 02:31 09.01.2020
1110 Clear 4 1006 68 10000 6.2 230 01:40 09.01.2020
1111 Clear 4 1006 68 10000 6.7 240 00:44 09.01.2020
1112 Clear 4 1005 68 10000 6.2 230 00:23 09.01.2020
1113 Clear 4 1005 68 10000 6.2 240 23:58 08.01.2020
1114 Clear 4 1005 68 10000 6.2 240 23:38 08.01.2020
1115 Clear 4 1005 67 10000 6.7 230 23:19 08.01.2020
1116 Clear 4 1005 67 10000 5.1 230 22:40 08.01.2020
1117 Clear 4 1005 67 10000 5.1 230 22:40 08.01.2020
1118 Clear 4 1005 67 10000 6.2 240 22:21 08.01.2020
1119 Clear 4 1004 67 10000 5.7 240 21:58 08.01.2020
1120 Clear 5 1004 67 10000 5.7 240 21:40 08.01.2020
1121 Clear 5 1004 67 10000 5.7 240 21:20 08.01.2020
1122 Clear 5 1004 67 10000 6.2 240 20:59 08.01.2020
1123 Clear 5 1003 67 10000 6.7 240 20:40 08.01.2020
1124 Clouds 5 1003 63 10000 6.7 240 20:20 08.01.2020
1125 Clouds 5 1003 63 10000 6.2 250 19:57 08.01.2020
1126 Clouds 5 1003 63 10000 6.2 250 19:38 08.01.2020
1127 Clouds 6 1003 63 10000 5.1 240 19:19 08.01.2020
1128 Clouds 6 1003 70 10000 6.2 240 18:56 08.01.2020
1129 Clouds 6 1002 70 10000 6.7 250 18:37 08.01.2020
1130 Clouds 6 1002 70 10000 6.7 250 18:18 08.01.2020
1131 Clouds 6 1002 65 10000 7.7 240 17:56 08.01.2020
1132 Clouds 7 1002 65 10000 7.7 240 17:37 08.01.2020
1133 Clouds 7 1001 70 10000 6.7 250 17:18 08.01.2020
1134 Clouds 7 1001 65 10000 6.7 260 16:54 08.01.2020
1135 Clouds 7 1001 65 10000 6.7 260 16:36 08.01.2020
1136 Clouds 8 1000 65 10000 6.7 250 16:18 08.01.2020
1137 Clouds 8 1000 66 10000 6.7 250 15:41 08.01.2020
1138 Clouds 9 999 66 10000 8.7 260 15:21 08.01.2020
1139 Clouds 9 999 66 10000 8.2 260 14:57 08.01.2020
1140 Clouds 9 998 71 10000 8.7 240 14:39 08.01.2020
1141 Clouds 9 998 71 10000 8.7 240 14:20 08.01.2020
1142 Clouds 10 997 76 10000 7.7 230 13:40 08.01.2020
1143 Clouds 10 997 76 10000 7.2 230 13:19 08.01.2020
1144 Clouds 9 997 76 10000 5.7 220 12:43 08.01.2020
1145 Clouds 9 997 76 10000 6.7 220 12:20 08.01.2020
1146 Clouds 9 997 76 10000 7.2 220 11:55 08.01.2020
1147 Clouds 9 997 76 10000 7.2 220 11:55 08.01.2020
1148 Clouds 9 997 76 10000 7.2 220 11:37 08.01.2020
1149 Clouds 9 997 81 10000 6.7 210 11:19 08.01.2020
1150 Clouds 9 997 81 10000 6.7 210 11:19 08.01.2020
1151 Clouds 9 998 81 10000 7.2 210 10:55 08.01.2020
1152 Clouds 9 998 81 10000 7.2 220 10:37 08.01.2020
1153 Clouds 9 998 81 10000 7.2 210 10:37 08.01.2020
1154 Clouds 9 998 81 10000 7.2 210 10:37 08.01.2020
1155 Clouds 9 998 81 10000 7.2 220 10:18 08.01.2020
1156 Clouds 8 998 76 10000 6.7 220 09:41 08.01.2020
1157 Clouds 8 998 76 10000 6.7 220 09:19 08.01.2020
1158 Clouds 8 998 81 10000 5.7 210 08:57 08.01.2020
1159 Clouds 8 998 81 10000 5.7 210 08:37 08.01.2020
1160 Clouds 7 998 81 10000 5.1 200 08:19 08.01.2020
1161 Clouds 7 998 81 10000 5.7 200 07:48 08.01.2020
1162 Clouds 7 998 87 10000 6.2 200 07:29 08.01.2020
1163 Clouds 6 999 81 10000 5.7 200 06:45 08.01.2020
1164 Clouds 6 999 81 10000 5.1 190 06:22 08.01.2020
1165 Clouds 6 1000 81 10000 6.2 190 05:41 08.01.2020
1166 Clouds 6 1002 81 10000 6.2 190 04:56 08.01.2020
1167 Clouds 6 1002 81 10000 7.2 190 04:24 08.01.2020
1168 Clouds 6 1004 81 10000 7.2 190 02:45 08.01.2020
1169 Clouds 6 1004 81 10000 6.7 180 02:22 08.01.2020
1170 Drizzle 6 1005 81 10000 6.2 180 01:46 08.01.2020
1171 Clouds 6 1006 81 10000 6.2 180 01:19 08.01.2020
1172 Clouds 5 1008 86 10000 5.7 190 00:27 08.01.2020
1173 Clouds 5 1008 86 10000 6.2 200 23:55 07.01.2020
1174 Clouds 5 1008 86 10000 6.2 200 23:37 07.01.2020
1175 Clouds 5 1008 81 10000 6.2 190 23:19 07.01.2020
1176 Clouds 5 1009 86 10000 5.7 190 22:40 07.01.2020
1177 Clouds 5 1010 86 10000 5.1 210 22:20 07.01.2020
1178 Clouds 5 1010 86 10000 5.7 220 21:56 07.01.2020
1179 Clouds 5 1010 86 10000 5.7 220 21:38 07.01.2020
1180 Clouds 5 1011 86 10000 4.1 200 21:20 07.01.2020
1181 Clouds 5 1011 86 10000 5.1 210 20:55 07.01.2020
1182 Clouds 5 1011 86 10000 5.1 210 20:36 07.01.2020
1183 Clouds 5 1011 86 10000 5.1 210 20:36 07.01.2020
1184 Clouds 5 1012 86 10000 4.6 210 20:18 07.01.2020
1185 Clouds 5 1012 86 10000 5.1 210 19:38 07.01.2020
1186 Clouds 5 1012 86 10000 4.6 180 19:19 07.01.2020
1187 Clouds 5 1013 86 10000 4.1 180 18:58 07.01.2020
1188 Clouds 5 1013 86 10000 4.1 180 18:58 07.01.2020
1189 Clouds 5 1013 86 10000 4.1 180 18:40 07.01.2020
1190 Clouds 5 1013 86 10000 4.1 200 18:19 07.01.2020
1191 Clouds 5 1013 86 10000 4.6 220 17:58 07.01.2020
1192 Clouds 5 1013 86 10000 4.6 220 17:39 07.01.2020
1193 Clouds 5 1013 86 10000 4.1 210 17:20 07.01.2020
1194 Clouds 5 1013 86 10000 5.1 220 16:56 07.01.2020
1195 Clouds 5 1013 86 10000 4.6 200 16:37 07.01.2020
1196 Clouds 5 1013 86 10000 4.6 200 16:19 07.01.2020
1197 Clouds 5 1013 86 10000 4.6 210 15:57 07.01.2020
1198 Clouds 5 1013 93 10000 4.1 220 15:38 07.01.2020
1199 Clouds 5 1013 93 10000 4.1 220 15:19 07.01.2020
1200 Clouds 5 1013 93 10000 3.6 210 14:42 07.01.2020
1201 Clouds 5 1013 93 10000 4.1 210 14:24 07.01.2020
1202 Clouds 6 1013 93 10000 4.6 210 13:57 07.01.2020
1203 Clouds 6 1013 93 10000 4.6 210 13:39 07.01.2020
1204 Clouds 5 1013 86 10000 4.1 210 13:18 07.01.2020
1205 Clouds 5 1013 93 10000 4.1 210 12:41 07.01.2020
1206 Clouds 5 1012 93 10000 4.6 210 12:19 07.01.2020
1207 Clouds 5 1013 86 10000 4.6 210 11:45 07.01.2020
1208 Clouds 5 1012 93 10000 6.7 220 11:23 07.01.2020
1209 Clouds 5 1013 86 10000 4.1 210 10:59 07.01.2020
1210 Clouds 5 1013 86 10000 4.1 210 10:41 07.01.2020
1211 Clouds 5 1013 93 10000 4.1 210 10:23 07.01.2020
1212 Clouds 5 1012 93 10000 4.1 210 09:56 07.01.2020
1213 Clouds 5 1012 93 10000 4.1 210 09:38 07.01.2020
1214 Clouds 5 1012 93 10000 4.6 210 09:19 07.01.2020
1215 Clouds 5 1012 93 10000 3.6 210 08:42 07.01.2020
1216 Clouds 5 1011 93 10000 4.1 190 08:22 07.01.2020
1217 Clouds 5 1011 93 10000 3.6 210 07:54 07.01.2020
1218 Clouds 5 1011 93 10000 3.6 200 07:27 07.01.2020
1219 Clouds 5 1011 93 10000 2.6 200 06:53 07.01.2020
1220 Clouds 5 1011 93 10000 3.1 200 06:32 07.01.2020
1221 Clouds 5 1011 93 10000 3.6 210 05:49 07.01.2020
1222 Clouds 6 1011 87 10000 4.1 210 04:31 07.01.2020
1223 Clouds 6 1011 87 10000 3.1 200 03:26 07.01.2020
1224 Clouds 6 1011 93 10000 2.6 200 02:21 07.01.2020
1225 Clouds 6 1011 93 10000 3.6 210 01:51 07.01.2020
1226 Clouds 6 1011 93 10000 3.1 220 01:26 07.01.2020
1227 Mist 6 1012 100 4000 3.6 240 00:23 07.01.2020
1228 Clouds 6 1012 100 10000 4.6 230 23:59 06.01.2020
1229 Clouds 6 1012 100 10000 4.6 230 23:39 06.01.2020
1230 Clouds 6 1012 100 10000 3.1 220 23:21 06.01.2020
1231 Mist 6 1012 100 9000 3.1 230 22:58 06.01.2020
1232 Mist 6 1012 100 9000 3.1 230 22:37 06.01.2020
1233 Mist 6 1012 100 9000 2.6 200 22:19 06.01.2020
1234 Mist 6 1012 93 5000 2.1 220 21:55 06.01.2020
1235 Mist 6 1012 93 5000 2.1 220 21:37 06.01.2020
1236 Clouds 6 1012 93 10000 2.6 220 21:18 06.01.2020
1237 Clouds 6 1012 93 10000 2.6 230 20:55 06.01.2020
1238 Clouds 6 1012 93 10000 2.6 230 20:37 06.01.2020
1239 Clouds 6 1013 93 10000 2.6 220 20:19 06.01.2020
1240 Clouds 6 1013 93 10000 2.6 220 20:19 06.01.2020
1241 Rain 6 1013 93 9000 3.6 220 19:55 06.01.2020
1242 Rain 6 1013 93 9000 3.6 220 19:37 06.01.2020
1243 Mist 6 1013 93 8000 2.6 220 19:18 06.01.2020
1244 Clouds 6 1013 93 10000 2.6 220 18:44 06.01.2020
1245 Clouds 6 1013 93 10000 2.6 220 18:20 06.01.2020
1246 Clouds 5 1013 93 10000 2.6 220 17:40 06.01.2020
1247 Mist 5 1014 93 5000 2.6 220 17:20 06.01.2020
1248 Mist 5 1014 93 5000 2.6 220 17:20 06.01.2020
1249 Mist 5 1014 93 7000 2.6 220 16:57 06.01.2020
1250 Clouds 5 1014 100 7000 2.6 220 16:39 06.01.2020
1251 Clouds 5 1014 100 7000 2.6 220 16:21 06.01.2020
1252 Clouds 5 1014 93 10000 2.6 220 15:59 06.01.2020
1253 Clouds 5 1014 93 10000 2.6 220 15:36 06.01.2020
1254 Clouds 5 1014 100 10000 3.1 230 15:18 06.01.2020
1255 Clouds 5 1014 93 10000 4.1 240 14:41 06.01.2020
1256 Clouds 5 1014 100 10000 3.1 240 14:22 06.01.2020
1257 Clouds 5 1014 100 10000 3.1 240 13:59 06.01.2020
1258 Clouds 5 1014 100 10000 3.1 240 13:39 06.01.2020
1259 Clouds 5 1014 100 10000 3.1 230 13:20 06.01.2020
1260 Clouds 5 1014 93 10000 2.1 230 12:55 06.01.2020
1261 Clouds 5 1014 93 10000 2.1 230 12:37 06.01.2020
1262 Clouds 5 1015 93 10000 4.1 240 12:18 06.01.2020
1263 Clouds 5 1015 93 10000 4.1 240 11:41 06.01.2020
1264 Clouds 5 1015 93 10000 5.1 250 11:23 06.01.2020
1265 Clouds 5 1015 93 10000 3.1 250 10:59 06.01.2020
1266 Clouds 5 1015 93 10000 3.1 250 10:40 06.01.2020
1267 Clouds 4 1015 93 10000 2.1 230 10:20 06.01.2020
1268 Clouds 4 1015 100 10000 1.5 210 09:39 06.01.2020
1269 Clouds 4 1015 100 10000 2.1 250 09:20 06.01.2020
1270 Clouds 4 1015 100 10000 1.5 210 08:52 06.01.2020
1271 Clouds 3 1015 100 10000 1.5 210 08:34 06.01.2020
1272 Clouds 4 1014 100 10000 2.6 250 07:57 06.01.2020
1273 Clouds 4 1014 100 10000 2.6 250 07:37 06.01.2020
1274 Clouds 4 1014 100 10000 2.6 250 06:49 06.01.2020
1275 Clouds 4 1014 100 10000 2.6 260 06:30 06.01.2020
1276 Clouds 4 1014 100 10000 3.1 240 05:48 06.01.2020
1277 Clouds 4 1014 93 10000 3.1 250 04:55 06.01.2020
1278 Clouds 4 1014 93 10000 2.6 250 04:21 06.01.2020
1279 Clouds 4 1014 93 10000 2.6 240 03:25 06.01.2020
1280 Clouds 4 1013 93 10000 4.6 240 02:25 06.01.2020
1281 Clouds 4 1013 100 10000 3.6 240 01:46 06.01.2020
1282 Clouds 4 1013 100 10000 4.1 250 01:28 06.01.2020
1283 Clouds 4 1013 100 10000 4.6 230 00:44 06.01.2020
1284 Clouds 4 1013 100 10000 4.6 230 00:44 06.01.2020
1285 Clouds 3 1013 100 9000 5.1 230 00:24 06.01.2020
1286 Mist 3 1013 93 6000 5.1 230 23:43 05.01.2020
1287 Mist 3 1013 93 6000 5.1 230 23:23 05.01.2020
1288 Mist 3 1013 93 7000 5.1 230 22:58 05.01.2020
1289 Mist 3 1013 93 7000 5.1 230 22:39 05.01.2020
1290 Mist 2 1013 100 3600 4.6 220 22:20 05.01.2020
1291 Clouds 2 1013 93 10000 5.1 220 21:56 05.01.2020
1292 Clouds 2 1013 93 10000 5.1 220 21:37 05.01.2020
1293 Clouds 2 1013 93 10000 5.1 220 21:37 05.01.2020
1294 Clouds 2 1014 93 10000 5.1 220 21:19 05.01.2020
1295 Rain 2 1014 93 10000 6.2 210 20:56 05.01.2020
1296 Rain 2 1014 93 10000 6.2 210 20:37 05.01.2020
1297 Rain 1 1014 100 10000 5.1 200 20:19 05.01.2020
1298 Rain 1 1015 100 8000 7.7 200 19:56 05.01.2020
1299 Rain 1 1015 100 8000 7.7 200 19:37 05.01.2020
1300 Rain 1 1015 100 9000 4.6 200 19:19 05.01.2020
1301 Clouds 1 1016 93 8000 5.1 180 18:54 05.01.2020
1302 Clouds 1 1016 93 8000 5.1 180 18:36 05.01.2020
1303 Clouds 1 1016 93 8000 5.1 180 18:36 05.01.2020
1304 Snow 1 1017 93 2600 4.1 180 18:18 05.01.2020
1305 Snow 1 1018 93 3000 5.1 190 17:55 05.01.2020
1306 Snow 1 1019 64 10000 5.1 200 17:37 05.01.2020
1307 Snow 1 1019 64 10000 5.1 200 17:18 05.01.2020
1308 Clouds 1 1019 64 10000 5.1 190 16:55 05.01.2020
1309 Clouds 1 1019 64 10000 5.1 190 16:36 05.01.2020
1310 Clouds 1 1020 64 10000 4.1 190 16:18 05.01.2020
1311 Clouds 0 1021 64 10000 3.1 170 15:36 05.01.2020
1312 Clouds 1 1021 64 10000 3.1 170 15:36 05.01.2020
1313 Clouds 0 1021 64 10000 3.1 170 15:36 05.01.2020
1314 Clouds 0 1021 56 10000 2.6 190 15:18 05.01.2020
1315 Clouds 0 1021 56 10000 2.6 170 14:54 05.01.2020
1316 Clouds 0 1021 56 10000 2.6 170 14:36 05.01.2020
1317 Clouds 0 1021 64 10000 2.6 180 14:18 05.01.2020
1318 Clouds 0 1022 64 10000 2.1 190 13:40 05.01.2020
1319 Clouds 0 1022 65 10000 2.6 210 13:21 05.01.2020
1320 Clouds 0 1022 65 10000 2.1 210 12:57 05.01.2020
1321 Clouds 0 1022 65 10000 2.1 210 12:39 05.01.2020
1322 Clouds 0 1023 65 10000 2.1 230 12:21 05.01.2020
1323 Clouds -1 1023 74 10000 2.1 220 11:55 05.01.2020
1324 Clouds -1 1023 74 10000 2.1 220 11:37 05.01.2020
1325 Clouds -1 1023 80 10000 4.1 230 11:19 05.01.2020
1326 Clouds -1 1023 80 10000 2.1 220 10:56 05.01.2020
1327 Clouds -1 1023 80 10000 2.1 220 10:36 05.01.2020
1328 Clouds -1 1023 80 10000 2.6 240 10:36 05.01.2020
1329 Clouds -1 1023 80 10000 2.6 240 10:18 05.01.2020
1330 Clouds -2 1023 74 10000 2.1 260 09:41 05.01.2020
1331 Clouds -2 1023 79 10000 1.5 240 09:21 05.01.2020
1332 Clouds -2 1023 79 10000 1.5 250 08:46 05.01.2020
1333 Clouds -2 1023 74 10000 1.5 250 08:27 05.01.2020
1334 Clear -2 1022 74 10000 2.1 280 07:55 05.01.2020
1335 Clear -2 1022 74 10000 2.1 280 07:35 05.01.2020
1336 Clear -2 1021 74 10000 3.6 300 06:58 05.01.2020
1337 Clear -1 1020 68 10000 4.1 300 05:55 05.01.2020
1338 Clear -1 1020 68 10000 4.6 290 05:30 05.01.2020
1339 Clear -1 1020 68 10000 4.6 290 05:30 05.01.2020
1340 Clear -1 1019 68 10000 4.1 290 04:34 05.01.2020
1341 Clear 0 1019 62 10000 5.7 310 03:47 05.01.2020
1342 Clear 0 1018 62 10000 6.2 300 02:45 05.01.2020
1343 Clear 0 1017 58 10000 6.7 300 02:20 05.01.2020
1344 Clear 0 1015 58 10000 6.2 300 01:40 05.01.2020
1345 Clear 0 1015 57 10000 6.2 300 01:18 05.01.2020
1346 Clear 0 1015 57 10000 5.7 290 00:41 05.01.2020
1347 Clear 0 1014 57 10000 5.7 300 00:22 05.01.2020
1348 Clear 0 1013 57 10000 5.1 290 23:59 04.01.2020
1349 Clear 0 1013 57 10000 5.1 290 23:39 04.01.2020
1350 Clear 0 1012 55 10000 6.7 300 23:19 04.01.2020
1351 Clear 1 1012 55 10000 7.2 310 22:39 04.01.2020
1352 Clear 1 1011 55 10000 6.7 310 22:21 04.01.2020
1353 Clear 1 1010 50 10000 6.7 310 21:57 04.01.2020
1354 Clear 1 1010 50 10000 6.7 310 21:38 04.01.2020
1355 Clear 1 1009 50 10000 6.7 310 21:19 04.01.2020
1356 Clear 1 1008 50 10000 7.2 300 20:57 04.01.2020
1357 Clear 1 1008 50 10000 7.7 310 20:38 04.01.2020
1358 Clouds 1 1008 50 10000 7.7 310 20:20 04.01.2020
1359 Clouds 1 1007 47 10000 8.7 310 19:42 04.01.2020
1360 Clouds 1 1007 47 10000 8.7 310 19:42 04.01.2020
1361 Clouds 2 1006 47 10000 8.2 310 19:24 04.01.2020
1362 Clouds 2 1005 51 10000 8.7 300 18:59 04.01.2020
1363 Clouds 2 1005 51 10000 8.7 300 18:39 04.01.2020
1364 Clouds 2 1004 51 10000 7.2 300 18:21 04.01.2020
1365 Clouds 2 1003 55 10000 6.7 300 17:59 04.01.2020
1366 Clouds 2 1002 55 10000 8.2 290 17:40 04.01.2020
1367 Clouds 2 1002 55 10000 8.2 290 17:22 04.01.2020
1368 Clouds 2 1001 51 10000 7.2 290 16:54 04.01.2020
1369 Clouds 3 1000 51 10000 8.2 300 16:36 04.01.2020
1370 Clouds 3 1000 51 10000 8.2 300 16:18 04.01.2020
1371 Clouds 3 999 55 10000 5.7 290 15:42 04.01.2020
1372 Clouds 3 999 55 10000 5.7 290 15:42 04.01.2020
1373 Clouds 3 999 59 10000 6.2 280 15:19 04.01.2020
1374 Clouds 3 998 59 10000 6.7 280 14:58 04.01.2020
1375 Clouds 3 998 59 10000 6.7 280 14:58 04.01.2020
1376 Clouds 3 998 59 10000 6.7 280 14:40 04.01.2020
1377 Clouds 3 997 59 10000 7.2 270 14:19 04.01.2020
1378 Clouds 3 997 59 10000 8.2 270 13:56 04.01.2020
1379 Clouds 3 997 59 10000 8.2 270 13:37 04.01.2020
1380 Clouds 3 997 59 10000 8.2 270 13:37 04.01.2020
1381 Clouds 3 996 55 10000 8.7 270 13:18 04.01.2020
1382 Clouds 3 996 51 10000 8.7 270 12:42 04.01.2020
1383 Clouds 2 995 51 10000 9.8 270 12:20 04.01.2020
1384 Clouds 2 996 55 10000 7.7 280 11:59 04.01.2020
1385 Clouds 2 996 55 10000 7.7 280 11:40 04.01.2020
1386 Clouds 2 996 55 10000 7.7 280 11:40 04.01.2020
1387 Clear 2 995 55 10000 7.7 270 11:20 04.01.2020
1388 Clear 2 995 51 10000 7.2 270 10:58 04.01.2020
1389 Clear 2 995 51 10000 7.2 270 10:38 04.01.2020
1390 Clear 2 995 51 10000 8.7 260 10:19 04.01.2020
1391 Clear 2 994 51 10000 7.7 260 09:42 04.01.2020
1392 Clear 1 993 51 10000 8.2 260 09:24 04.01.2020
1393 Clear 2 993 51 10000 10.3 260 08:44 04.01.2020
1394 Clouds 2 993 55 10000 8.7 260 08:25 04.01.2020
1395 Clouds 2 992 55 10000 9.3 260 07:51 04.01.2020
1396 Clouds 2 992 55 10000 9.3 260 07:32 04.01.2020
1397 Clouds 2 992 55 10000 9.3 260 06:39 04.01.2020
1398 Clouds 2 991 55 10000 7.7 260 05:46 04.01.2020
1399 Clear 2 991 55 10000 8.7 260 04:47 04.01.2020
1400 Clear 3 991 55 10000 9.3 260 04:27 04.01.2020
1401 Clear 3 991 64 10000 8.2 240 03:19 04.01.2020
1402 Clear 3 991 69 10000 5.1 230 02:36 04.01.2020
1403 Snow 3 992 69 10000 4.6 230 01:58 04.01.2020
1404 Snow 3 993 69 10000 6.7 230 01:32 04.01.2020
1405 Snow 3 993 74 10000 5.1 230 00:56 04.01.2020
1406 Snow 3 994 69 10000 6.7 240 00:28 04.01.2020
1407 Snow 3 994 69 10000 7.2 230 23:52 03.01.2020
1408 Snow 3 995 69 10000 5.7 230 23:27 03.01.2020
1409 Clouds 4 995 74 10000 6.7 220 22:55 03.01.2020
1410 Clouds 3 995 74 10000 6.7 220 22:37 03.01.2020
1411 Clouds 3 995 74 10000 6.2 210 22:18 03.01.2020
1412 Clouds 4 996 74 10000 6.2 210 21:56 03.01.2020
1413 Clouds 4 996 74 10000 6.2 210 21:37 03.01.2020
1414 Clouds 3 996 69 10000 4.6 210 21:18 03.01.2020
1415 Clouds 3 996 69 10000 4.6 210 20:43 03.01.2020
1416 Clouds 3 996 69 10000 4.6 210 20:43 03.01.2020
1417 Clouds 3 997 59 10000 2.6 210 20:19 03.01.2020
1418 Clouds 3 997 51 10000 3.1 220 19:59 03.01.2020
1419 Clouds 3 997 51 10000 3.1 220 19:41 03.01.2020
1420 Clouds 4 997 48 10000 4.6 250 19:22 03.01.2020
1421 Clouds 4 997 48 10000 6.2 250 18:46 03.01.2020
1422 Clouds 5 997 56 10000 5.1 250 18:26 03.01.2020
1423 Clouds 5 997 48 10000 7.7 260 17:58 03.01.2020
1424 Clouds 5 997 48 10000 7.7 260 17:58 03.01.2020
1425 Clouds 5 997 48 10000 7.7 260 17:39 03.01.2020
1426 Clouds 5 996 56 10000 7.7 260 17:21 03.01.2020
1427 Clouds 6 996 60 10000 9.3 270 16:44 03.01.2020
1428 Clouds 6 996 56 10000 8.7 270 16:24 03.01.2020
1429 Clouds 6 995 55 10000 10.3 260 15:59 03.01.2020
1430 Clouds 7 995 55 10000 10.3 260 15:41 03.01.2020
1431 Clouds 7 994 81 10000 7.2 250 15:19 03.01.2020
1432 Clouds 7 994 75 10000 7.7 250 14:39 03.01.2020
1433 Clouds 7 993 75 10000 8.7 240 14:20 03.01.2020
1434 Clouds 8 993 75 10000 11.3 240 13:57 03.01.2020
1435 Clouds 8 993 75 10000 11.3 240 13:38 03.01.2020
1436 Clouds 8 993 75 10000 7.7 240 13:20 03.01.2020
1437 Clouds 8 993 75 10000 7.7 230 12:41 03.01.2020
1438 Clouds 7 993 75 10000 7.7 230 12:22 03.01.2020
1439 Clouds 7 993 81 10000 7.7 220 11:53 03.01.2020
1440 Clouds 7 993 81 10000 7.7 220 11:34 03.01.2020
1441 Clouds 7 994 75 10000 6.7 220 10:58 03.01.2020
1442 Clouds 6 994 75 10000 6.7 220 10:39 03.01.2020
1443 Clouds 6 995 75 10000 7.7 220 10:21 03.01.2020
1444 Clouds 6 995 75 10000 7.2 220 09:55 03.01.2020
1445 Clouds 6 996 81 10000 7.2 220 09:37 03.01.2020
1446 Clouds 6 996 81 10000 7.2 220 09:19 03.01.2020
1447 Clouds 6 996 81 10000 7.2 220 08:44 03.01.2020
1448 Clouds 5 996 75 10000 7.2 220 08:22 03.01.2020
1449 Clouds 6 996 75 10000 7.2 210 07:43 03.01.2020
1450 Clouds 5 996 75 10000 8.2 220 07:19 03.01.2020
1451 Clouds 6 997 75 10000 6.7 210 06:59 03.01.2020
1452 Clouds 6 997 75 10000 6.7 210 06:40 03.01.2020
1453 Clouds 6 997 75 10000 7.7 220 06:22 03.01.2020
1454 Clouds 6 997 75 10000 7.7 220 06:22 03.01.2020
1455 Clouds 6 997 75 10000 7.7 220 06:22 03.01.2020
1456 Clouds 6 999 75 10000 8.2 220 04:59 03.01.2020
1457 Clouds 7 1001 70 10000 6.7 230 03:38 03.01.2020
1458 Clouds 7 1002 75 10000 6.7 230 02:53 03.01.2020
1459 Clouds 7 1002 70 10000 6.7 230 01:51 03.01.2020
1460 Clouds 7 1003 70 10000 5.1 230 01:31 03.01.2020
1461 Clouds 7 1003 70 10000 6.7 230 00:40 03.01.2020
1462 Clouds 6 1004 70 10000 7.2 230 00:20 03.01.2020
1463 Clouds 6 1004 75 10000 7.2 240 23:39 02.01.2020
1464 Clear 6 1004 75 10000 8.2 230 23:20 02.01.2020
1465 Clear 6 1004 75 10000 7.2 230 22:59 02.01.2020
1466 Clear 6 1004 75 10000 7.2 230 22:41 02.01.2020
1467 Clouds 6 1004 75 10000 7.2 230 22:20 02.01.2020
1468 Clouds 6 1005 75 10000 7.2 230 21:56 02.01.2020
1469 Clouds 6 1005 75 10000 7.2 230 21:38 02.01.2020
1470 Clouds 6 1005 81 10000 7.2 240 21:19 02.01.2020
1471 Clouds 6 1005 81 10000 6.7 240 20:56 02.01.2020
1472 Clouds 6 1005 81 10000 6.7 240 20:37 02.01.2020
1473 Clouds 6 1005 81 10000 8.2 250 20:18 02.01.2020
1474 Clouds 6 1006 75 10000 7.2 240 19:54 02.01.2020
1475 Clouds 6 1006 75 10000 7.2 240 19:36 02.01.2020
1476 Clouds 6 1006 81 10000 7.2 240 19:18 02.01.2020
1477 Clouds 6 1006 81 10000 7.2 250 18:43 02.01.2020
1478 Clouds 6 1006 81 10000 7.7 250 18:24 02.01.2020
1479 Clouds 6 1006 75 10000 8.2 240 17:58 02.01.2020
1480 Clouds 6 1006 75 10000 8.2 240 17:39 02.01.2020
1481 Clear 6 1006 75 10000 7.7 240 17:20 02.01.2020
1482 Clouds 6 1006 75 10000 7.7 240 16:58 02.01.2020
1483 Clouds 6 1006 75 10000 7.7 240 16:58 02.01.2020
1484 Clouds 6 1006 75 10000 7.7 240 16:40 02.01.2020
1485 Clouds 6 1007 75 10000 7.7 250 16:20 02.01.2020
1486 Clear 6 1007 81 10000 6.7 250 15:58 02.01.2020
1487 Clear 6 1007 81 10000 6.2 240 15:40 02.01.2020
1488 Clear 6 1007 81 10000 6.2 240 15:21 02.01.2020
1489 Clear 6 1007 75 10000 6.7 250 14:57 02.01.2020
1490 Clear 7 1007 75 10000 6.2 250 14:36 02.01.2020
1491 Clear 7 1007 75 10000 6.2 250 14:36 02.01.2020
1492 Clouds 7 1007 75 10000 6.2 250 14:18 02.01.2020
1493 Clouds 7 1007 75 10000 8.2 250 13:49 02.01.2020
1494 Clouds 7 1007 75 10000 7.7 250 13:31 02.01.2020
1495 Clouds 7 1007 75 10000 7.7 250 12:46 02.01.2020
1496 Clouds 7 1008 75 10000 8.2 260 12:26 02.01.2020
1497 Clouds 7 1008 75 10000 8.2 260 11:59 02.01.2020
1498 Clouds 7 1008 75 10000 8.2 260 11:40 02.01.2020
1499 Clouds 7 1008 75 10000 9.3 250 11:20 02.01.2020
1500 Clouds 7 1008 75 10000 9.8 250 10:44 02.01.2020
1501 Clouds 7 1008 75 10000 8.2 260 10:26 02.01.2020
1502 Clouds 6 1008 75 10000 8.7 250 09:51 02.01.2020
1503 Clouds 6 1008 81 10000 6.2 250 09:33 02.01.2020
1504 Clouds 6 1008 81 10000 5.7 250 08:47 02.01.2020
1505 Clouds 6 1008 81 10000 4.6 250 08:27 02.01.2020
1506 Clouds 6 1008 81 10000 4.6 240 07:54 02.01.2020
1507 Clouds 6 1009 81 10000 5.7 250 07:30 02.01.2020
1508 Clouds 6 1009 81 10000 4.6 240 06:55 02.01.2020
1509 Clouds 5 1009 81 10000 4.6 240 06:36 02.01.2020
1510 Clouds 6 1010 81 10000 5.1 250 05:35 02.01.2020
1511 Clouds 6 1010 81 10000 5.7 260 04:33 02.01.2020
1512 Clouds 6 1010 87 10000 6.2 260 02:54 02.01.2020
1513 Clouds 6 1010 87 10000 6.2 270 01:59 02.01.2020
1514 Clouds 6 1010 87 10000 6.2 270 01:39 02.01.2020
1515 Clouds 6 1010 81 10000 8.7 260 00:59 02.01.2020
1516 Clouds 6 1010 81 10000 8.2 260 00:34 02.01.2020
1517 Clouds 6 1010 81 10000 7.7 260 23:56 01.01.2020
1518 Clouds 6 1010 81 10000 7.7 260 23:37 01.01.2020
1519 Clouds 6 1010 75 10000 8.2 260 23:18 01.01.2020
1520 Clouds 5 1011 75 10000 7.7 250 22:38 01.01.2020
1521 Clouds 5 1011 75 10000 7.7 260 22:19 01.01.2020
1522 Clouds 6 1010 75 10000 8.2 250 21:56 01.01.2020
1523 Clouds 6 1010 75 10000 8.2 250 21:38 01.01.2020
1524 Clouds 6 1010 75 10000 8.2 250 21:19 01.01.2020
1525 Clouds 6 1010 75 10000 8.2 250 21:19 01.01.2020
1526 Clouds 5 1010 75 10000 9.3 250 20:55 01.01.2020
1527 Clouds 5 1010 75 10000 9.3 250 20:37 01.01.2020
1528 Clouds 5 1011 75 10000 7.2 250 20:19 01.01.2020
1529 Clouds 5 1011 75 10000 7.2 250 20:19 01.01.2020
1530 Clouds 5 1011 80 10000 5.7 250 19:55 01.01.2020
1531 Clouds 5 1011 80 10000 5.7 250 19:37 01.01.2020
1532 Clouds 5 1011 75 10000 5.1 240 19:19 01.01.2020
1533 Clouds 5 1012 75 10000 5.1 240 18:55 01.01.2020
1534 Clouds 5 1012 75 10000 5.1 240 18:36 01.01.2020
1535 Clouds 5 1012 75 10000 4.6 240 18:18 01.01.2020
1536 Clouds 5 1012 75 10000 4.1 250 17:56 01.01.2020
1537 Clouds 5 1012 75 10000 4.1 250 17:56 01.01.2020
1538 Clouds 5 1012 75 10000 4.1 250 17:37 01.01.2020
1539 Clouds 5 1013 75 10000 4.6 250 17:18 01.01.2020
1540 Clouds 5 1013 75 10000 4.1 260 16:40 01.01.2020
1541 Clouds 5 1013 75 10000 4.1 260 16:40 01.01.2020
1542 Clouds 5 1012 75 10000 5.1 250 16:21 01.01.2020
1543 Clouds 4 1012 75 10000 6.7 250 15:57 01.01.2020
1544 Clouds 4 1012 75 10000 6.7 250 15:39 01.01.2020
1545 Clouds 4 1012 75 10000 6.7 260 15:20 01.01.2020
1546 Clouds 4 1012 75 10000 7.2 260 14:58 01.01.2020
1547 Clouds 4 1012 75 10000 7.2 260 14:58 01.01.2020
1548 Clouds 4 1012 75 10000 7.2 260 14:40 01.01.2020
1549 Clouds 4 1012 75 10000 7.2 260 14:21 01.01.2020
1550 Clouds 4 1012 75 10000 7.2 260 14:21 01.01.2020
1551 Clouds 4 1012 75 10000 6.7 260 13:56 01.01.2020
1552 Clouds 4 1012 75 10000 6.7 260 13:37 01.01.2020
1553 Clouds 4 1012 75 10000 7.2 260 13:37 01.01.2020
1554 Clouds 4 1012 75 10000 6.7 260 13:37 01.01.2020
1555 Clouds 4 1012 75 10000 7.2 260 13:18 01.01.2020
1556 Clouds 5 1012 80 10000 6.7 260 12:55 01.01.2020
1557 Clouds 4 1012 80 10000 6.7 260 12:37 01.01.2020
1558 Clouds 4 1013 80 10000 5.1 260 12:18 01.01.2020
1559 Clouds 4 1013 80 10000 4.6 260 11:43 01.01.2020
1560 Clouds 4 1013 80 10000 4.1 250 11:22 01.01.2020
1561 Clouds 4 1013 80 10000 3.6 250 10:59 01.01.2020
1562 Clouds 4 1013 80 10000 3.6 250 10:40 01.01.2020
1563 Clouds 3 1013 84 10000 5.7 250 10:20 01.01.2020
1564 Clouds 3 1013 84 10000 5.1 240 09:56 01.01.2020
1565 Clouds 3 1013 84 10000 5.1 240 09:37 01.01.2020
1566 Clouds 3 1013 74 10000 5.7 240 09:18 01.01.2020
1567 Clouds 3 1013 69 10000 5.1 230 08:55 01.01.2020
1568 Clouds 2 1014 74 10000 4.6 240 08:36 01.01.2020
1569 Clouds 2 1014 74 10000 4.6 240 08:36 01.01.2020
1570 Clouds 2 1014 74 10000 4.6 240 08:18 01.01.2020
1571 Clouds 2 1014 74 10000 3.6 230 07:48 01.01.2020
1572 Clouds 2 1014 74 10000 3.6 240 07:30 01.01.2020
1573 Clouds 2 1014 74 10000 4.1 250 06:44 01.01.2020
1574 Clouds 2 1015 74 10000 4.6 240 06:20 01.01.2020
1575 Clouds 2 1016 69 10000 3.1 230 05:21 01.01.2020
1576 Clouds 2 1017 64 10000 3.6 250 03:43 01.01.2020
1577 Clouds 2 1017 64 10000 4.1 240 03:22 01.01.2020
1578 Clouds 2 1017 64 10000 3.1 250 02:56 01.01.2020
1579 Clouds 2 1018 64 10000 2.6 260 02:33 01.01.2020
1580 Clouds 2 1018 59 10000 3.1 250 01:45 01.01.2020
1581 Clouds 2 1018 64 10000 3.1 260 01:25 01.01.2020
1582 Clouds 2 1019 64 10000 4.1 270 00:57 01.01.2020
1583 Clouds 2 1019 64 10000 4.1 270 00:38 01.01.2020
1584 Clouds 2 1018 64 10000 3.1 240 00:20 01.01.2020
1585 Clouds 2 1019 64 10000 4.1 260 23:40 31.12.2019
1586 Clear 2 1019 64 10000 3.6 260 23:21 31.12.2019
1587 Clear 2 1019 64 10000 3.1 260 22:57 31.12.2019
1588 Clear 2 1019 64 10000 3.1 260 22:38 31.12.2019
1589 Clear 2 1020 64 10000 4.1 270 22:18 31.12.2019
1590 Clear 2 1020 64 10000 5.1 270 21:54 31.12.2019
1591 Clear 2 1020 64 10000 5.1 270 21:36 31.12.2019
1592 Clear 2 1020 64 10000 4.6 270 21:18 31.12.2019
1593 Clear 2 1020 59 10000 5.7 280 20:40 31.12.2019
1594 Clear 2 1020 59 10000 5.7 280 20:22 31.12.2019
1595 Clear 2 1019 64 10000 6.2 280 19:59 31.12.2019
1596 Clear 2 1019 64 10000 6.2 280 19:40 31.12.2019
1597 Clear 2 1019 59 10000 5.7 280 19:22 31.12.2019
1598 Clear 2 1019 59 10000 5.7 280 19:22 31.12.2019
1599 Clear 2 1019 59 10000 6.7 280 18:58 31.12.2019
1600 Clear 2 1018 64 10000 6.7 280 18:40 31.12.2019
1601 Clear 3 1018 64 10000 6.7 280 18:20 31.12.2019
1602 Clear 3 1018 64 10000 6.7 280 17:56 31.12.2019
1603 Clear 3 1018 64 10000 6.7 280 17:38 31.12.2019
1604 Clouds 3 1018 64 10000 6.7 290 17:19 31.12.2019
1605 Clouds 3 1017 59 10000 5.1 290 16:57 31.12.2019
1606 Clouds 3 1017 59 10000 5.1 290 16:38 31.12.2019
1607 Clouds 3 1016 59 10000 5.1 290 16:19 31.12.2019
1608 Clouds 3 1016 55 10000 4.6 290 15:56 31.12.2019
1609 Clouds 4 1016 55 10000 4.6 290 15:38 31.12.2019
1610 Clouds 4 1015 55 10000 6.7 290 15:20 31.12.2019
1611 Clouds 4 1014 60 10000 5.1 300 14:57 31.12.2019
1612 Clouds 4 1014 60 10000 5.1 300 14:38 31.12.2019
1613 Clear 4 1013 60 10000 6.7 300 14:19 31.12.2019
1614 Clear 4 1013 56 10000 7.2 300 13:57 31.12.2019
1615 Clear 4 1013 56 10000 7.2 300 13:57 31.12.2019
1616 Clear 5 1013 56 10000 7.2 300 13:39 31.12.2019
1617 Clouds 5 1012 60 10000 6.7 300 13:21 31.12.2019
1618 Clouds 5 1011 60 10000 6.7 310 12:58 31.12.2019
1619 Clouds 5 1011 60 10000 6.7 310 12:39 31.12.2019
1620 Clouds 5 1011 60 10000 7.7 310 12:20 31.12.2019
1621 Clouds 5 1010 60 10000 5.7 300 11:56 31.12.2019
1622 Clouds 5 1009 60 10000 7.2 300 11:38 31.12.2019
1623 Clouds 5 1009 60 10000 7.2 300 11:20 31.12.2019
1624 Clouds 5 1009 65 10000 5.7 300 10:57 31.12.2019
1625 Clouds 5 1009 65 10000 5.7 300 10:57 31.12.2019
1626 Clouds 5 1009 65 10000 5.7 300 10:38 31.12.2019
1627 Clouds 5 1009 65 10000 5.7 300 10:38 31.12.2019
1628 Clouds 5 1008 65 10000 6.2 300 10:20 31.12.2019
1629 Clouds 5 1007 60 10000 7.2 310 09:58 31.12.2019
1630 Clouds 5 1006 65 10000 5.1 310 09:39 31.12.2019
1631 Clouds 5 1007 60 10000 7.2 310 09:39 31.12.2019
1632 Clouds 5 1006 65 10000 5.1 310 09:20 31.12.2019
1633 Clouds 5 1005 65 10000 5.7 300 08:57 31.12.2019
1634 Clouds 5 1005 65 10000 5.7 300 08:37 31.12.2019
1635 Clear 5 1004 65 10000 5.1 300 08:19 31.12.2019
1636 Clear 5 1003 69 10000 6.2 290 07:42 31.12.2019
1637 Clear 5 1002 65 10000 7.7 290 07:20 31.12.2019
1638 Clear 5 1002 66 10000 8.2 290 06:49 31.12.2019
1639 Clear 4 1001 66 10000 7.2 280 05:57 31.12.2019
1640 Clear 4 1000 75 10000 7.2 270 04:28 31.12.2019
1641 Clear 5 1000 75 10000 5.7 280 03:27 31.12.2019
1642 Clear 5 1000 75 10000 6.7 260 02:54 31.12.2019
1643 Clouds 5 1000 70 10000 5.7 270 01:55 31.12.2019
1644 Clear 6 1000 70 10000 5.7 270 01:35 31.12.2019
1645 Clear 6 1000 75 10000 5.7 270 00:59 31.12.2019
1646 Clear 6 1000 75 10000 5.7 270 00:41 31.12.2019
1647 Clear 6 1000 70 10000 6.7 260 00:21 31.12.2019
1648 Clear 6 1000 75 10000 6.2 270 23:56 30.12.2019
1649 Clear 6 1000 75 10000 6.7 270 23:38 30.12.2019
1650 Clouds 7 1000 75 10000 6.7 270 23:19 30.12.2019
1651 Clouds 7 1000 81 10000 6.2 270 22:57 30.12.2019
1652 Clouds 7 1000 81 10000 6.2 270 22:57 30.12.2019
1653 Clouds 7 1000 81 10000 6.2 270 22:37 30.12.2019
1654 Clouds 7 999 81 10000 7.2 260 22:19 30.12.2019
1655 Clouds 7 999 81 10000 7.2 260 21:56 30.12.2019
1656 Clouds 7 999 81 10000 7.2 260 21:38 30.12.2019
1657 Clouds 7 999 81 10000 6.2 260 21:18 30.12.2019
1658 Clouds 7 999 81 10000 6.2 260 21:18 30.12.2019
1659 Clouds 8 999 81 10000 7.7 260 20:56 30.12.2019
1660 Clouds 8 999 81 10000 8.2 260 20:38 30.12.2019
1661 Clouds 8 999 81 10000 8.2 260 20:19 30.12.2019
1662 Clouds 8 999 81 10000 8.7 260 19:57 30.12.2019
1663 Clouds 8 999 81 10000 8.7 260 19:37 30.12.2019
1664 Clouds 8 1000 81 10000 7.2 260 19:37 30.12.2019
1665 Clouds 8 1000 81 10000 7.2 260 19:19 30.12.2019
1666 Clouds 8 1000 81 10000 7.2 260 19:19 30.12.2019
1667 Clouds 9 1000 81 10000 7.7 260 18:56 30.12.2019
1668 Clouds 9 1000 81 10000 5.7 250 18:37 30.12.2019
1669 Clouds 9 1000 81 10000 5.7 250 18:19 30.12.2019
1670 Clouds 9 1000 81 10000 6.2 250 17:55 30.12.2019
1671 Clouds 9 1000 81 10000 6.2 250 17:36 30.12.2019
1672 Clouds 9 1000 81 10000 6.7 260 17:18 30.12.2019
1673 Clouds 9 1000 81 10000 7.7 260 16:55 30.12.2019
1674 Clouds 9 1000 81 10000 7.7 260 16:36 30.12.2019
1675 Clouds 9 1000 87 10000 8.2 250 16:18 30.12.2019
1676 Clouds 9 1000 87 10000 6.7 260 15:54 30.12.2019
1677 Clouds 9 1001 87 10000 6.7 260 15:36 30.12.2019
1678 Clouds 9 1001 87 10000 6.7 260 15:18 30.12.2019
1679 Clouds 9 1001 87 10000 8.2 260 14:42 30.12.2019
1680 Clouds 10 1001 81 10000 9.3 260 14:19 30.12.2019
1681 Clouds 10 1001 87 10000 7.2 260 13:55 30.12.2019
1682 Clouds 9 1001 87 10000 7.2 260 13:37 30.12.2019
1683 Clouds 9 1001 87 10000 7.2 260 13:18 30.12.2019
1684 Clouds 9 1001 87 10000 8.7 260 12:42 30.12.2019
1685 Clouds 9 1002 87 10000 7.7 260 12:20 30.12.2019
1686 Clouds 9 1002 87 10000 10.3 250 11:58 30.12.2019
1687 Clouds 9 1002 87 10000 10.3 250 11:40 30.12.2019
1688 Clouds 9 1002 87 10000 7.7 250 11:19 30.12.2019
1689 Clouds 9 1002 87 10000 7.7 250 10:44 30.12.2019
1690 Clouds 9 1003 87 10000 7.7 250 10:21 30.12.2019
1691 Clouds 9 1003 93 10000 8.2 250 09:58 30.12.2019
1692 Clouds 8 1003 93 10000 8.2 250 09:39 30.12.2019
1693 Clouds 8 1003 93 10000 8.2 260 09:19 30.12.2019
1694 Clouds 8 1003 93 10000 8.7 260 08:50 30.12.2019
1695 Clouds 8 1003 93 10000 8.7 260 08:50 30.12.2019
1696 Clouds 8 1004 87 10000 7.7 260 08:23 30.12.2019
1697 Clouds 8 1004 87 10000 9.3 250 07:56 30.12.2019
1698 Clouds 8 1004 87 10000 9.3 250 07:37 30.12.2019
1699 Clouds 8 1005 87 10000 8.2 240 06:52 30.12.2019
1700 Clouds 7 1006 87 10000 7.2 250 04:57 30.12.2019
1701 Clouds 7 1007 87 10000 6.7 240 03:57 30.12.2019
1702 Clouds 7 1008 87 10000 8.2 240 02:58 30.12.2019
1703 Clouds 7 1008 87 10000 8.2 240 02:40 30.12.2019
1704 Clouds 7 1009 87 10000 8.2 240 01:50 30.12.2019
1705 Clouds 7 1010 87 10000 6.7 250 01:21 30.12.2019
1706 Clouds 7 1010 87 10000 6.2 240 00:45 30.12.2019
1707 Clouds 7 1011 81 10000 7.7 240 00:19 30.12.2019
1708 Clouds 7 1011 81 10000 8.2 250 23:39 29.12.2019
1709 Clouds 7 1011 81 10000 7.2 250 23:21 29.12.2019
1710 Clouds 6 1011 87 10000 5.7 240 22:55 29.12.2019
1711 Clouds 6 1011 87 10000 5.7 240 22:37 29.12.2019
1712 Clouds 6 1012 87 10000 6.7 240 22:18 29.12.2019
1713 Clouds 6 1012 87 10000 5.7 230 21:43 29.12.2019
1714 Clouds 6 1013 87 10000 4.6 230 21:21 29.12.2019
1715 Clouds 6 1013 87 10000 6.7 240 20:57 29.12.2019
1716 Clouds 6 1013 87 10000 6.7 240 20:39 29.12.2019
1717 Clouds 6 1013 87 10000 5.1 230 20:21 29.12.2019
1718 Clouds 6 1014 87 10000 7.2 240 19:59 29.12.2019
1719 Clouds 6 1014 87 10000 7.2 240 19:40 29.12.2019
1720 Clouds 5 1014 87 10000 6.7 240 19:21 29.12.2019
1721 Clouds 6 1014 87 10000 5.7 220 18:58 29.12.2019
1722 Clouds 6 1014 87 10000 5.7 220 18:39 29.12.2019
1723 Clouds 6 1015 87 10000 5.7 230 18:20 29.12.2019
1724 Clouds 5 1016 93 10000 4.6 220 17:58 29.12.2019
1725 Clouds 5 1016 93 10000 4.6 220 17:39 29.12.2019
1726 Clouds 5 1017 93 10000 5.7 230 17:20 29.12.2019
1727 Clouds 5 1017 93 10000 5.7 220 16:57 29.12.2019
1728 -273 0 0 0 0 0 16:38 29.12.2019
1729 Clouds 4 1017 93 10000 5.7 220 16:38 29.12.2019
1730 Clouds 4 1018 100 8000 5.1 220 16:20 29.12.2019
1731 Mist 4 1018 93 7000 6.2 220 15:58 29.12.2019
1732 Clouds 3 1018 93 8000 6.2 220 15:39 29.12.2019
1733 Clouds 3 1018 93 8000 6.2 220 15:20 29.12.2019
1734 Clouds 3 1019 93 8000 6.7 220 14:58 29.12.2019
1735 Clouds 3 1019 93 8000 6.7 220 14:38 29.12.2019
1736 Mist 3 1019 100 7000 5.7 220 14:18 29.12.2019
1737 Drizzle 3 1019 100 7000 6.7 220 13:57 29.12.2019
1738 Drizzle 3 1019 100 7000 6.7 220 13:38 29.12.2019
1739 Clouds 2 1020 93 10000 6.2 210 13:20 29.12.2019
1740 Rain 2 1020 93 10000 5.7 210 12:45 29.12.2019
1741 Rain 2 1021 93 10000 5.1 210 12:27 29.12.2019
1742 Clouds 2 1021 93 10000 5.1 210 12:27 29.12.2019
1743 Clouds 2 1022 86 10000 5.1 210 11:59 29.12.2019
1744 Clouds 2 1022 86 10000 5.1 210 11:40 29.12.2019
1745 Clouds 2 1023 82 10000 5.7 210 11:20 29.12.2019
1746 Clouds 2 1023 82 10000 5.7 210 10:55 29.12.2019
1747 Clouds 1 1023 82 10000 5.1 210 10:37 29.12.2019
1748 Clouds 1 1023 82 10000 5.1 210 10:18 29.12.2019
1749 Clouds 1 1023 82 10000 5.1 210 10:18 29.12.2019
1750 Clouds 1 1024 86 10000 5.1 210 09:43 29.12.2019
1751 Clouds 1 1025 86 10000 4.6 200 09:25 29.12.2019
1752 Clouds 1 1025 82 10000 5.1 210 08:50 29.12.2019
1753 Clouds 1 1025 81 10000 6.2 210 08:29 29.12.2019
1754 Clouds 1 1026 76 10000 5.7 210 07:58 29.12.2019
1755 Clouds 1 1026 76 10000 5.7 210 07:31 29.12.2019
1756 Clouds 1 1027 76 10000 5.7 210 06:57 29.12.2019
1757 Clouds 1 1027 76 10000 5.7 210 06:27 29.12.2019
1758 Clouds 1 1028 76 10000 4.6 220 05:54 29.12.2019
1759 Clouds 0 1029 78 10000 5.1 210 04:47 29.12.2019
1760 Clouds 0 1029 78 10000 4.6 220 04:28 29.12.2019
1761 Clouds 0 1030 78 10000 5.1 210 03:28 29.12.2019
1762 Clouds 0 1031 72 10000 4.1 200 02:22 29.12.2019
1763 Clouds 0 1031 72 10000 4.1 200 02:22 29.12.2019
1764 Clouds 0 1032 100 10000 3.1 200 01:42 29.12.2019
1765 Snow 0 1032 100 10000 3.6 200 01:23 29.12.2019
1766 Snow -1 1033 100 10000 3.6 200 00:44 29.12.2019
1767 Snow -1 1033 100 10000 3.6 200 00:24 29.12.2019
1768 Snow -1 1034 92 10000 3.6 190 23:45 28.12.2019
1769 Snow -1 1034 100 10000 3.1 190 23:19 28.12.2019
1770 Snow -2 1034 100 10000 3.1 190 23:19 28.12.2019
1771 Snow -2 1035 100 5000 3.6 190 22:54 28.12.2019
1772 Snow -2 1035 100 2000 3.6 190 22:36 28.12.2019
1773 Snow -2 1035 100 2000 3.6 190 22:18 28.12.2019
1774 Snow -2 1036 92 1300 3.1 200 21:55 28.12.2019
1775 Snow -2 1036 92 1300 3.1 200 21:36 28.12.2019
1776 Snow -2 1036 92 10000 4.6 220 21:18 28.12.2019
1777 Snow -2 1036 86 10000 4.1 220 20:40 28.12.2019
1778 Clouds -2 1036 86 10000 4.1 210 20:22 28.12.2019
1779 Clouds -2 1037 86 10000 3.1 230 19:59 28.12.2019
1780 Clouds -2 1037 86 10000 3.1 230 19:40 28.12.2019
1781 Clouds -2 1037 86 10000 3.6 220 19:22 28.12.2019
1782 Clouds -2 1037 86 10000 2.6 200 18:59 28.12.2019
1783 Clouds -2 1037 86 10000 2.6 200 18:40 28.12.2019
1784 Clouds -2 1037 86 10000 2.6 200 18:19 28.12.2019
1785 Clouds -2 1038 86 10000 2.1 220 17:56 28.12.2019
1786 Clouds -2 1038 86 10000 2.1 220 17:38 28.12.2019
1787 Clouds -2 1038 92 10000 2.1 210 17:19 28.12.2019
1788 Clouds -3 1039 92 10000 2.1 210 16:46 28.12.2019
1789 Clouds -3 1039 92 10000 1.5 210 16:26 28.12.2019
1790 Clouds -3 1039 92 10000 1.5 210 16:26 28.12.2019
1791 Clouds -3 1039 92 10000 1.5 210 16:26 28.12.2019
1792 Clouds -3 1039 92 10000 1.5 220 15:49 28.12.2019
1793 Clouds -2 1039 92 10000 1.5 220 15:25 28.12.2019
1794 Clouds -2 1039 92 10000 1.5 240 15:00 28.12.2019
1795 Clouds -2 1039 92 10000 1.5 240 14:40 28.12.2019
1796 Clouds -2 1039 92 10000 1.5 240 14:40 28.12.2019
1797 Clouds -2 1040 92 10000 2.1 240 14:21 28.12.2019
1798 Clouds -2 1040 100 10000 2.1 240 13:57 28.12.2019
1799 Clouds -2 1040 100 10000 1.81 236 13:38 28.12.2019
1800 Clouds -2 1040 100 10000 1.81 236 13:19 28.12.2019
1801 Clouds -2 1040 92 10000 1.81 236 12:43 28.12.2019
1802 Clouds -2 1040 92 10000 0.5 0 12:24 28.12.2019
1803 Clouds -3 1040 100 10000 1.81 236 11:57 28.12.2019
1804 Clouds -3 1040 100 10000 1.81 236 11:38 28.12.2019
1805 Clouds -3 1041 100 10000 0.92 305 11:20 28.12.2019
1806 Clouds -3 1041 100 10000 0.92 305 10:44 28.12.2019
1807 Clouds -4 1041 100 10000 0.92 305 10:22 28.12.2019
1808 Clouds -4 1041 100 10000 0.92 305 10:22 28.12.2019
1809 Clouds -4 1040 100 10000 0.92 305 09:58 28.12.2019
1810 Clouds -4 1040 100 10000 0.92 305 09:40 28.12.2019
1811 Clouds -4 1041 100 10000 2.6 280 09:20 28.12.2019
1812 Clouds -5 1040 92 10000 1 260 08:44 28.12.2019
1813 Clouds -5 1040 100 10000 0.92 305 08:26 28.12.2019
1814 Clear -4 1040 100 10000 1 260 07:55 28.12.2019
1815 Clear -4 1040 100 10000 1 260 07:32 28.12.2019
1816 Clear -4 1040 100 10000 1.5 300 06:41 28.12.2019
1817 Clear -3 1040 92 10000 2.6 310 04:59 28.12.2019
1818 Clear -3 1040 100 10000 1.5 330 03:47 28.12.2019
1819 Clear -2 1040 92 10000 2.6 310 02:49 28.12.2019
1820 Clouds -2 1039 92 10000 2.6 310 01:59 28.12.2019
1821 Clouds -2 1039 92 10000 2.6 310 01:31 28.12.2019
1822 Clouds -2 1039 86 10000 2.6 310 00:58 28.12.2019
1823 Clouds -2 1038 86 10000 2.6 320 00:40 28.12.2019
1824 Clouds -2 1038 86 10000 2.6 320 00:20 28.12.2019
1825 Clouds -2 1038 86 10000 3.1 320 23:44 27.12.2019
1826 Clouds -2 1038 86 10000 2.6 310 23:20 27.12.2019
1827 Clouds -2 1038 86 10000 2.6 310 22:58 27.12.2019
1828 Clouds -2 1038 86 10000 2.6 310 22:39 27.12.2019
1829 Clouds -2 1038 86 10000 2.6 320 22:20 27.12.2019
1830 Clouds -2 1038 86 10000 3.1 320 21:56 27.12.2019
1831 Clouds -2 1038 86 10000 3.1 320 21:37 27.12.2019
1832 Clouds -2 1037 86 10000 3.6 310 21:19 27.12.2019
1833 Clouds -2 1037 86 10000 3.1 310 20:42 27.12.2019
1834 Clouds -2 1036 86 10000 2.6 330 20:23 27.12.2019
1835 Clouds -2 1036 79 10000 3.1 330 19:43 27.12.2019
1836 Clouds -2 1036 79 10000 3.1 330 19:21 27.12.2019
1837 Clouds -2 1035 79 10000 3.1 330 18:59 27.12.2019
1838 Clouds -2 1035 79 10000 3.1 330 18:40 27.12.2019
1839 Clouds -1 1035 74 10000 4.1 340 18:21 27.12.2019
1840 Clouds -1 1035 74 10000 4.1 340 17:58 27.12.2019
1841 Clouds -1 1035 74 10000 4.1 340 17:40 27.12.2019
1842 Clouds -1 1034 74 10000 4.1 350 17:19 27.12.2019
1843 Clouds -1 1034 74 10000 3.6 360 16:58 27.12.2019
1844 Clouds -1 1034 74 10000 3.6 360 16:38 27.12.2019
1845 Clouds -1 1034 75 10000 5.1 360 16:19 27.12.2019
1846 Clouds 0 1033 75 10000 5.1 360 15:45 27.12.2019
1847 Clouds -1 1033 74 10000 5.7 350 15:23 27.12.2019
1848 Clouds -1 1032 80 10000 5.1 350 14:58 27.12.2019
1849 Clouds -1 1032 80 10000 5.1 350 14:40 27.12.2019
1850 Clouds -1 1032 80 10000 5.1 360 14:21 27.12.2019
1851 Clouds -1 1032 71 10000 5.7 350 13:57 27.12.2019
1852 Clouds -1 1032 71 10000 5.7 350 13:38 27.12.2019
1853 Clouds -1 1032 71 10000 5.7 350 13:38 27.12.2019
1854 Clouds -1 1031 80 10000 4.6 340 13:20 27.12.2019
1855 Clouds -1 1031 86 10000 4.1 320 12:42 27.12.2019
1856 Clouds -1 1031 86 10000 4.1 330 12:23 27.12.2019
1857 Clouds -1 1030 92 10000 4.1 320 11:46 27.12.2019
1858 Clouds -1 1030 92 10000 4.1 320 11:27 27.12.2019
1859 Clouds -1 1030 92 8000 4.1 330 10:59 27.12.2019
1860 Clouds -1 1030 92 8000 4.1 330 10:41 27.12.2019
1861 Snow -2 1030 100 4500 5.7 320 10:23 27.12.2019
1862 Clouds -1 1029 92 3500 5.7 320 09:49 27.12.2019
1863 Clouds -1 1028 86 10000 5.7 320 09:22 27.12.2019
1864 Clouds -1 1028 86 10000 4.6 320 08:59 27.12.2019
1865 Clouds -1 1028 92 10000 5.1 340 08:38 27.12.2019
1866 Clouds -1 1027 100 9000 5.1 330 07:57 27.12.2019
1867 Clouds 0 1027 100 9000 5.1 330 07:38 27.12.2019
1868 Clouds -1 1027 92 10000 5.7 320 06:39 27.12.2019
1869 Snow 0 1026 92 10000 5.1 320 06:18 27.12.2019
1870 Clouds 0 1025 86 10000 5.1 330 04:20 27.12.2019
1871 Clouds 0 1024 86 10000 4.6 320 02:27 27.12.2019
1872 Snow 0 1024 91 10000 5.7 330 01:42 27.12.2019
1873 Snow 0 1024 89 10000 4.1 320 01:20 27.12.2019
1874 Snow 0 1023 89 10000 4.1 320 00:46 27.12.2019
1875 Snow 0 1023 89 10000 4.1 330 00:25 27.12.2019
1876 Snow 0 1023 89 10000 4.1 330 00:25 27.12.2019
1877 Snow 0 1023 89 10000 3.6 320 23:44 26.12.2019
1878 Clouds 0 1023 85 10000 3.6 330 23:24 26.12.2019
1879 Clouds 0 1023 85 10000 4.1 320 22:58 26.12.2019
1880 Clouds 0 1023 85 10000 4.1 320 22:38 26.12.2019
1881 Clouds 0 1022 85 6000 4.6 310 22:18 26.12.2019
1882 Clouds 0 1022 85 10000 4.1 310 21:39 26.12.2019
1883 Clouds 0 1022 85 9000 3.6 310 21:21 26.12.2019
1884 Clouds 0 1022 85 10000 4.1 310 20:57 26.12.2019
1885 Clouds 0 1022 85 10000 4.1 310 20:38 26.12.2019
1886 Clouds 0 1021 87 10000 3.6 310 20:19 26.12.2019
1887 Clouds 0 1021 87 10000 3.6 330 19:54 26.12.2019
1888 Clouds 0 1021 87 10000 3.1 340 19:36 26.12.2019
1889 -273 0 0 0 0 0 19:18 26.12.2019
1890 Clouds 0 1021 87 10000 3.1 330 18:55 26.12.2019
1891 Clouds 0 1021 87 10000 3.1 330 18:36 26.12.2019
1892 Clouds 0 1021 87 10000 3.1 320 18:18 26.12.2019
1893 Clouds 0 1021 87 10000 3.1 320 17:41 26.12.2019
1894 Clouds 0 1020 86 10000 2.6 330 17:21 26.12.2019
1895 Clouds 0 1020 86 10000 2.6 330 17:21 26.12.2019
1896 Clouds 0 1020 86 10000 2.6 330 16:49 26.12.2019
1897 Clouds 0 1020 86 10000 3.1 320 16:26 26.12.2019
1898 Clouds 0 1020 86 10000 2.6 310 15:57 26.12.2019
1899 Clouds 0 1020 86 10000 2.6 310 15:38 26.12.2019
1900 Clouds 0 1020 86 10000 3.1 310 15:19 26.12.2019
1901 Clouds 0 1020 86 10000 3.1 350 14:41 26.12.2019
1902 Clouds 0 1019 85 10000 3.6 330 14:23 26.12.2019
1903 Clouds 0 1019 85 10000 2.6 340 13:55 26.12.2019
1904 Clouds 0 1019 85 10000 2.6 340 13:36 26.12.2019
1905 Clouds 1 1019 85 10000 3.1 350 13:18 26.12.2019
1906 Clouds 1 1019 85 10000 3.1 340 12:44 26.12.2019
1907 Clouds 1 1019 85 10000 3.6 350 12:24 26.12.2019
1908 Clouds 1 1019 85 10000 3.1 350 11:59 26.12.2019
1909 Clouds 1 1019 85 10000 3.1 350 11:40 26.12.2019
1910 Clouds 1 1019 90 10000 3.1 340 11:21 26.12.2019
1911 Clouds 1 1018 90 10000 3.6 350 10:50 26.12.2019
1912 Clouds 1 1018 90 10000 2.1 360 10:26 26.12.2019
1913 Clouds 1 1018 90 10000 2.1 360 09:55 26.12.2019
1914 Clouds 1 1018 90 10000 2.1 360 09:36 26.12.2019
1915 Clouds 1 1018 90 10000 2.6 350 09:18 26.12.2019
1916 Clouds 1 1017 90 10000 2.1 360 08:39 26.12.2019
1917 Clouds 1 1017 100 10000 3.1 340 08:21 26.12.2019
1918 Clouds 1 1017 100 10000 2.6 340 07:44 26.12.2019
1919 Drizzle 1 1017 100 8000 2.6 340 07:24 26.12.2019
1920 Clouds 1 1017 100 6000 2.6 340 06:39 26.12.2019
1921 Clouds 1 1017 100 6000 2.1 330 06:20 26.12.2019
1922 Snow 1 1016 100 10000 2.6 320 05:43 26.12.2019
1923 Clouds 1 1016 96 10000 2.1 330 04:36 26.12.2019
1924 Clouds 1 1016 96 10000 2.6 350 03:32 26.12.2019
1925 Clouds 1 1015 96 10000 2.6 340 02:47 26.12.2019
1926 Clouds 1 1015 96 10000 1.5 20 02:29 26.12.2019
1927 Clouds 1 1015 96 10000 2.6 20 01:44 26.12.2019
1928 Clouds 1 1015 100 10000 2.6 20 01:25 26.12.2019
1929 Clouds 1 1015 93 10000 2.1 360 00:44 26.12.2019
1930 Clouds 1 1015 93 10000 2.1 20 00:23 26.12.2019
1931 Clouds 1 1015 93 10000 2.1 10 23:58 25.12.2019
1932 Clouds 1 1015 93 10000 2.1 10 23:37 25.12.2019
1933 Clouds 2 1014 100 10000 2.6 20 23:19 25.12.2019
1934 Clouds 2 1014 100 10000 2.6 20 23:19 25.12.2019
1935 Clouds 2 1014 100 10000 2.1 30 22:57 25.12.2019
1936 Clouds 2 1014 100 10000 2.1 30 22:37 25.12.2019
1937 Clouds 2 1014 100 10000 2.1 10 22:19 25.12.2019
1938 Clouds 2 1014 100 10000 1.5 20 21:55 25.12.2019
1939 Clouds 2 1014 100 10000 1.5 20 21:37 25.12.2019
1940 Clouds 2 1013 93 10000 1.5 20 21:19 25.12.2019
1941 Mist 2 1013 93 4300 2.1 10 20:40 25.12.2019
1942 Mist 2 1013 100 3600 2.1 20 20:21 25.12.2019
1943 Mist 3 1013 100 6000 2.1 10 19:59 25.12.2019
1944 Mist 3 1013 100 6000 2.1 10 19:41 25.12.2019
1945 Clouds 3 1013 100 10000 1.5 30 19:21 25.12.2019
1946 Mist 3 1012 100 4400 2.1 20 18:40 25.12.2019
1947 Clouds 3 1012 100 8000 1.5 0 18:21 25.12.2019
1948 Clouds 3 1012 100 10000 1.5 350 17:58 25.12.2019
1949 Clouds 3 1012 100 10000 1.5 350 17:39 25.12.2019
1950 Clouds 3 1012 100 8000 1.5 360 17:18 25.12.2019
1951 Clouds 3 1012 100 10000 1.5 340 16:55 25.12.2019
1952 Clouds 3 1012 100 10000 1.5 340 16:36 25.12.2019
1953 Drizzle 3 1011 100 10000 1.5 20 16:18 25.12.2019
1954 Clouds 3 1011 100 8000 1.5 340 15:55 25.12.2019
1955 Clouds 3 1011 100 8000 1.5 340 15:36 25.12.2019
1956 Clouds 3 1011 100 10000 1.5 340 15:18 25.12.2019
1957 Clouds 3 1011 100 10000 1.5 350 14:42 25.12.2019
1958 Mist 3 1010 100 4000 0.5 10 14:23 25.12.2019
1959 Mist 3 1010 100 1800 1 0 13:58 25.12.2019
1960 Mist 4 1010 100 1800 1 0 13:40 25.12.2019
1961 Mist 3 1010 100 1500 0.5 0 13:20 25.12.2019
1962 Mist 3 1010 100 2300 0.5 0 12:43 25.12.2019
1963 Fog 3 1010 100 800 1.5 360 12:22 25.12.2019
1964 Mist 3 1009 100 1800 2.1 340 11:58 25.12.2019
1965 Mist 3 1009 100 1800 2.1 340 11:40 25.12.2019
1966 Mist 3 1009 100 3600 1 330 11:20 25.12.2019
1967 Mist 3 1009 100 5000 1 310 10:39 25.12.2019
1968 Mist 3 1009 100 5000 0.5 290 10:21 25.12.2019
1969 Mist 3 1009 100 4800 1.65 100 09:58 25.12.2019
1970 Mist 3 1009 100 4800 1.65 100 09:40 25.12.2019
1971 Mist 3 1009 100 4800 1.65 100 09:40 25.12.2019
1972 Mist 3 1008 100 4800 1 290 09:21 25.12.2019
1973 Mist 3 1008 100 3500 1 280 08:42 25.12.2019
1974 Mist 3 1008 100 2300 1.22 101 08:23 25.12.2019
1975 Mist 3 1008 100 2300 1.22 101 08:23 25.12.2019
1976 Mist 3 1008 100 2400 1.22 101 07:43 25.12.2019
1977 Mist 3 1007 100 2200 1.22 101 07:22 25.12.2019
1978 Mist 3 1007 100 1000 1.22 101 06:24 25.12.2019
1979 Mist 3 1007 100 1200 1.22 101 05:50 25.12.2019
1980 Mist 3 1007 100 2500 1.44 111 04:44 25.12.2019
1981 Mist 3 1006 100 1200 1 60 04:24 25.12.2019
1982 Mist 3 1006 100 3500 1.44 111 03:44 25.12.2019
1983 Mist 3 1006 100 3500 1.44 111 03:44 25.12.2019
1984 Mist 3 1006 100 4500 1.5 60 02:59 25.12.2019
1985 Mist 3 1006 100 4300 0.5 70 02:29 25.12.2019
1986 Mist 3 1006 100 4200 1.31 97 01:52 25.12.2019
1987 Drizzle 3 1006 100 5000 1.31 97 01:22 25.12.2019
1988 Clouds 3 1006 100 7000 1 70 00:42 25.12.2019
1989 Drizzle 3 1006 100 10000 1.5 60 00:23 25.12.2019
1990 Clouds 3 1006 100 10000 1 60 23:40 24.12.2019
1991 Clouds 3 1006 100 10000 1 70 23:20 24.12.2019
1992 Clouds 3 1005 100 10000 1.5 70 22:55 24.12.2019
1993 Drizzle 3 1005 100 10000 2.1 60 22:37 24.12.2019
1994 Drizzle 3 1005 100 10000 2.1 60 22:19 24.12.2019
1995 Clouds 3 1005 100 7000 1 70 21:41 24.12.2019
1996 Clouds 3 1005 100 10000 1 40 21:20 24.12.2019
1997 Clouds 3 1005 93 10000 1 30 20:43 24.12.2019
1998 Clouds 3 1005 100 10000 1.5 40 20:24 24.12.2019
1999 Clouds 3 1005 93 10000 1 40 19:57 24.12.2019
2000 Clouds 3 1005 93 10000 1 40 19:37 24.12.2019
2001 Rain 3 1005 93 10000 0.5 0 19:18 24.12.2019
2002 Rain 3 1005 100 6000 1.35 67 18:42 24.12.2019
2003 Drizzle 3 1005 93 10000 1.35 67 18:19 24.12.2019
2004 Clouds 3 1005 100 9000 0.5 250 17:45 24.12.2019
2005 Clouds 3 1005 100 6000 0.81 83 17:23 24.12.2019
2006 Clouds 3 1005 100 10000 0.81 83 16:58 24.12.2019
2007 Clouds 3 1005 100 10000 0.81 83 16:58 24.12.2019
2008 Clouds 3 1005 100 10000 0.81 83 16:40 24.12.2019
2009 Clouds 3 1005 100 10000 0.81 83 16:22 24.12.2019
2010 Clouds 3 1005 100 10000 0.81 83 15:58 24.12.2019
2011 Clouds 3 1005 100 10000 0.81 83 15:38 24.12.2019
2012 Clouds 3 1005 100 10000 0.81 83 15:20 24.12.2019
2013 Clouds 3 1005 100 10000 0.81 83 14:59 24.12.2019
2014 Clouds 3 1005 100 10000 0.81 83 14:40 24.12.2019
2015 Clouds 3 1005 93 10000 0.89 75 14:22 24.12.2019
2016 Clouds 3 1005 100 10000 1 100 13:56 24.12.2019
2017 Clouds 3 1005 100 10000 1 100 13:38 24.12.2019
2018 Clouds 3 1005 93 10000 0.89 75 13:20 24.12.2019
2019 Clouds 3 1005 100 10000 1.36 94 12:57 24.12.2019
2020 Clouds 3 1005 100 10000 1.36 94 12:38 24.12.2019
2021 Clouds 3 1006 100 10000 1.36 94 12:19 24.12.2019
2022 Clouds 3 1006 100 10000 1.36 94 11:57 24.12.2019
2023 Clouds 3 1006 100 10000 1.36 94 11:38 24.12.2019
2024 Clouds 3 1006 100 10000 1.11 110 11:20 24.12.2019
2025 Clouds 3 1006 100 10000 1.11 110 10:57 24.12.2019
2026 Clouds 3 1006 100 10000 1.11 110 10:38 24.12.2019
2027 Clouds 2 1006 100 10000 1.11 110 10:20 24.12.2019
2028 Clouds 2 1006 100 8000 1.11 110 09:58 24.12.2019
2029 Clouds 2 1006 100 8000 1.11 110 09:40 24.12.2019
2030 Clouds 2 1006 100 10000 1.11 110 09:21 24.12.2019
2031 Clouds 2 1006 100 10000 1.11 110 08:47 24.12.2019
2032 Mist 2 1006 100 5000 1.21 98 08:25 24.12.2019
2033 Mist 2 1006 100 5000 0.35 51 07:59 24.12.2019
2034 Mist 2 1006 100 5000 0.35 51 07:39 24.12.2019
2035 Mist 2 1006 100 5000 0.35 51 07:21 24.12.2019
2036 Mist 2 1006 100 7000 0.35 51 06:40 24.12.2019
2037 Mist 2 1006 100 7000 0.35 51 06:22 24.12.2019
2038 Mist 2 1006 100 8000 0.35 51 05:53 24.12.2019
2039 Mist 2 1006 100 5000 1.13 261 05:19 24.12.2019
2040 Mist 2 1005 100 6000 1.13 261 04:21 24.12.2019
2041 Mist 2 1005 100 7000 1.13 261 03:48 24.12.2019
2042 Mist 1 1005 100 7000 1.13 261 02:29 24.12.2019
2043 Mist 2 1005 100 8000 0.88 213 01:57 24.12.2019
2044 Mist 2 1005 100 7000 0.5 290 01:26 24.12.2019
2045 Mist 2 1005 100 6000 0.88 162 00:58 24.12.2019
2046 Mist 2 1005 100 6000 0.88 162 00:40 24.12.2019
2047 Mist 2 1005 100 8000 1 280 00:20 24.12.2019
2048 Mist 2 1005 100 6000 1 280 23:43 23.12.2019
2049 Mist 2 1004 100 4900 0.7 181 23:24 23.12.2019
2050 Mist 2 1004 100 6000 1.5 290 22:57 23.12.2019
2051 Mist 2 1004 100 6000 1.5 290 22:38 23.12.2019
2052 Clouds 2 1004 100 10000 1 280 22:20 23.12.2019
2053 Clouds 2 1004 100 10000 1 290 21:57 23.12.2019
2054 Clouds 2 1004 100 10000 1 290 21:57 23.12.2019
2055 Clouds 2 1004 100 10000 1 290 21:37 23.12.2019
2056 Clouds 2 1003 100 10000 1.5 290 21:19 23.12.2019
2057 Clouds 2 1003 100 10000 0.5 0 20:59 23.12.2019
2058 Clouds 2 1003 100 10000 0.5 0 20:40 23.12.2019
2059 Clouds 2 1003 100 10000 0.47 142 20:19 23.12.2019
2060 Clouds 2 1003 100 10000 0.47 142 19:58 23.12.2019
2061 Clouds 2 1003 100 10000 0.47 142 19:40 23.12.2019
2062 Clouds 2 1003 100 10000 0.47 142 19:21 23.12.2019
2063 Clouds 2 1003 100 9000 0.47 142 18:58 23.12.2019
2064 Clouds 2 1003 100 9000 0.47 142 18:58 23.12.2019
2065 Clouds 2 1003 100 9000 0.47 142 18:39 23.12.2019
2066 Clouds 2 1002 100 10000 0.47 142 18:21 23.12.2019
2067 Clouds 2 1002 93 10000 0.47 142 17:59 23.12.2019
2068 Clouds 2 1002 93 10000 0.47 142 17:40 23.12.2019
2069 Clouds 2 1002 100 10000 0.59 64 17:19 23.12.2019
2070 Clouds 3 1002 100 10000 0.59 64 16:57 23.12.2019
2071 Clouds 3 1002 100 10000 0.59 64 16:39 23.12.2019
2072 Clouds 3 1002 100 10000 1 330 16:19 23.12.2019
2073 Clouds 3 1002 100 10000 1 330 16:19 23.12.2019
2074 Clouds 3 1002 100 10000 1 330 16:19 23.12.2019
2075 Clouds 3 1001 93 10000 1 30 15:57 23.12.2019
2076 Clouds 3 1001 93 10000 1 30 15:37 23.12.2019
2077 Clouds 3 1001 100 10000 0.59 64 15:19 23.12.2019
2078 Clouds 3 1001 100 10000 1 280 14:56 23.12.2019
2079 Clouds 3 1001 100 10000 1 280 14:38 23.12.2019
2080 Clouds 3 1001 100 10000 1.5 310 14:18 23.12.2019
2081 Clouds 3 1000 93 10000 1.5 350 13:56 23.12.2019
2082 Clouds 3 1000 93 10000 1.5 350 13:37 23.12.2019
2083 Clouds 4 1000 93 10000 1 0 13:19 23.12.2019
2084 Clouds 4 1000 93 10000 0.5 260 12:54 23.12.2019
2085 Clouds 4 1000 93 10000 0.5 260 12:36 23.12.2019
2086 Clouds 4 1000 93 10000 0.5 260 12:36 23.12.2019
2087 Clouds 4 1000 93 10000 1 270 12:18 23.12.2019
2088 Clouds 3 1000 100 10000 0.5 290 11:42 23.12.2019
2089 Clouds 3 1000 100 10000 0.88 347 11:22 23.12.2019
2090 Clouds 3 1000 100 10000 0.88 347 10:56 23.12.2019
2091 Clouds 3 1000 100 10000 0.88 347 10:37 23.12.2019
2092 Clouds 3 1000 100 10000 0.88 347 10:18 23.12.2019
2093 Clouds 3 999 100 10000 0.88 347 09:57 23.12.2019
2094 Clouds 3 999 100 10000 0.88 347 09:39 23.12.2019
2095 Clouds 2 999 100 10000 0.88 347 09:19 23.12.2019
2096 Clouds 3 999 100 10000 0.88 347 08:42 23.12.2019
2097 Clouds 2 998 100 10000 1.06 290 08:23 23.12.2019
2098 Clouds 2 998 100 10000 1.06 290 07:57 23.12.2019
2099 Clouds 2 998 100 10000 1.06 290 07:38 23.12.2019
2100 Clouds 2 998 100 10000 1 160 07:19 23.12.2019
2101 Clouds 2 998 100 10000 1.06 290 06:43 23.12.2019
2102 Clouds 2 998 100 10000 1.06 290 06:22 23.12.2019
2103 Clouds 2 997 100 10000 1.06 290 05:46 23.12.2019
2104 Clouds 2 997 100 10000 0.35 304 05:18 23.12.2019
2105 Clouds 3 996 100 10000 0.35 304 04:19 23.12.2019
2106 Clouds 3 997 100 10000 0.35 304 02:48 23.12.2019
2107 Clouds 3 996 93 10000 0.94 285 02:20 23.12.2019
2108 Clouds 3 996 93 10000 0.94 285 01:51 23.12.2019
2109 Clouds 4 996 93 10000 0.9 278 01:32 23.12.2019
2110 Clouds 4 996 93 10000 0.94 285 01:32 23.12.2019
2111 Clouds 4 996 93 10000 0.5 0 00:54 23.12.2019
2112 Clouds 4 996 93 10000 1 180 00:35 23.12.2019
2113 Clouds 4 996 100 10000 1 200 23:57 22.12.2019
2114 Clouds 4 996 100 10000 1 200 23:38 22.12.2019
2115 Clouds 4 996 100 10000 1.5 180 23:20 22.12.2019
2116 Clouds 4 996 100 10000 1 200 22:57 22.12.2019
2117 Clouds 4 996 100 10000 1 200 22:38 22.12.2019
2118 Clouds 4 995 100 10000 1.5 0 22:19 22.12.2019
2119 Clouds 4 995 100 10000 1.5 180 21:56 22.12.2019
2120 Clouds 4 995 100 10000 1.5 180 21:56 22.12.2019
2121 Clouds 4 995 100 10000 1.5 180 21:38 22.12.2019
2122 Clouds 4 994 100 10000 1.5 0 21:20 22.12.2019
2123 Clouds 4 994 100 10000 1 0 20:41 22.12.2019
2124 Clouds 4 994 93 10000 1 0 20:19 22.12.2019
2125 Clouds 4 994 93 10000 1.5 190 19:58 22.12.2019
2126 Clouds 4 994 93 10000 1.5 190 19:40 22.12.2019
2127 Clouds 4 994 93 10000 1.5 190 19:20 22.12.2019
2128 Clouds 4 993 93 10000 1.5 210 18:58 22.12.2019
2129 Clouds 4 993 93 10000 1.5 210 18:38 22.12.2019
2130 Clouds 4 993 93 10000 1.58 234 18:19 22.12.2019
2131 Clouds 4 993 93 10000 1.5 210 17:55 22.12.2019
2132 Clouds 5 993 93 10000 1.5 210 17:36 22.12.2019
2133 Clouds 5 993 93 10000 1 220 17:18 22.12.2019
2134 Clouds 5 993 93 10000 1 0 16:42 22.12.2019
2135 Clouds 5 993 93 10000 1.5 220 16:23 22.12.2019
2136 Clouds 5 993 93 10000 1.5 220 16:23 22.12.2019
2137 Clouds 5 993 93 10000 3.6 240 15:58 22.12.2019
2138 Clouds 5 993 93 10000 3.6 240 15:39 22.12.2019
2139 Clouds 5 992 93 10000 2.6 220 15:21 22.12.2019
2140 Clouds 5 992 87 10000 3.1 240 14:59 22.12.2019
2141 Clouds 5 992 87 10000 3.1 240 14:38 22.12.2019
2142 Clouds 5 991 87 10000 3.1 230 14:19 22.12.2019
2143 Clouds 5 991 93 10000 2.6 220 13:56 22.12.2019
2144 Clouds 5 991 93 10000 2.6 220 13:38 22.12.2019
2145 Clouds 5 991 93 10000 2.6 230 13:19 22.12.2019
2146 Clouds 5 991 93 10000 2.6 240 12:57 22.12.2019
2147 Clouds 5 991 93 10000 2.6 240 12:38 22.12.2019
2148 Clouds 5 991 100 10000 3.6 250 12:19 22.12.2019
2149 Clouds 5 991 100 10000 3.6 250 11:58 22.12.2019
2150 Clouds 5 991 100 10000 3.6 250 11:38 22.12.2019
2151 Clouds 5 991 100 10000 3.6 250 11:19 22.12.2019
2152 Clouds 5 990 100 10000 2.6 250 10:57 22.12.2019
2153 Drizzle 5 990 100 7000 3.6 240 10:38 22.12.2019
2154 Drizzle 5 990 100 7000 3.6 240 10:19 22.12.2019
2155 Clouds 5 990 100 8000 3.1 250 09:58 22.12.2019
2156 Clouds 5 990 100 8000 3.1 250 09:39 22.12.2019
2157 Clouds 4 990 100 10000 2.6 240 09:21 22.12.2019
2158 Clouds 4 989 100 10000 2.6 240 08:45 22.12.2019
2159 Rain 4 989 100 10000 3.6 240 08:23 22.12.2019
2160 Rain 4 989 93 10000 2.6 240 07:50 22.12.2019
2161 Drizzle 4 988 93 10000 2.1 230 07:21 22.12.2019
2162 Drizzle 4 988 93 10000 2.1 230 07:21 22.12.2019
2163 Rain 4 988 100 10000 2.1 230 06:56 22.12.2019
2164 Rain 4 988 100 10000 2.6 240 06:27 22.12.2019
2165 Rain 4 988 100 10000 1.5 220 05:41 22.12.2019
2166 Rain 4 988 93 7000 1 240 05:20 22.12.2019
2167 Rain 5 988 100 7000 1 270 04:26 22.12.2019
2168 Rain 5 988 100 10000 2.6 260 02:56 22.12.2019
2169 Rain 5 988 100 10000 2.6 260 02:34 22.12.2019
2170 Rain 5 988 100 9000 1.5 260 01:32 22.12.2019
2171 Rain 5 988 100 4600 1 230 00:57 22.12.2019
2172 Rain 5 988 100 3100 1 210 00:38 22.12.2019
2173 Rain 5 988 100 3100 1 210 00:20 22.12.2019
2174 Rain 5 988 100 2100 1 170 23:41 21.12.2019
2175 Rain 5 988 100 900 1 150 23:22 21.12.2019
2176 Rain 5 988 100 1200 0.5 140 22:57 21.12.2019
2177 Rain 5 988 100 1200 0.5 140 22:39 21.12.2019
2178 Clouds 5 988 100 1000 1.5 120 22:18 21.12.2019
2179 Clouds 5 988 100 1000 1.5 120 22:18 21.12.2019
2180 Clouds 5 988 100 600 1 110 21:55 21.12.2019
2181 Mist 5 988 100 700 1 0 21:36 21.12.2019
2182 Mist 6 988 100 700 1 0 21:18 21.12.2019
2183 Mist 6 988 100 1300 2.1 110 20:57 21.12.2019
2184 Mist 6 988 100 1300 2.1 110 20:37 21.12.2019
2185 Mist 6 988 100 1600 2.1 120 20:19 21.12.2019
2186 Mist 6 988 100 1800 2.1 110 19:55 21.12.2019
2187 Mist 5 988 100 1800 2.1 110 19:36 21.12.2019
2188 Mist 5 988 100 2200 2.1 120 19:18 21.12.2019
2189 Mist 5 988 100 2200 2.1 110 18:42 21.12.2019
2190 Mist 5 988 100 1500 1.5 120 18:23 21.12.2019
2191 Mist 5 988 100 1300 1.5 110 17:56 21.12.2019
2192 Mist 5 988 100 1300 1.5 110 17:38 21.12.2019
2193 Mist 5 988 100 1800 1.5 120 17:20 21.12.2019
2194 Mist 5 989 100 1400 2.6 130 16:57 21.12.2019
2195 Mist 6 989 100 1100 2.6 130 16:38 21.12.2019
2196 Mist 6 989 100 1100 2.6 130 16:18 21.12.2019
2197 Clouds 6 988 100 1200 3.1 140 15:55 21.12.2019
2198 Clouds 6 988 100 1200 3.1 140 15:37 21.12.2019
2199 Mist 6 989 100 1000 4.1 130 15:18 21.12.2019
2200 Mist 6 989 93 1100 3.1 130 14:42 21.12.2019
2201 Mist 6 989 93 1200 3.6 120 14:23 21.12.2019
2202 Mist 6 989 93 1600 4.1 130 13:58 21.12.2019
2203 Mist 6 989 93 1600 4.1 130 13:39 21.12.2019
2204 Mist 6 989 93 1800 4.1 130 13:19 21.12.2019
2205 Mist 6 989 93 2000 4.6 130 12:56 21.12.2019
2206 Mist 6 989 93 2000 4.6 130 12:38 21.12.2019
2207 Mist 6 989 93 2000 4.6 130 12:38 21.12.2019
2208 Mist 6 989 100 1900 4.6 130 12:38 21.12.2019
2209 Mist 6 989 100 1900 4.6 130 12:20 21.12.2019
2210 Mist 6 989 93 1500 4.1 130 11:48 21.12.2019
2211 Mist 6 990 93 1700 5.1 130 11:27 21.12.2019
2212 Mist 6 990 100 2300 4.6 130 10:59 21.12.2019
2213 Mist 6 990 100 2300 4.6 130 10:41 21.12.2019
2214 Mist 6 990 100 2300 4.6 120 10:22 21.12.2019
2215 Mist 6 990 93 2100 5.1 120 09:58 21.12.2019
2216 Mist 6 990 93 2100 5.1 120 09:39 21.12.2019
2217 Mist 6 990 100 2300 4.6 130 09:19 21.12.2019
2218 Mist 6 990 100 2700 5.1 130 08:51 21.12.2019
2219 Mist 6 990 100 2100 5.1 130 08:27 21.12.2019
2220 Mist 6 990 100 2400 4.1 130 07:58 21.12.2019
2221 Mist 6 990 100 2400 4.1 130 07:58 21.12.2019
2222 Mist 6 990 100 2400 4.1 130 07:39 21.12.2019
2223 Mist 6 990 100 2600 5.1 130 07:20 21.12.2019
2224 Mist 6 991 100 3900 5.1 120 06:40 21.12.2019
2225 Mist 6 991 100 3900 5.7 140 06:22 21.12.2019
2226 Mist 6 991 100 2900 6.2 120 05:25 21.12.2019
2227 Mist 6 992 100 2400 4.1 120 04:34 21.12.2019
2228 Mist 6 992 93 2400 5.1 120 03:56 21.12.2019
2229 Mist 5 993 100 2400 4.1 110 02:25 21.12.2019
2230 Mist 5 994 100 2500 4.6 110 01:48 21.12.2019
2231 Mist 5 994 100 2400 4.6 120 01:25 21.12.2019
2232 Mist 5 994 100 2200 3.6 120 00:45 21.12.2019
2233 Mist 5 995 100 2900 4.1 130 00:26 21.12.2019
2234 Mist 5 995 100 3800 6.2 120 23:39 20.12.2019
2235 Mist 5 995 100 3800 6.2 120 23:21 20.12.2019
2236 Mist 5 995 100 4100 6.7 130 22:59 20.12.2019
2237 Mist 5 995 100 4100 6.7 130 22:59 20.12.2019
2238 Mist 5 995 100 4100 6.7 130 22:39 20.12.2019
2239 Mist 5 996 100 3000 5.7 130 22:18 20.12.2019
2240 Mist 5 996 100 1900 5.1 130 21:41 20.12.2019
2241 Mist 5 997 100 2100 5.1 130 21:21 20.12.2019
2242 Mist 5 997 100 2100 5.1 130 20:59 20.12.2019
2243 Mist 5 997 100 2400 5.1 130 20:38 20.12.2019
2244 Mist 5 997 100 2400 5.1 130 20:19 20.12.2019
2245 Mist 5 997 100 2400 6.2 120 19:56 20.12.2019
2246 Mist 5 997 100 2400 6.2 120 19:38 20.12.2019
2247 Mist 5 997 100 3100 5.1 120 19:18 20.12.2019
2248 Mist 5 998 100 3500 4.6 120 18:41 20.12.2019
2249 Mist 5 998 100 3500 4.6 120 18:23 20.12.2019
2250 Mist 5 999 100 2000 4.6 130 17:58 20.12.2019
2251 Mist 5 999 100 2000 4.6 130 17:40 20.12.2019
2252 Mist 5 999 100 2000 4.6 130 17:20 20.12.2019
2253 Mist 5 999 100 2100 3.6 120 16:57 20.12.2019
2254 Mist 5 999 100 2200 5.1 130 16:38 20.12.2019
2255 Mist 5 999 100 2200 5.1 130 16:19 20.12.2019
2256 Mist 5 1000 100 2000 6.2 120 15:55 20.12.2019
2257 Mist 5 1001 100 1500 3.6 130 15:37 20.12.2019
2258 Mist 5 1001 100 1500 3.6 130 15:37 20.12.2019
2259 Mist 5 1001 100 1500 3.6 130 15:18 20.12.2019
2260 Mist 5 1001 100 2000 5.1 120 14:42 20.12.2019
2261 Mist 5 1001 100 2000 5.1 120 14:24 20.12.2019
2262 Mist 5 1002 100 1500 4.6 130 13:57 20.12.2019
2263 Mist 5 1002 100 1500 4.6 130 13:38 20.12.2019
2264 Mist 5 1002 100 1500 4.6 130 13:19 20.12.2019
2265 Mist 5 1002 100 1600 4.1 130 12:57 20.12.2019
2266 Mist 5 1003 100 2000 4.6 140 12:37 20.12.2019
2267 Mist 5 1003 100 2000 4.6 140 12:18 20.12.2019
2268 Mist 5 1003 100 4400 4.1 130 11:57 20.12.2019
2269 Mist 5 1004 100 4000 3.6 130 11:39 20.12.2019
2270 Mist 5 1004 100 4000 3.6 130 11:18 20.12.2019
2271 Clouds 5 1004 100 10000 4.6 140 10:56 20.12.2019
2272 Clouds 5 1004 100 10000 4.1 130 10:38 20.12.2019
2273 Clouds 5 1004 100 10000 4.1 130 10:19 20.12.2019
2274 Clouds 5 1005 100 10000 2.6 130 09:43 20.12.2019
2275 Clouds 5 1005 100 10000 2.6 130 09:21 20.12.2019
2276 Clouds 5 1005 100 10000 3.6 130 08:57 20.12.2019
2277 Clouds 5 1005 100 10000 2.6 150 08:38 20.12.2019
2278 Clouds 5 1005 100 10000 2.6 150 08:20 20.12.2019
2279 Clouds 5 1005 100 10000 2.6 150 08:20 20.12.2019
2280 Clouds 5 1006 93 10000 3.1 150 07:57 20.12.2019
2281 Clouds 5 1006 100 10000 4.1 160 07:37 20.12.2019
2282 Clouds 5 1006 100 10000 4.1 160 07:18 20.12.2019
2283 Clouds 5 1007 100 10000 3.1 160 06:44 20.12.2019
2284 Clouds 5 1007 100 10000 3.1 160 06:26 20.12.2019
2285 Clouds 5 1007 100 10000 2.6 150 05:47 20.12.2019
2286 Rain 5 1007 100 10000 3.6 170 05:18 20.12.2019
2287 Clouds 5 1009 93 10000 4.1 170 03:49 20.12.2019
2288 Clouds 5 1010 93 10000 4.6 180 02:55 20.12.2019
2289 Clouds 5 1010 87 10000 3.6 190 01:59 20.12.2019
2290 Rain 5 1010 93 10000 4.1 180 01:35 20.12.2019
2291 Rain 5 1010 93 10000 5.1 160 00:56 20.12.2019
2292 Rain 5 1010 86 10000 6.2 150 00:35 20.12.2019
2293 Rain 5 1011 93 10000 5.1 150 23:58 19.12.2019
2294 Rain 5 1011 93 10000 5.1 150 23:58 19.12.2019
2295 Rain 4 1012 93 10000 5.7 140 23:40 19.12.2019
2296 Clouds 4 1012 93 10000 5.7 140 23:19 19.12.2019
2297 Clouds 4 1013 100 10000 5.1 130 22:40 19.12.2019
2298 Clouds 4 1013 100 10000 5.1 130 22:22 19.12.2019
2299 Clouds 4 1014 100 10000 4.6 140 21:59 19.12.2019
2300 Clouds 3 1014 100 10000 4.1 140 21:41 19.12.2019
2301 Clouds 3 1014 100 10000 4.1 140 21:19 19.12.2019
2302 Clouds 3 1015 100 10000 3.6 130 20:57 19.12.2019
2303 Clouds 3 1016 100 10000 3.1 130 20:38 19.12.2019
2304 Clouds 3 1016 100 10000 3.1 130 20:20 19.12.2019
2305 Clouds 2 1016 100 10000 2.1 130 19:58 19.12.2019
2306 Clouds 2 1016 100 10000 1.5 130 19:40 19.12.2019
2307 Clouds 2 1016 100 10000 1.5 130 19:19 19.12.2019
2308 Clouds 2 1016 100 8000 1.5 140 19:19 19.12.2019
2309 Clouds 2 1016 100 8000 1.5 140 18:58 19.12.2019
2310 Clouds 1 1017 91 10000 1.5 0 18:40 19.12.2019
2311 Clouds 1 1017 91 10000 1.5 0 18:19 19.12.2019
2312 Clouds 0 1017 91 10000 1.5 130 17:56 19.12.2019
2313 Fog 0 1017 91 600 1.5 130 17:38 19.12.2019
2314 Fog 0 1017 95 600 1.5 130 17:18 19.12.2019
2315 Mist 0 1018 100 2000 1.5 0 16:56 19.12.2019
2316 Clouds 0 1018 100 7000 2.1 170 16:37 19.12.2019
2317 Clouds 0 1018 100 7000 2.1 170 16:19 19.12.2019
2318 Clouds -1 1018 100 10000 2.6 150 15:57 19.12.2019
2319 Clouds -1 1018 92 10000 1.5 140 15:37 19.12.2019
2320 Clouds -1 1018 92 10000 1.5 140 15:19 19.12.2019
2321 Clouds -1 1018 100 10000 1.5 130 15:19 19.12.2019
2322 Clouds -1 1018 100 10000 1.5 130 14:54 19.12.2019
2323 Clouds -1 1018 100 10000 1 170 14:36 19.12.2019
2324 Clouds -1 1018 100 10000 1 170 14:18 19.12.2019
2325 Clouds -1 1019 100 10000 1.5 200 13:38 19.12.2019
2326 Clouds -1 1019 100 10000 1 0 13:20 19.12.2019
2327 Clouds 0 1019 100 10000 1 0 12:58 19.12.2019
2328 Clouds 0 1019 100 10000 1 0 12:58 19.12.2019
2329 Clouds -1 1019 100 10000 1.5 210 12:39 19.12.2019
2330 Clouds -1 1019 100 10000 1.5 210 12:19 19.12.2019
2331 Clouds -1 1019 100 10000 1.5 0 11:58 19.12.2019
2332 Clouds -1 1019 100 10000 1 190 11:40 19.12.2019
2333 Clouds -2 1019 100 10000 1 190 11:18 19.12.2019
2334 Clouds -2 1019 100 10000 1 190 11:18 19.12.2019
2335 Clouds -2 1019 92 10000 1 200 10:58 19.12.2019
2336 Clouds -2 1019 92 10000 1 200 10:58 19.12.2019
2337 Clouds -2 1019 100 10000 1 180 10:38 19.12.2019
2338 Clouds -2 1019 100 10000 1 180 10:20 19.12.2019
2339 Clouds -3 1019 100 10000 1 240 09:56 19.12.2019
2340 Clouds -3 1018 100 10000 1.5 230 09:37 19.12.2019
2341 Clouds -3 1018 100 10000 1.5 230 09:18 19.12.2019
2342 Clouds -3 1018 100 10000 1.5 240 08:55 19.12.2019
2343 Clouds -3 1018 100 10000 2.1 240 08:36 19.12.2019
2344 Clear -3 1018 100 10000 2.1 240 08:18 19.12.2019
2345 Clear -2 1017 100 10000 1.5 220 07:40 19.12.2019
2346 Clear -2 1017 100 10000 1.5 220 07:22 19.12.2019
2347 Clear -2 1017 92 10000 1.5 230 06:55 19.12.2019
2348 Clear -2 1016 100 10000 1.5 240 06:37 19.12.2019
2349 Clear -2 1016 100 10000 1.5 240 06:18 19.12.2019
2350 Clear -2 1016 92 10000 1.5 250 05:42 19.12.2019
2351 Clear -2 1016 92 10000 1.5 250 05:18 19.12.2019
2352 Clear -1 1015 92 10000 3.1 260 03:51 19.12.2019
2353 Clear -1 1013 92 10000 3.1 260 02:28 19.12.2019
2354 Clear -1 1012 76 10000 3.6 260 01:24 19.12.2019
2355 Clear -1 1012 76 10000 3.6 260 00:57 19.12.2019
2356 Clear -1 1011 76 10000 3.6 250 00:38 19.12.2019
2357 Clear 0 1011 76 10000 3.6 250 00:19 19.12.2019
2358 Clear 0 1011 76 10000 3.6 250 00:19 19.12.2019
2359 Clear 0 1010 76 10000 4.1 260 23:44 18.12.2019
2360 Clear 0 1010 78 10000 4.1 260 23:19 18.12.2019
2361 Clear 0 1010 78 10000 3.6 260 22:56 18.12.2019
2362 Clear 0 1009 78 10000 4.1 260 22:38 18.12.2019
2363 Clear 0 1009 78 10000 4.1 260 22:20 18.12.2019
2364 Clear 0 1008 78 10000 4.6 270 21:58 18.12.2019
2365 Clear 0 1008 78 10000 4.6 270 21:39 18.12.2019
2366 Clear 0 1008 78 10000 4.6 270 21:20 18.12.2019
2367 Clear 0 1007 86 10000 5.1 260 20:56 18.12.2019
2368 Clear 0 1007 86 10000 5.7 260 20:38 18.12.2019
2369 Clouds 1 1007 86 10000 5.7 260 20:19 18.12.2019
2370 Clouds 1 1006 86 10000 5.7 260 19:56 18.12.2019
2371 Clouds 0 1005 77 10000 5.7 260 19:37 18.12.2019
2372 Clouds 1 1005 77 10000 5.7 260 19:18 18.12.2019
2373 Clouds 1 1005 77 10000 6.7 270 18:45 18.12.2019
2374 Clouds 1 1005 77 10000 6.7 270 18:45 18.12.2019
2375 Clouds 1 1004 77 10000 6.2 270 18:26 18.12.2019
2376 Clouds 1 1003 77 10000 7.7 260 17:58 18.12.2019
2377 Clouds 1 1003 77 10000 7.2 260 17:40 18.12.2019
2378 Clouds 2 1003 77 10000 7.2 260 17:20 18.12.2019
2379 Clouds 2 1003 77 10000 7.2 260 17:20 18.12.2019
2380 Clouds 2 1002 77 10000 7.2 250 16:58 18.12.2019
2381 Clouds 2 1002 93 10000 6.2 270 16:40 18.12.2019
2382 Clouds 2 1002 93 10000 6.2 270 16:22 18.12.2019
2383 Clouds 2 1001 93 10000 8.2 270 15:57 18.12.2019
2384 Clouds 2 1001 93 10000 8.2 270 15:38 18.12.2019
2385 Clouds 2 1001 93 10000 7.7 260 15:20 18.12.2019
2386 Clouds 2 1000 93 10000 7.7 270 14:43 18.12.2019
2387 Clouds 2 999 93 10000 8.7 270 14:22 18.12.2019
2388 Clouds 2 998 93 10000 7.7 270 13:58 18.12.2019
2389 Clouds 2 998 93 10000 7.7 270 13:39 18.12.2019
2390 Clouds 2 997 93 10000 9.3 280 13:21 18.12.2019
2391 Clouds 2 996 93 10000 8.7 300 12:59 18.12.2019
2392 Clouds 2 996 93 10000 8.7 300 12:40 18.12.2019
2393 Rain 2 995 93 10000 9.3 300 12:21 18.12.2019
2394 Rain 1 993 100 8000 9.3 300 11:57 18.12.2019
2395 Rain 1 993 100 8000 9.3 300 11:39 18.12.2019
2396 Rain 1 992 100 8000 8.7 310 11:20 18.12.2019
2397 Rain 1 991 100 2500 7.2 310 10:57 18.12.2019
2398 Rain 2 991 100 2500 7.2 310 10:39 18.12.2019
2399 Rain 2 990 100 2500 7.2 320 10:20 18.12.2019
2400 Rain 3 989 100 8000 5.1 320 09:57 18.12.2019
2401 Rain 4 988 100 8000 3.6 340 09:19 18.12.2019
2402 Rain 4 989 100 7000 3.1 350 08:42 18.12.2019
2403 Rain 4 989 100 6000 1.5 50 08:24 18.12.2019
2404 Rain 4 990 100 5000 2.1 20 07:56 18.12.2019
2405 Rain 4 990 100 5000 2.1 20 07:56 18.12.2019
2406 Rain 5 990 100 5000 2.1 20 07:38 18.12.2019
2407 Rain 4 990 100 6000 2.1 40 07:19 18.12.2019
2408 Rain 4 991 100 8000 1.5 40 06:50 18.12.2019
2409 Rain 4 992 100 4000 1.5 90 06:22 18.12.2019
2410 Rain 4 994 100 1800 1.5 70 05:34 18.12.2019
2411 Drizzle 4 996 100 2900 2.1 40 03:46 18.12.2019
2412 Mist 4 996 100 7000 3.1 60 02:44 18.12.2019
2413 Rain 4 997 100 10000 3.1 70 02:26 18.12.2019
2414 Rain 4 997 93 9000 3.6 50 01:43 18.12.2019
2415 Rain 4 998 93 10000 3.1 70 01:24 18.12.2019
2416 Rain 4 999 93 10000 3.1 90 00:42 18.12.2019
2417 Rain 4 999 100 10000 2.6 110 00:24 18.12.2019
2418 Rain 4 1000 100 10000 2.6 80 23:58 17.12.2019
2419 Rain 4 1000 100 10000 2.6 80 23:39 17.12.2019
2420 Rain 4 1001 93 5000 1.5 90 23:21 17.12.2019
2421 Rain 4 1001 100 4600 1 100 22:57 17.12.2019
2422 Rain 3 1002 100 8000 1 0 22:38 17.12.2019
2423 Rain 4 1002 100 8000 1 0 22:19 17.12.2019
2424 Rain 4 1002 100 8000 1 0 21:57 17.12.2019
2425 Rain 3 1002 100 8000 1 0 21:38 17.12.2019
2426 Drizzle 3 1002 100 10000 1 140 21:20 17.12.2019
2427 Drizzle 3 1002 100 10000 2.1 130 20:58 17.12.2019
2428 Drizzle 3 1002 100 10000 2.1 130 20:39 17.12.2019
2429 Clouds 3 1003 100 10000 1 140 20:18 17.12.2019
2430 Clouds 3 1003 100 10000 1 140 19:56 17.12.2019
2431 Clouds 3 1003 100 10000 1 140 19:38 17.12.2019
2432 Clouds 3 1003 100 10000 0.5 0 19:19 17.12.2019
2433 Clouds 3 1003 100 10000 2.1 210 18:56 17.12.2019
2434 Clouds 3 1003 100 10000 2.1 210 18:37 17.12.2019
2435 Clouds 3 1003 100 10000 1.5 190 18:19 17.12.2019
2436 Clouds 3 1003 93 10000 1 0 17:42 17.12.2019
2437 Clouds 3 1003 100 10000 1.5 0 17:21 17.12.2019
2438 Clouds 3 1003 100 10000 2.6 190 16:57 17.12.2019
2439 Clouds 3 1003 100 10000 2.6 190 16:38 17.12.2019
2440 Clouds 4 1003 93 10000 2.6 190 16:19 17.12.2019
2441 Clouds 4 1004 93 10000 2.6 210 15:59 17.12.2019
2442 Clouds 4 1004 93 10000 2.6 210 15:38 17.12.2019
2443 Clouds 4 1004 93 10000 2.6 200 15:19 17.12.2019
2444 Clouds 4 1004 93 10000 2.6 200 14:56 17.12.2019
2445 Clouds 4 1004 93 10000 2.6 200 14:38 17.12.2019
2446 Clouds 4 1003 93 10000 2.6 210 14:19 17.12.2019
2447 Clouds 4 1003 93 10000 2.6 200 13:56 17.12.2019
2448 Clouds 5 1003 93 10000 2.6 200 13:38 17.12.2019
2449 Clouds 5 1004 93 10000 2.6 210 13:19 17.12.2019
2450 Clouds 5 1004 93 10000 2.6 210 13:19 17.12.2019
2451 Clouds 4 1003 93 10000 3.1 210 12:58 17.12.2019
2452 Clouds 5 1003 93 10000 3.1 210 12:38 17.12.2019
2453 Clouds 5 1003 93 10000 3.1 210 12:38 17.12.2019
2454 Clouds 5 1003 93 10000 3.1 210 12:18 17.12.2019
2455 Clouds 5 1003 93 10000 2.6 210 11:56 17.12.2019
2456 Clouds 5 1003 93 10000 2.1 210 11:36 17.12.2019
2457 Clouds 4 1003 93 10000 2.1 210 11:18 17.12.2019
2458 Clouds 4 1003 93 10000 2.1 220 10:56 17.12.2019
2459 Clouds 4 1003 93 10000 2.6 220 10:37 17.12.2019
2460 Clouds 4 1003 93 10000 2.6 220 10:19 17.12.2019
2461 Clouds 4 1003 93 10000 2.6 200 09:42 17.12.2019
2462 Clouds 4 1002 93 10000 2.1 230 09:22 17.12.2019
2463 Clouds 4 1002 93 10000 2.6 220 08:58 17.12.2019
2464 Clouds 4 1002 93 10000 2.6 220 08:40 17.12.2019
2465 Clouds 4 1002 93 10000 2.6 210 08:21 17.12.2019
2466 Clouds 4 1002 93 10000 2.6 210 07:58 17.12.2019
2467 Clouds 4 1002 93 10000 2.6 210 07:39 17.12.2019
2468 Clouds 4 1001 93 10000 1.5 220 07:20 17.12.2019
2469 Clouds 4 1001 93 10000 3.1 210 06:42 17.12.2019
2470 Clouds 4 1001 93 10000 3.1 210 06:24 17.12.2019
2471 Clouds 4 1000 93 10000 2.6 200 05:41 17.12.2019
2472 Clouds 4 1000 93 10000 2.6 210 04:51 17.12.2019
2473 Clouds 4 1000 93 10000 3.1 230 03:40 17.12.2019
2474 Rain 4 999 93 10000 3.6 240 02:22 17.12.2019
2475 Rain 5 999 86 10000 5.1 230 01:21 17.12.2019
2476 Rain 4 998 93 10000 4.1 220 00:45 17.12.2019
2477 Rain 5 998 86 10000 4.1 220 00:21 17.12.2019
2478 Rain 5 998 93 10000 4.1 220 23:43 16.12.2019
2479 Clouds 5 998 100 10000 4.6 210 23:20 16.12.2019
2480 Clouds 5 998 86 10000 4.1 210 22:58 16.12.2019
2481 Clouds 5 998 86 10000 4.1 210 22:38 16.12.2019
2482 Clouds 5 998 86 10000 4.1 210 22:38 16.12.2019
2483 Clouds 4 998 93 10000 4.6 220 22:20 16.12.2019
2484 Clouds 4 997 93 10000 4.6 220 21:57 16.12.2019
2485 Clouds 4 997 93 10000 4.6 220 21:39 16.12.2019
2486 Clouds 4 997 100 10000 4.1 210 21:20 16.12.2019
2487 Drizzle 4 997 100 10000 4.1 220 20:58 16.12.2019
2488 Drizzle 5 997 100 10000 4.1 220 20:39 16.12.2019
2489 Drizzle 5 997 100 10000 4.1 220 20:39 16.12.2019
2490 Drizzle 5 997 93 10000 5.1 210 20:19 16.12.2019
2491 Rain 5 997 93 10000 5.1 200 19:56 16.12.2019
2492 Rain 5 997 93 10000 5.1 200 19:37 16.12.2019
2493 Rain 4 997 93 10000 5.1 180 19:19 16.12.2019
2494 Rain 4 997 93 10000 5.1 170 18:59 16.12.2019
2495 Rain 4 997 93 10000 5.1 170 18:40 16.12.2019
2496 Rain 4 998 100 9000 4.1 170 18:20 16.12.2019
2497 Rain 4 998 93 8000 3.1 150 17:58 16.12.2019
2498 Rain 4 999 100 10000 2.1 150 17:39 16.12.2019
2499 Rain 4 999 100 10000 2.1 150 17:21 16.12.2019
2500 Rain 4 999 100 10000 5.1 190 16:57 16.12.2019
2501 Rain 4 999 100 10000 5.1 190 16:39 16.12.2019
2502 Rain 4 999 86 10000 3.6 180 16:20 16.12.2019
2503 Clouds 4 1000 86 10000 3.6 190 15:58 16.12.2019
2504 Clouds 3 1000 86 10000 3.6 190 15:39 16.12.2019
2505 Clouds 4 1000 86 10000 3.6 200 15:20 16.12.2019
2506 Clouds 4 1000 93 10000 3.6 210 14:57 16.12.2019
2507 Clouds 4 1000 93 10000 3.6 210 14:37 16.12.2019
2508 Clouds 4 1000 93 10000 3.6 210 14:37 16.12.2019
2509 Clouds 4 1000 93 10000 3.6 200 14:19 16.12.2019
2510 Clouds 4 1000 93 10000 3.6 200 14:19 16.12.2019
2511 Clouds 4 1000 93 10000 3.6 200 14:19 16.12.2019
2512 Clouds 4 1000 93 10000 3.6 200 14:19 16.12.2019
2513 Clouds 4 1000 93 10000 3.6 200 14:19 16.12.2019
2514 Clouds 3 1000 93 10000 3.1 210 13:56 16.12.2019
2515 Clouds 3 1000 93 10000 3.1 210 13:37 16.12.2019
2516 Clouds 4 1000 93 10000 4.1 210 13:19 16.12.2019
2517 Clouds 4 1000 93 10000 4.6 220 12:57 16.12.2019
2518 Clouds 4 1000 93 10000 4.6 220 12:39 16.12.2019
2519 Clouds 4 999 93 10000 4.1 220 12:19 16.12.2019
2520 Clouds 4 999 93 10000 3.6 220 11:58 16.12.2019
2521 Clouds 4 999 93 10000 3.6 220 11:40 16.12.2019
2522 Clouds 3 999 93 10000 4.1 230 11:20 16.12.2019
2523 Clouds 3 999 100 10000 3.1 230 10:56 16.12.2019
2524 Clouds 3 999 100 10000 3.1 230 10:37 16.12.2019
2525 Clouds 3 999 93 10000 3.1 220 10:19 16.12.2019
2526 Clouds 2 998 100 10000 4.1 230 09:45 16.12.2019
2527 Clouds 3 998 100 10000 4.1 240 09:26 16.12.2019
2528 Clouds 2 998 100 10000 4.1 240 08:41 16.12.2019
2529 Clouds 2 997 93 10000 3.6 240 08:21 16.12.2019
2530 Clouds 2 997 93 10000 3.6 240 08:21 16.12.2019
2531 Clouds 2 996 100 10000 4.6 240 07:59 16.12.2019
2532 Clouds 2 996 100 10000 4.6 240 07:41 16.12.2019
2533 Clouds 2 996 93 10000 3.6 250 07:20 16.12.2019
2534 Drizzle 3 995 93 10000 4.6 270 06:41 16.12.2019
2535 Drizzle 3 995 93 10000 4.6 270 06:22 16.12.2019
2536 Rain 3 995 93 10000 4.6 260 05:47 16.12.2019
2537 Drizzle 3 994 93 10000 4.1 270 05:29 16.12.2019
2538 Rain 3 992 93 10000 4.6 280 03:41 16.12.2019
2539 Rain 2 990 100 6000 4.1 310 01:58 16.12.2019
2540 Rain 2 990 100 6000 4.1 310 01:40 16.12.2019
2541 Rain 2 990 100 6000 4.1 310 01:40 16.12.2019
2542 Drizzle 2 989 100 9000 1.5 330 00:42 16.12.2019
2543 Rain 2 988 100 6000 1.5 350 00:23 16.12.2019
2544 Drizzle 2 988 100 10000 1.5 20 23:58 15.12.2019
2545 Drizzle 2 988 100 10000 1.5 10 23:38 15.12.2019
2546 Drizzle 2 988 100 10000 1.5 10 23:19 15.12.2019
2547 Rain 2 988 100 10000 2.6 50 22:55 15.12.2019
2548 Rain 2 988 100 10000 2.6 50 22:37 15.12.2019
2549 Rain 2 988 100 10000 2.1 40 22:18 15.12.2019
2550 Rain 2 988 100 8000 1.5 50 21:55 15.12.2019
2551 Rain 2 988 100 8000 1.5 50 21:37 15.12.2019
2552 Drizzle 2 988 100 10000 1.5 120 21:18 15.12.2019
2553 Drizzle 2 988 93 10000 2.1 140 20:55 15.12.2019
2554 Drizzle 2 988 93 10000 2.1 140 20:36 15.12.2019
2555 Drizzle 3 988 93 10000 3.6 150 20:18 15.12.2019
2556 Rain 3 988 93 10000 2.6 160 19:55 15.12.2019
2557 Rain 3 988 93 10000 1.5 140 19:37 15.12.2019
2558 Rain 3 988 93 10000 1.5 140 19:18 15.12.2019
2559 Clouds 3 988 93 10000 2.1 170 18:55 15.12.2019
2560 Clouds 4 989 93 10000 2.1 170 18:36 15.12.2019
2561 Clouds 4 989 93 10000 2.1 170 18:18 15.12.2019
2562 Clouds 4 988 93 10000 2.1 170 17:55 15.12.2019
2563 Clouds 4 989 93 10000 2.6 160 17:36 15.12.2019
2564 Clouds 4 989 93 10000 2.6 160 17:18 15.12.2019
2565 Clouds 4 989 93 10000 2.6 160 16:42 15.12.2019
2566 Clouds 4 989 93 10000 2.6 160 16:23 15.12.2019
2567 Clouds 4 989 93 10000 2.1 170 15:57 15.12.2019
2568 Clouds 4 989 93 10000 2.1 170 15:39 15.12.2019
2569 Clouds 4 989 93 10000 2.6 170 15:19 15.12.2019
2570 Clouds 4 989 93 10000 3.1 160 14:56 15.12.2019
2571 Clouds 4 989 93 10000 3.1 160 14:37 15.12.2019
2572 Clouds 4 989 93 10000 3.1 160 14:19 15.12.2019
2573 Clouds 4 989 93 10000 2.1 170 13:58 15.12.2019
2574 Clouds 4 989 93 10000 2.1 170 13:39 15.12.2019
2575 Clouds 4 988 93 10000 2.1 150 13:20 15.12.2019
2576 Clouds 4 988 93 10000 1.5 0 12:57 15.12.2019
2577 Clouds 5 988 93 10000 1.5 0 12:39 15.12.2019
2578 Clouds 5 988 100 10000 1.5 150 12:21 15.12.2019
2579 Rain 5 988 100 7000 1.5 0 11:59 15.12.2019
2580 Rain 4 988 100 7000 2.6 190 11:37 15.12.2019
2581 Rain 4 988 100 7000 2.6 190 11:19 15.12.2019
2582 Rain 5 989 93 10000 2.1 140 10:55 15.12.2019
2583 Rain 4 989 93 10000 2.1 140 10:37 15.12.2019
2584 Rain 4 988 100 10000 2.6 130 10:19 15.12.2019
2585 Rain 4 988 93 10000 2.6 110 09:41 15.12.2019
2586 Rain 4 988 100 10000 3.1 130 09:20 15.12.2019
2587 Rain 4 988 100 10000 2.6 130 08:59 15.12.2019
2588 Rain 4 988 100 10000 2.6 130 08:41 15.12.2019
2589 Rain 4 988 100 10000 2.6 110 08:22 15.12.2019
2590 Rain 4 988 100 10000 2.6 110 08:22 15.12.2019
2591 Rain 4 988 100 10000 2.6 130 07:56 15.12.2019
2592 Rain 4 988 100 10000 3.6 120 07:36 15.12.2019
2593 Rain 4 987 100 10000 3.1 130 06:56 15.12.2019
2594 Mist 4 987 100 10000 2.6 130 06:21 15.12.2019
2595 Rain 4 987 100 10000 2.1 120 05:37 15.12.2019
2596 Rain 4 987 100 10000 2.1 120 05:18 15.12.2019
2597 Rain 4 987 93 10000 2.1 120 03:54 15.12.2019
2598 Rain 4 987 93 10000 2.6 120 02:34 15.12.2019
2599 Rain 4 987 100 10000 2.6 130 01:50 15.12.2019
2600 Rain 4 987 93 10000 2.6 130 01:28 15.12.2019
2601 Rain 4 987 93 10000 3.1 140 00:59 15.12.2019
2602 Rain 4 987 93 10000 3.1 140 00:41 15.12.2019
2603 Drizzle 4 987 93 10000 2.6 130 00:23 15.12.2019
2604 Rain 4 987 93 10000 3.6 140 23:40 14.12.2019
2605 Drizzle 4 987 93 10000 4.6 140 23:40 14.12.2019
2606 Rain 4 987 93 10000 3.6 140 23:40 14.12.2019
2607 Drizzle 4 987 93 10000 4.6 140 23:21 14.12.2019
2608 Rain 4 987 93 10000 3.6 140 22:58 14.12.2019
2609 Rain 4 987 93 10000 3.6 140 22:58 14.12.2019
2610 Rain 4 987 93 10000 3.6 140 22:58 14.12.2019
2611 Rain 4 987 93 10000 3.6 140 22:40 14.12.2019
2612 Rain 4 986 93 9000 4.1 140 22:21 14.12.2019
2613 Rain 4 986 93 10000 3.1 130 21:56 14.12.2019
2614 Rain 4 986 93 10000 3.1 130 21:38 14.12.2019
2615 Rain 4 986 93 10000 3.1 130 21:19 14.12.2019
2616 Rain 4 986 93 10000 3.1 130 21:19 14.12.2019
2617 Rain 4 986 93 10000 3.6 130 20:56 14.12.2019
2618 Rain 4 986 93 10000 3.6 130 20:38 14.12.2019
2619 Rain 4 986 93 10000 4.1 140 20:19 14.12.2019
2620 Rain 4 986 93 10000 4.1 120 19:55 14.12.2019
2621 Rain 4 986 93 10000 4.1 110 19:36 14.12.2019
2622 Rain 4 986 93 10000 4.1 110 19:18 14.12.2019
2623 Rain 4 986 93 10000 4.6 120 18:55 14.12.2019
2624 Rain 4 986 93 10000 5.1 120 18:36 14.12.2019
2625 Rain 4 986 93 10000 5.1 120 18:18 14.12.2019
2626 Drizzle 4 986 93 10000 4.6 130 17:42 14.12.2019
2627 Rain 4 986 93 10000 4.6 130 17:22 14.12.2019
2628 Rain 4 986 93 10000 4.6 130 16:55 14.12.2019
2629 Rain 4 986 93 10000 4.6 130 16:37 14.12.2019
2630 Rain 4 986 93 9000 3.6 110 16:18 14.12.2019
2631 Rain 4 986 93 10000 4.1 110 15:41 14.12.2019
2632 Rain 4 986 93 10000 4.6 120 15:21 14.12.2019
2633 Rain 4 987 93 10000 5.1 120 14:58 14.12.2019
2634 Rain 4 987 93 10000 5.1 120 14:38 14.12.2019
2635 Rain 4 987 93 9000 4.6 120 14:19 14.12.2019
2636 Rain 4 987 93 8000 6.2 120 13:45 14.12.2019
2637 Rain 4 987 93 8000 6.2 120 13:20 14.12.2019
2638 Rain 4 987 86 10000 5.7 120 12:59 14.12.2019
2639 Clouds 4 987 86 10000 5.7 130 12:41 14.12.2019
2640 Clouds 4 987 86 10000 5.7 130 12:21 14.12.2019
2641 Clouds 4 987 86 10000 5.7 130 12:21 14.12.2019
2642 Clouds 4 987 86 10000 5.7 130 12:21 14.12.2019
2643 Clouds 4 987 86 10000 5.7 120 11:59 14.12.2019
2644 Clouds 4 987 86 10000 5.7 120 11:39 14.12.2019
2645 Clouds 4 987 93 8000 4.1 120 11:20 14.12.2019
2646 Clouds 4 988 93 10000 4.1 130 10:59 14.12.2019
2647 Clouds 4 988 93 10000 4.1 130 10:40 14.12.2019
2648 Rain 4 988 86 10000 6.7 140 10:22 14.12.2019
2649 Rain 4 988 93 10000 6.2 120 09:57 14.12.2019
2650 Rain 4 988 93 10000 6.2 120 09:39 14.12.2019
2651 Rain 4 988 100 10000 5.7 120 09:19 14.12.2019
2652 Rain 4 988 93 10000 2.6 110 08:43 14.12.2019
2653 Rain 4 988 93 7000 6.2 140 08:20 14.12.2019
2654 Rain 4 988 93 10000 5.1 120 07:44 14.12.2019
2655 Rain 4 988 93 10000 4.6 110 07:24 14.12.2019
2656 Rain 4 988 93 10000 4.6 130 06:57 14.12.2019
2657 Rain 4 988 100 8000 4.6 120 06:38 14.12.2019
2658 Rain 4 988 100 8000 4.6 120 06:18 14.12.2019
2659 Rain 3 989 100 9000 4.6 110 04:48 14.12.2019
2660 Rain 3 990 93 10000 5.7 120 02:41 14.12.2019
2661 Rain 3 990 93 10000 6.7 120 02:19 14.12.2019
2662 Rain 3 990 93 10000 5.7 120 01:37 14.12.2019
2663 Rain 3 991 100 6000 5.1 110 00:49 14.12.2019
2664 Drizzle 4 991 93 10000 6.2 110 00:28 14.12.2019
2665 Rain 4 991 93 10000 5.7 110 23:57 13.12.2019
2666 Rain 4 992 93 10000 6.7 120 23:37 13.12.2019
2667 Rain 4 992 93 10000 6.7 120 23:18 13.12.2019
2668 Drizzle 4 992 93 10000 5.7 120 22:41 13.12.2019
2669 Rain 4 992 93 7000 6.2 110 22:19 13.12.2019
2670 Rain 4 992 93 8000 5.1 120 21:56 13.12.2019
2671 Rain 4 992 93 8000 5.1 120 21:38 13.12.2019
2672 Rain 4 993 93 10000 5.7 120 21:20 13.12.2019
2673 Rain 4 993 93 10000 5.1 110 20:43 13.12.2019
2674 Rain 4 993 93 9000 6.2 110 20:24 13.12.2019
2675 Rain 4 993 93 9000 6.2 110 19:59 13.12.2019
2676 Rain 4 993 93 10000 5.1 110 19:41 13.12.2019
2677 Rain 4 993 93 10000 5.1 110 19:41 13.12.2019
2678 Rain 4 993 93 10000 5.1 110 19:23 13.12.2019
2679 Drizzle 4 994 93 10000 5.7 100 18:59 13.12.2019
2680 Drizzle 4 994 93 10000 3.6 100 18:41 13.12.2019
2681 Drizzle 4 994 93 10000 3.6 100 18:19 13.12.2019
2682 Drizzle 4 994 93 10000 3.6 100 17:57 13.12.2019
2683 Drizzle 4 994 93 10000 4.1 110 17:38 13.12.2019
2684 Drizzle 4 994 93 10000 4.1 110 17:18 13.12.2019
2685 Clouds 4 995 93 10000 5.1 110 16:54 13.12.2019
2686 Clouds 3 995 93 10000 5.1 120 16:36 13.12.2019
2687 Clouds 3 995 93 10000 5.1 120 16:18 13.12.2019
2688 Drizzle 4 995 93 10000 4.1 120 15:38 13.12.2019
2689 Drizzle 4 995 93 10000 4.1 120 15:20 13.12.2019
2690 Rain 4 995 86 10000 4.1 110 14:42 13.12.2019
2691 Clouds 4 995 86 10000 4.1 110 14:21 13.12.2019
2692 Clouds 4 995 86 10000 3.1 110 13:58 13.12.2019
2693 Clouds 4 995 86 10000 3.1 120 13:40 13.12.2019
2694 Clouds 4 995 86 10000 3.1 120 13:21 13.12.2019
2695 Clouds 4 996 86 10000 3.1 130 12:44 13.12.2019
2696 Clouds 4 996 86 10000 3.1 130 12:23 13.12.2019
2697 Clouds 4 996 93 10000 3.1 130 11:58 13.12.2019
2698 Clouds 4 996 93 10000 2.1 120 11:40 13.12.2019
2699 Clouds 4 996 93 10000 2.1 120 11:22 13.12.2019
2700 Clouds 4 996 86 10000 4.1 150 10:56 13.12.2019
2701 Clouds 4 996 86 10000 3.6 140 10:38 13.12.2019
2702 Clouds 4 996 86 10000 3.6 140 10:19 13.12.2019
2703 Clouds 3 996 93 10000 4.6 140 09:41 13.12.2019
2704 Clouds 3 996 93 10000 4.6 140 09:20 13.12.2019
2705 Clouds 3 996 93 10000 2.6 150 09:20 13.12.2019
2706 Clouds 3 996 93 10000 2.6 150 08:44 13.12.2019
2707 Clouds 3 996 93 10000 3.1 140 08:25 13.12.2019
2708 Clouds 3 996 93 10000 2.6 140 07:47 13.12.2019
2709 Clouds 3 996 100 10000 2.6 140 07:24 13.12.2019
2710 Clouds 2 996 93 10000 2.1 130 06:55 13.12.2019
2711 Clouds 2 996 93 10000 2.1 150 06:29 13.12.2019
2712 Clouds 2 996 93 10000 2.1 160 05:51 13.12.2019
2713 Clouds 2 996 93 10000 3.1 150 05:30 13.12.2019
2714 Clouds 2 995 100 10000 2.1 150 04:46 13.12.2019
2715 Clouds 1 995 90 10000 2.1 160 03:48 13.12.2019
2716 Clouds 3 995 93 10000 2.6 220 02:35 13.12.2019
2717 Clouds 3 995 93 10000 3.6 210 01:49 13.12.2019
2718 Clouds 3 995 93 10000 3.6 200 01:19 13.12.2019
2719 Clouds 3 995 93 10000 2.6 210 00:45 13.12.2019
2720 Clouds 3 995 93 10000 2.6 200 00:22 13.12.2019
2721 Clouds 3 995 93 10000 2.6 150 23:41 12.12.2019
2722 Snow 3 995 93 10000 2.6 150 23:22 12.12.2019
2723 Snow 3 995 93 10000 2.6 140 22:56 12.12.2019
2724 Clouds 3 995 93 10000 2.1 140 22:37 12.12.2019
2725 Clouds 2 995 93 10000 2.1 140 22:19 12.12.2019
2726 Clouds 2 995 93 10000 2.6 140 21:55 12.12.2019
2727 Clouds 2 995 93 10000 2.6 140 21:55 12.12.2019
2728 Clouds 2 995 93 10000 2.6 150 21:37 12.12.2019
2729 Clouds 2 995 93 10000 2.6 150 21:19 12.12.2019
2730 Clouds 3 995 93 10000 3.6 140 20:56 12.12.2019
2731 Clouds 3 995 93 10000 3.1 140 20:38 12.12.2019
2732 Clouds 3 995 93 10000 3.1 140 20:20 12.12.2019
2733 Clouds 3 996 100 9000 4.1 150 19:43 12.12.2019
2734 Clouds 3 996 100 9000 4.1 150 19:43 12.12.2019
2735 Clouds 3 996 100 9000 4.1 150 19:23 12.12.2019
2736 Mist 3 996 100 4500 3.6 160 18:58 12.12.2019
2737 Mist 3 996 100 8000 4.1 150 18:40 12.12.2019
2738 Mist 3 996 100 8000 4.1 150 18:21 12.12.2019
2739 Mist 3 996 100 8000 4.1 150 18:21 12.12.2019
2740 Clouds 3 996 100 10000 3.6 150 17:59 12.12.2019
2741 Drizzle 3 997 93 8000 4.6 150 17:40 12.12.2019
2742 Drizzle 3 997 93 8000 4.6 150 17:21 12.12.2019
2743 Clouds 3 997 93 10000 4.1 140 16:59 12.12.2019
2744 Clouds 3 997 93 10000 3.6 140 16:41 12.12.2019
2745 Clouds 3 997 93 10000 3.6 140 16:21 12.12.2019
2746 Drizzle 3 997 93 6000 4.6 150 15:58 12.12.2019
2747 Mist 3 997 93 6000 4.6 140 15:40 12.12.2019
2748 Mist 3 997 93 6000 4.6 140 15:19 12.12.2019
2749 Mist 3 997 93 6000 4.6 140 15:19 12.12.2019
2750 Drizzle 3 998 100 4000 4.6 150 14:57 12.12.2019
2751 Mist 3 998 100 5000 5.1 160 14:36 12.12.2019
2752 Mist 3 998 100 5000 5.1 160 14:18 12.12.2019
2753 Clouds 3 998 93 7000 4.1 160 13:54 12.12.2019
2754 Mist 4 998 93 3500 4.1 150 13:36 12.12.2019
2755 Mist 4 998 93 3500 4.1 150 13:18 12.12.2019
2756 Drizzle 4 999 93 5000 2.6 160 12:41 12.12.2019
2757 Drizzle 4 999 93 5000 2.6 160 12:22 12.12.2019
2758 Rain 4 999 93 5000 2.1 160 11:59 12.12.2019
2759 Rain 4 1000 100 7000 2.1 160 11:40 12.12.2019
2760 Rain 4 1000 100 7000 2.1 160 11:21 12.12.2019
2761 Drizzle 4 1000 100 8000 2.6 150 10:58 12.12.2019
2762 Drizzle 4 1000 100 10000 2.6 150 10:40 12.12.2019
2763 Drizzle 4 1000 100 10000 2.6 150 10:21 12.12.2019
2764 Drizzle 4 1000 100 10000 2.6 150 09:56 12.12.2019
2765 Rain 4 1000 100 10000 3.1 160 09:38 12.12.2019
2766 Rain 3 1000 100 10000 3.1 160 09:19 12.12.2019
2767 Rain 3 1000 100 10000 3.1 160 08:47 12.12.2019
2768 Rain 3 1000 100 10000 3.6 160 08:28 12.12.2019
2769 Drizzle 4 1000 100 10000 2.6 150 07:54 12.12.2019
2770 Rain 4 1000 93 10000 2.6 150 07:36 12.12.2019
2771 Rain 4 1000 93 10000 2.6 150 07:18 12.12.2019
2772 Rain 4 1001 93 10000 2.1 160 06:41 12.12.2019
2773 Rain 4 1001 93 10000 2.1 160 06:21 12.12.2019
2774 Rain 4 1001 93 10000 3.1 160 05:26 12.12.2019
2775 Drizzle 4 1002 100 10000 2.1 150 04:31 12.12.2019
2776 Rain 4 1002 100 10000 2.1 150 02:41 12.12.2019
2777 Rain 4 1002 100 10000 2.1 150 02:23 12.12.2019
2778 Rain 4 1002 100 10000 1.5 170 01:58 12.12.2019
2779 Drizzle 4 1003 93 10000 2.1 150 01:35 12.12.2019
2780 Rain 4 1003 93 10000 2.1 150 00:49 12.12.2019
2781 Drizzle 4 1003 93 10000 2.1 170 00:22 12.12.2019
2782 Clouds 4 1003 93 10000 2.6 180 23:58 11.12.2019
2783 Clouds 4 1003 93 10000 2.6 180 23:36 11.12.2019
2784 Clouds 4 1003 93 10000 2.6 180 23:18 11.12.2019
2785 Clouds 4 1004 93 10000 2.1 180 22:55 11.12.2019
2786 Clouds 4 1004 93 10000 2.6 180 22:37 11.12.2019
2787 Clouds 4 1004 93 10000 2.6 180 22:18 11.12.2019
2788 Clouds 4 1004 93 10000 2.6 190 21:54 11.12.2019
2789 Clouds 4 1004 86 10000 3.1 190 21:36 11.12.2019
2790 Clouds 4 1004 86 10000 3.1 190 21:18 11.12.2019
2791 Clouds 4 1004 86 10000 3.1 200 20:54 11.12.2019
2792 Clouds 4 1004 86 10000 3.1 210 20:36 11.12.2019
2793 Clouds 4 1004 86 10000 3.1 210 20:18 11.12.2019
2794 Clouds 4 1004 86 10000 3.6 210 19:41 11.12.2019
2795 Clouds 4 1004 86 10000 3.6 210 19:23 11.12.2019
2796 Clouds 4 1004 93 10000 3.6 210 18:59 11.12.2019
2797 Clouds 4 1004 93 10000 4.1 200 18:39 11.12.2019
2798 Clouds 4 1004 93 10000 4.1 200 18:19 11.12.2019
2799 Clouds 4 1004 93 10000 4.1 210 17:56 11.12.2019
2800 Clouds 4 1003 93 10000 3.1 200 17:37 11.12.2019
2801 Clouds 4 1003 93 10000 3.1 200 17:18 11.12.2019
2802 Clouds 4 1003 86 10000 3.1 180 16:55 11.12.2019
2803 Clouds 4 1003 86 10000 3.1 190 16:37 11.12.2019
2804 Clouds 4 1003 86 10000 3.1 190 16:18 11.12.2019
2805 Clouds 4 1003 93 10000 2.6 190 15:55 11.12.2019
2806 Clouds 4 1003 93 10000 3.6 190 15:36 11.12.2019
2807 Clouds 4 1003 93 10000 3.6 190 15:18 11.12.2019
2808 Clouds 4 1003 93 10000 2.6 210 14:54 11.12.2019
2809 Clouds 4 1003 86 10000 4.1 210 14:36 11.12.2019
2810 Clouds 4 1003 86 10000 4.1 210 14:18 11.12.2019
2811 Clouds 4 1002 86 10000 5.1 190 13:42 11.12.2019
2812 Clouds 4 1002 86 10000 5.1 190 13:42 11.12.2019
2813 Clouds 4 1002 86 10000 5.1 190 13:21 11.12.2019
2814 Clouds 4 1002 86 10000 5.7 190 12:57 11.12.2019
2815 Clouds 4 1002 86 10000 5.1 190 12:39 11.12.2019
2816 Clouds 4 1002 86 10000 5.1 190 12:21 11.12.2019
2817 Clouds 4 1002 86 10000 5.1 190 12:21 11.12.2019
2818 Rain 4 1002 86 9000 6.2 180 11:58 11.12.2019
2819 Rain 4 1002 86 10000 6.7 180 11:39 11.12.2019
2820 Rain 4 1002 86 10000 6.7 180 11:19 11.12.2019
2821 Rain 4 1002 86 10000 6.7 180 11:19 11.12.2019
2822 Rain 4 1002 86 10000 6.7 180 10:57 11.12.2019
2823 Drizzle 4 1002 86 10000 7.7 180 10:39 11.12.2019
2824 Drizzle 4 1002 86 10000 7.7 180 10:20 11.12.2019
2825 Rain 4 1002 86 10000 7.2 170 09:44 11.12.2019
2826 Rain 4 1002 86 10000 7.2 170 09:44 11.12.2019
2827 Rain 4 1002 86 10000 7.2 170 09:21 11.12.2019
2828 Clouds 4 1002 86 10000 7.7 170 08:58 11.12.2019
2829 Clouds 4 1002 93 10000 7.2 160 08:40 11.12.2019
2830 Rain 3 1002 93 10000 7.2 160 08:20 11.12.2019
2831 Drizzle 3 1002 93 10000 7.7 170 07:59 11.12.2019
2832 Rain 3 1003 86 10000 8.7 170 07:41 11.12.2019
2833 Rain 3 1003 86 10000 8.7 170 07:22 11.12.2019
2834 Rain 3 1004 86 9000 8.7 170 06:45 11.12.2019
2835 Rain 3 1004 86 9000 8.7 170 06:24 11.12.2019
2836 Rain 3 1004 80 10000 8.2 170 05:52 11.12.2019
2837 Rain 3 1004 80 10000 7.2 160 05:27 11.12.2019
2838 Clouds 3 1005 86 10000 6.2 160 04:47 11.12.2019
2839 Clouds 2 1008 74 10000 5.7 150 03:18 11.12.2019
2840 Clouds 1 1009 80 10000 5.1 150 01:56 11.12.2019
2841 Clouds 1 1010 86 10000 4.6 150 01:21 11.12.2019
2842 Clouds 1 1012 57 10000 4.1 150 00:37 11.12.2019
2843 Clouds 1 1012 57 10000 4.1 150 00:18 11.12.2019
2844 Clouds 0 1013 92 10000 3.6 150 23:43 10.12.2019
2845 Clouds 0 1013 92 10000 3.6 150 23:22 10.12.2019
2846 Clouds -1 1013 92 10000 3.1 150 22:42 10.12.2019
2847 Clouds -2 1013 92 10000 3.1 150 22:24 10.12.2019
2848 Clouds -2 1013 92 10000 3.1 150 22:24 10.12.2019
2849 Clouds -3 1014 92 10000 2.6 170 21:58 10.12.2019
2850 Clouds -3 1014 86 10000 3.1 160 21:39 10.12.2019
2851 Clouds -3 1014 86 10000 3.1 160 21:21 10.12.2019
2852 Clouds -3 1015 100 10000 2.1 150 20:59 10.12.2019
2853 Clouds -3 1015 100 10000 2.1 150 20:59 10.12.2019
2854 Clouds -4 1015 100 10000 2.1 150 20:38 10.12.2019
2855 Clouds -4 1015 100 10000 2.1 150 20:38 10.12.2019
2856 Clouds -4 1015 100 10000 2.1 150 20:38 10.12.2019
2857 Clouds -4 1015 100 10000 2.1 150 20:38 10.12.2019
2858 Clouds -4 1015 100 10000 2.1 150 20:38 10.12.2019
2859 Clouds -5 1015 100 10000 2.1 150 20:19 10.12.2019
2860 Clouds -5 1015 100 10000 2.1 150 20:19 10.12.2019
2861 Clouds -6 1015 100 10000 1.5 140 19:58 10.12.2019
2862 Clouds -6 1016 100 10000 2.1 180 19:40 10.12.2019
2863 Clouds -6 1016 100 10000 2.1 180 19:22 10.12.2019
2864 Clouds -6 1016 92 10000 1.5 0 18:56 10.12.2019
2865 Clouds -6 1016 92 10000 1.5 200 18:38 10.12.2019
2866 Clouds -6 1016 92 10000 1.5 200 18:18 10.12.2019
2867 Clouds -6 1016 100 10000 1.5 0 17:54 10.12.2019
2868 Clouds -6 1016 100 10000 1 0 17:36 10.12.2019
2869 Clouds -5 1016 100 10000 1 0 17:18 10.12.2019
2870 Clouds -5 1016 100 10000 1.46 265 16:41 10.12.2019
2871 Clouds -5 1016 100 10000 1.46 265 16:19 10.12.2019
2872 Clouds -4 1015 92 10000 1 0 15:40 10.12.2019
2873 Clouds -4 1015 92 10000 1 0 15:19 10.12.2019
2874 Clouds -4 1015 92 10000 1 0 14:57 10.12.2019
2875 Clouds -4 1014 92 10000 2.1 290 14:38 10.12.2019
2876 Clear -3 1014 92 10000 2.1 290 14:20 10.12.2019
2877 Clear -3 1014 86 10000 3.1 290 13:58 10.12.2019
2878 Clear -3 1013 86 10000 2.1 300 13:40 10.12.2019
2879 Clear -3 1013 86 10000 2.1 300 13:20 10.12.2019
2880 Clear -3 1013 92 10000 3.6 290 12:49 10.12.2019
2881 Clear -3 1013 92 10000 3.1 280 12:28 10.12.2019
2882 Clear -3 1012 92 10000 3.1 290 11:59 10.12.2019
2883 Clear -3 1012 86 10000 2.6 290 11:40 10.12.2019
2884 Clear -3 1012 86 10000 2.6 290 11:21 10.12.2019
2885 Clear -3 1012 92 10000 3.1 290 10:44 10.12.2019
2886 Clear -3 1012 86 10000 2.6 280 10:25 10.12.2019
2887 Clear -4 1011 92 10000 2.6 280 09:58 10.12.2019
2888 Clear -4 1010 92 10000 3.1 290 09:40 10.12.2019
2889 Clear -4 1010 92 10000 3.1 290 09:22 10.12.2019
2890 Clear -4 1010 92 10000 3.1 290 09:22 10.12.2019
2891 Clear -4 1009 92 10000 3.6 280 08:59 10.12.2019
2892 Clear -4 1009 92 10000 2.6 280 08:40 10.12.2019
2893 Clouds -4 1009 92 10000 2.6 280 08:22 10.12.2019
2894 Clouds -4 1008 92 10000 2.6 290 07:54 10.12.2019
2895 Clouds -4 1007 100 10000 2.6 290 07:36 10.12.2019
2896 Clouds -4 1007 100 10000 2.6 290 07:18 10.12.2019
2897 Clouds -4 1006 92 10000 3.6 290 06:42 10.12.2019
2898 Clouds -4 1006 92 10000 3.6 290 06:19 10.12.2019
2899 Clouds -3 1005 100 10000 3.1 300 05:51 10.12.2019
2900 Clouds -2 1004 92 10000 4.6 310 04:35 10.12.2019
2901 Clouds -2 1002 100 10000 4.6 320 03:31 10.12.2019
2902 Snow -1 1000 100 1800 4.6 330 02:36 10.12.2019
2903 Snow 0 998 100 900 3.6 330 01:42 10.12.2019
2904 Snow 0 998 100 900 3.6 330 01:19 10.12.2019
2905 Snow 0 996 83 1000 5.1 340 00:38 10.12.2019
2906 Snow 0 996 83 1000 5.1 340 00:18 10.12.2019
2907 Snow 0 994 83 3300 4.6 360 23:40 09.12.2019
2908 Snow 0 993 96 1500 5.1 350 23:22 09.12.2019
2909 Snow 0 993 96 1500 5.1 350 22:57 09.12.2019
2910 Snow 1 993 96 2100 5.1 350 22:39 09.12.2019
2911 Snow 1 993 96 2100 5.1 350 22:18 09.12.2019
2912 Snow 1 992 96 4000 3.6 350 21:56 09.12.2019
2913 Snow 0 991 96 4000 4.1 10 21:38 09.12.2019
2914 Snow 1 991 96 4000 4.1 10 21:18 09.12.2019
2915 Snow 1 990 96 6000 4.1 10 20:56 09.12.2019
2916 Clouds 1 989 96 6000 5.1 10 20:37 09.12.2019
2917 Clouds 2 989 93 6000 5.1 10 20:19 09.12.2019
2918 Clouds 3 988 93 10000 5.1 340 19:55 09.12.2019
2919 Clouds 4 987 81 10000 2.6 210 19:37 09.12.2019
2920 Clouds 4 987 81 10000 2.6 210 19:19 09.12.2019
2921 Clouds 4 987 86 10000 2.6 210 18:55 09.12.2019
2922 Clouds 4 987 81 10000 3.6 210 18:36 09.12.2019
2923 Clouds 4 987 81 10000 3.6 210 18:18 09.12.2019
2924 Clouds 4 986 81 10000 3.1 210 17:56 09.12.2019
2925 Clouds 5 986 81 10000 2.6 190 17:37 09.12.2019
2926 Clouds 5 986 81 10000 2.6 190 17:19 09.12.2019
2927 Clouds 5 986 81 10000 3.6 200 16:55 09.12.2019
2928 Clouds 5 985 81 10000 3.6 210 16:36 09.12.2019
2929 Clouds 6 985 81 10000 3.6 210 16:18 09.12.2019
2930 Clouds 6 985 81 10000 4.6 210 15:55 09.12.2019
2931 Clouds 6 984 81 10000 4.6 210 15:36 09.12.2019
2932 Clouds 6 984 81 10000 4.6 210 15:36 09.12.2019
2933 Clouds 6 984 81 10000 4.6 210 15:18 09.12.2019
2934 Clouds 6 984 75 10000 5.1 220 14:42 09.12.2019
2935 Clouds 6 984 75 10000 5.1 220 14:42 09.12.2019
2936 Clouds 6 984 75 10000 5.1 220 14:19 09.12.2019
2937 Clouds 6 984 75 10000 5.1 220 14:19 09.12.2019
2938 Clouds 6 983 75 10000 5.7 210 13:57 09.12.2019
2939 Clouds 7 983 75 10000 5.1 210 13:38 09.12.2019
2940 Clouds 7 983 75 10000 5.1 210 13:38 09.12.2019
2941 Clouds 7 983 75 10000 4.1 210 13:19 09.12.2019
2942 Clouds 7 983 75 10000 5.1 210 13:19 09.12.2019
2943 Clouds 7 983 75 10000 4.1 210 12:56 09.12.2019
2944 Clouds 7 982 75 10000 4.6 210 12:37 09.12.2019
2945 Clouds 7 982 75 10000 4.6 210 12:19 09.12.2019
2946 Clouds 7 982 75 10000 5.1 210 11:55 09.12.2019
2947 Clouds 6 982 75 10000 4.6 220 11:37 09.12.2019
2948 Clouds 7 982 75 10000 4.6 220 11:18 09.12.2019
2949 Clouds 7 982 75 10000 4.6 220 11:18 09.12.2019
2950 Clouds 6 981 81 10000 5.1 210 10:40 09.12.2019
2951 Clouds 6 981 81 10000 4.6 210 10:20 09.12.2019
2952 Clouds 6 981 81 10000 4.6 210 09:58 09.12.2019
2953 Clouds 6 980 81 10000 5.1 220 09:40 09.12.2019
2954 Clouds 6 980 81 10000 5.1 220 09:21 09.12.2019
2955 Clouds 6 979 81 10000 5.1 210 08:43 09.12.2019
2956 Clouds 6 979 81 10000 5.1 210 08:25 09.12.2019
2957 Clouds 6 979 81 10000 5.1 210 07:56 09.12.2019
2958 Clouds 6 978 75 10000 5.1 220 07:37 09.12.2019
2959 Clouds 6 978 75 10000 5.1 220 07:19 09.12.2019
2960 Clouds 6 978 75 10000 6.2 220 06:43 09.12.2019
2961 Clouds 6 978 75 10000 6.2 220 06:24 09.12.2019
2962 Clouds 6 977 81 10000 5.1 230 05:26 09.12.2019
2963 Clouds 6 977 81 10000 5.7 230 04:33 09.12.2019
2964 Clouds 6 976 81 10000 6.7 220 03:19 09.12.2019
2965 Clouds 6 976 81 10000 6.7 220 03:19 09.12.2019
2966 Clear 6 976 81 10000 5.7 220 02:19 09.12.2019
2967 Clear 6 975 81 10000 5.7 220 01:41 09.12.2019
2968 Clouds 6 975 81 10000 5.7 220 00:45 09.12.2019
2969 Clouds 6 975 81 10000 6.7 220 00:25 09.12.2019
2970 Clouds 6 975 87 10000 7.7 220 23:40 08.12.2019
2971 Clouds 6 975 87 10000 7.7 220 23:22 08.12.2019
2972 Clouds 6 975 87 10000 6.7 220 22:57 08.12.2019
2973 Clouds 6 974 87 10000 6.7 230 22:38 08.12.2019
2974 Clouds 6 974 87 10000 6.7 230 22:19 08.12.2019
2975 Clouds 6 974 81 10000 6.7 230 21:58 08.12.2019
2976 Clouds 7 974 81 10000 6.2 230 21:40 08.12.2019
2977 Clouds 7 974 81 10000 6.2 230 21:19 08.12.2019
2978 Clouds 7 974 87 10000 7.2 230 20:57 08.12.2019
2979 Clouds 7 974 87 10000 7.2 220 20:38 08.12.2019
2980 Clouds 7 974 87 10000 7.2 220 20:38 08.12.2019
2981 Clouds 7 974 87 10000 7.2 220 20:20 08.12.2019
2982 Drizzle 7 974 93 10000 6.2 220 19:57 08.12.2019
2983 Rain 7 974 93 10000 6.2 210 19:39 08.12.2019
2984 Rain 7 974 93 10000 6.2 210 19:21 08.12.2019
2985 Drizzle 7 974 93 8000 6.7 200 18:55 08.12.2019
2986 Clouds 7 974 93 10000 6.7 200 18:37 08.12.2019
2987 Clouds 7 974 93 10000 6.7 200 18:37 08.12.2019
2988 Clouds 7 974 93 10000 6.7 200 18:18 08.12.2019
2989 Clouds 7 974 93 10000 5.7 190 17:56 08.12.2019
2990 Clouds 7 974 93 10000 5.7 190 17:56 08.12.2019
2991 Rain 6 974 100 8000 6.2 190 17:38 08.12.2019
2992 Rain 6 974 100 8000 6.2 190 17:19 08.12.2019
2993 Clouds 6 974 93 10000 5.7 190 16:56 08.12.2019
2994 Clouds 6 975 93 10000 5.7 200 16:38 08.12.2019
2995 Clouds 6 975 93 10000 5.7 200 16:20 08.12.2019
2996 Rain 6 976 93 10000 5.1 180 15:54 08.12.2019
2997 Drizzle 5 977 93 10000 5.1 180 15:36 08.12.2019
2998 Drizzle 5 977 93 10000 5.1 180 15:18 08.12.2019
2999 Rain 4 979 100 8000 4.1 150 14:40 08.12.2019
3000 Rain 4 979 100 8000 4.1 150 14:40 08.12.2019
3001 Rain 4 979 100 8000 4.1 150 14:22 08.12.2019
3002 Rain 3 980 100 9000 4.1 140 13:57 08.12.2019
3003 Rain 3 981 93 9000 5.1 140 13:38 08.12.2019
3004 Rain 3 981 93 9000 5.1 140 13:20 08.12.2019
3005 Rain 2 982 100 8000 4.6 140 12:54 08.12.2019
3006 Rain 2 984 93 8000 4.1 140 12:36 08.12.2019
3007 Rain 2 984 93 8000 4.1 140 12:18 08.12.2019
3008 Drizzle 2 986 100 7000 3.1 160 11:39 08.12.2019
3009 Drizzle 2 986 100 7000 3.1 160 11:21 08.12.2019
3010 Drizzle 1 987 81 10000 3.1 170 10:59 08.12.2019
3011 Clouds 1 988 81 10000 3.1 180 10:38 08.12.2019
3012 Clouds 1 988 81 10000 3.1 180 10:20 08.12.2019
3013 Clouds 0 989 81 10000 2.6 190 09:57 08.12.2019
3014 Clouds 0 990 81 10000 2.1 200 09:39 08.12.2019
3015 Clouds 0 990 81 10000 2.1 200 09:20 08.12.2019
3016 Clouds 0 990 81 10000 3.1 210 08:58 08.12.2019
3017 Clouds 0 990 81 10000 3.1 210 08:38 08.12.2019
3018 Clouds 0 990 78 10000 3.1 210 08:19 08.12.2019
3019 Clouds -1 991 100 10000 2.6 210 07:44 08.12.2019
3020 Clouds -1 991 100 10000 2.6 210 07:20 08.12.2019
3021 Clouds -1 992 100 10000 2.1 220 06:51 08.12.2019
3022 Clouds -1 992 100 10000 2.1 210 06:22 08.12.2019
3023 Clouds -1 992 100 10000 2.1 210 05:49 08.12.2019
3024 Clear -1 993 100 10000 2.6 230 05:18 08.12.2019
3025 Clear 0 993 83 10000 3.6 260 03:51 08.12.2019
3026 Clear 0 993 83 10000 4.1 240 03:26 08.12.2019
3027 Clear -1 993 83 10000 4.6 260 02:39 08.12.2019
3028 Clouds 0 993 82 10000 4.6 260 01:56 08.12.2019
3029 Clouds 0 993 84 10000 4.1 260 01:27 08.12.2019
3030 Clouds 0 993 84 10000 4.1 260 01:27 08.12.2019
3031 Clouds 0 993 84 10000 3.6 250 00:40 08.12.2019
3032 Clouds 0 993 84 10000 3.6 250 00:21 08.12.2019
3033 Clouds 1 992 84 10000 4.6 270 23:42 07.12.2019
3034 Clouds 1 992 83 10000 4.6 270 23:21 07.12.2019
3035 Clouds 1 992 83 10000 5.1 270 22:58 07.12.2019
3036 Clouds 1 992 83 10000 4.6 260 22:40 07.12.2019
3037 Clouds 1 992 83 10000 4.6 260 22:22 07.12.2019
3038 Clouds 1 991 83 10000 5.1 270 21:56 07.12.2019
3039 Clouds 1 991 83 10000 5.1 260 21:38 07.12.2019
3040 Clouds 1 991 83 10000 5.1 260 21:38 07.12.2019
3041 Clouds 1 991 100 10000 4.6 260 21:20 07.12.2019
3042 Clouds 1 991 100 10000 4.6 260 20:59 07.12.2019
3043 Clouds 1 990 83 10000 6.2 280 20:37 07.12.2019
3044 Snow 1 990 86 10000 6.2 280 20:19 07.12.2019
3045 Snow 1 989 93 10000 6.7 280 19:56 07.12.2019
3046 Snow 2 989 93 10000 7.2 280 19:38 07.12.2019
3047 Snow 2 989 93 10000 7.2 280 19:20 07.12.2019
3048 Snow 2 988 93 10000 5.7 290 18:44 07.12.2019
3049 Rain 2 988 100 10000 5.7 290 18:21 07.12.2019
3050 Rain 2 988 100 10000 6.7 290 17:59 07.12.2019
3051 Rain 2 987 100 4500 6.2 280 17:41 07.12.2019
3052 Rain 2 987 100 4500 6.2 280 17:23 07.12.2019
3053 Rain 2 987 100 7000 5.1 280 16:58 07.12.2019
3054 Drizzle 2 986 93 8000 5.1 300 16:39 07.12.2019
3055 Drizzle 2 986 93 8000 5.1 300 16:20 07.12.2019
3056 Drizzle 3 986 93 6000 3.6 290 15:57 07.12.2019
3057 Drizzle 3 985 93 4000 5.7 300 15:38 07.12.2019
3058 Clouds 3 985 93 10000 5.1 300 15:20 07.12.2019
3059 Clouds 3 985 93 10000 5.1 300 14:42 07.12.2019
3060 Clouds 3 984 93 10000 6.2 290 14:19 07.12.2019
3061 Clouds 3 984 100 10000 5.7 280 13:56 07.12.2019
3062 Clouds 3 984 100 10000 5.7 280 13:56 07.12.2019
3063 Mist 3 984 100 5000 6.2 280 13:37 07.12.2019
3064 Mist 3 984 100 5000 6.2 280 13:19 07.12.2019
3065 Clouds 4 983 93 10000 7.7 260 12:41 07.12.2019
3066 Clouds 5 983 93 10000 7.7 260 12:23 07.12.2019
3067 Clouds 5 983 87 10000 7.7 260 11:59 07.12.2019
3068 Clouds 6 982 93 10000 5.7 230 11:41 07.12.2019
3069 Clouds 7 982 93 10000 5.7 230 11:22 07.12.2019
3070 Clouds 7 982 93 10000 4.6 210 10:39 07.12.2019
3071 Clouds 7 982 93 10000 4.6 210 10:20 07.12.2019
3072 Drizzle 7 983 93 10000 4.1 200 09:59 07.12.2019
3073 Clouds 7 983 93 10000 4.1 190 09:38 07.12.2019
3074 Clouds 7 983 93 10000 4.1 190 09:38 07.12.2019
3075 Clouds 7 983 93 10000 4.1 190 09:20 07.12.2019
3076 Clouds 7 983 93 10000 2.6 190 08:45 07.12.2019
3077 Rain 7 983 93 10000 2.6 200 08:21 07.12.2019
3078 Rain 6 983 93 10000 3.6 210 07:47 07.12.2019
3079 Rain 6 983 93 10000 3.1 190 07:28 07.12.2019
3080 Rain 7 984 93 10000 3.1 200 06:52 07.12.2019
3081 Rain 7 984 93 10000 3.1 210 06:26 07.12.2019
3082 Rain 7 985 100 10000 4.1 210 05:47 07.12.2019
3083 Rain 7 985 100 10000 4.1 210 04:43 07.12.2019
3084 Rain 7 986 100 10000 2.6 200 03:50 07.12.2019
3085 Rain 7 987 100 7000 2.6 160 02:22 07.12.2019
3086 Rain 7 988 93 10000 2.6 150 01:41 07.12.2019
3087 Rain 7 988 93 10000 2.6 150 01:22 07.12.2019
3088 Drizzle 6 989 100 10000 2.1 150 00:21 07.12.2019
3089 Rain 6 989 100 10000 1.5 160 23:59 06.12.2019
3090 Rain 6 990 100 10000 2.1 170 23:40 06.12.2019
3091 Rain 6 990 100 10000 2.1 170 23:20 06.12.2019
3092 Drizzle 6 990 93 10000 2.6 200 22:39 06.12.2019
3093 Drizzle 6 990 93 10000 2.6 200 22:21 06.12.2019
3094 Rain 6 990 93 10000 3.6 210 21:59 06.12.2019
3095 Clouds 6 990 93 10000 3.1 210 21:41 06.12.2019
3096 Clouds 6 990 93 10000 3.1 210 21:21 06.12.2019
3097 Clouds 6 990 93 10000 2.6 200 20:56 06.12.2019
3098 Clouds 6 990 93 10000 2.6 220 20:38 06.12.2019
3099 Clouds 6 990 93 10000 2.6 220 20:19 06.12.2019
3100 Clouds 6 990 93 10000 2.6 230 19:42 06.12.2019
3101 Clouds 6 990 93 10000 2.6 230 19:42 06.12.2019
3102 Clouds 6 990 93 10000 2.6 230 19:24 06.12.2019
3103 Clouds 6 990 93 10000 2.6 230 19:24 06.12.2019
3104 Clouds 6 990 93 10000 3.1 240 18:59 06.12.2019
3105 Clouds 6 990 93 10000 3.6 230 18:40 06.12.2019
3106 Clouds 6 990 93 10000 3.6 230 18:21 06.12.2019
3107 Clouds 6 990 93 10000 3.6 230 18:21 06.12.2019
3108 Clouds 6 990 87 10000 4.6 240 17:58 06.12.2019
3109 Clouds 6 989 87 10000 5.1 240 17:40 06.12.2019
3110 Clouds 6 989 87 10000 5.1 240 17:21 06.12.2019
3111 Clouds 6 989 87 10000 5.7 240 16:57 06.12.2019
3112 Clouds 7 989 87 10000 6.7 250 16:37 06.12.2019
3113 Clouds 7 989 87 10000 6.7 250 16:19 06.12.2019
3114 Clouds 7 988 87 10000 5.7 250 15:41 06.12.2019
3115 Clouds 7 988 87 10000 5.7 250 15:22 06.12.2019
3116 Clouds 7 987 87 10000 5.7 240 14:58 06.12.2019
3117 Clouds 7 987 93 10000 3.6 250 14:40 06.12.2019
3118 Clouds 7 987 93 10000 3.6 250 14:20 06.12.2019
3119 Clouds 6 987 100 10000 3.6 250 13:46 06.12.2019
3120 Clouds 6 987 100 10000 3.1 240 13:26 06.12.2019
3121 Clouds 6 986 100 10000 4.6 250 12:57 06.12.2019
3122 Clouds 6 986 100 8000 4.1 240 12:39 06.12.2019
3123 Clouds 6 986 100 8000 4.1 240 12:20 06.12.2019
3124 Clouds 6 985 93 10000 5.1 230 11:42 06.12.2019
3125 Clouds 6 985 93 10000 5.1 230 11:23 06.12.2019
3126 Clouds 5 985 100 10000 4.6 220 10:56 06.12.2019
3127 Drizzle 5 985 93 7000 4.1 210 10:38 06.12.2019
3128 Drizzle 5 985 93 7000 4.1 210 10:20 06.12.2019
3129 Clouds 5 985 93 10000 4.6 210 09:55 06.12.2019
3130 Rain 5 985 100 10000 4.6 200 09:36 06.12.2019
3131 Rain 5 985 100 10000 4.6 200 09:18 06.12.2019
3132 Rain 5 985 100 10000 4.6 190 08:42 06.12.2019
3133 Rain 5 985 100 10000 4.6 190 08:24 06.12.2019
3134 Rain 5 986 93 8000 4.6 200 07:42 06.12.2019
3135 Rain 5 986 93 10000 4.6 200 07:22 06.12.2019
3136 Rain 5 986 93 10000 4.6 200 06:48 06.12.2019
3137 Rain 5 987 93 10000 5.1 190 06:25 06.12.2019
3138 Rain 5 987 93 10000 4.6 200 05:48 06.12.2019
3139 Drizzle 6 991 87 10000 5.7 210 02:51 06.12.2019
3140 Drizzle 6 992 87 10000 5.1 220 01:45 06.12.2019
3141 Clouds 7 993 75 10000 5.1 220 00:51 06.12.2019
3142 Clouds 7 993 75 10000 4.6 220 00:23 06.12.2019
3143 Clouds 7 994 75 10000 5.1 230 23:51 05.12.2019
3144 Clouds 7 994 75 10000 5.1 220 23:21 05.12.2019
3145 Clouds 7 995 75 10000 5.1 230 22:58 05.12.2019
3146 Clouds 7 995 75 10000 6.7 230 22:39 05.12.2019
3147 Clouds 7 995 75 10000 6.7 230 22:20 05.12.2019
3148 Clouds 7 995 75 10000 5.7 220 21:58 05.12.2019
3149 Clouds 7 995 75 10000 6.2 220 21:40 05.12.2019
3150 Clouds 7 995 75 10000 6.2 220 21:21 05.12.2019
3151 Clouds 7 995 75 10000 7.7 230 20:57 05.12.2019
3152 Clouds 7 996 75 10000 7.2 230 20:38 05.12.2019
3153 Clouds 7 995 75 10000 7.7 230 20:38 05.12.2019
3154 Clouds 7 996 75 10000 7.2 230 20:19 05.12.2019
3155 Clouds 7 996 75 10000 7.2 220 19:43 05.12.2019
3156 Clouds 7 996 75 10000 7.2 220 19:25 05.12.2019
3157 Clouds 7 996 70 10000 7.7 230 18:59 05.12.2019
3158 Clouds 7 996 70 10000 7.7 230 18:39 05.12.2019
3159 Clouds 6 996 70 10000 7.2 230 18:20 05.12.2019
3160 Clouds 7 997 70 10000 6.7 220 17:56 05.12.2019
3161 Clouds 7 997 70 10000 6.7 220 17:37 05.12.2019
3162 Clouds 7 997 70 10000 6.7 230 17:18 05.12.2019
3163 Clouds 7 997 70 10000 6.2 230 16:40 05.12.2019
3164 Clouds 7 997 70 10000 6.2 220 16:22 05.12.2019
3165 Clouds 7 998 70 10000 7.2 230 15:59 05.12.2019
3166 Clouds 7 998 70 10000 7.2 230 15:40 05.12.2019
3167 Clouds 7 998 65 10000 7.7 230 15:21 05.12.2019
3168 Clouds 7 999 70 10000 7.2 230 14:57 05.12.2019
3169 Clouds 7 999 70 10000 7.2 230 14:38 05.12.2019
3170 Clouds 7 999 70 10000 7.2 230 14:20 05.12.2019
3171 Clouds 7 999 70 10000 7.7 230 13:58 05.12.2019
3172 Clouds 7 999 70 10000 7.7 230 13:40 05.12.2019
3173 Clouds 7 999 70 10000 7.7 230 13:40 05.12.2019
3174 Clouds 7 1000 75 10000 6.7 240 13:21 05.12.2019
3175 Clouds 7 1000 75 10000 6.7 230 12:59 05.12.2019
3176 Clouds 7 1000 75 10000 6.7 230 12:40 05.12.2019
3177 Clouds 7 1001 75 10000 7.2 220 12:22 05.12.2019
3178 Clouds 7 1001 81 10000 6.2 230 11:55 05.12.2019
3179 Clouds 7 1001 81 10000 6.2 230 11:36 05.12.2019
3180 Clouds 7 1001 81 10000 6.7 230 11:18 05.12.2019
3181 Clouds 7 1002 81 10000 5.7 220 10:54 05.12.2019
3182 Clouds 7 1002 81 10000 5.7 220 10:36 05.12.2019
3183 Clouds 7 1002 81 10000 5.1 220 10:18 05.12.2019
3184 Clouds 7 1002 81 10000 4.6 220 09:42 05.12.2019
3185 Clouds 6 1002 87 10000 4.6 210 09:20 05.12.2019
3186 Clouds 6 1002 87 10000 5.1 210 08:57 05.12.2019
3187 Clouds 6 1002 87 10000 5.1 210 08:37 05.12.2019
3188 Clouds 6 1003 87 10000 4.6 220 08:19 05.12.2019
3189 Clouds 6 1003 87 10000 4.6 220 07:49 05.12.2019
3190 Clouds 6 1003 86 10000 4.1 220 07:31 05.12.2019
3191 Clouds 6 1003 86 10000 5.1 220 06:56 05.12.2019
3192 Clouds 5 1003 86 10000 5.1 220 06:37 05.12.2019
3193 Clouds 5 1004 86 10000 5.1 210 06:18 05.12.2019
3194 Clouds 5 1004 93 10000 5.1 210 05:44 05.12.2019
3195 Clouds 5 1004 93 10000 4.6 210 05:19 05.12.2019
3196 Clouds 5 1005 86 10000 5.1 220 03:52 05.12.2019
3197 Clouds 5 1005 86 10000 5.1 220 03:52 05.12.2019
3198 Clouds 5 1006 86 10000 7.2 230 02:43 05.12.2019
3199 Clouds 5 1006 93 10000 6.2 240 02:23 05.12.2019
3200 Clouds 4 1005 93 10000 5.7 230 01:51 05.12.2019
3201 Clouds 4 1005 93 10000 5.1 230 01:24 05.12.2019
3202 Clouds 4 1005 93 10000 5.1 220 00:50 05.12.2019
3203 Clouds 4 1006 93 10000 3.1 220 00:24 05.12.2019
3204 Clouds 4 1006 93 10000 4.1 220 23:57 04.12.2019
3205 Clouds 4 1006 93 10000 4.1 220 23:38 04.12.2019
3206 Clouds 4 1006 93 10000 4.6 220 23:19 04.12.2019
3207 Clouds 5 1007 86 10000 5.1 230 22:39 04.12.2019
3208 Clouds 4 1007 93 10000 3.1 220 22:20 04.12.2019
3209 Clouds 5 1007 93 10000 2.6 230 21:58 04.12.2019
3210 Clouds 5 1007 93 10000 2.6 230 21:40 04.12.2019
3211 Clouds 5 1008 93 10000 3.6 240 21:21 04.12.2019
3212 Clouds 5 1008 93 10000 4.6 240 20:59 04.12.2019
3213 Clouds 5 1008 93 10000 4.6 240 20:41 04.12.2019
3214 Clouds 5 1008 93 10000 5.1 240 20:22 04.12.2019
3215 Clouds 5 1008 93 10000 4.6 240 19:59 04.12.2019
3216 Clouds 5 1008 93 10000 5.1 230 19:39 04.12.2019
3217 Clouds 5 1008 93 10000 5.1 230 19:20 04.12.2019
3218 Clouds 4 1008 93 10000 5.7 240 18:57 04.12.2019
3219 Clouds 4 1008 100 10000 4.6 240 18:39 04.12.2019
3220 Clouds 4 1008 100 10000 4.6 240 18:20 04.12.2019
3221 Clouds 4 1008 100 10000 4.6 240 17:40 04.12.2019
3222 Clouds 4 1008 100 10000 5.7 250 17:22 04.12.2019
3223 Clouds 4 1008 93 10000 5.1 250 16:59 04.12.2019
3224 Clouds 4 1008 93 10000 5.1 250 16:40 04.12.2019
3225 Clouds 4 1008 93 10000 4.6 250 16:40 04.12.2019
3226 Clouds 4 1008 93 10000 4.6 250 16:20 04.12.2019
3227 Clouds 4 1008 93 10000 4.6 250 15:56 04.12.2019
3228 Clouds 4 1008 93 10000 4.6 250 15:38 04.12.2019
3229 Clouds 3 1008 100 10000 5.1 250 15:19 04.12.2019
3230 Clouds 3 1008 100 10000 5.1 250 14:44 04.12.2019
3231 Clouds 3 1008 100 10000 4.6 250 14:24 04.12.2019
3232 Clouds 3 1008 100 10000 6.2 250 13:59 04.12.2019
3233 Clouds 3 1008 100 10000 6.2 250 13:38 04.12.2019
3234 Clouds 3 1008 100 10000 6.2 240 13:20 04.12.2019
3235 Clouds 4 1009 93 10000 5.1 250 12:45 04.12.2019
3236 Clouds 4 1008 93 10000 5.1 240 12:25 04.12.2019
3237 Clouds 4 1008 93 10000 3.6 250 11:57 04.12.2019
3238 Clouds 4 1008 93 10000 3.6 250 11:39 04.12.2019
3239 Clouds 4 1008 93 10000 2.6 240 11:21 04.12.2019
3240 Clouds 4 1008 93 10000 2.6 240 11:21 04.12.2019
3241 Clouds 4 1008 93 10000 2.6 240 10:44 04.12.2019
3242 Clouds 4 1008 93 10000 2.6 240 10:44 04.12.2019
3243 Clouds 3 1008 100 10000 2.1 230 10:24 04.12.2019
3244 Clouds 3 1008 100 10000 2.1 230 09:57 04.12.2019
3245 Clouds 3 1008 100 10000 2.1 230 09:38 04.12.2019
3246 Clouds 3 1008 100 10000 2.1 230 09:20 04.12.2019
3247 Clouds 2 1008 100 10000 1.5 230 08:41 04.12.2019
3248 Clouds 2 1008 93 10000 1.5 240 08:23 04.12.2019
3249 Clouds 2 1007 93 10000 2.1 260 07:50 04.12.2019
3250 Clouds 3 1007 93 10000 2.1 270 07:30 04.12.2019
3251 Clouds 3 1007 93 10000 2.1 260 06:47 04.12.2019
3252 Clouds 3 1007 93 10000 2.6 260 06:25 04.12.2019
3253 Clouds 3 1006 93 10000 3.1 260 05:42 04.12.2019
3254 Clouds 2 1006 93 10000 3.6 260 04:31 04.12.2019
3255 Clouds 2 1006 100 10000 2.6 250 03:20 04.12.2019
3256 Rain 3 1006 93 10000 3.6 250 01:21 04.12.2019
3257 Rain 2 1006 100 10000 2.6 240 00:40 04.12.2019
3258 Rain 3 1006 93 10000 2.6 250 00:18 04.12.2019
3259 Rain 3 1005 93 10000 3.1 250 23:41 03.12.2019
3260 Rain 3 1005 100 10000 3.1 260 23:19 03.12.2019
3261 Rain 2 1005 100 10000 4.1 260 22:54 03.12.2019
3262 Rain 2 1005 100 10000 4.1 260 22:36 03.12.2019
3263 Rain 2 1005 100 9000 3.1 240 22:18 03.12.2019
3264 Rain 2 1005 100 7000 3.1 240 21:39 03.12.2019
3265 Rain 2 1005 100 6000 3.1 230 21:19 03.12.2019
3266 Rain 2 1006 100 3500 3.1 220 20:58 03.12.2019
3267 Rain 2 1006 100 3500 3.1 220 20:40 03.12.2019
3268 Mist 2 1006 100 4700 3.1 220 20:19 03.12.2019
3269 Clouds 2 1006 93 6000 4.1 210 19:56 03.12.2019
3270 Clouds 2 1006 93 6000 4.1 210 19:37 03.12.2019
3271 Clouds 2 1006 100 8000 3.6 210 19:19 03.12.2019
3272 Drizzle 2 1006 100 3000 3.6 200 18:57 03.12.2019
3273 Drizzle 2 1006 100 3000 3.6 200 18:57 03.12.2019
3274 Drizzle 2 1006 100 3000 3.6 200 18:57 03.12.2019
3275 Drizzle 2 1006 100 3000 3.6 200 18:39 03.12.2019
3276 Drizzle 1 1007 100 5000 3.6 210 18:21 03.12.2019
3277 Drizzle 0 1007 100 6000 4.1 210 17:57 03.12.2019
3278 Drizzle 0 1007 100 6000 4.1 210 17:38 03.12.2019
3279 Drizzle 0 1007 100 6000 4.1 210 17:38 03.12.2019
3280 Drizzle 1 1008 96 3700 3.1 200 17:18 03.12.2019
3281 Drizzle 1 1008 96 3500 2.6 200 16:57 03.12.2019
3282 Drizzle 1 1008 96 3500 2.6 200 16:38 03.12.2019
3283 Drizzle 1 1008 96 10000 2.6 200 16:20 03.12.2019
3284 Snow 0 1009 96 7000 1.5 180 15:55 03.12.2019
3285 Snow 0 1010 96 5000 3.1 210 15:36 03.12.2019
3286 Snow 0 1010 96 5000 3.1 210 15:18 03.12.2019
3287 Clouds 0 1010 96 10000 3.6 220 14:42 03.12.2019
3288 Clouds 0 1010 67 10000 4.1 230 14:20 03.12.2019
3289 Clouds 0 1011 67 10000 4.6 230 13:56 03.12.2019
3290 Clouds 0 1011 67 10000 3.1 230 13:36 03.12.2019
3291 Clouds 0 1011 62 10000 3.1 230 13:18 03.12.2019
3292 Clouds -1 1012 62 10000 2.6 230 12:41 03.12.2019
3293 Clouds -1 1013 62 10000 3.6 230 12:18 03.12.2019
3294 Clouds -3 1013 86 10000 4.1 230 11:58 03.12.2019
3295 Clouds -2 1013 86 10000 4.1 230 11:39 03.12.2019
3296 Clouds -2 1014 86 10000 3.1 230 11:21 03.12.2019
3297 Clouds -2 1014 86 10000 2.6 230 10:58 03.12.2019
3298 Clouds -3 1014 86 10000 2.6 230 10:40 03.12.2019
3299 Clouds -3 1015 86 10000 2.6 210 10:19 03.12.2019
3300 Clouds -4 1015 92 10000 2.6 220 09:46 03.12.2019
3301 Clouds -4 1015 92 10000 1.5 200 09:25 03.12.2019
3302 Clouds -5 1015 92 10000 2.6 220 08:59 03.12.2019
3303 Clouds -5 1015 92 10000 2.6 220 08:40 03.12.2019
3304 Clouds -5 1015 92 10000 2.6 230 08:21 03.12.2019
3305 Clouds -5 1015 92 10000 3.6 240 07:53 03.12.2019
3306 Clouds -5 1015 92 10000 3.6 240 07:53 03.12.2019
3307 Clouds -5 1016 92 10000 2.6 230 07:30 03.12.2019
3308 Clouds -5 1016 92 10000 2.6 230 07:30 03.12.2019
3309 Clouds -5 1016 92 10000 2.1 230 06:59 03.12.2019
3310 Clouds -5 1016 92 10000 2.6 240 06:21 03.12.2019
3311 Clouds -5 1016 92 10000 1.5 260 05:56 03.12.2019
3312 Clear -4 1016 92 10000 3.1 260 04:48 03.12.2019
3313 Clear -4 1016 86 10000 2.1 260 03:23 03.12.2019
3314 Clear -4 1016 92 10000 2.6 260 02:58 03.12.2019
3315 Clear -4 1016 92 10000 2.6 260 02:40 03.12.2019
3316 Clear -4 1016 92 10000 2.1 250 02:21 03.12.2019
3317 Clear -4 1016 86 10000 2.1 250 01:41 03.12.2019
3318 Clear -4 1015 86 10000 2.6 250 01:21 03.12.2019
3319 Clear -4 1016 79 10000 3.6 280 00:43 03.12.2019
3320 Clear -4 1015 79 10000 5.1 280 00:25 03.12.2019
3321 Clear -4 1015 79 10000 4.6 280 23:44 02.12.2019
3322 Clear -3 1015 79 10000 5.1 280 23:23 02.12.2019
3323 Clear -4 1015 79 10000 4.6 270 22:59 02.12.2019
3324 Clear -4 1015 79 10000 4.6 270 22:39 02.12.2019
3325 Clear -4 1014 86 10000 3.6 270 22:21 02.12.2019
3326 Clear -4 1014 86 10000 2.6 280 21:57 02.12.2019
3327 Clear -4 1014 86 10000 2.6 280 21:36 02.12.2019
3328 Clear -4 1014 86 10000 2.6 280 21:36 02.12.2019
3329 Clear -4 1014 86 10000 2.6 280 21:18 02.12.2019
3330 Clear -4 1014 86 10000 3.6 270 20:55 02.12.2019
3331 Clear -4 1014 86 10000 3.6 270 20:55 02.12.2019
3332 Clear -3 1013 86 10000 2.6 290 20:37 02.12.2019
3333 Clear -3 1013 86 10000 2.6 290 20:18 02.12.2019
3334 Clear -4 1013 85 10000 3.1 300 19:42 02.12.2019
3335 Clear -3 1013 79 10000 4.1 300 19:21 02.12.2019
3336 Clear -4 1012 79 10000 3.6 290 18:57 02.12.2019
3337 Clear -4 1012 79 10000 3.6 290 18:57 02.12.2019
3338 Clear -4 1012 79 10000 3.6 290 18:38 02.12.2019
3339 Clear -4 1012 79 10000 3.6 290 18:18 02.12.2019
3340 Clear -3 1012 79 10000 3.6 290 17:57 02.12.2019
3341 Clear -3 1012 79 10000 3.6 290 17:57 02.12.2019
3342 Clear -3 1012 79 10000 3.6 290 17:38 02.12.2019
3343 Clear -3 1011 79 10000 4.1 290 17:18 02.12.2019
3344 Clear -3 1011 79 10000 4.6 290 16:40 02.12.2019
3345 Clear -3 1011 79 10000 3.6 290 16:19 02.12.2019
3346 Clear -3 1011 79 10000 4.1 290 15:58 02.12.2019
3347 Clear -3 1011 79 10000 4.1 290 15:39 02.12.2019
3348 Clear -3 1010 79 10000 3.1 290 15:21 02.12.2019
3349 Clear -2 1010 74 10000 3.1 290 14:56 02.12.2019
3350 Clear -2 1010 74 10000 3.1 290 14:56 02.12.2019
3351 Clear -2 1010 74 10000 3.1 290 14:37 02.12.2019
3352 Clouds -2 1010 79 10000 4.1 290 14:19 02.12.2019
3353 Clouds -2 1010 79 10000 4.1 280 13:56 02.12.2019
3354 Clouds -2 1010 79 10000 4.1 280 13:38 02.12.2019
3355 Clouds -2 1010 74 10000 4.1 280 13:19 02.12.2019
3356 Clouds -2 1010 79 10000 3.1 280 12:42 02.12.2019
3357 Clouds -2 1009 79 10000 2.1 250 12:21 02.12.2019
3358 Clouds -2 1009 74 10000 3.6 270 11:58 02.12.2019
3359 Clouds -3 1009 74 10000 3.6 270 11:38 02.12.2019
3360 Clouds -3 1009 79 10000 2.1 280 11:19 02.12.2019
3361 Clouds -3 1009 86 10000 2.6 280 10:57 02.12.2019
3362 Clouds -3 1009 86 10000 2.6 280 10:39 02.12.2019
3363 Clouds -3 1010 79 10000 2.6 290 10:21 02.12.2019
3364 Clouds -4 1009 86 10000 2.6 280 09:56 02.12.2019
3365 Clouds -4 1009 86 10000 2.6 280 09:38 02.12.2019
3366 Clouds -4 1009 86 10000 3.6 280 09:18 02.12.2019
3367 Clouds -4 1009 85 10000 2.1 270 08:42 02.12.2019
3368 Clouds -4 1009 85 10000 2.1 280 08:23 02.12.2019
3369 Clouds -5 1009 92 10000 2.6 290 07:59 02.12.2019
3370 Clouds -5 1009 92 10000 2.6 290 07:38 02.12.2019
3371 Clouds -5 1009 85 10000 2.1 290 07:19 02.12.2019
3372 Clouds -4 1009 85 10000 1.5 290 06:40 02.12.2019
3373 Clouds -5 1008 92 10000 2.1 280 05:45 02.12.2019
3374 Clouds -4 1009 92 10000 1.5 260 05:18 02.12.2019
3375 Clouds -4 1009 92 10000 2.1 230 03:28 02.12.2019
3376 Clouds -4 1009 100 10000 1.5 290 02:50 02.12.2019
3377 Clouds -3 1009 92 10000 2.1 260 01:47 02.12.2019
3378 Clouds -3 1009 86 10000 2.1 280 01:20 02.12.2019
3379 Clouds -3 1009 86 10000 3.1 270 00:37 02.12.2019
3380 Clouds -3 1009 86 10000 3.1 280 00:19 02.12.2019
3381 Clouds -3 1009 92 10000 2.6 270 23:42 01.12.2019
3382 Clouds -3 1009 92 10000 2.6 260 23:21 01.12.2019
3383 Clouds -2 1009 92 10000 3.6 260 22:56 01.12.2019
3384 Clouds -2 1009 86 10000 2.6 280 22:38 01.12.2019
3385 Clouds -2 1009 86 10000 2.6 280 22:19 01.12.2019
3386 Clouds -2 1009 86 10000 3.6 260 21:56 01.12.2019
3387 Clouds -2 1009 86 10000 3.6 260 21:56 01.12.2019
3388 Clouds -2 1009 86 10000 3.6 260 21:38 01.12.2019
3389 Clouds -3 1009 86 10000 3.6 270 21:19 01.12.2019
3390 Clouds -3 1009 86 10000 3.6 260 20:58 01.12.2019
3391 Clouds -2 1009 86 10000 4.6 260 20:39 01.12.2019
3392 Clouds -2 1009 86 10000 4.6 260 20:21 01.12.2019
3393 Clouds -2 1009 86 10000 4.1 270 19:57 01.12.2019
3394 Clouds -2 1009 86 10000 4.1 270 19:38 01.12.2019
3395 Clouds -2 1009 86 10000 4.1 260 19:20 01.12.2019
3396 Clouds -2 1009 86 10000 4.1 270 18:55 01.12.2019
3397 Clouds -2 1009 86 10000 4.1 270 18:37 01.12.2019
3398 Clouds -2 1009 86 10000 4.1 270 18:37 01.12.2019
3399 Clouds -2 1009 86 10000 4.1 270 18:37 01.12.2019
3400 Clouds -2 1009 86 10000 2.1 260 18:18 01.12.2019
3401 Clouds -2 1009 86 10000 3.6 240 17:56 01.12.2019
3402 Clouds -2 1009 86 10000 3.6 240 17:38 01.12.2019
3403 Clouds -2 1009 92 10000 3.1 230 17:19 01.12.2019
3404 Clouds -2 1009 92 10000 3.6 220 16:44 01.12.2019
3405 Clouds -2 1010 92 10000 4.1 240 16:25 01.12.2019
3406 Clouds -2 1010 86 10000 4.1 230 15:58 01.12.2019
3407 Clouds -2 1010 86 10000 4.1 230 15:58 01.12.2019
3408 Clouds -1 1010 80 10000 4.1 240 15:40 01.12.2019
3409 Clouds -2 1010 86 10000 4.1 230 15:40 01.12.2019
3410 Clouds -1 1010 80 10000 4.1 240 15:22 01.12.2019
3411 Clouds -1 1010 80 10000 4.1 240 15:22 01.12.2019
3412 Clouds -1 1010 80 10000 4.1 230 14:38 01.12.2019
3413 Clouds -1 1010 80 10000 3.6 220 14:19 01.12.2019
3414 Clouds -1 1011 80 10000 3.6 230 13:40 01.12.2019
3415 Clouds -1 1011 80 10000 3.6 220 13:22 01.12.2019
3416 Clouds -1 1011 80 10000 3.1 230 12:58 01.12.2019
3417 Clouds -1 1011 80 10000 3.1 230 12:40 01.12.2019
3418 Clouds -1 1011 80 10000 3.1 230 12:40 01.12.2019
3419 Clouds -1 1011 80 10000 3.1 230 12:40 01.12.2019
3420 Clouds -1 1011 80 10000 3.1 230 12:40 01.12.2019
3421 Clouds -1 1011 80 10000 3.1 230 12:40 01.12.2019
3422 Clouds -1 1012 80 10000 3.6 250 11:46 01.12.2019
3423 Clear -1 1012 80 10000 4.1 240 11:25 01.12.2019
3424 Clear -2 1012 80 10000 3.1 240 10:57 01.12.2019
3425 Clear -2 1012 80 10000 3.1 240 10:39 01.12.2019
3426 Clear -2 1012 80 10000 3.1 250 10:19 01.12.2019
3427 Clear -3 1012 80 10000 2.6 250 09:41 01.12.2019
3428 Clear -3 1012 86 10000 3.6 240 09:22 01.12.2019
3429 Clear -3 1013 86 10000 3.1 230 08:55 01.12.2019
3430 Clear -3 1013 86 10000 3.1 230 08:55 01.12.2019
3431 Clear -3 1013 86 10000 3.1 230 08:36 01.12.2019
3432 Clouds -2 1013 86 10000 4.6 230 08:18 01.12.2019
3433 Clouds -3 1013 86 10000 4.6 240 07:43 01.12.2019
3434 Clouds -3 1013 79 10000 3.6 240 07:23 01.12.2019
3435 Clouds -3 1013 79 10000 4.6 250 06:51 01.12.2019
3436 Clouds -3 1014 79 10000 5.1 240 05:58 01.12.2019
3437 Clear -4 1014 79 10000 3.1 260 04:55 01.12.2019
3438 Clear -4 1014 86 10000 3.6 250 04:27 01.12.2019
3439 Clear -4 1015 86 10000 3.6 240 02:44 01.12.2019
3440 Clear -4 1015 86 10000 4.1 250 02:26 01.12.2019
3441 Clear -4 1015 86 10000 3.1 240 01:53 01.12.2019
3442 Clear -4 1015 92 10000 2.6 230 01:30 01.12.2019
3443 Clear -4 1015 86 10000 3.1 240 00:45 01.12.2019
3444 Clear -4 1015 79 10000 2.6 250 00:26 01.12.2019
3445 Clear -4 1015 79 10000 2.6 260 23:47 30.11.2019
3446 Clear -4 1015 79 10000 3.1 270 23:25 30.11.2019
3447 Clear -3 1015 79 10000 2.6 250 22:59 30.11.2019
3448 Clear -3 1015 79 10000 2.6 250 22:40 30.11.2019
3449 Clear -3 1015 79 10000 2.6 270 22:20 30.11.2019
3450 Clear -3 1015 79 10000 2.6 270 22:20 30.11.2019
3451 Clear -3 1015 79 10000 2.6 290 21:47 30.11.2019
3452 Clear -3 1015 79 10000 3.1 290 21:28 30.11.2019
3453 Clear -3 1014 79 10000 3.6 280 20:58 30.11.2019
3454 Clear -3 1014 79 10000 3.6 280 20:40 30.11.2019
3455 Clear -3 1014 74 10000 4.1 280 20:20 30.11.2019
3456 Clear -3 1014 74 10000 3.6 290 19:57 30.11.2019
3457 Clear -3 1014 74 10000 3.6 290 19:39 30.11.2019
3458 Clear -3 1014 74 10000 3.6 290 19:39 30.11.2019
3459 Clear -3 1014 79 10000 3.6 300 19:20 30.11.2019
3460 Clear -3 1013 86 10000 4.6 290 18:59 30.11.2019
3461 Clear -3 1013 86 10000 4.6 290 18:39 30.11.2019
3462 Clear -3 1013 86 10000 3.6 300 18:20 30.11.2019
3463 Clear -3 1013 79 10000 3.6 290 17:58 30.11.2019
3464 Clear -2 1013 86 10000 3.1 300 17:39 30.11.2019
3465 Clear -2 1013 86 10000 3.1 300 17:21 30.11.2019
3466 Clear -2 1012 79 10000 3.6 300 16:58 30.11.2019
3467 Clear -2 1012 79 10000 3.6 300 16:40 30.11.2019
3468 Clear -2 1012 79 10000 4.1 300 16:20 30.11.2019
3469 Clear -2 1011 79 10000 5.7 300 15:42 30.11.2019
3470 Clear -2 1011 80 10000 5.7 300 15:20 30.11.2019
3471 Clear -1 1011 80 10000 5.7 300 14:58 30.11.2019
3472 Clear -1 1011 80 10000 5.7 300 14:38 30.11.2019
3473 Clear -1 1010 80 10000 6.2 290 14:19 30.11.2019
3474 Clear -1 1010 80 10000 7.7 290 13:58 30.11.2019
3475 Clear -1 1009 74 10000 6.7 290 13:38 30.11.2019
3476 Clear -1 1009 74 10000 6.7 290 13:20 30.11.2019
3477 Clear -1 1009 68 10000 5.7 280 12:47 30.11.2019
3478 Clear -1 1009 68 10000 4.6 260 12:29 30.11.2019
3479 Clear -1 1009 80 10000 3.1 250 11:59 30.11.2019
3480 Clear -1 1009 80 10000 3.1 250 11:40 30.11.2019
3481 Clear -1 1009 80 10000 3.1 260 11:18 30.11.2019
3482 Clear -2 1008 74 10000 2.1 250 10:45 30.11.2019
3483 Clear -2 1008 79 10000 2.6 270 10:21 30.11.2019
3484 Clear -2 1008 86 10000 2.1 290 09:59 30.11.2019
3485 Clear -3 1008 86 10000 2.1 290 09:41 30.11.2019
3486 Clear -3 1008 79 10000 4.1 280 09:20 30.11.2019
3487 Clear -3 1007 79 10000 5.1 290 08:41 30.11.2019
3488 Clear -3 1007 79 10000 5.1 290 08:19 30.11.2019
3489 Clear -3 1007 79 10000 5.7 290 07:44 30.11.2019
3490 Clear -3 1006 86 10000 5.7 300 07:25 30.11.2019
3491 Clear -2 1006 79 10000 5.7 300 06:49 30.11.2019
3492 Clear -2 1006 79 10000 5.1 300 06:28 30.11.2019
3493 Clear -2 1005 86 10000 5.1 310 05:30 30.11.2019
3494 Clear -2 1003 86 10000 6.2 290 03:40 30.11.2019
3495 Clear -2 1003 80 10000 6.7 290 02:39 30.11.2019
3496 Clear -2 1002 86 10000 5.1 290 02:20 30.11.2019
3497 Clear -2 1001 80 10000 5.7 290 01:25 30.11.2019
3498 Clear -2 1001 86 10000 5.1 280 00:47 30.11.2019
3499 Clear -2 1001 86 10000 5.1 290 00:28 30.11.2019
3500 Clear -2 1000 86 10000 4.6 290 23:55 29.11.2019
3501 Clear -2 1000 86 10000 4.6 290 23:37 29.11.2019
3502 Clear -2 1000 92 10000 3.6 280 23:18 29.11.2019
3503 Clear -3 1000 92 10000 2.6 260 22:39 29.11.2019
3504 Clear -3 999 92 10000 3.6 290 22:21 29.11.2019
3505 Clear -3 999 92 10000 4.6 290 21:42 29.11.2019
3506 Clear -3 999 92 10000 3.6 300 21:22 29.11.2019
3507 Clear -3 998 92 10000 4.6 310 20:57 29.11.2019
3508 Clear -3 998 92 10000 4.6 310 20:37 29.11.2019
3509 Clear -3 998 92 10000 4.1 310 20:18 29.11.2019
3510 Clear -3 997 92 10000 4.1 310 19:56 29.11.2019
3511 Clear -3 997 92 10000 4.1 310 19:38 29.11.2019
3512 Clear -3 997 92 10000 3.6 300 19:19 29.11.2019
3513 Clear -3 996 92 10000 3.1 300 18:54 29.11.2019
3514 Clear -3 996 92 10000 3.1 310 18:36 29.11.2019
3515 Clear -3 996 92 10000 3.1 310 18:18 29.11.2019
3516 Clear -3 995 92 10000 4.6 300 17:41 29.11.2019
3517 Clouds -3 995 92 10000 5.1 300 17:22 29.11.2019
3518 Clouds -3 994 92 10000 3.6 290 16:44 29.11.2019
3519 Clouds -3 994 92 10000 4.6 300 16:21 29.11.2019
3520 Clouds -3 993 100 10000 4.6 310 15:59 29.11.2019
3521 Clouds -2 993 100 10000 4.6 310 15:39 29.11.2019
3522 Clouds -2 993 92 10000 5.1 310 15:21 29.11.2019
3523 Clouds -2 992 92 10000 5.1 320 14:41 29.11.2019
3524 Clouds -2 992 100 10000 5.7 320 14:22 29.11.2019
3525 Clouds -1 992 92 10000 5.7 320 13:58 29.11.2019
3526 Clouds -1 992 92 10000 5.7 320 13:38 29.11.2019
3527 Clouds -1 991 92 10000 5.1 320 13:20 29.11.2019
3528 Clouds -1 991 92 10000 4.6 320 12:44 29.11.2019
3529 Clouds -1 991 92 10000 5.1 320 12:25 29.11.2019
3530 Clouds -1 990 92 10000 5.1 320 11:59 29.11.2019
3531 Clouds -1 990 92 10000 5.1 320 11:40 29.11.2019
3532 Clouds -1 990 100 10000 5.1 320 11:19 29.11.2019
3533 Clouds -1 989 100 9000 4.6 330 10:58 29.11.2019
3534 Clouds 0 989 100 9000 4.6 330 10:39 29.11.2019
3535 Snow 0 989 100 4600 5.1 330 10:21 29.11.2019
3536 Clouds 0 988 100 7000 4.6 330 09:59 29.11.2019
3537 Clouds 0 988 100 7000 4.6 330 09:40 29.11.2019
3538 Clouds 0 988 74 7000 4.6 340 09:22 29.11.2019
3539 Snow 0 988 74 7000 5.1 340 08:57 29.11.2019
3540 Snow 0 988 74 7000 5.1 340 08:37 29.11.2019
3541 Snow 0 987 94 4600 5.1 330 08:19 29.11.2019
3542 Snow 0 987 94 2500 4.6 340 07:42 29.11.2019
3543 Snow 0 986 94 1000 4.1 340 07:23 29.11.2019
3544 Snow 0 986 94 3500 4.1 350 06:55 29.11.2019
3545 Snow 0 986 94 3500 4.1 350 06:36 29.11.2019
3546 Snow 0 985 94 1100 3.6 350 05:47 29.11.2019
3547 Snow 1 986 100 1300 6.7 360 05:23 29.11.2019
3548 Snow 1 985 95 4800 3.6 360 03:43 29.11.2019
3549 Rain 1 985 95 2800 3.6 360 03:19 29.11.2019
3550 Rain 2 984 93 6000 5.1 360 02:25 29.11.2019
3551 Rain 2 984 100 7000 3.6 10 01:49 29.11.2019
3552 Rain 2 984 93 7000 4.6 20 01:23 29.11.2019
3553 Rain 3 984 93 5000 3.6 10 00:41 29.11.2019
3554 Rain 3 984 93 7000 5.1 10 00:20 29.11.2019
3555 Drizzle 4 983 100 10000 4.6 10 23:44 28.11.2019
3556 Rain 5 984 100 8000 3.6 360 23:21 28.11.2019
3557 Rain 5 983 93 4600 4.1 350 22:58 28.11.2019
3558 Rain 5 983 93 4600 4.1 350 22:38 28.11.2019
3559 Rain 5 983 100 5000 4.6 340 22:20 28.11.2019
3560 Drizzle 6 983 100 5000 0.5 0 21:56 28.11.2019
3561 Drizzle 6 983 100 5000 0.5 0 21:37 28.11.2019
3562 Rain 6 983 100 5000 1.5 0 21:18 28.11.2019
3563 Drizzle 7 983 100 5000 1.5 0 20:42 28.11.2019
3564 Drizzle 7 983 100 7000 1.5 130 20:23 28.11.2019
3565 Rain 7 983 100 5000 1.5 130 19:59 28.11.2019
3566 Rain 7 983 100 5000 1.5 130 19:40 28.11.2019
3567 Rain 7 983 100 6000 2.6 140 19:22 28.11.2019
3568 Drizzle 7 984 100 9000 3.1 140 18:59 28.11.2019
3569 Drizzle 7 984 100 9000 3.1 140 18:39 28.11.2019
3570 Rain 7 984 100 9000 2.6 130 18:18 28.11.2019
3571 Drizzle 7 984 100 6000 2.6 140 17:59 28.11.2019
3572 Drizzle 7 984 100 6000 2.6 140 17:59 28.11.2019
3573 Drizzle 7 984 100 6000 2.6 140 17:41 28.11.2019
3574 Drizzle 7 984 100 5000 3.1 140 17:21 28.11.2019
3575 Mist 7 984 100 3600 3.1 140 16:57 28.11.2019
3576 Mist 7 984 100 3600 3.1 140 16:56 28.11.2019
3577 Mist 7 984 100 3600 3.1 140 16:38 28.11.2019
3578 Drizzle 7 985 100 5000 3.1 150 16:18 28.11.2019
3579 Drizzle 7 985 100 6000 2.6 140 15:41 28.11.2019
3580 Clouds 7 985 100 7000 3.1 150 15:20 28.11.2019
3581 Clouds 7 985 100 6000 3.6 160 14:59 28.11.2019
3582 Clouds 7 985 100 6000 3.6 160 14:40 28.11.2019
3583 Clouds 7 986 100 9000 2.1 170 14:21 28.11.2019
3584 Clouds 7 986 100 8000 2.1 170 13:56 28.11.2019
3585 Clouds 7 986 100 8000 2.1 170 13:38 28.11.2019
3586 Clouds 7 986 100 7000 1.5 180 13:20 28.11.2019
3587 Clouds 7 986 100 8000 2.6 180 12:43 28.11.2019
3588 Mist 7 986 100 9000 2.1 160 12:23 28.11.2019
3589 Mist 7 987 93 6000 2.6 140 11:57 28.11.2019
3590 Mist 7 987 93 6000 2.6 140 11:57 28.11.2019
3591 Mist 7 987 93 6000 2.6 140 11:39 28.11.2019
3592 Clouds 7 987 100 6000 2.1 130 11:20 28.11.2019
3593 Clouds 6 987 100 5000 2.1 120 10:43 28.11.2019
3594 Mist 6 988 100 4900 2.1 130 10:22 28.11.2019
3595 Mist 6 988 100 4000 2.1 140 09:59 28.11.2019
3596 Mist 6 988 100 4000 2.1 140 09:40 28.11.2019
3597 Clouds 6 988 100 10000 2.1 150 09:20 28.11.2019
3598 Clouds 6 988 100 10000 2.1 150 09:20 28.11.2019
3599 Rain 6 989 100 9000 2.6 140 08:54 28.11.2019
3600 Rain 6 989 100 9000 2.6 110 08:36 28.11.2019
3601 Rain 6 989 100 9000 2.6 110 08:18 28.11.2019
3602 Drizzle 6 989 100 8000 3.1 110 07:41 28.11.2019
3603 Rain 6 989 100 8000 3.1 110 07:23 28.11.2019
3604 Rain 6 990 100 6000 2.6 110 06:43 28.11.2019
3605 Drizzle 6 990 93 4900 2.6 110 06:18 28.11.2019
3606 Rain 6 991 93 4200 3.1 120 05:44 28.11.2019
3607 Rain 6 992 93 7000 2.1 130 04:57 28.11.2019
3608 Mist 6 994 100 7000 2.6 120 02:36 28.11.2019
3609 Rain 6 994 100 9000 2.6 120 01:28 28.11.2019
3610 Mist 5 995 100 3200 1.5 110 00:43 28.11.2019
3611 Mist 5 995 100 1300 1.5 120 00:20 28.11.2019
3612 Mist 5 996 93 1900 1 100 23:40 27.11.2019
3613 Mist 5 996 93 1700 1.5 130 23:22 27.11.2019
3614 Mist 5 996 93 2500 1.5 140 22:58 27.11.2019
3615 Clouds 5 996 100 6000 1.5 130 22:38 27.11.2019
3616 Clouds 5 996 100 6000 1.5 130 22:19 27.11.2019
3617 Clouds 5 996 93 4000 1.5 0 21:56 27.11.2019
3618 Clouds 5 997 93 8000 1 160 21:37 27.11.2019
3619 Clouds 5 997 93 8000 1 160 21:19 27.11.2019
3620 Clouds 5 997 93 8000 1 160 21:19 27.11.2019
3621 Clouds 5 997 100 5000 1.5 0 20:57 27.11.2019
3622 Clouds 5 997 100 5000 1.5 0 20:38 27.11.2019
3623 Clouds 5 997 100 5000 1.5 150 20:19 27.11.2019
3624 Mist 5 997 100 4000 1 0 19:56 27.11.2019
3625 Mist 5 997 100 4000 1 0 19:38 27.11.2019
3626 Mist 5 997 100 4000 1 150 19:19 27.11.2019
3627 Drizzle 5 998 93 4000 1.06 16 18:58 27.11.2019
3628 Drizzle 5 998 93 4000 1.06 16 18:36 27.11.2019
3629 Drizzle 6 998 93 4000 1 0 18:18 27.11.2019
3630 Drizzle 6 998 100 5000 1 0 17:55 27.11.2019
3631 Mist 6 998 100 5000 0.5 0 17:37 27.11.2019
3632 Mist 6 998 100 5000 0.5 0 17:18 27.11.2019
3633 Clouds 6 998 100 5000 1 0 16:56 27.11.2019
3634 Clouds 6 998 100 5000 1 0 16:36 27.11.2019
3635 Clouds 6 998 100 6000 1 250 16:18 27.11.2019
3636 Clouds 6 998 100 5000 1.5 0 15:56 27.11.2019
3637 Clouds 6 998 100 5000 1.5 0 15:56 27.11.2019
3638 Clouds 6 998 100 5000 1.5 0 15:38 27.11.2019
3639 Clouds 6 999 100 7000 1 0 15:20 27.11.2019
3640 Clouds 6 999 100 7000 0.5 0 14:56 27.11.2019
3641 Clouds 6 999 100 7000 0.5 0 14:38 27.11.2019
3642 Mist 6 999 100 4100 0.89 241 14:19 27.11.2019
3643 Mist 6 999 100 4500 1 160 13:55 27.11.2019
3644 Mist 6 999 100 5000 1 0 13:37 27.11.2019
3645 Mist 6 999 100 5000 1 0 13:18 27.11.2019
3646 Mist 6 999 100 5000 1 0 13:18 27.11.2019
3647 Mist 6 1000 100 3500 1.5 0 12:41 27.11.2019
3648 Mist 6 1000 100 3500 1.5 0 12:22 27.11.2019
3649 Drizzle 6 1000 100 3000 1.5 160 11:57 27.11.2019
3650 Drizzle 6 1000 100 4500 1.5 160 11:37 27.11.2019
3651 Drizzle 6 1000 100 3500 1.5 0 11:18 27.11.2019
3652 Drizzle 6 1000 100 3500 1.5 0 10:46 27.11.2019
3653 Drizzle 6 1000 100 3500 1.5 0 10:46 27.11.2019
3654 Mist 6 1000 100 4500 1.5 160 10:46 27.11.2019
3655 Mist 6 1000 100 4500 1.5 160 10:24 27.11.2019
3656 Mist 6 1000 100 5000 1.5 150 09:58 27.11.2019
3657 Mist 6 1000 100 5000 1.5 150 09:39 27.11.2019
3658 Drizzle 6 1000 100 5000 2.1 150 09:21 27.11.2019
3659 Drizzle 6 1000 100 5000 1.5 150 08:42 27.11.2019
3660 Drizzle 6 1000 100 5000 1.5 150 08:42 27.11.2019
3661 Rain 6 1000 100 7000 1.5 160 08:23 27.11.2019
3662 Rain 6 1000 100 7000 1.5 160 08:23 27.11.2019
3663 Rain 6 1000 100 6000 2.1 150 07:51 27.11.2019
3664 Rain 6 1000 100 6000 1.5 130 07:30 27.11.2019
3665 Rain 6 1001 100 7000 1.5 140 06:58 27.11.2019
3666 Rain 6 1001 100 4800 1.5 140 06:39 27.11.2019
3667 Drizzle 6 1001 100 6000 1.5 130 05:55 27.11.2019
3668 Rain 6 1001 100 5000 2.1 120 05:26 27.11.2019
3669 Drizzle 6 1001 100 4600 2.1 130 04:55 27.11.2019
3670 Drizzle 6 1001 100 3900 2.6 120 04:36 27.11.2019
3671 Drizzle 6 1001 100 2700 3.1 120 03:48 27.11.2019
3672 Drizzle 6 1002 100 6000 2.6 120 03:21 27.11.2019
3673 Rain 6 1002 100 7000 2.6 120 02:42 27.11.2019
3674 Rain 6 1003 100 6000 2.1 140 01:25 27.11.2019
3675 Drizzle 6 1004 100 6000 2.6 150 00:42 27.11.2019
3676 Drizzle 6 1004 100 6000 2.6 150 00:23 27.11.2019
3677 Mist 6 1004 100 6000 2.6 160 23:42 26.11.2019
3678 Mist 6 1004 100 4200 2.1 140 23:24 26.11.2019
3679 Mist 6 1005 100 2300 1.5 140 22:55 26.11.2019
3680 Mist 6 1005 100 2300 1.5 140 22:37 26.11.2019
3681 Clouds 6 1005 100 9000 2.1 150 22:18 26.11.2019
3682 Clouds 6 1005 100 5000 2.1 0 21:39 26.11.2019
3683 Mist 6 1005 100 3300 2.1 150 21:21 26.11.2019
3684 Drizzle 6 1005 100 3500 2.1 140 20:58 26.11.2019
3685 Drizzle 6 1005 100 3500 2.1 140 20:39 26.11.2019
3686 Drizzle 5 1006 100 3500 2.1 150 20:19 26.11.2019
3687 Drizzle 5 1006 93 4000 1.5 150 19:56 26.11.2019
3688 Mist 5 1006 93 4000 1.5 150 19:38 26.11.2019
3689 Mist 5 1006 93 4000 1.5 150 19:20 26.11.2019
3690 Mist 5 1006 93 4000 1.5 180 18:58 26.11.2019
3691 Clouds 5 1006 93 5000 2.6 180 18:39 26.11.2019
3692 Clouds 5 1006 100 5000 2.6 160 18:21 26.11.2019
3693 Clouds 5 1006 100 5000 2.6 160 17:59 26.11.2019
3694 Clouds 5 1007 100 6000 2.6 150 17:40 26.11.2019
3695 Clouds 5 1007 100 6000 2.6 150 17:22 26.11.2019
3696 Clouds 5 1007 100 5000 2.6 140 16:57 26.11.2019
3697 Clouds 5 1007 100 5000 2.6 140 16:38 26.11.2019
3698 Mist 5 1007 100 4000 2.6 140 16:19 26.11.2019
3699 Mist 5 1007 93 4900 2.6 150 15:59 26.11.2019
3700 Mist 5 1007 93 4900 2.6 150 15:38 26.11.2019
3701 Clouds 5 1007 93 7000 2.6 150 15:20 26.11.2019
3702 Clouds 5 1008 93 8000 4.1 160 14:58 26.11.2019
3703 Clouds 5 1008 93 8000 4.1 160 14:40 26.11.2019
3704 Clouds 5 1008 93 8000 3.1 170 14:22 26.11.2019
3705 Clouds 5 1008 93 10000 3.1 170 13:41 26.11.2019
3706 Clouds 5 1008 93 10000 2.6 170 13:23 26.11.2019
3707 Clouds 5 1009 93 10000 3.1 160 12:40 26.11.2019
3708 Clouds 5 1009 93 10000 3.1 160 12:22 26.11.2019
3709 Clouds 5 1009 93 9000 3.1 160 11:59 26.11.2019
3710 Mist 5 1010 93 9000 2.6 150 11:40 26.11.2019
3711 Mist 5 1010 93 9000 2.6 150 11:20 26.11.2019
3712 Mist 5 1010 93 5000 2.6 150 10:59 26.11.2019
3713 Mist 5 1010 93 5000 2.6 150 10:41 26.11.2019
3714 Mist 4 1010 100 4000 2.6 140 10:21 26.11.2019
3715 Mist 4 1010 100 5000 2.1 130 09:58 26.11.2019
3716 Mist 4 1010 100 5000 2.1 130 09:39 26.11.2019
3717 Mist 4 1010 100 5000 2.6 130 09:21 26.11.2019
3718 Mist 4 1011 93 5000 2.1 130 08:46 26.11.2019
3719 Mist 3 1011 93 5000 2.1 130 08:26 26.11.2019
3720 Mist 3 1011 100 5000 1.5 0 07:48 26.11.2019
3721 Clouds 3 1011 100 7000 1.5 140 07:29 26.11.2019
3722 Clouds 3 1012 100 9000 2.1 140 06:59 26.11.2019
3723 Mist 3 1012 100 7000 1.5 160 06:40 26.11.2019
3724 Mist 3 1012 100 4700 2.1 160 05:58 26.11.2019
3725 Mist 3 1012 93 8000 2.1 140 04:47 26.11.2019
3726 Mist 3 1013 100 6000 1.5 140 02:53 26.11.2019
3727 Clouds 3 1014 93 10000 1.09 175 01:35 26.11.2019
3728 Clouds 3 1014 86 10000 1.22 184 00:53 26.11.2019
3729 Clouds 3 1015 86 10000 1.22 184 00:33 26.11.2019
3730 Clouds 3 1015 93 10000 1.22 184 23:56 25.11.2019
3731 Clouds 3 1015 86 10000 1.22 184 23:37 25.11.2019
3732 Clouds 3 1015 86 10000 1.39 203 23:18 25.11.2019
3733 Clouds 3 1015 86 10000 1.39 203 22:39 25.11.2019
3734 Clouds 3 1015 86 10000 1 130 22:19 25.11.2019
3735 Clouds 3 1016 86 10000 1.39 203 21:59 25.11.2019
3736 Clouds 3 1016 86 10000 1.39 203 21:40 25.11.2019
3737 Clouds 3 1016 86 10000 1.39 203 21:22 25.11.2019
3738 Clouds 3 1016 86 10000 1.39 203 20:58 25.11.2019
3739 Clouds 3 1016 86 10000 1.39 203 20:40 25.11.2019
3740 Clouds 3 1016 86 10000 1.39 203 20:40 25.11.2019
3741 Clouds 3 1016 86 10000 0.5 0 20:20 25.11.2019
3742 Clouds 3 1016 86 10000 1 0 19:56 25.11.2019
3743 Clouds 3 1016 86 10000 1.5 0 19:38 25.11.2019
3744 Clouds 3 1016 86 10000 1.5 0 19:20 25.11.2019
3745 Clouds 3 1017 86 10000 1 0 18:57 25.11.2019
3746 Clouds 3 1017 86 10000 1 210 18:39 25.11.2019
3747 Clouds 3 1017 86 10000 1 210 18:21 25.11.2019
3748 Clouds 3 1017 86 10000 2.1 160 17:58 25.11.2019
3749 Clouds 3 1017 86 10000 1.5 190 17:40 25.11.2019
3750 Clouds 3 1017 86 10000 1.5 0 17:21 25.11.2019
3751 Clouds 3 1017 86 10000 1.5 0 16:59 25.11.2019
3752 Clouds 3 1017 86 10000 1.5 170 16:40 25.11.2019
3753 Clouds 3 1017 86 10000 1.5 170 16:22 25.11.2019
3754 Clouds 3 1017 86 10000 1.5 190 15:56 25.11.2019
3755 Clouds 3 1017 86 10000 1.5 190 15:37 25.11.2019
3756 Clouds 3 1017 86 10000 1.5 210 15:19 25.11.2019
3757 Clouds 3 1018 86 10000 1.5 0 14:43 25.11.2019
3758 Clouds 3 1018 86 10000 1 0 14:25 25.11.2019
3759 Clouds 3 1018 79 10000 2.1 160 13:57 25.11.2019
3760 Clouds 3 1018 79 10000 2.1 160 13:57 25.11.2019
3761 Clouds 3 1018 79 10000 2.1 160 13:37 25.11.2019
3762 Clouds 3 1018 81 10000 2.6 180 13:18 25.11.2019
3763 Clouds 3 1018 81 10000 1.5 170 12:58 25.11.2019
3764 Clouds 3 1018 81 10000 2.1 170 12:39 25.11.2019
3765 Clouds 3 1018 81 10000 2.1 170 12:19 25.11.2019
3766 Clouds 3 1019 81 10000 2.1 160 11:40 25.11.2019
3767 Clouds 3 1019 86 10000 2.6 150 11:21 25.11.2019
3768 Clouds 3 1019 86 10000 2.6 150 10:59 25.11.2019
3769 Clouds 3 1019 86 10000 2.1 160 10:41 25.11.2019
3770 Clouds 3 1019 86 10000 2.1 160 10:20 25.11.2019
3771 Clouds 3 1019 86 10000 1.5 140 09:44 25.11.2019
3772 Clouds 3 1019 86 10000 2.1 150 09:26 25.11.2019
3773 Clouds 3 1019 86 10000 1.5 170 08:58 25.11.2019
3774 Clouds 3 1019 86 10000 1.5 170 08:38 25.11.2019
3775 Clouds 3 1019 86 10000 2.1 150 08:19 25.11.2019
3776 Clouds 3 1019 86 10000 1.5 130 07:40 25.11.2019
3777 Clouds 3 1019 86 10000 1.5 130 07:18 25.11.2019
3778 Clouds 3 1019 86 10000 2.1 130 06:39 25.11.2019
3779 Clouds 3 1019 86 10000 2.1 130 06:19 25.11.2019
3780 Clouds 3 1019 86 10000 1.5 140 05:33 25.11.2019
3781 Clouds 3 1019 86 10000 2.6 140 04:50 25.11.2019
3782 Clouds 3 1020 86 10000 2.6 140 02:48 25.11.2019
3783 Clouds 3 1020 86 10000 2.1 140 01:57 25.11.2019
3784 Clouds 3 1020 86 10000 2.1 140 01:38 25.11.2019
3785 Clouds 3 1020 86 10000 2.1 130 01:19 25.11.2019
3786 Clouds 3 1021 86 10000 2.1 100 00:21 25.11.2019
3787 Clouds 3 1021 86 10000 2.1 120 23:46 24.11.2019
3788 Clouds 3 1021 86 10000 2.1 110 23:21 24.11.2019
3789 Clouds 3 1021 80 10000 2.1 110 22:59 24.11.2019
3790 Clouds 3 1021 80 10000 2.1 110 22:40 24.11.2019
3791 Clouds 3 1021 86 10000 3.1 130 22:20 24.11.2019
3792 Clouds 3 1021 80 10000 3.1 140 21:58 24.11.2019
3793 Clouds 3 1021 80 10000 3.1 140 21:40 24.11.2019
3794 Clouds 3 1021 80 10000 3.6 130 21:21 24.11.2019
3795 Clouds 3 1021 80 10000 2.6 100 20:58 24.11.2019
3796 Clouds 3 1021 80 10000 2.6 100 20:38 24.11.2019
3797 Clouds 3 1021 80 10000 2.6 130 20:19 24.11.2019
3798 Clouds 3 1021 80 10000 2.1 100 19:56 24.11.2019
3799 Clouds 3 1021 87 10000 2.6 120 19:38 24.11.2019
3800 Clouds 3 1021 87 10000 2.6 120 19:20 24.11.2019
3801 Clouds 3 1021 87 10000 2.6 130 18:58 24.11.2019
3802 Clouds 3 1021 87 10000 3.6 110 18:38 24.11.2019
3803 Clouds 3 1021 87 10000 3.6 110 18:19 24.11.2019
3804 Clouds 3 1022 87 10000 2.6 80 17:56 24.11.2019
3805 Clouds 3 1022 87 10000 2.6 90 17:38 24.11.2019
3806 Clouds 3 1022 87 10000 2.6 90 17:38 24.11.2019
3807 Clouds 3 1022 86 10000 2.6 110 17:20 24.11.2019
3808 Clouds 3 1022 86 10000 2.6 110 16:57 24.11.2019
3809 Clouds 3 1022 86 10000 2.6 110 16:39 24.11.2019
3810 Clouds 3 1022 86 10000 2.6 110 16:39 24.11.2019
3811 Clouds 3 1022 86 10000 2.6 130 16:20 24.11.2019
3812 Clouds 3 1022 86 10000 2.6 100 15:45 24.11.2019
3813 Clouds 3 1022 86 10000 3.6 110 15:26 24.11.2019
3814 Clouds 3 1022 86 10000 2.6 130 14:58 24.11.2019
3815 Clouds 3 1022 86 10000 2.6 130 14:39 24.11.2019
3816 Clouds 3 1022 76 10000 2.6 120 14:19 24.11.2019
3817 Clouds 3 1022 76 10000 3.1 140 13:55 24.11.2019
3818 Clouds 4 1022 76 10000 3.6 130 13:37 24.11.2019
3819 Clouds 4 1022 79 10000 3.6 130 13:18 24.11.2019
3820 Clouds 4 1022 79 10000 3.6 130 12:42 24.11.2019
3821 Clouds 4 1022 79 10000 3.1 130 12:20 24.11.2019
3822 Clouds 4 1022 80 10000 3.1 110 11:59 24.11.2019
3823 Clouds 4 1023 80 10000 3.1 110 11:37 24.11.2019
3824 Clouds 4 1023 80 10000 3.1 110 11:19 24.11.2019
3825 Clouds 4 1022 80 10000 2.6 80 10:47 24.11.2019
3826 Clouds 4 1023 82 10000 2.1 50 10:29 24.11.2019
3827 Clouds 4 1023 82 10000 2.1 50 10:29 24.11.2019
3828 Clouds 3 1023 86 10000 1 0 09:59 24.11.2019
3829 Clouds 3 1023 82 10000 1.29 102 09:38 24.11.2019
3830 Clouds 3 1023 82 10000 1.29 102 09:19 24.11.2019
3831 Clouds 3 1023 82 10000 1 0 08:56 24.11.2019
3832 Clouds 3 1022 82 10000 2.6 130 08:36 24.11.2019
3833 Clouds 3 1022 85 10000 2.6 130 08:18 24.11.2019
3834 Clouds 3 1022 80 10000 2.6 130 07:45 24.11.2019
3835 Clouds 3 1022 80 10000 1.5 60 07:20 24.11.2019
3836 Clouds 3 1022 85 10000 1.62 118 06:26 24.11.2019
3837 Clouds 3 1022 83 10000 2.1 120 04:54 24.11.2019
3838 Clouds 3 1022 83 10000 2.1 120 04:35 24.11.2019
3839 Clouds 3 1022 86 10000 2.6 100 02:35 24.11.2019
3840 Clouds 3 1023 80 10000 2.6 90 01:49 24.11.2019
3841 Clouds 3 1023 80 10000 2.1 100 01:27 24.11.2019
3842 Clouds 3 1023 86 10000 3.1 110 00:50 24.11.2019
3843 Clouds 3 1023 86 10000 1.5 130 00:24 24.11.2019
3844 Clouds 3 1023 86 10000 2.6 100 23:56 23.11.2019
3845 Clouds 3 1023 86 10000 2.6 100 23:56 23.11.2019
3846 Clouds 3 1023 93 10000 2.6 120 23:38 23.11.2019
3847 Clouds 3 1023 93 10000 2.6 120 23:19 23.11.2019
3848 Clouds 3 1023 80 10000 2.1 140 22:55 23.11.2019
3849 Clouds 3 1023 80 10000 2.6 130 22:37 23.11.2019
3850 Clouds 3 1023 80 10000 2.6 130 22:18 23.11.2019
3851 Clouds 3 1023 86 10000 2.1 90 21:43 23.11.2019
3852 Clouds 3 1023 86 10000 2.6 140 21:23 23.11.2019
3853 Clouds 3 1023 86 10000 3.1 90 20:59 23.11.2019
3854 Clouds 4 1023 86 10000 3.1 90 20:38 23.11.2019
3855 Clouds 4 1023 86 10000 3.6 140 20:19 23.11.2019
3856 Clouds 4 1023 86 10000 3.1 120 19:56 23.11.2019
3857 Clouds 4 1023 86 10000 3.1 120 19:38 23.11.2019
3858 Clouds 4 1023 86 10000 3.6 130 19:18 23.11.2019
3859 Clouds 4 1023 86 10000 3.6 130 19:18 23.11.2019
3860 Clouds 4 1023 86 10000 3.6 120 18:55 23.11.2019
3861 Clouds 4 1023 86 10000 3.1 140 18:36 23.11.2019
3862 Clouds 4 1023 86 10000 3.1 140 18:18 23.11.2019
3863 Clouds 4 1022 86 10000 4.6 100 17:41 23.11.2019
3864 Clouds 4 1022 86 10000 4.6 100 17:21 23.11.2019
3865 Clouds 4 1022 86 10000 4.6 120 16:56 23.11.2019
3866 Clouds 4 1022 86 10000 5.1 120 16:38 23.11.2019
3867 Clouds 4 1022 86 10000 4.6 120 16:38 23.11.2019
3868 Clouds 4 1022 86 10000 5.1 120 16:20 23.11.2019
3869 Clouds 4 1022 86 10000 4.6 110 15:58 23.11.2019
3870 Clouds 4 1022 86 10000 4.6 110 15:39 23.11.2019
3871 Clouds 4 1022 86 10000 4.1 120 15:19 23.11.2019
3872 Clouds 4 1022 86 9000 3.6 110 14:56 23.11.2019
3873 Clouds 4 1022 86 9000 3.6 110 14:56 23.11.2019
3874 Clouds 4 1022 86 9000 3.6 110 14:37 23.11.2019
3875 Clouds 4 1022 86 9000 4.1 130 14:18 23.11.2019
3876 Clouds 4 1022 93 9000 3.6 110 13:42 23.11.2019
3877 Clouds 4 1022 93 9000 4.1 120 13:20 23.11.2019
3878 Clouds 4 1023 93 9000 4.1 110 12:58 23.11.2019
3879 Clouds 4 1023 93 8000 5.1 110 12:39 23.11.2019
3880 Clouds 4 1023 93 8000 5.1 110 12:21 23.11.2019
3881 Clouds 4 1023 93 8000 4.6 130 11:42 23.11.2019
3882 Clouds 4 1023 93 8000 4.6 130 11:20 23.11.2019
3883 Clouds 4 1023 93 8000 4.6 130 10:45 23.11.2019
3884 Clouds 4 1023 93 8000 4.1 130 10:22 23.11.2019
3885 Clouds 4 1022 93 8000 4.6 140 09:42 23.11.2019
3886 Clouds 4 1022 93 8000 5.1 130 09:21 23.11.2019
3887 Clouds 4 1022 93 10000 4.1 130 08:45 23.11.2019
3888 Clouds 4 1022 93 10000 5.1 130 08:20 23.11.2019
3889 Clouds 4 1022 93 8000 3.6 130 07:54 23.11.2019
3890 Rain 4 1022 93 10000 4.6 120 07:35 23.11.2019
3891 Rain 4 1022 93 10000 5.1 120 06:48 23.11.2019
3892 Rain 5 1022 86 10000 4.6 120 06:21 23.11.2019
3893 Rain 5 1022 93 10000 4.1 120 05:51 23.11.2019
3894 Drizzle 5 1022 93 10000 4.6 120 05:29 23.11.2019
3895 Drizzle 5 1022 93 10000 4.6 110 04:49 23.11.2019
3896 Drizzle 5 1022 93 10000 4.6 120 04:27 23.11.2019
3897 Rain 5 1022 93 10000 4.6 110 02:53 23.11.2019
3898 Rain 5 1022 86 10000 5.1 110 02:22 23.11.2019
3899 Rain 5 1022 86 10000 4.1 120 01:38 23.11.2019
3900 Rain 5 1022 86 10000 5.1 110 00:43 23.11.2019
3901 Rain 5 1022 86 10000 5.1 110 00:18 23.11.2019
3902 Rain 5 1022 86 10000 5.7 120 23:42 22.11.2019
3903 Rain 5 1022 86 10000 5.7 120 23:20 22.11.2019
3904 Rain 4 1022 86 10000 5.1 120 22:57 22.11.2019
3905 Rain 4 1022 86 10000 5.1 120 22:38 22.11.2019
3906 Clouds 5 1022 86 10000 6.2 120 22:20 22.11.2019
3907 Clouds 5 1022 86 10000 6.2 120 21:58 22.11.2019
3908 Clouds 5 1022 86 10000 6.2 120 21:39 22.11.2019
3909 Clouds 5 1022 86 10000 6.2 120 21:20 22.11.2019
3910 Clouds 5 1022 86 10000 6.2 130 20:43 22.11.2019
3911 Clouds 5 1022 86 10000 5.7 120 20:22 22.11.2019
3912 Clouds 5 1022 86 10000 5.7 120 20:22 22.11.2019
3913 Clouds 5 1022 86 10000 6.2 120 19:57 22.11.2019
3914 Clouds 5 1022 86 10000 6.2 120 19:37 22.11.2019
3915 Clouds 5 1022 86 10000 6.7 120 19:19 22.11.2019
3916 Clouds 4 1022 93 10000 6.7 120 18:40 22.11.2019
3917 Drizzle 4 1022 93 10000 6.2 120 18:21 22.11.2019
3918 Drizzle 4 1022 93 10000 5.7 120 17:59 22.11.2019
3919 Drizzle 4 1022 93 10000 5.7 120 17:40 22.11.2019
3920 Clouds 4 1022 93 10000 6.2 120 17:22 22.11.2019
3921 Clouds 4 1022 93 10000 5.7 120 16:47 22.11.2019
3922 Clouds 4 1022 93 10000 7.2 120 16:28 22.11.2019
3923 Clouds 4 1021 93 10000 6.2 120 15:47 22.11.2019
3924 Clouds 4 1022 93 10000 5.7 130 15:25 22.11.2019
3925 Clouds 4 1021 93 10000 5.7 120 14:57 22.11.2019
3926 Clouds 4 1021 93 10000 5.7 120 14:39 22.11.2019
3927 Clouds 4 1021 93 10000 7.2 120 14:21 22.11.2019
3928 Clouds 4 1021 93 10000 6.2 120 13:59 22.11.2019
3929 Clouds 4 1021 93 10000 6.2 120 13:37 22.11.2019
3930 Clouds 4 1021 93 10000 5.1 120 13:19 22.11.2019
3931 Clouds 4 1022 93 10000 5.1 120 12:57 22.11.2019
3932 Clouds 4 1022 93 10000 5.1 120 12:39 22.11.2019
3933 Rain 4 1022 93 10000 6.7 120 12:19 22.11.2019
3934 Drizzle 5 1022 86 8000 6.2 120 11:55 22.11.2019
3935 Drizzle 5 1022 86 7000 6.7 120 11:36 22.11.2019
3936 Drizzle 5 1022 86 7000 6.7 120 11:18 22.11.2019
3937 Clouds 5 1022 86 10000 7.7 120 10:40 22.11.2019
3938 Clouds 5 1022 86 10000 6.2 130 10:22 22.11.2019
3939 Clouds 5 1022 86 10000 7.2 120 09:58 22.11.2019
3940 Clouds 5 1022 86 10000 7.2 120 09:39 22.11.2019
3941 Clouds 5 1022 87 10000 7.2 120 09:21 22.11.2019
3942 Clouds 5 1022 87 10000 7.2 120 09:21 22.11.2019
3943 Clouds 6 1022 87 10000 6.2 120 08:47 22.11.2019
3944 Clouds 6 1022 87 10000 6.2 120 08:28 22.11.2019
3945 Clouds 6 1022 87 10000 6.2 120 07:56 22.11.2019
3946 Clouds 6 1022 87 10000 6.2 120 07:37 22.11.2019
3947 Clouds 6 1022 93 10000 5.7 120 07:18 22.11.2019
3948 Rain 6 1022 93 10000 5.1 120 06:41 22.11.2019
3949 Drizzle 6 1022 93 8000 4.1 120 05:56 22.11.2019
3950 Rain 6 1022 93 10000 5.7 120 04:53 22.11.2019
3951 Rain 6 1023 93 10000 5.7 120 02:57 22.11.2019
3952 Rain 6 1023 93 10000 6.2 130 02:33 22.11.2019
3953 Clouds 6 1023 93 10000 5.7 120 01:46 22.11.2019
3954 Clouds 6 1023 93 10000 5.7 110 01:20 22.11.2019
3955 Clouds 7 1023 93 10000 4.6 120 00:54 22.11.2019
3956 Clouds 7 1023 87 10000 6.2 130 00:25 22.11.2019
3957 Clouds 7 1023 87 10000 6.7 130 23:57 21.11.2019
3958 Clouds 7 1023 93 10000 5.1 130 23:38 21.11.2019
3959 Rain 7 1023 93 10000 5.1 130 23:20 21.11.2019
3960 Rain 7 1024 93 10000 4.6 120 22:41 21.11.2019
3961 Clouds 7 1024 93 10000 5.1 120 22:22 21.11.2019
3962 Clouds 7 1024 93 10000 5.1 120 21:58 21.11.2019
3963 Clouds 7 1024 93 10000 5.1 120 21:39 21.11.2019
3964 Clouds 7 1024 93 10000 5.1 120 21:39 21.11.2019
3965 Clouds 7 1024 93 10000 4.6 120 21:20 21.11.2019
3966 Clouds 7 1024 93 10000 5.1 110 20:59 21.11.2019
3967 Clouds 7 1024 93 10000 5.1 110 20:39 21.11.2019
3968 Clouds 6 1024 100 10000 5.1 110 20:19 21.11.2019
3969 Clouds 6 1024 93 10000 5.1 110 19:59 21.11.2019
3970 Clouds 6 1024 93 10000 5.1 110 19:59 21.11.2019
3971 Clouds 6 1024 93 10000 5.1 110 19:41 21.11.2019
3972 Clouds 6 1024 93 10000 5.1 110 19:23 21.11.2019
3973 Clouds 6 1024 100 10000 6.7 120 18:58 21.11.2019
3974 Clouds 6 1024 100 10000 6.7 120 18:40 21.11.2019
3975 Clouds 6 1024 100 10000 5.7 110 18:20 21.11.2019
3976 Clouds 6 1024 100 8000 5.7 110 17:58 21.11.2019
3977 Clouds 6 1024 100 8000 5.7 110 17:39 21.11.2019
3978 Clouds 6 1025 100 10000 5.7 110 17:20 21.11.2019
3979 Clouds 6 1025 100 10000 4.6 90 16:56 21.11.2019
3980 Clouds 6 1025 100 10000 4.6 90 16:37 21.11.2019
3981 Clouds 6 1025 100 10000 4.1 90 16:19 21.11.2019
3982 Mist 6 1025 100 6000 4.6 100 15:42 21.11.2019
3983 Clouds 6 1025 93 6000 4.6 100 15:21 21.11.2019
3984 Mist 6 1025 100 4500 5.1 100 14:57 21.11.2019
3985 Drizzle 6 1025 100 4000 4.6 110 14:37 21.11.2019
3986 Drizzle 6 1025 100 4000 4.6 110 14:19 21.11.2019
3987 Mist 6 1025 100 5000 5.1 110 13:56 21.11.2019
3988 Clouds 6 1025 93 10000 4.6 100 13:36 21.11.2019
3989 Clouds 6 1025 93 10000 4.6 100 13:18 21.11.2019
3990 Mist 7 1025 93 4000 4.6 110 12:40 21.11.2019
3991 Clouds 7 1025 93 8000 4.1 100 12:22 21.11.2019
3992 Clouds 7 1026 93 10000 4.6 110 11:55 21.11.2019
3993 Clouds 7 1026 93 10000 4.6 110 11:36 21.11.2019
3994 Clouds 7 1026 93 10000 4.6 110 11:18 21.11.2019
3995 Clouds 7 1026 93 10000 5.1 110 10:42 21.11.2019
3996 Clouds 7 1026 93 7000 6.2 120 10:23 21.11.2019
3997 Clouds 7 1026 93 7000 6.2 120 10:23 21.11.2019
3998 Mist 7 1026 100 6000 5.7 120 09:57 21.11.2019
3999 Mist 7 1026 100 6000 5.7 120 09:39 21.11.2019
4000 Mist 7 1026 100 6000 5.7 120 09:39 21.11.2019
4001 Mist 7 1026 100 4500 7.2 120 09:20 21.11.2019
4002 Mist 7 1026 100 4500 7.2 120 09:20 21.11.2019
4003 Rain 7 1026 100 2500 5.1 110 08:43 21.11.2019
4004 Drizzle 7 1026 100 2500 4.1 110 08:22 21.11.2019
4005 Drizzle 7 1026 100 4500 2.6 100 07:44 21.11.2019
4006 Drizzle 7 1026 93 3000 3.1 100 07:19 21.11.2019
4007 Drizzle 7 1026 100 2700 3.6 100 06:58 21.11.2019
4008 Drizzle 6 1026 100 2700 3.6 100 06:34 21.11.2019
4009 Clouds 7 1026 87 10000 4.6 110 05:42 21.11.2019
4010 Clouds 7 1026 93 10000 6.7 100 03:35 21.11.2019
4011 Clouds 7 1027 93 10000 6.2 110 02:42 21.11.2019
4012 Clouds 7 1027 93 10000 6.7 100 02:23 21.11.2019
4013 Mist 7 1027 100 8000 6.2 110 01:47 21.11.2019
4014 Mist 7 1027 100 8000 7.2 110 01:20 21.11.2019
4015 Mist 7 1027 100 9000 6.7 100 00:38 21.11.2019
4016 Mist 7 1027 100 9000 6.7 100 00:19 21.11.2019
4017 Mist 7 1027 100 7000 5.1 100 23:42 20.11.2019
4018 Mist 7 1028 93 8000 5.1 100 23:21 20.11.2019
4019 Clouds 7 1028 93 10000 5.1 100 22:58 20.11.2019
4020 Clouds 7 1028 93 10000 5.1 100 22:37 20.11.2019
4021 Clouds 7 1028 93 10000 5.1 100 22:19 20.11.2019
4022 Clouds 7 1027 93 10000 5.1 90 21:57 20.11.2019
4023 Clouds 7 1027 93 10000 5.1 90 21:38 20.11.2019
4024 Clouds 7 1027 93 10000 5.1 90 21:38 20.11.2019
4025 Clouds 7 1027 93 10000 6.2 90 21:19 20.11.2019
4026 Clouds 7 1027 93 10000 6.2 90 21:19 20.11.2019
4027 Clouds 7 1027 93 10000 4.6 80 20:56 20.11.2019
4028 Clouds 6 1027 93 10000 4.6 80 20:38 20.11.2019
4029 Clouds 6 1027 93 10000 4.1 80 20:19 20.11.2019
4030 Clouds 6 1027 93 10000 2.6 70 19:56 20.11.2019
4031 Clouds 6 1027 93 10000 2.6 80 19:36 20.11.2019
4032 Clouds 6 1027 93 10000 2.6 80 19:18 20.11.2019
4033 Clouds 6 1027 93 10000 2.1 70 18:58 20.11.2019
4034 Clouds 6 1027 93 10000 2.1 70 18:38 20.11.2019
4035 Clouds 6 1027 93 10000 2.1 70 18:20 20.11.2019
4036 Clouds 6 1027 100 10000 1.5 70 17:55 20.11.2019
4037 Clouds 5 1027 100 10000 1.5 100 17:37 20.11.2019
4038 Clouds 5 1027 100 10000 1.5 100 17:19 20.11.2019
4039 Clouds 5 1027 93 10000 1.5 90 16:43 20.11.2019
4040 Clouds 6 1027 93 10000 2.6 120 16:21 20.11.2019
4041 Clouds 6 1027 87 10000 2.1 120 15:58 20.11.2019
4042 Clouds 6 1027 87 10000 2.1 120 15:40 20.11.2019
4043 Clouds 7 1027 87 10000 2.6 130 15:20 20.11.2019
4044 Clouds 7 1027 87 10000 1.5 110 14:58 20.11.2019
4045 Clouds 8 1026 87 10000 1.5 140 14:39 20.11.2019
4046 Clouds 8 1026 87 10000 1.5 140 14:21 20.11.2019
4047 Clouds 8 1026 81 10000 1.5 0 13:57 20.11.2019
4048 Clouds 8 1026 81 10000 1.5 0 13:38 20.11.2019
4049 Clouds 8 1026 87 10000 1.5 0 13:19 20.11.2019
4050 Clouds 9 1026 81 10000 1.91 156 12:42 20.11.2019
4051 Clouds 8 1026 87 10000 1 0 12:24 20.11.2019
4052 Clouds 8 1026 93 10000 1.5 190 11:57 20.11.2019
4053 Clouds 8 1026 93 10000 1.5 190 11:38 20.11.2019
4054 Clouds 8 1026 93 10000 2.1 180 11:20 20.11.2019
4055 Clouds 8 1025 87 10000 1.5 160 10:55 20.11.2019
4056 Clouds 8 1025 93 10000 1.5 160 10:36 20.11.2019
4057 Clouds 8 1025 93 10000 1.5 160 10:18 20.11.2019
4058 Clouds 7 1025 93 10000 1.5 150 09:42 20.11.2019
4059 Clouds 7 1024 100 10000 1.5 0 09:21 20.11.2019
4060 Clouds 7 1024 100 10000 1.5 160 08:54 20.11.2019
4061 Clouds 7 1024 100 10000 1.5 160 08:36 20.11.2019
4062 Clouds 7 1023 93 10000 2.1 150 08:18 20.11.2019
4063 Clouds 7 1022 93 10000 2.1 130 07:40 20.11.2019
4064 Clouds 7 1022 93 10000 2.1 130 07:21 20.11.2019
4065 Clouds 7 1022 100 10000 1 150 06:46 20.11.2019
4066 Clouds 6 1022 100 10000 2.1 140 06:20 20.11.2019
4067 Drizzle 7 1021 100 10000 1.5 240 04:51 20.11.2019
4068 Clouds 7 1019 93 10000 2.1 170 02:48 20.11.2019
4069 Rain 7 1019 93 10000 2.1 170 02:18 20.11.2019
4070 Rain 7 1018 87 10000 3.1 180 01:21 20.11.2019
4071 Rain 7 1017 87 10000 3.1 200 00:35 20.11.2019
4072 Rain 7 1017 93 10000 3.1 190 23:46 19.11.2019
4073 Rain 7 1016 87 10000 3.6 180 23:25 19.11.2019
4074 Rain 7 1015 87 10000 3.6 180 22:57 19.11.2019
4075 Rain 7 1015 87 10000 3.6 180 22:39 19.11.2019
4076 Clouds 7 1015 93 10000 3.6 180 22:19 19.11.2019
4077 Clouds 7 1015 93 10000 3.6 180 22:19 19.11.2019
4078 Clouds 7 1015 93 10000 3.6 180 22:19 19.11.2019
4079 Drizzle 7 1015 93 10000 3.6 160 21:55 19.11.2019
4080 Drizzle 7 1015 93 10000 3.6 160 21:37 19.11.2019
4081 Rain 7 1014 100 10000 4.1 150 21:19 19.11.2019
4082 Drizzle 7 1014 93 6000 3.1 140 20:55 19.11.2019
4083 Drizzle 7 1014 93 6000 3.1 140 20:55 19.11.2019
4084 Drizzle 7 1014 93 6000 3.1 140 20:37 19.11.2019
4085 Rain 7 1014 93 10000 4.1 150 20:18 19.11.2019
4086 Clouds 7 1014 87 10000 3.6 150 19:55 19.11.2019
4087 Clouds 7 1014 87 10000 3.6 150 19:37 19.11.2019
4088 Clouds 7 1014 87 10000 4.1 160 19:18 19.11.2019
4089 Clouds 7 1014 87 10000 4.6 160 18:54 19.11.2019
4090 Clouds 7 1014 87 10000 4.6 160 18:36 19.11.2019
4091 Drizzle 7 1014 87 10000 4.6 160 18:18 19.11.2019
4092 Drizzle 7 1014 87 10000 5.7 150 17:54 19.11.2019
4093 Drizzle 7 1014 87 10000 5.7 150 17:36 19.11.2019
4094 Rain 7 1013 87 10000 4.1 150 17:18 19.11.2019
4095 Rain 7 1013 81 10000 6.2 160 16:41 19.11.2019
4096 Clouds 7 1013 81 10000 5.1 140 16:21 19.11.2019
4097 Drizzle 7 1013 81 10000 6.7 140 15:47 19.11.2019
4098 Clouds 8 1013 81 10000 6.2 130 15:28 19.11.2019
4099 Clouds 8 1013 81 10000 5.1 140 14:59 19.11.2019
4100 Clouds 8 1013 81 10000 5.1 140 14:59 19.11.2019
4101 Clouds 7 1013 81 10000 5.1 140 14:59 19.11.2019
4102 Clouds 7 1013 81 10000 5.1 140 14:40 19.11.2019
4103 Clouds 7 1013 81 10000 6.2 150 14:21 19.11.2019
4104 Clouds 8 1013 81 10000 5.1 160 13:59 19.11.2019
4105 Clouds 8 1013 81 10000 5.1 160 13:39 19.11.2019
4106 Clouds 8 1013 81 10000 5.1 160 13:39 19.11.2019
4107 Clouds 8 1013 81 10000 4.6 160 13:18 19.11.2019
4108 Clouds 8 1013 75 10000 4.6 160 12:40 19.11.2019
4109 Clouds 8 1013 75 10000 4.6 160 12:40 19.11.2019
4110 Clouds 8 1013 81 10000 5.7 170 12:21 19.11.2019
4111 Clouds 8 1013 81 10000 5.7 160 11:57 19.11.2019
4112 Clouds 8 1013 81 10000 5.7 160 11:37 19.11.2019
4113 Clouds 8 1012 87 10000 4.6 160 11:19 19.11.2019
4114 Clouds 8 1012 87 10000 5.1 160 10:45 19.11.2019
4115 Clouds 8 1012 87 10000 5.1 160 10:21 19.11.2019
4116 Clouds 8 1011 93 10000 5.1 160 09:56 19.11.2019
4117 Rain 8 1011 93 6000 4.6 140 09:38 19.11.2019
4118 Rain 8 1011 93 6000 4.6 140 09:18 19.11.2019
4119 Rain 8 1011 93 2500 7.2 130 08:40 19.11.2019
4120 Rain 8 1011 100 7000 6.2 120 08:22 19.11.2019
4121 Rain 8 1011 100 7000 6.2 120 08:22 19.11.2019
4122 Rain 8 1011 100 4000 6.2 120 07:56 19.11.2019
4123 Mist 8 1011 100 4000 6.2 120 07:37 19.11.2019
4124 Mist 8 1011 100 4000 6.2 120 07:37 19.11.2019
4125 Mist 8 1011 100 4500 6.2 120 07:19 19.11.2019
4126 Mist 8 1011 100 4500 6.7 120 06:45 19.11.2019
4127 Mist 8 1011 100 5000 6.2 120 06:27 19.11.2019
4128 Mist 8 1011 100 3500 6.2 120 05:20 19.11.2019
4129 Mist 8 1012 100 6000 5.1 110 03:45 19.11.2019
4130 Mist 8 1012 100 5000 4.6 110 03:22 19.11.2019
4131 Mist 8 1012 100 5000 4.6 110 02:51 19.11.2019
4132 Mist 8 1012 93 6000 4.6 110 01:58 19.11.2019
4133 Mist 9 1013 87 9000 4.1 110 00:59 19.11.2019
4134 Clouds 9 1013 87 10000 4.1 120 00:21 19.11.2019
4135 Clouds 9 1013 87 10000 4.1 120 00:21 19.11.2019
4136 Clouds 8 1013 93 10000 4.6 120 23:56 18.11.2019
4137 Clouds 8 1013 93 10000 4.6 120 23:37 18.11.2019
4138 Mist 8 1013 93 9000 4.6 110 23:18 18.11.2019
4139 Mist 9 1013 93 8000 4.6 110 22:41 18.11.2019
4140 Clouds 9 1013 93 10000 5.1 110 22:23 18.11.2019
4141 Clouds 8 1013 93 9000 4.6 110 21:54 18.11.2019
4142 Clouds 8 1013 93 9000 4.6 110 21:36 18.11.2019
4143 Clouds 8 1014 93 8000 5.1 110 21:18 18.11.2019
4144 Clouds 8 1014 93 8000 5.7 110 20:42 18.11.2019
4145 Clouds 8 1014 93 8000 5.7 110 20:20 18.11.2019
4146 Clouds 8 1014 93 7000 5.7 100 19:58 18.11.2019
4147 Clouds 8 1014 93 7000 5.7 100 19:39 18.11.2019
4148 Clouds 8 1015 93 7000 5.7 100 19:21 18.11.2019
4149 Clouds 8 1015 93 8000 6.2 100 18:57 18.11.2019
4150 Clouds 8 1015 93 8000 6.2 100 18:38 18.11.2019
4151 Clouds 8 1015 93 7000 5.7 100 18:38 18.11.2019
4152 Clouds 8 1015 93 7000 5.7 100 18:20 18.11.2019
4153 Clouds 8 1015 100 6000 5.1 90 17:59 18.11.2019
4154 Clouds 8 1015 100 6000 5.1 90 17:38 18.11.2019
4155 Clouds 8 1016 93 6000 5.1 100 17:19 18.11.2019
4156 Clouds 8 1016 93 7000 5.1 90 16:43 18.11.2019
4157 Clouds 8 1016 100 8000 5.1 90 16:25 18.11.2019
4158 Clouds 8 1016 100 8000 5.1 90 15:59 18.11.2019
4159 Clouds 8 1016 100 8000 5.1 90 15:59 18.11.2019
4160 Clouds 8 1016 100 9000 4.1 90 15:41 18.11.2019
4161 Clouds 8 1016 100 9000 4.1 90 15:22 18.11.2019
4162 Clouds 7 1016 100 8000 5.1 90 14:58 18.11.2019
4163 Clouds 7 1016 100 8000 5.1 90 14:58 18.11.2019
4164 Clouds 8 1016 100 8000 5.1 90 14:40 18.11.2019
4165 Clouds 8 1016 100 6000 5.1 90 14:22 18.11.2019
4166 Drizzle 7 1017 100 3400 4.1 90 13:44 18.11.2019
4167 Drizzle 7 1017 93 2500 3.6 80 13:26 18.11.2019
4168 Drizzle 7 1017 100 3000 4.1 70 12:57 18.11.2019
4169 Drizzle 7 1017 100 3000 4.1 70 12:57 18.11.2019
4170 Drizzle 7 1017 100 3000 4.1 70 12:37 18.11.2019
4171 Mist 7 1018 93 3500 4.6 80 12:18 18.11.2019
4172 Mist 7 1018 93 7000 4.6 80 11:42 18.11.2019
4173 Clouds 7 1018 93 10000 5.1 80 11:24 18.11.2019
4174 Clouds 7 1019 93 10000 6.2 100 10:45 18.11.2019
4175 Clouds 7 1019 87 10000 3.6 90 10:26 18.11.2019
4176 Clouds 7 1019 93 10000 3.1 80 09:59 18.11.2019
4177 Clouds 7 1019 93 10000 3.1 80 09:39 18.11.2019
4178 Clouds 7 1019 93 10000 2.6 80 09:21 18.11.2019
4179 Clouds 6 1019 93 10000 3.1 90 08:58 18.11.2019
4180 Clouds 6 1019 93 10000 3.1 90 08:40 18.11.2019
4181 Clouds 6 1019 93 10000 2.6 80 08:19 18.11.2019
4182 Clouds 5 1019 100 10000 3.1 70 07:45 18.11.2019
4183 Clouds 5 1019 93 10000 2.6 70 07:26 18.11.2019
4184 Clouds 5 1019 93 10000 3.1 80 06:49 18.11.2019
4185 Clouds 5 1019 93 10000 2.6 80 06:28 18.11.2019
4186 Clouds 4 1019 100 10000 2.6 50 05:45 18.11.2019
4187 Mist 3 1020 100 7000 1 0 04:28 18.11.2019
4188 Fog 2 1020 100 200 1.14 163 01:47 18.11.2019
4189 Fog 2 1020 100 550 1.5 130 01:25 18.11.2019
4190 Fog 3 1020 100 2100 1.5 130 00:21 18.11.2019
4191 Clouds 3 1020 100 4200 2.1 130 23:41 17.11.2019
4192 Fog 4 1019 100 2900 1.5 130 23:23 17.11.2019
4193 Mist 4 1019 100 2600 2.06 213 22:58 17.11.2019
4194 Mist 5 1019 100 2600 2.06 213 22:39 17.11.2019
4195 Clouds 5 1019 93 10000 0.5 180 22:21 17.11.2019
4196 Clouds 5 1019 93 10000 2.06 213 21:57 17.11.2019
4197 Clouds 5 1019 93 10000 2.06 213 21:57 17.11.2019
4198 Clouds 6 1019 93 10000 1.5 170 21:39 17.11.2019
4199 Clouds 6 1019 93 10000 1.5 170 21:39 17.11.2019
4200 Clouds 5 1019 93 10000 1.5 170 21:18 17.11.2019
4201 Clouds 6 1019 93 10000 1.5 190 20:55 17.11.2019
4202 Clouds 6 1019 93 10000 1.5 190 20:55 17.11.2019
4203 Clouds 6 1019 93 10000 1.5 190 20:37 17.11.2019
4204 Clouds 7 1018 87 10000 2.1 200 20:19 17.11.2019
4205 Clouds 7 1018 87 10000 2.1 190 19:55 17.11.2019
4206 Clouds 7 1018 87 10000 2.1 190 19:37 17.11.2019
4207 Clouds 7 1018 87 10000 2.1 200 19:19 17.11.2019
4208 Clouds 7 1017 87 10000 2.6 180 18:54 17.11.2019
4209 Clouds 7 1017 87 10000 2.6 180 18:36 17.11.2019
4210 Clouds 7 1017 87 10000 2.6 180 18:36 17.11.2019
4211 Clouds 7 1017 87 10000 2.6 180 18:18 17.11.2019
4212 Clouds 7 1017 87 10000 3.1 180 17:57 17.11.2019
4213 Clouds 8 1017 87 10000 3.1 180 17:38 17.11.2019
4214 Clouds 8 1016 87 10000 2.6 200 17:19 17.11.2019
4215 Clouds 8 1016 87 10000 3.1 210 16:55 17.11.2019
4216 Clouds 8 1016 87 10000 3.1 200 16:37 17.11.2019
4217 Clouds 8 1016 87 10000 3.1 200 16:19 17.11.2019
4218 Clouds 8 1015 87 10000 3.1 200 15:54 17.11.2019
4219 Clouds 8 1015 87 10000 3.1 200 15:54 17.11.2019
4220 Clouds 8 1015 87 10000 3.1 200 15:54 17.11.2019
4221 Clouds 8 1015 87 10000 3.6 200 15:36 17.11.2019
4222 Clouds 8 1015 87 10000 3.6 200 15:18 17.11.2019
4223 Clouds 8 1015 87 10000 3.6 200 15:18 17.11.2019
4224 Clouds 8 1015 87 10000 3.6 200 15:18 17.11.2019
4225 Clouds 8 1015 81 10000 4.6 210 14:54 17.11.2019
4226 Clouds 8 1015 81 10000 4.6 210 14:36 17.11.2019
4227 Clouds 8 1014 87 10000 4.1 210 14:18 17.11.2019
4228 Clouds 8 1014 87 10000 4.6 210 13:41 17.11.2019
4229 Clouds 8 1013 93 10000 5.1 210 13:21 17.11.2019
4230 Clouds 8 1013 87 10000 5.1 210 12:59 17.11.2019
4231 Clouds 8 1013 87 10000 5.1 210 12:38 17.11.2019
4232 Clouds 8 1013 87 10000 5.1 190 12:19 17.11.2019
4233 Rain 8 1012 87 10000 5.7 190 11:55 17.11.2019
4234 Rain 8 1012 87 10000 5.7 190 11:37 17.11.2019
4235 Rain 8 1012 87 10000 5.7 190 11:18 17.11.2019
4236 Rain 8 1011 87 10000 5.7 190 10:41 17.11.2019
4237 Mist 8 1011 87 7000 6.2 200 10:22 17.11.2019
4238 Rain 8 1010 87 10000 6.2 180 09:43 17.11.2019
4239 Rain 8 1010 87 10000 6.2 180 09:24 17.11.2019
4240 Drizzle 8 1010 87 10000 6.2 170 08:57 17.11.2019
4241 Drizzle 8 1010 87 10000 6.2 170 08:37 17.11.2019
4242 Clouds 7 1009 87 10000 5.1 180 08:18 17.11.2019
4243 Drizzle 7 1009 87 10000 4.6 170 07:42 17.11.2019
4244 Drizzle 7 1009 87 10000 4.6 170 07:42 17.11.2019
4245 Clouds 7 1008 93 10000 4.1 170 07:21 17.11.2019
4246 Rain 7 1008 93 10000 5.1 170 06:55 17.11.2019
4247 Clouds 7 1008 93 10000 4.6 170 06:30 17.11.2019
4248 Clouds 7 1008 93 10000 4.6 170 06:30 17.11.2019
4249 Clouds 7 1008 93 10000 4.6 180 05:39 17.11.2019
4250 Clouds 8 1007 87 10000 5.1 160 04:20 17.11.2019
4251 Clouds 8 1007 93 10000 4.6 160 03:40 17.11.2019
4252 Clouds 8 1007 93 10000 5.1 160 03:22 17.11.2019
4253 Mist 8 1006 93 5000 3.6 140 02:19 17.11.2019
4254 Mist 8 1007 100 2900 3.6 130 01:22 17.11.2019
4255 Mist 8 1007 100 2700 4.1 120 00:43 17.11.2019
4256 Drizzle 8 1007 100 4100 4.6 120 00:21 17.11.2019
4257 Mist 8 1007 93 2200 5.1 110 23:42 16.11.2019
4258 Drizzle 7 1007 100 2000 5.7 110 23:19 16.11.2019
4259 Drizzle 7 1008 100 3800 5.1 100 22:56 16.11.2019
4260 Rain 7 1008 100 6000 5.7 100 22:38 16.11.2019
4261 Rain 7 1008 100 6000 5.7 100 22:18 16.11.2019
4262 Rain 7 1008 93 7000 5.1 110 21:41 16.11.2019
4263 Drizzle 7 1009 93 10000 6.2 110 21:23 16.11.2019
4264 Rain 7 1009 93 10000 7.2 110 20:58 16.11.2019
4265 Rain 7 1009 93 10000 7.2 110 20:39 16.11.2019
4266 Rain 7 1009 93 7000 7.2 110 20:19 16.11.2019
4267 Rain 7 1010 93 9000 8.2 110 19:56 16.11.2019
4268 Rain 7 1010 93 6000 7.2 100 19:37 16.11.2019
4269 Rain 7 1010 93 6000 7.2 100 19:19 16.11.2019
4270 Rain 7 1010 93 6000 5.7 100 18:43 16.11.2019
4271 Rain 7 1010 93 9000 6.2 90 18:25 16.11.2019
4272 Rain 7 1011 87 10000 5.1 90 17:56 16.11.2019
4273 Rain 7 1011 87 10000 5.1 90 17:56 16.11.2019
4274 Clouds 7 1011 87 10000 5.1 80 17:37 16.11.2019
4275 Clouds 7 1011 87 10000 5.1 80 17:18 16.11.2019
4276 Clouds 7 1012 87 10000 5.1 90 16:45 16.11.2019
4277 Clouds 7 1012 87 10000 5.1 90 16:27 16.11.2019
4278 Clouds 7 1012 87 10000 5.1 90 15:56 16.11.2019
4279 Clouds 7 1012 87 10000 4.6 70 15:37 16.11.2019
4280 Clouds 7 1012 87 10000 4.6 70 15:19 16.11.2019
4281 Clouds 7 1013 87 10000 3.6 80 14:41 16.11.2019
4282 Clouds 7 1013 87 10000 4.1 80 14:22 16.11.2019
4283 Clouds 7 1013 87 10000 4.1 80 14:22 16.11.2019
4284 Clouds 7 1013 87 10000 4.1 80 13:57 16.11.2019
4285 Clouds 7 1014 87 10000 4.1 80 13:39 16.11.2019
4286 Clouds 7 1014 87 10000 4.1 80 13:19 16.11.2019
4287 Clouds 7 1015 87 10000 4.1 100 12:59 16.11.2019
4288 Clouds 7 1015 87 10000 4.1 100 12:40 16.11.2019
4289 Clouds 7 1015 93 10000 5.1 100 12:20 16.11.2019
4290 Clouds 7 1015 93 10000 5.1 100 11:46 16.11.2019
4291 Mist 6 1015 93 9000 4.6 90 11:28 16.11.2019
4292 Mist 6 1016 100 7000 5.1 90 10:58 16.11.2019
4293 Mist 6 1016 100 7000 5.1 90 10:39 16.11.2019
4294 Mist 6 1015 100 7000 5.7 80 10:21 16.11.2019
4295 Mist 6 1016 93 7000 5.7 90 09:45 16.11.2019
4296 Mist 6 1016 100 3300 3.6 80 09:22 16.11.2019
4297 Drizzle 6 1016 100 2400 4.6 80 08:59 16.11.2019
4298 Drizzle 6 1016 100 2400 4.6 80 08:40 16.11.2019
4299 Mist 6 1017 100 4300 4.6 70 08:19 16.11.2019
4300 Mist 6 1017 100 4400 4.1 70 07:43 16.11.2019
4301 Mist 6 1017 100 4400 4.1 70 07:43 16.11.2019
4302 Mist 6 1017 93 5000 5.1 70 07:21 16.11.2019
4303 Rain 6 1017 93 10000 4.6 70 06:56 16.11.2019
4304 Rain 6 1017 87 10000 4.1 70 06:34 16.11.2019
4305 Rain 5 1018 87 10000 4.1 80 05:42 16.11.2019
4306 Clouds 5 1018 87 10000 4.1 80 04:20 16.11.2019
4307 Clouds 5 1018 87 10000 4.1 80 04:20 16.11.2019
4308 Rain 5 1018 93 10000 3.6 70 03:26 16.11.2019
4309 Clouds 4 1020 93 10000 2.6 30 02:21 16.11.2019
4310 Clouds 4 1020 100 10000 2.6 40 01:27 16.11.2019
4311 Clouds 4 1021 100 10000 3.6 40 00:46 16.11.2019
4312 Clouds 4 1021 100 7000 3.6 50 00:27 16.11.2019
4313 Mist 4 1021 100 5000 3.1 40 23:40 15.11.2019
4314 Mist 3 1022 100 5000 2.6 40 23:21 15.11.2019
4315 Mist 3 1022 100 5000 3.1 20 22:58 15.11.2019
4316 Clouds 3 1022 100 3200 3.1 20 22:39 15.11.2019
4317 Clouds 3 1022 100 3200 3.1 20 22:19 15.11.2019
4318 Mist 3 1023 100 1200 3.1 20 21:54 15.11.2019
4319 Fog 3 1023 100 900 3.1 20 21:36 15.11.2019
4320 Fog 3 1023 100 900 3.1 20 21:18 15.11.2019
4321 Mist 3 1023 100 1500 2.1 40 20:55 15.11.2019
4322 Mist 3 1023 100 1500 2.1 40 20:37 15.11.2019
4323 Mist 3 1024 100 1800 2.6 50 20:18 15.11.2019
4324 Mist 3 1024 100 1500 3.1 60 19:56 15.11.2019
4325 Mist 3 1024 100 1500 3.1 60 19:36 15.11.2019
4326 Mist 3 1024 100 2500 2.6 60 19:18 15.11.2019
4327 Mist 3 1024 100 3500 2.6 50 18:42 15.11.2019
4328 Mist 2 1024 100 3500 2.6 50 18:23 15.11.2019
4329 Mist 3 1024 100 3000 2.6 40 17:55 15.11.2019
4330 Mist 2 1024 100 3000 2.6 40 17:55 15.11.2019
4331 Mist 2 1024 100 3000 2.6 40 17:37 15.11.2019
4332 Mist 2 1024 100 2500 3.1 20 17:19 15.11.2019
4333 Mist 3 1024 100 3300 3.6 20 16:40 15.11.2019
4334 Mist 3 1024 100 3300 3.6 20 16:40 15.11.2019
4335 Mist 3 1024 100 2500 2.6 30 16:22 15.11.2019
4336 Mist 3 1025 100 2500 2.6 20 15:59 15.11.2019
4337 Mist 3 1025 100 3000 3.1 50 15:36 15.11.2019
4338 Mist 3 1025 100 3000 3.1 50 15:18 15.11.2019
4339 Mist 3 1025 100 4500 2.6 50 14:55 15.11.2019
4340 Mist 3 1025 100 4500 2.6 50 14:37 15.11.2019
4341 Mist 3 1025 100 4500 2.6 50 14:37 15.11.2019
4342 Mist 3 1025 100 4400 2.6 50 14:18 15.11.2019
4343 Mist 3 1025 93 6000 3.1 60 13:54 15.11.2019
4344 Mist 3 1025 93 6000 3.1 60 13:54 15.11.2019
4345 Mist 4 1025 93 6000 3.1 60 13:36 15.11.2019
4346 Mist 4 1025 93 5000 2.6 60 13:18 15.11.2019
4347 Mist 3 1025 100 5000 2.6 40 12:56 15.11.2019
4348 Mist 3 1025 100 5000 2.6 40 12:37 15.11.2019
4349 Mist 3 1025 100 6000 2.1 50 12:18 15.11.2019
4350 Mist 3 1025 100 3500 2.1 40 11:40 15.11.2019
4351 Mist 3 1024 100 3500 2.1 60 11:21 15.11.2019
4352 Mist 3 1024 93 4500 2.1 70 10:59 15.11.2019
4353 Mist 4 1024 93 4500 2.1 70 10:39 15.11.2019
4354 Mist 3 1024 100 4400 1.5 20 10:20 15.11.2019
4355 Mist 3 1024 100 4000 1.5 20 09:41 15.11.2019
4356 Mist 3 1024 100 4700 1.5 0 09:21 15.11.2019
4357 Mist 3 1024 100 4300 0.5 0 08:58 15.11.2019
4358 Mist 3 1024 100 4300 0.5 0 08:39 15.11.2019
4359 Mist 2 1023 100 4000 1 0 08:20 15.11.2019
4360 Mist 2 1023 100 7000 1.5 0 07:42 15.11.2019
4361 Clouds 3 1023 100 10000 1 0 07:23 15.11.2019
4362 Clouds 3 1023 100 10000 1.5 160 06:36 15.11.2019
4363 Clouds 3 1023 93 10000 0.5 160 05:54 15.11.2019
4364 Clouds 3 1023 93 10000 0.5 160 05:35 15.11.2019
4365 Clear 3 1023 93 10000 1 200 04:53 15.11.2019
4366 Mist 3 1022 100 5000 1.5 150 03:39 15.11.2019
4367 Clear 4 1021 93 10000 0.97 121 02:34 15.11.2019
4368 Clouds 4 1021 100 10000 0.88 203 01:55 15.11.2019
4369 Clouds 4 1020 93 10000 1.5 240 01:32 15.11.2019
4370 Clouds 4 1020 93 10000 1.5 240 01:32 15.11.2019
4371 Clouds 4 1019 93 10000 1.5 240 00:40 15.11.2019
4372 Clouds 4 1019 93 10000 1.5 270 00:21 15.11.2019
4373 Clouds 4 1019 93 10000 1.5 200 23:46 14.11.2019
4374 Clouds 4 1019 93 10000 1.5 200 23:26 14.11.2019
4375 Clouds 4 1017 100 10000 2.1 210 22:42 14.11.2019
4376 Clouds 4 1017 100 10000 2.1 210 22:22 14.11.2019
4377 Clouds 4 1017 93 10000 1 0 21:58 14.11.2019
4378 Clouds 4 1017 93 10000 1 0 21:40 14.11.2019
4379 Clouds 4 1017 93 10000 1 0 21:22 14.11.2019
4380 Clouds 4 1016 100 10000 2.1 220 20:55 14.11.2019
4381 Clouds 4 1016 100 10000 1.5 220 20:37 14.11.2019
4382 Clouds 4 1016 100 10000 1.5 220 20:18 14.11.2019
4383 Clouds 3 1016 100 10000 1 200 19:55 14.11.2019
4384 Clouds 3 1015 100 10000 1 0 19:36 14.11.2019
4385 Clouds 3 1015 100 10000 1 0 19:18 14.11.2019
4386 Clouds 3 1013 100 9000 1.5 0 18:42 14.11.2019
4387 Clouds 3 1013 100 9000 1.5 0 18:23 14.11.2019
4388 Clouds 3 1013 100 9000 1.5 0 17:57 14.11.2019
4389 Clouds 3 1013 100 10000 1.5 200 17:38 14.11.2019
4390 Clouds 3 1013 100 10000 1.5 200 17:20 14.11.2019
4391 Clouds 3 1012 100 10000 1.5 210 16:58 14.11.2019
4392 Clouds 3 1012 100 10000 1 240 16:37 14.11.2019
4393 Clouds 3 1012 100 10000 1 240 16:19 14.11.2019
4394 Clouds 3 1011 100 10000 1 300 15:58 14.11.2019
4395 Clouds 3 1011 100 10000 1 300 15:38 14.11.2019
4396 Clouds 3 1011 93 10000 1 0 15:20 14.11.2019
4397 Clouds 3 1010 100 10000 1.5 260 14:55 14.11.2019
4398 Clouds 3 1010 100 10000 1.5 260 14:55 14.11.2019
4399 Drizzle 3 1010 100 10000 2.1 290 14:37 14.11.2019
4400 Drizzle 3 1010 100 10000 2.1 290 14:18 14.11.2019
4401 Rain 3 1009 100 7000 2.6 280 13:41 14.11.2019
4402 Rain 3 1009 100 7000 2.6 280 13:22 14.11.2019
4403 Rain 3 1008 100 9000 3.6 280 12:57 14.11.2019
4404 Rain 3 1008 100 9000 3.6 280 12:38 14.11.2019
4405 Rain 3 1008 100 7000 2.6 300 12:19 14.11.2019
4406 Rain 3 1007 100 7000 3.1 320 11:55 14.11.2019
4407 Rain 4 1007 86 6000 3.1 330 11:36 14.11.2019
4408 Rain 4 1007 86 6000 3.1 330 11:18 14.11.2019
4409 Rain 4 1006 100 10000 2.6 310 10:41 14.11.2019
4410 Rain 4 1006 100 10000 2.6 300 10:21 14.11.2019
4411 Rain 4 1005 100 10000 2.6 300 09:59 14.11.2019
4412 Rain 4 1005 100 10000 2.6 300 09:41 14.11.2019
4413 Rain 3 1004 100 9000 1.5 320 09:23 14.11.2019
4414 Rain 3 1004 100 9000 1.5 320 08:49 14.11.2019
4415 Rain 3 1004 100 10000 2.1 340 08:28 14.11.2019
4416 Rain 3 1004 100 10000 1.5 0 07:59 14.11.2019
4417 Rain 3 1004 100 10000 1.5 0 07:38 14.11.2019
4418 Rain 3 1004 100 10000 1 0 07:20 14.11.2019
4419 Rain 3 1004 100 9000 1.5 10 06:45 14.11.2019
4420 Rain 3 1004 100 10000 1 0 06:19 14.11.2019
4421 Rain 3 1004 100 10000 1.5 0 04:49 14.11.2019
4422 Mist 3 1003 100 5000 2.1 340 04:27 14.11.2019
4423 Mist 3 1004 100 4500 1.5 330 02:49 14.11.2019
4424 Mist 3 1004 100 3300 1 40 02:28 14.11.2019
4425 Mist 3 1004 100 2600 0.5 20 01:34 14.11.2019
4426 Mist 3 1004 100 2400 0.5 50 00:55 14.11.2019
4427 Mist 3 1004 100 2300 1 50 00:34 14.11.2019
4428 Mist 3 1004 93 3300 1 50 23:58 13.11.2019
4429 Mist 3 1004 100 2500 1.25 21 23:37 13.11.2019
4430 Mist 3 1004 100 2500 0.67 311 23:18 13.11.2019
4431 Mist 3 1004 100 3200 0.5 360 22:41 13.11.2019
4432 Mist 4 1004 100 5000 0.5 10 22:22 13.11.2019
4433 Mist 4 1003 100 5000 0.67 311 21:57 13.11.2019
4434 Mist 4 1003 100 5000 0.67 311 21:39 13.11.2019
4435 Mist 4 1003 100 5000 0.67 311 21:20 13.11.2019
4436 Mist 4 1003 100 5000 0.5 0 20:58 13.11.2019
4437 Mist 4 1003 100 5000 0.5 0 20:38 13.11.2019
4438 Drizzle 5 1003 100 5000 1 0 20:19 13.11.2019
4439 Drizzle 5 1003 93 5000 0.79 201 19:58 13.11.2019
4440 Clouds 5 1003 100 7000 0.5 0 19:40 13.11.2019
4441 Clouds 5 1003 100 7000 0.5 0 19:18 13.11.2019
4442 Clouds 5 1003 100 8000 1 100 18:55 13.11.2019
4443 Clouds 5 1003 100 7000 0.5 340 18:36 13.11.2019
4444 Clouds 5 1003 100 7000 0.5 340 18:18 13.11.2019
4445 Clouds 5 1003 100 8000 0.79 201 17:56 13.11.2019
4446 Mist 5 1003 100 5000 0.79 201 17:36 13.11.2019
4447 Mist 5 1003 100 5000 1.14 153 17:18 13.11.2019
4448 Clouds 5 1002 100 8000 1.05 114 16:56 13.11.2019
4449 Clouds 5 1002 100 8000 0.5 300 16:37 13.11.2019
4450 Clouds 5 1002 100 8000 0.5 300 16:18 13.11.2019
4451 Clouds 5 1002 100 10000 1.14 153 15:55 13.11.2019
4452 Clouds 6 1002 93 10000 1.5 40 15:36 13.11.2019
4453 Clouds 6 1002 93 10000 1.5 40 15:18 13.11.2019
4454 Clouds 6 1003 93 9000 1.05 114 14:41 13.11.2019
4455 Clouds 6 1003 93 9000 2.52 79 14:20 13.11.2019
4456 Clouds 6 1003 93 9000 2.52 79 14:20 13.11.2019
4457 Clouds 6 1003 100 7000 1 0 13:38 13.11.2019
4458 Clouds 6 1003 100 7000 1 0 13:20 13.11.2019
4459 Clouds 6 1003 100 9000 1.5 30 12:58 13.11.2019
4460 Clouds 5 1003 100 9000 1.5 30 12:40 13.11.2019
4461 Clouds 5 1003 100 9000 1 30 12:21 13.11.2019
4462 Drizzle 5 1003 100 8000 1 0 11:55 13.11.2019
4463 Drizzle 5 1003 100 8000 1 0 11:36 13.11.2019
4464 Rain 5 1003 100 8000 1.5 60 11:18 13.11.2019
4465 Rain 5 1004 100 10000 1.5 70 10:54 13.11.2019
4466 Rain 5 1004 100 10000 1.5 70 10:36 13.11.2019
4467 Rain 5 1004 100 8000 1 50 10:18 13.11.2019
4468 Rain 5 1004 93 8000 0.5 350 09:40 13.11.2019
4469 Rain 5 1004 100 8000 1 100 09:20 13.11.2019
4470 Rain 5 1004 100 8000 1 100 09:20 13.11.2019
4471 Rain 5 1004 100 8000 1 100 08:41 13.11.2019
4472 Rain 4 1004 100 10000 1.85 139 08:22 13.11.2019
4473 Rain 4 1004 100 10000 1 90 07:57 13.11.2019
4474 Rain 4 1004 100 10000 1 90 07:38 13.11.2019
4475 Rain 4 1004 100 10000 1 0 07:18 13.11.2019
4476 Drizzle 3 1004 100 3100 1 90 06:40 13.11.2019
4477 Drizzle 3 1004 100 3100 1 90 06:18 13.11.2019
4478 Mist 3 1005 93 4000 1.85 139 05:46 13.11.2019
4479 Clouds 3 1005 100 9000 1.98 173 04:56 13.11.2019
4480 Clouds 3 1005 100 10000 1.5 130 03:51 13.11.2019
4481 Clouds 3 1006 93 9000 1.5 150 01:50 13.11.2019
4482 Clouds 3 1006 93 10000 2.1 140 01:25 13.11.2019
4483 Clouds 4 1006 100 10000 1.5 160 00:42 13.11.2019
4484 Clouds 4 1006 93 10000 1.5 160 23:56 12.11.2019
4485 Clouds 4 1006 93 10000 1.5 160 23:37 12.11.2019
4486 Clouds 4 1006 93 10000 2.1 140 23:18 12.11.2019
4487 Clouds 5 1006 86 10000 2.6 160 22:40 12.11.2019
4488 Clouds 5 1005 86 10000 2.6 190 22:18 12.11.2019
4489 Clouds 5 1005 87 10000 3.1 190 21:56 12.11.2019
4490 Clouds 6 1005 87 10000 3.6 190 21:36 12.11.2019
4491 Clouds 6 1005 87 10000 3.6 190 21:18 12.11.2019
4492 Clouds 6 1005 93 10000 3.6 180 20:55 12.11.2019
4493 Clouds 6 1004 93 10000 3.6 160 20:36 12.11.2019
4494 Clouds 6 1004 93 10000 3.6 160 20:18 12.11.2019
4495 Clouds 6 1004 93 10000 3.6 170 19:54 12.11.2019
4496 Clouds 6 1004 93 10000 3.6 170 19:36 12.11.2019
4497 Clouds 6 1004 93 10000 3.6 170 19:18 12.11.2019
4498 Drizzle 6 1004 93 10000 4.1 170 18:54 12.11.2019
4499 Drizzle 6 1004 93 7000 4.6 170 18:36 12.11.2019
4500 Drizzle 6 1004 93 7000 4.6 170 18:18 12.11.2019
4501 Rain 6 1004 93 8000 4.6 160 17:54 12.11.2019
4502 Rain 6 1004 93 8000 4.6 160 17:36 12.11.2019
4503 Rain 6 1004 87 10000 4.6 160 17:18 12.11.2019
4504 Rain 6 1004 93 5000 5.1 150 16:41 12.11.2019
4505 Rain 6 1004 93 7000 6.2 130 16:23 12.11.2019
4506 Rain 6 1005 93 8000 7.2 130 15:42 12.11.2019
4507 Rain 6 1005 93 5000 5.7 130 15:23 12.11.2019
4508 Rain 6 1005 87 10000 5.1 110 14:58 12.11.2019
4509 Clouds 6 1005 87 10000 5.1 110 14:39 12.11.2019
4510 Clouds 6 1006 87 10000 5.7 120 14:19 12.11.2019
4511 Clouds 6 1007 81 10000 6.7 130 13:58 12.11.2019
4512 Clouds 6 1007 81 10000 6.7 130 13:39 12.11.2019
4513 Drizzle 6 1007 81 10000 6.7 140 13:19 12.11.2019
4514 Clouds 6 1007 87 10000 6.2 130 12:55 12.11.2019
4515 Clouds 6 1007 87 10000 6.2 130 12:55 12.11.2019
4516 Clouds 6 1007 87 10000 6.2 130 12:37 12.11.2019
4517 Rain 6 1008 81 10000 6.2 130 12:18 12.11.2019
4518 Clouds 6 1008 70 10000 4.6 140 11:42 12.11.2019
4519 Clouds 6 1008 75 10000 4.6 140 11:22 12.11.2019
4520 Clouds 6 1008 81 10000 3.1 130 10:57 12.11.2019
4521 Clouds 6 1008 81 10000 3.1 130 10:39 12.11.2019
4522 Clouds 6 1009 81 10000 3.6 140 10:21 12.11.2019
4523 Clouds 6 1009 81 10000 3.6 120 09:57 12.11.2019
4524 Clouds 5 1009 81 10000 3.6 130 09:38 12.11.2019
4525 Clouds 5 1009 81 10000 3.6 130 09:18 12.11.2019
4526 Clouds 5 1009 80 10000 4.1 130 08:46 12.11.2019
4527 Clouds 5 1009 75 10000 3.6 150 08:27 12.11.2019
4528 Clouds 5 1009 75 10000 3.6 150 07:42 12.11.2019
4529 Clouds 5 1009 80 10000 6.2 140 07:23 12.11.2019
4530 Clouds 5 1010 80 10000 7.2 130 06:48 12.11.2019
4531 Clouds 5 1010 80 10000 5.7 130 06:23 12.11.2019
4532 Clouds 5 1010 80 10000 5.7 130 06:23 12.11.2019
4533 Clouds 5 1010 86 10000 5.1 120 05:49 12.11.2019
4534 Clouds 4 1010 100 10000 2.6 120 04:50 12.11.2019
4535 Clouds 3 1010 93 10000 2.1 130 03:53 12.11.2019
4536 Clouds 3 1010 93 10000 2.1 130 03:53 12.11.2019
4537 Clouds 4 1010 100 10000 2.1 140 01:50 12.11.2019
4538 Clouds 4 1011 93 10000 2.6 150 01:23 12.11.2019
4539 Clouds 4 1011 93 10000 3.1 150 00:52 12.11.2019
4540 Clouds 4 1010 93 10000 3.1 140 00:32 12.11.2019
4541 Clouds 5 1010 93 10000 3.1 150 23:48 11.11.2019
4542 Clouds 5 1010 93 10000 2.6 150 23:25 11.11.2019
4543 Rain 5 1010 100 10000 3.1 150 22:58 11.11.2019
4544 Rain 5 1010 100 10000 3.1 150 22:38 11.11.2019
4545 Clouds 5 1010 100 10000 2.6 150 22:19 11.11.2019
4546 Clouds 5 1010 93 10000 3.1 140 21:57 11.11.2019
4547 Clouds 5 1010 93 10000 3.1 140 21:38 11.11.2019
4548 Clouds 5 1009 93 10000 3.6 140 21:19 11.11.2019
4549 Rain 4 1010 100 10000 3.1 140 20:55 11.11.2019
4550 Rain 4 1010 100 10000 3.1 140 20:36 11.11.2019
4551 Rain 4 1010 93 10000 3.1 140 20:18 11.11.2019
4552 Clouds 4 1010 93 10000 3.1 130 19:41 11.11.2019
4553 Clouds 4 1010 93 10000 2.6 130 19:19 11.11.2019
4554 Clouds 4 1010 93 10000 2.6 140 18:57 11.11.2019
4555 Clouds 4 1010 93 10000 2.6 140 18:38 11.11.2019
4556 Clouds 3 1010 93 10000 3.1 130 18:19 11.11.2019
4557 Clouds 3 1010 100 10000 2.6 130 17:43 11.11.2019
4558 Rain 3 1010 100 10000 2.6 130 17:24 11.11.2019
4559 Clouds 3 1010 93 10000 3.6 130 16:45 11.11.2019
4560 Clouds 3 1010 93 10000 3.6 130 16:24 11.11.2019
4561 Clouds 3 1010 93 10000 3.6 120 15:59 11.11.2019
4562 Clouds 2 1010 93 10000 3.6 120 15:41 11.11.2019
4563 Clouds 2 1010 93 10000 4.6 110 15:20 11.11.2019
4564 Clouds 2 1010 93 10000 4.6 110 15:20 11.11.2019
4565 Clouds 2 1010 93 10000 4.1 110 14:54 11.11.2019
4566 Clouds 2 1010 93 10000 4.1 110 14:36 11.11.2019
4567 Clouds 2 1010 86 10000 3.6 100 14:18 11.11.2019
4568 Clouds 2 1011 93 10000 3.1 110 13:39 11.11.2019
4569 Clouds 2 1011 93 10000 3.1 130 13:21 11.11.2019
4570 Clouds 2 1011 93 10000 3.1 110 12:58 11.11.2019
4571 Clouds 2 1011 93 10000 3.1 110 12:58 11.11.2019
4572 Clouds 2 1011 93 10000 3.1 110 12:40 11.11.2019
4573 Clouds 1 1011 90 10000 2.6 120 12:22 11.11.2019
4574 Clouds 1 1012 90 10000 2.1 120 11:57 11.11.2019
4575 Clouds 1 1012 90 10000 2.1 120 11:38 11.11.2019
4576 Clouds 1 1012 87 10000 2.1 100 11:20 11.11.2019
4577 Snow 0 1012 87 8000 2.1 150 10:42 11.11.2019
4578 Snow 0 1012 87 8000 1 0 10:18 11.11.2019
4579 Clouds -1 1012 100 10000 2.1 80 09:56 11.11.2019
4580 Clouds -1 1012 100 10000 2.1 80 09:37 11.11.2019
4581 Clouds -1 1012 92 10000 1 0 09:18 11.11.2019
4582 Clouds -1 1012 92 10000 1 0 09:18 11.11.2019
4583 Clouds -1 1012 92 10000 1 40 08:40 11.11.2019
4584 Clouds -2 1012 100 10000 1 0 08:21 11.11.2019
4585 Clouds -2 1012 100 10000 1.5 30 07:57 11.11.2019
4586 Clouds -2 1012 100 10000 1.5 30 07:37 11.11.2019
4587 Clouds -2 1013 100 10000 1.5 340 07:18 11.11.2019
4588 Snow -2 1013 100 10000 1.5 0 06:47 11.11.2019
4589 Clouds -2 1013 100 10000 1.5 340 06:22 11.11.2019
4590 Clouds -2 1013 100 10000 1.5 0 05:51 11.11.2019
4591 Clouds -2 1013 92 10000 1 0 04:30 11.11.2019
4592 Clouds -2 1013 92 10000 1.5 0 03:23 11.11.2019
4593 Clouds -2 1013 92 10000 1.5 0 02:24 11.11.2019
4594 Clouds -2 1013 92 10000 1.5 0 02:24 11.11.2019
4595 Clouds -2 1013 92 10000 2.1 320 01:55 11.11.2019
4596 Clouds -2 1013 92 10000 2.1 310 01:34 11.11.2019
4597 Clouds -1 1013 100 10000 3.1 330 00:48 11.11.2019
4598 Clouds -1 1014 92 10000 2.1 320 00:20 11.11.2019
4599 Clouds -1 1014 92 10000 2.1 310 23:40 10.11.2019
4600 Clouds -1 1014 92 10000 2.1 310 23:40 10.11.2019
4601 Clouds -1 1014 92 10000 2.1 310 23:20 10.11.2019
4602 Clouds -1 1014 92 10000 2.1 290 22:58 10.11.2019
4603 Clouds -1 1014 92 10000 2.1 290 22:38 10.11.2019
4604 Clouds -1 1013 92 10000 2.6 310 22:20 10.11.2019
4605 Clouds -1 1014 92 10000 4.1 310 21:58 10.11.2019
4606 Clouds -1 1014 92 10000 4.1 310 21:58 10.11.2019
4607 Clouds -1 1014 92 10000 4.1 310 21:58 10.11.2019
4608 Clouds -1 1014 92 10000 4.1 310 21:39 10.11.2019
4609 Clouds -1 1014 92 10000 4.1 310 21:21 10.11.2019
4610 Clouds -1 1013 92 10000 2.6 300 20:56 10.11.2019
4611 Clouds -1 1013 92 10000 2.6 300 20:38 10.11.2019
4612 Clouds -1 1013 92 10000 4.1 300 20:20 10.11.2019
4613 Clouds -1 1013 92 10000 3.6 300 19:54 10.11.2019
4614 Clouds -1 1013 92 10000 3.6 300 19:36 10.11.2019
4615 Clouds -1 1013 92 10000 3.1 310 19:18 10.11.2019
4616 Snow -1 1013 92 10000 3.6 310 18:54 10.11.2019
4617 Snow -1 1013 92 10000 3.6 310 18:54 10.11.2019
4618 Snow -1 1013 92 10000 3.6 310 18:54 10.11.2019
4619 Snow -1 1013 92 10000 3.6 310 18:36 10.11.2019
4620 Clouds -1 1012 92 10000 4.6 310 18:18 10.11.2019
4621 Clouds -1 1012 92 10000 4.6 310 18:18 10.11.2019
4622 Clouds -1 1012 92 10000 5.1 310 17:55 10.11.2019
4623 Clouds -1 1012 92 10000 5.1 310 17:36 10.11.2019
4624 Clouds -1 1012 92 10000 5.1 310 17:18 10.11.2019
4625 Clouds -1 1012 92 10000 4.6 310 16:43 10.11.2019
4626 Clouds 0 1011 92 9000 6.2 300 16:25 10.11.2019
4627 Snow -1 1011 100 10000 5.1 300 15:56 10.11.2019
4628 Snow 0 1011 100 10000 5.1 300 15:37 10.11.2019
4629 Snow 0 1011 86 9000 5.7 300 15:18 10.11.2019
4630 Snow 0 1010 86 6000 5.1 300 14:56 10.11.2019
4631 Snow -1 1010 86 6000 5.1 300 14:38 10.11.2019
4632 Snow 0 1010 94 8000 5.1 310 14:20 10.11.2019
4633 Snow 1 1010 94 8000 5.1 310 13:45 10.11.2019
4634 Snow 1 1010 94 6000 5.1 310 13:22 10.11.2019
4635 Snow 1 1010 83 6000 5.1 310 13:22 10.11.2019
4636 Snow 1 1009 83 5000 5.1 310 13:00 10.11.2019
4637 Snow 1 1009 83 5000 5.1 310 12:41 10.11.2019
4638 Snow 1 1009 83 4000 5.7 320 12:19 10.11.2019
4639 Snow 1 1009 83 6000 4.6 310 11:55 10.11.2019
4640 Snow 1 1009 83 6000 4.6 310 11:55 10.11.2019
4641 Snow 1 1009 83 6000 4.6 310 11:55 10.11.2019
4642 Snow 1 1009 83 6000 4.6 310 11:37 10.11.2019
4643 Snow 1 1008 84 10000 5.7 310 11:19 10.11.2019
4644 Rain 2 1008 84 10000 5.7 310 10:42 10.11.2019
4645 Rain 2 1008 100 10000 5.7 310 10:21 10.11.2019
4646 Rain 2 1007 93 10000 5.7 330 09:57 10.11.2019
4647 Rain 2 1007 93 10000 5.7 330 09:39 10.11.2019
4648 Rain 3 1007 93 8000 5.7 330 09:19 10.11.2019
4649 Rain 3 1007 100 8000 5.7 330 08:39 10.11.2019
4650 Rain 3 1007 100 10000 5.7 330 08:20 10.11.2019
4651 Rain 3 1006 93 7000 5.7 330 07:46 10.11.2019
4652 Drizzle 3 1006 93 9000 5.1 330 07:27 10.11.2019
4653 Snow 3 1006 93 10000 5.7 330 06:59 10.11.2019
4654 Mist 3 1006 93 8000 5.7 330 05:57 10.11.2019
4655 Rain 3 1006 93 10000 5.1 340 03:33 10.11.2019
4656 Rain 3 1006 93 10000 5.1 340 02:30 10.11.2019
4657 Rain 3 1006 100 10000 4.6 350 01:37 10.11.2019
4658 Rain 3 1006 100 10000 4.1 350 01:18 10.11.2019
4659 Mist 3 1007 93 8000 4.1 360 00:25 10.11.2019
4660 Rain 3 1007 93 9000 5.1 350 23:42 09.11.2019
4661 Mist 3 1007 100 7000 4.6 350 23:19 09.11.2019
4662 Rain 3 1007 100 10000 5.1 340 22:43 09.11.2019
4663 Rain 3 1007 100 10000 4.1 340 22:23 09.11.2019
4664 Rain 3 1007 100 10000 5.1 350 21:58 09.11.2019
4665 Rain 3 1007 100 10000 5.1 350 21:40 09.11.2019
4666 Rain 3 1007 100 10000 3.6 360 21:21 09.11.2019
4667 Rain 3 1007 100 10000 4.1 350 20:56 09.11.2019
4668 Rain 3 1007 100 10000 4.1 350 20:38 09.11.2019
4669 Rain 3 1007 100 10000 4.6 350 20:20 09.11.2019
4670 Mist 3 1007 100 8000 4.6 360 19:54 09.11.2019
4671 Rain 4 1007 100 10000 4.1 350 19:36 09.11.2019
4672 Rain 4 1007 100 10000 4.1 350 19:18 09.11.2019
4673 Drizzle 4 1007 100 10000 3.6 360 18:39 09.11.2019
4674 Drizzle 4 1008 100 10000 3.1 360 18:19 09.11.2019
4675 Rain 4 1008 100 10000 3.1 360 17:56 09.11.2019
4676 Rain 4 1007 100 10000 3.6 10 17:37 09.11.2019
4677 Rain 4 1007 100 10000 3.6 10 17:18 09.11.2019
4678 Drizzle 4 1007 100 10000 3.1 10 16:42 09.11.2019
4679 Rain 4 1007 100 10000 3.6 20 16:21 09.11.2019
4680 Drizzle 4 1007 100 10000 3.6 10 15:55 09.11.2019
4681 Drizzle 4 1007 100 10000 3.6 10 15:37 09.11.2019
4682 Rain 4 1008 93 9000 4.1 10 15:19 09.11.2019
4683 Rain 4 1008 93 9000 4.1 10 14:41 09.11.2019
4684 Rain 4 1008 93 10000 4.1 10 14:21 09.11.2019
4685 Rain 4 1008 93 8000 4.1 10 13:57 09.11.2019
4686 Rain 4 1008 93 8000 4.1 10 13:37 09.11.2019
4687 Rain 4 1008 93 10000 3.6 10 13:19 09.11.2019
4688 Drizzle 4 1008 93 10000 3.1 10 12:50 09.11.2019
4689 Rain 4 1008 93 10000 3.6 360 12:29 09.11.2019
4690 Rain 4 1009 100 7000 3.1 10 11:57 09.11.2019
4691 Rain 4 1009 100 7000 3.1 10 11:39 09.11.2019
4692 Rain 4 1009 100 6000 3.1 10 11:19 09.11.2019
4693 Rain 4 1009 100 5000 3.1 20 10:42 09.11.2019
4694 Rain 4 1009 100 9000 3.1 30 10:20 09.11.2019
4695 Rain 4 1009 100 10000 3.1 30 09:59 09.11.2019
4696 Rain 4 1009 100 10000 3.1 30 09:41 09.11.2019
4697 Rain 4 1009 100 10000 3.1 20 09:20 09.11.2019
4698 Rain 4 1009 100 10000 3.6 20 08:43 09.11.2019
4699 Rain 4 1009 100 8000 2.1 20 08:24 09.11.2019
4700 Drizzle 4 1009 100 3400 2.1 10 07:55 09.11.2019
4701 Rain 4 1009 100 2500 1.5 10 07:37 09.11.2019
4702 Rain 4 1009 100 2500 1.5 10 07:18 09.11.2019
4703 Mist 4 1009 100 2400 2.1 20 06:42 09.11.2019
4704 Mist 4 1010 93 5000 2.1 20 06:23 09.11.2019
4705 Drizzle 4 1010 100 6000 1.5 10 05:39 09.11.2019
4706 Clouds 4 1010 100 10000 2.1 350 04:29 09.11.2019
4707 Mist 3 1011 100 7000 1.5 10 02:49 09.11.2019
4708 Mist 4 1011 93 6000 2.1 340 02:26 09.11.2019
4709 Mist 5 1011 100 5000 1.5 0 01:18 09.11.2019
4710 Mist 5 1011 100 5000 1.5 330 00:40 09.11.2019
4711 Mist 5 1011 100 5000 2.1 330 00:22 09.11.2019
4712 Mist 5 1011 93 6000 2.1 330 23:40 08.11.2019
4713 Mist 6 1011 93 3300 2.6 330 23:22 08.11.2019
4714 Mist 6 1010 100 2300 2.1 310 22:58 08.11.2019
4715 Mist 6 1010 100 2300 2.1 310 22:38 08.11.2019
4716 Mist 6 1010 93 3600 1.5 280 22:20 08.11.2019
4717 Clouds 6 1010 100 6000 2.1 260 21:42 08.11.2019
4718 Clouds 6 1010 93 7000 1 0 21:23 08.11.2019
4719 Clouds 6 1010 93 7000 1 0 21:23 08.11.2019
4720 Clouds 6 1010 100 8000 1.5 0 20:57 08.11.2019
4721 Clouds 6 1009 100 8000 1.5 0 20:39 08.11.2019
4722 Clouds 6 1009 100 8000 1.5 0 20:19 08.11.2019
4723 Clouds 6 1009 100 8000 1 130 19:54 08.11.2019
4724 Clouds 6 1009 100 8000 1 130 19:36 08.11.2019
4725 Clouds 6 1009 93 8000 1.5 160 19:18 08.11.2019
4726 Clouds 6 1009 100 10000 2.6 130 18:54 08.11.2019
4727 Clouds 6 1009 100 10000 2.6 130 18:36 08.11.2019
4728 Clouds 6 1009 100 10000 3.1 120 18:18 08.11.2019
4729 Drizzle 6 1009 93 10000 2.6 100 17:54 08.11.2019
4730 Drizzle 6 1009 93 10000 2.6 100 17:36 08.11.2019
4731 Clouds 5 1009 93 10000 2.6 90 17:18 08.11.2019
4732 Clouds 5 1009 93 10000 3.1 80 16:55 08.11.2019
4733 Clouds 5 1009 93 10000 3.1 80 16:37 08.11.2019
4734 Clouds 5 1010 100 10000 3.1 70 16:18 08.11.2019
4735 Clouds 5 1010 100 10000 3.1 70 15:41 08.11.2019
4736 Clouds 4 1010 100 10000 3.1 70 15:22 08.11.2019
4737 Clouds 4 1010 100 10000 3.1 70 15:22 08.11.2019
4738 Rain 4 1010 93 10000 3.6 50 14:57 08.11.2019
4739 Drizzle 4 1011 93 10000 3.6 70 14:38 08.11.2019
4740 Drizzle 4 1011 93 10000 3.6 70 14:20 08.11.2019
4741 Drizzle 4 1011 100 5000 4.1 60 13:58 08.11.2019
4742 Drizzle 4 1011 100 5000 4.1 60 13:39 08.11.2019
4743 Drizzle 4 1011 100 7000 3.6 60 13:21 08.11.2019
4744 Rain 4 1011 100 7000 2.6 40 12:45 08.11.2019
4745 Drizzle 4 1011 93 6000 2.6 50 12:27 08.11.2019
4746 Drizzle 4 1012 93 8000 2.1 50 11:58 08.11.2019
4747 Drizzle 4 1012 93 8000 2.1 50 11:40 08.11.2019
4748 Drizzle 4 1012 93 8000 2.1 50 11:21 08.11.2019
4749 Clouds 4 1012 100 10000 2.1 40 10:58 08.11.2019
4750 Clouds 4 1012 100 10000 2.1 40 10:40 08.11.2019
4751 Clouds 3 1012 100 10000 2.6 50 10:21 08.11.2019
4752 Clouds 2 1012 100 10000 2.1 40 09:56 08.11.2019
4753 Mist 2 1012 93 4000 2.1 20 09:37 08.11.2019
4754 Mist 2 1012 93 4000 2.1 20 09:18 08.11.2019
4755 Mist 2 1012 93 4000 2.1 20 09:18 08.11.2019
4756 Clouds 1 1012 100 10000 1.5 10 08:44 08.11.2019
4757 Clouds 1 1011 100 10000 1.5 0 08:20 08.11.2019
4758 Clouds 1 1011 100 10000 1.5 20 07:44 08.11.2019
4759 Clouds 1 1011 100 10000 1 0 07:23 08.11.2019
4760 Clouds 1 1011 100 8000 2.1 40 06:56 08.11.2019
4761 Mist 1 1011 100 6000 1.5 10 06:37 08.11.2019
4762 Mist 1 1011 100 6000 1.5 10 06:19 08.11.2019
4763 Mist 1 1010 100 6000 1 330 05:26 08.11.2019
4764 Mist 1 1010 100 6000 1 0 04:29 08.11.2019
4765 Mist 1 1010 100 9000 1 0 03:42 08.11.2019
4766 Rain 1 1010 93 10000 1 0 03:18 08.11.2019
4767 Mist 2 1010 93 6000 2.1 30 01:54 08.11.2019
4768 Mist 2 1010 93 6000 2.1 30 01:35 08.11.2019
4769 Rain 3 1009 100 10000 1.5 350 00:45 08.11.2019
4770 Rain 3 1009 100 10000 1.5 0 00:21 08.11.2019
4771 Rain 3 1009 100 10000 1.5 30 23:48 07.11.2019
4772 Clouds 3 1009 100 10000 1.5 0 23:27 07.11.2019
4773 Clouds 3 1009 100 10000 2.6 350 22:57 07.11.2019
4774 Clouds 3 1009 100 10000 2.6 350 22:39 07.11.2019
4775 Clouds 3 1009 100 10000 1.5 0 22:20 07.11.2019
4776 Clouds 3 1009 100 10000 1.5 350 21:39 07.11.2019
4777 Clouds 3 1009 100 10000 1.5 350 21:21 07.11.2019
4778 Clouds 2 1008 100 10000 1.5 10 20:59 07.11.2019
4779 Clouds 3 1008 100 10000 1.5 10 20:40 07.11.2019
4780 Drizzle 3 1008 100 10000 2.6 20 20:22 07.11.2019
4781 Clouds 3 1008 100 10000 2.6 10 19:58 07.11.2019
4782 Clouds 3 1008 100 10000 2.6 10 19:39 07.11.2019
4783 Clouds 2 1008 100 10000 2.6 10 19:20 07.11.2019
4784 Drizzle 3 1008 100 10000 2.6 10 18:57 07.11.2019
4785 Clouds 3 1008 100 10000 2.1 10 18:38 07.11.2019
4786 Clouds 3 1008 100 10000 2.1 10 18:38 07.11.2019
4787 Clouds 3 1008 100 10000 2.1 10 18:19 07.11.2019
4788 Clouds 2 1007 93 10000 2.1 20 17:56 07.11.2019
4789 Clouds 2 1007 93 10000 2.1 20 17:38 07.11.2019
4790 Clouds 2 1007 93 10000 2.6 10 17:20 07.11.2019
4791 Clouds 2 1007 93 10000 2.6 10 16:55 07.11.2019
4792 Clouds 2 1007 93 10000 2.1 360 16:37 07.11.2019
4793 Clouds 2 1007 93 10000 2.1 360 16:19 07.11.2019
4794 Clouds 2 1007 93 10000 2.6 10 15:42 07.11.2019
4795 Clouds 2 1007 93 10000 2.6 10 15:21 07.11.2019
4796 Clouds 2 1007 93 10000 3.1 10 14:58 07.11.2019
4797 Clouds 2 1007 93 10000 2.6 10 14:38 07.11.2019
4798 Clouds 2 1007 93 10000 2.6 360 14:20 07.11.2019
4799 Clouds 2 1007 93 10000 2.6 360 13:55 07.11.2019
4800 Drizzle 2 1007 93 10000 2.1 360 13:37 07.11.2019
4801 Drizzle 2 1007 93 10000 2.1 360 13:37 07.11.2019
4802 Clouds 2 1007 93 10000 2.6 350 13:19 07.11.2019
4803 Clouds 2 1007 93 10000 2.6 350 12:56 07.11.2019
4804 Clouds 2 1007 93 10000 2.6 350 12:38 07.11.2019
4805 Clouds 2 1006 93 10000 2.6 340 12:18 07.11.2019
4806 Clouds 2 1006 93 10000 2.6 350 11:42 07.11.2019
4807 Clouds 1 1006 86 10000 1.5 0 11:23 07.11.2019
4808 Clouds 1 1006 86 10000 2.1 360 10:43 07.11.2019
4809 Clouds 1 1006 86 10000 2.1 360 10:20 07.11.2019
4810 Clouds 1 1006 86 10000 1.5 10 09:57 07.11.2019
4811 Clouds 1 1006 86 10000 1.5 10 09:38 07.11.2019
4812 -273 0 0 0 0 0 09:20 07.11.2019
4813 Clouds 0 1005 86 10000 1 0 08:46 07.11.2019
4814 Clouds 0 1005 94 10000 1 0 08:25 07.11.2019
4815 Clouds 0 1005 94 10000 1 0 08:25 07.11.2019
4816 Clouds 0 1005 92 10000 2.1 350 07:59 07.11.2019
4817 Clouds 0 1005 92 10000 2.1 10 07:40 07.11.2019
4818 Clouds 0 1005 92 10000 2.1 10 07:21 07.11.2019
4819 Clouds -1 1005 92 10000 2.1 350 06:48 07.11.2019
4820 Clouds -1 1005 92 10000 1.5 340 06:27 07.11.2019
4821 Clouds -1 1004 92 10000 2.1 340 05:53 07.11.2019
4822 Clouds -1 1004 92 10000 1.5 350 05:34 07.11.2019
4823 -273 0 0 0 0 0 04:57 07.11.2019
4824 Clouds -1 1004 92 10000 1.5 10 04:38 07.11.2019
4825 Clouds -1 1004 86 10000 1.5 350 01:54 07.11.2019
4826 Clouds -2 1003 86 10000 1 0 00:47 07.11.2019
4827 Clouds -2 1003 86 10000 1.5 340 00:19 07.11.2019
4828 Clouds -1 1003 79 10000 2.1 350 23:47 06.11.2019
4829 Clouds 0 1003 79 10000 2.1 350 23:21 06.11.2019
4830 Clouds -1 1003 80 10000 2.6 360 22:56 06.11.2019
4831 Clouds -1 1003 80 10000 3.1 350 22:37 06.11.2019
4832 Clouds -1 1003 80 10000 3.1 350 22:37 06.11.2019
4833 Clouds -1 1003 80 10000 3.1 350 22:18 06.11.2019
4834 Clouds -1 1003 80 10000 3.1 350 22:18 06.11.2019
4835 Clouds -1 1003 80 10000 3.1 350 21:42 06.11.2019
4836 Clouds -1 1003 80 10000 3.1 350 21:21 06.11.2019
4837 Clouds -1 1003 77 10000 2.6 350 20:59 06.11.2019
4838 Clouds -1 1003 77 10000 2.6 10 20:40 06.11.2019
4839 Clouds -1 1003 77 10000 2.6 10 20:40 06.11.2019
4840 Clouds -1 1003 73 10000 2.1 10 20:21 06.11.2019
4841 Clouds 0 1003 73 10000 2.1 10 19:58 06.11.2019
4842 Clouds -1 1003 73 10000 2.6 20 19:39 06.11.2019
4843 Clouds 0 1002 73 10000 2.6 360 19:21 06.11.2019
4844 Clouds 0 1002 73 10000 2.6 360 18:58 06.11.2019
4845 Clouds 0 1002 73 10000 2.6 360 18:38 06.11.2019
4846 Clouds 0 1002 73 10000 2.6 360 18:19 06.11.2019
4847 Clouds 0 1002 64 10000 3.1 10 17:56 06.11.2019
4848 Clouds 0 1002 64 10000 3.1 10 17:37 06.11.2019
4849 Clouds 1 1002 59 10000 3.1 20 17:18 06.11.2019
4850 Clouds 1 1002 51 10000 3.1 20 16:54 06.11.2019
4851 Clouds 2 1002 47 10000 3.6 20 16:36 06.11.2019
4852 Clouds 2 1002 47 10000 3.6 20 16:18 06.11.2019
4853 Clouds 2 1002 44 10000 3.6 20 15:54 06.11.2019
4854 Clouds 2 1002 40 10000 3.1 20 15:36 06.11.2019
4855 Clouds 3 1002 40 10000 3.1 20 15:18 06.11.2019
4856 Clouds 3 1002 38 10000 4.6 30 14:55 06.11.2019
4857 Clouds 3 1002 41 10000 4.1 30 14:36 06.11.2019
4858 Clouds 4 1002 41 10000 4.1 30 14:18 06.11.2019
4859 Clouds 4 1002 47 10000 4.1 20 13:38 06.11.2019
4860 Clouds 3 1002 47 10000 4.1 20 13:20 06.11.2019
4861 Clouds 3 1002 51 10000 3.6 20 12:57 06.11.2019
4862 Clouds 3 1002 51 10000 3.6 20 12:39 06.11.2019
4863 Clouds 3 1002 59 10000 4.1 10 12:20 06.11.2019
4864 Clouds 3 1002 59 10000 4.1 20 11:58 06.11.2019
4865 Clouds 3 1002 59 10000 4.1 20 11:37 06.11.2019
4866 Clouds 3 1002 59 10000 4.1 20 11:18 06.11.2019
4867 Clouds 3 1002 59 10000 4.1 20 11:18 06.11.2019
4868 Clouds 2 1002 64 10000 3.6 20 10:56 06.11.2019
4869 Clouds 3 1002 64 10000 3.6 20 10:37 06.11.2019
4870 Clouds 2 1002 64 10000 3.1 10 10:19 06.11.2019
4871 Clouds 1 1002 68 10000 3.1 20 09:43 06.11.2019
4872 Clouds 1 1002 59 10000 3.6 20 09:43 06.11.2019
4873 Clouds 0 1002 68 10000 3.1 20 09:22 06.11.2019
4874 Clouds -1 1002 68 10000 3.6 20 08:58 06.11.2019
4875 Clouds -1 1002 68 10000 3.6 20 08:38 06.11.2019
4876 Clouds -1 1002 68 10000 3.6 20 08:20 06.11.2019
4877 Clouds -1 1002 68 10000 3.6 10 07:56 06.11.2019
4878 Clouds -1 1002 68 10000 3.6 10 07:37 06.11.2019
4879 Clouds -1 1002 68 10000 3.1 20 07:19 06.11.2019
4880 Clouds -1 1002 68 10000 2.6 20 06:42 06.11.2019
4881 Clouds -2 1002 74 10000 2.1 360 06:23 06.11.2019
4882 Clear -1 1002 74 10000 2.6 360 03:58 06.11.2019
4883 Clear -1 1002 80 10000 2.6 10 02:19 06.11.2019
4884 Clear -1 1002 80 10000 3.1 10 01:31 06.11.2019
4885 Clear -1 1002 66 10000 2.1 360 00:35 06.11.2019
4886 Clear -1 1002 80 10000 2.6 10 00:35 06.11.2019
4887 Clear -1 1002 66 10000 2.1 20 23:57 05.11.2019
4888 Clear 0 1002 66 10000 2.6 10 23:37 05.11.2019
4889 Clear 0 1002 63 10000 2.6 10 23:19 05.11.2019
4890 Clear 0 1002 63 10000 3.1 360 22:43 05.11.2019
4891 Clear 0 1002 63 10000 3.1 360 22:43 05.11.2019
4892 Clear 0 1002 63 10000 3.1 360 22:19 05.11.2019
4893 Clear 0 1002 63 10000 3.6 10 21:58 05.11.2019
4894 Clear 0 1002 63 10000 3.6 10 21:40 05.11.2019
4895 Clear 0 1002 63 10000 4.1 10 21:20 05.11.2019
4896 Clear 0 1002 74 10000 4.1 360 20:57 05.11.2019
4897 Clear 0 1002 74 10000 4.1 360 20:38 05.11.2019
4898 Clouds 0 1001 74 10000 4.1 360 20:20 05.11.2019
4899 Clouds 0 1001 65 10000 4.1 360 19:55 05.11.2019
4900 Clouds 0 1001 65 10000 3.6 350 19:37 05.11.2019
4901 Clouds 0 1001 65 10000 3.6 350 19:18 05.11.2019
4902 Clouds 1 1002 74 10000 4.1 350 18:56 05.11.2019
4903 Clouds 1 1001 80 10000 5.1 350 18:38 05.11.2019
4904 Clouds 1 1001 80 10000 5.1 350 18:19 05.11.2019
4905 Clouds 1 1001 80 10000 5.1 350 18:19 05.11.2019
4906 Clouds 1 1001 80 10000 5.1 350 17:54 05.11.2019
4907 Clouds 1 1001 80 10000 5.1 350 17:54 05.11.2019
4908 Clouds 1 1001 80 10000 5.1 360 17:36 05.11.2019
4909 Clouds 1 1001 80 10000 5.1 360 17:18 05.11.2019
4910 Clouds 2 1001 69 10000 4.6 360 16:41 05.11.2019
4911 Clouds 2 1001 69 10000 4.6 360 16:20 05.11.2019
4912 Clouds 2 1001 64 10000 5.1 360 15:55 05.11.2019
4913 Clouds 3 1001 64 10000 5.1 360 15:36 05.11.2019
4914 Clouds 3 1001 64 10000 5.7 10 15:18 05.11.2019
4915 Clouds 3 1001 64 10000 5.7 10 14:54 05.11.2019
4916 Clouds 3 1001 64 10000 5.7 10 14:36 05.11.2019
4917 Clouds 3 1001 60 10000 5.1 360 14:18 05.11.2019
4918 Clouds 4 1000 60 10000 5.1 360 13:42 05.11.2019
4919 Clouds 4 1000 60 10000 6.2 10 13:23 05.11.2019
4920 Clouds 4 1000 69 10000 4.6 10 12:41 05.11.2019
4921 Clouds 3 1000 69 10000 5.1 10 12:22 05.11.2019
4922 Clouds 3 1000 80 10000 4.1 360 11:58 05.11.2019
4923 Clouds 3 1000 80 10000 4.1 360 11:38 05.11.2019
4924 Clouds 3 1000 80 10000 4.6 10 11:20 05.11.2019
4925 Clouds 2 1000 86 10000 5.1 360 10:55 05.11.2019
4926 Clouds 2 1000 86 10000 5.1 360 10:37 05.11.2019
4927 Clouds 1 1000 86 10000 4.6 360 10:18 05.11.2019
4928 Clouds 1 1000 55 10000 4.6 360 09:54 05.11.2019
4929 Clouds 1 1000 55 10000 4.1 10 09:36 05.11.2019
4930 Clouds 0 1000 55 10000 4.1 10 09:18 05.11.2019
4931 Clear 1 1000 54 10000 3.1 10 08:38 05.11.2019
4932 Clear 0 1000 70 10000 4.6 360 08:19 05.11.2019
4933 Clear 0 1000 70 10000 5.1 360 07:55 05.11.2019
4934 Clear 0 1000 70 10000 5.1 360 07:37 05.11.2019
4935 Clear 0 1000 70 10000 4.6 360 07:19 05.11.2019
4936 Clear 0 1000 70 10000 5.1 350 06:43 05.11.2019
4937 Clear 0 1000 70 10000 5.1 350 06:43 05.11.2019
4938 Clear 0 1000 70 10000 4.1 20 05:51 05.11.2019
4939 Clear 0 1000 70 10000 4.1 20 05:22 05.11.2019
4940 Clear 0 1000 92 10000 2.6 20 04:25 05.11.2019
4941 Clear 0 1000 86 10000 2.6 10 03:49 05.11.2019
4942 Clear 0 1000 92 10000 4.6 20 02:44 05.11.2019
4943 Clear 1 1001 72 10000 4.6 20 01:59 05.11.2019
4944 Clear 0 1001 74 10000 4.6 20 00:50 05.11.2019
4945 Clear 0 1001 74 10000 3.6 20 00:29 05.11.2019
4946 Clear 0 1001 74 10000 3.6 20 23:56 04.11.2019
4947 Clear 1 1001 74 10000 3.6 20 23:37 04.11.2019
4948 Clear 1 1001 75 10000 3.6 20 23:18 04.11.2019
4949 Clear 1 1001 75 10000 3.6 20 22:41 04.11.2019
4950 Clear 1 1001 75 10000 4.1 10 22:23 04.11.2019
4951 Clear 1 1001 75 10000 4.1 10 22:23 04.11.2019
4952 Clear 1 1002 79 10000 4.1 20 21:56 04.11.2019
4953 Clear 1 1001 75 10000 3.6 10 21:37 04.11.2019
4954 Clear 1 1001 75 10000 3.6 10 21:19 04.11.2019
4955 Clear 1 1001 75 10000 3.1 20 20:58 04.11.2019
4956 Clear 1 1001 74 10000 3.6 20 20:39 04.11.2019
4957 Clear 1 1001 74 10000 3.6 20 20:21 04.11.2019
4958 Clouds 1 1001 69 10000 3.1 20 19:59 04.11.2019
4959 Clouds 1 1001 69 10000 3.1 20 19:40 04.11.2019
4960 Clouds 1 1001 69 10000 3.6 20 19:21 04.11.2019
4961 Clear 1 1001 69 10000 3.6 20 18:57 04.11.2019
4962 Clear 1 1001 69 10000 3.6 20 18:38 04.11.2019
4963 Clear 2 1001 59 10000 3.6 20 18:19 04.11.2019
4964 Clear 2 1001 59 10000 3.6 20 17:39 04.11.2019
4965 Clear 2 1001 59 10000 3.1 20 17:39 04.11.2019
4966 Clear 2 1001 59 10000 3.1 20 17:21 04.11.2019
4967 Clear 2 1001 55 10000 3.1 10 16:57 04.11.2019
4968 Clear 2 1001 55 10000 3.1 10 16:39 04.11.2019
4969 Clear 3 1001 55 10000 3.1 20 16:20 04.11.2019
4970 Clear 3 1001 51 10000 3.6 20 15:55 04.11.2019
4971 Clear 4 1000 51 10000 4.6 30 15:36 04.11.2019
4972 Clear 4 1000 51 10000 4.6 30 15:18 04.11.2019
4973 Clear 4 1000 48 10000 4.6 30 14:54 04.11.2019
4974 Clear 4 1000 48 10000 4.6 30 14:36 04.11.2019
4975 Clouds 5 1000 48 10000 5.1 30 14:18 04.11.2019
4976 Clear 5 1000 48 10000 5.1 30 13:42 04.11.2019
4977 Clear 5 1000 48 10000 5.1 30 13:22 04.11.2019
4978 Clear 5 1000 52 10000 5.7 50 12:59 04.11.2019
4979 Clear 5 1000 52 10000 5.7 50 12:41 04.11.2019
4980 Clear 4 1000 55 10000 5.1 30 12:22 04.11.2019
4981 Clear 4 1001 55 10000 4.1 30 11:57 04.11.2019
4982 Clear 4 1001 55 10000 4.1 30 11:38 04.11.2019
4983 Clear 4 1000 55 10000 4.6 30 11:20 04.11.2019
4984 Clear 3 1001 64 10000 4.1 30 10:44 04.11.2019
4985 Clear 3 1001 64 10000 4.1 30 10:25 04.11.2019
4986 Clear 3 1001 69 10000 4.1 30 09:47 04.11.2019
4987 Clear 2 1001 74 10000 3.1 20 09:29 04.11.2019
4988 Clear 2 1000 69 10000 3.6 20 08:59 04.11.2019
4989 Clear 2 1000 69 10000 3.6 20 08:41 04.11.2019
4990 Clouds 1 1000 69 10000 3.1 30 08:21 04.11.2019
4991 Clouds 1 1000 74 10000 4.1 20 07:45 04.11.2019
4992 Clouds 1 1000 74 10000 3.6 20 07:25 04.11.2019
4993 Clouds 1 1000 74 10000 3.6 20 06:59 04.11.2019
4994 Clouds 1 1000 74 10000 3.6 20 06:36 04.11.2019
4995 Clouds 1 1000 74 10000 3.6 30 05:59 04.11.2019
4996 Clouds 2 999 69 10000 3.6 30 04:50 04.11.2019
4997 Clouds 2 999 69 10000 3.6 20 04:24 04.11.2019
4998 Clouds 2 999 74 10000 3.1 20 02:59 04.11.2019
4999 Clouds 2 999 78 10000 4.1 20 01:22 04.11.2019
5000 Clouds 3 999 78 10000 3.6 20 00:51 04.11.2019
5001 Clouds 3 999 78 10000 3.6 20 00:21 04.11.2019
5002 Clouds 3 999 78 10000 3.1 20 23:56 03.11.2019
5003 Clouds 3 999 78 10000 3.1 20 23:36 03.11.2019
5004 Clouds 3 999 78 10000 3.6 20 23:18 03.11.2019
5005 Clouds 3 999 78 10000 3.6 30 22:54 03.11.2019
5006 Clouds 3 999 78 10000 3.6 30 22:36 03.11.2019
5007 Clouds 3 999 78 10000 3.1 20 22:18 03.11.2019
5008 Clouds 3 998 78 10000 3.1 20 21:41 03.11.2019
5009 Clouds 3 998 78 10000 4.1 20 21:21 03.11.2019
5010 Clouds 3 998 78 10000 4.1 20 21:21 03.11.2019
5011 Clouds 3 998 74 10000 3.6 20 20:56 03.11.2019
5012 Clouds 3 998 74 10000 3.6 20 20:37 03.11.2019
5013 Clouds 3 998 74 10000 4.1 30 20:18 03.11.2019
5014 Clouds 3 998 74 10000 4.1 30 20:18 03.11.2019
5015 Clouds 3 998 83 10000 4.1 30 19:56 03.11.2019
5016 Clouds 3 998 83 10000 4.1 30 19:38 03.11.2019
5017 Clouds 3 998 83 10000 4.1 30 19:19 03.11.2019
5018 Clouds 3 997 83 10000 4.6 30 18:39 03.11.2019
5019 Clouds 3 997 86 10000 4.6 30 18:19 03.11.2019
5020 Clouds 3 997 80 10000 4.1 30 17:59 03.11.2019
5021 Clouds 3 997 80 10000 4.1 30 17:40 03.11.2019
5022 Clouds 3 997 80 10000 4.1 20 17:19 03.11.2019
5023 Clouds 3 997 80 10000 3.6 30 16:56 03.11.2019
5024 Clouds 3 997 80 10000 3.1 20 16:38 03.11.2019
5025 Clouds 4 997 80 10000 3.1 20 16:19 03.11.2019
5026 Clouds 4 997 80 10000 2.6 20 15:56 03.11.2019
5027 Clouds 4 997 80 10000 2.1 30 15:38 03.11.2019
5028 Clouds 4 997 80 10000 2.1 30 15:20 03.11.2019
5029 Clouds 4 996 80 10000 3.1 20 14:41 03.11.2019
5030 Clouds 4 996 86 10000 3.6 20 14:19 03.11.2019
5031 Clouds 4 996 86 10000 3.6 20 14:19 03.11.2019
5032 Clouds 4 996 72 10000 3.6 20 13:56 03.11.2019
5033 Clouds 4 996 72 10000 3.6 20 13:37 03.11.2019
5034 Clouds 4 996 73 10000 3.6 20 13:18 03.11.2019
5035 Clouds 4 996 73 10000 3.6 20 13:18 03.11.2019
5036 Clouds 4 996 73 10000 3.6 30 12:38 03.11.2019
5037 Clouds 4 996 73 10000 3.1 10 12:19 03.11.2019
5038 Clouds 3 996 73 10000 3.6 10 11:56 03.11.2019
5039 Clouds 3 996 73 10000 3.6 10 11:56 03.11.2019
5040 Clouds 3 996 73 10000 3.6 10 11:38 03.11.2019
5041 Clouds 3 996 77 10000 3.1 10 11:19 03.11.2019
5042 Clouds 3 996 77 10000 3.1 360 10:42 03.11.2019
5043 Clouds 3 996 86 10000 3.1 360 10:22 03.11.2019
5044 Clouds 3 995 93 10000 3.1 350 09:58 03.11.2019
5045 Clouds 3 995 93 10000 3.1 350 09:40 03.11.2019
5046 Clouds 2 995 93 10000 3.6 350 09:22 03.11.2019
5047 Clouds 2 995 93 10000 3.1 350 08:48 03.11.2019
5048 Clouds 2 995 93 10000 2.1 360 08:25 03.11.2019
5049 Clouds 2 994 93 10000 2.6 360 07:47 03.11.2019
5050 Clouds 2 994 100 10000 3.1 360 07:29 03.11.2019
5051 Clouds 2 993 93 10000 3.6 350 06:54 03.11.2019
5052 Clouds 3 993 93 10000 3.1 350 06:35 03.11.2019
5053 Clouds 3 993 93 10000 3.1 350 05:40 03.11.2019
5054 Clouds 3 993 93 10000 4.1 350 05:18 03.11.2019
5055 Clouds 3 993 86 10000 2.1 10 04:45 03.11.2019
5056 Clouds 4 992 93 10000 2.6 350 03:39 03.11.2019
5057 Clouds 4 992 93 10000 3.1 340 02:46 03.11.2019
5058 Clouds 5 992 100 10000 3.1 350 02:21 03.11.2019
5059 Clouds 5 992 100 10000 3.1 350 02:21 03.11.2019
5060 Clouds 5 992 93 10000 2.6 350 01:44 03.11.2019
5061 Mist 5 992 93 9000 3.1 350 01:21 03.11.2019
5062 Mist 5 991 93 9000 2.6 360 00:46 03.11.2019
5063 Mist 5 991 93 8000 2.1 360 00:28 03.11.2019
5064 Clouds 5 991 93 10000 2.6 20 23:58 02.11.2019
5065 Clouds 5 991 93 10000 2.6 20 23:39 02.11.2019
5066 Mist 5 991 100 9000 3.1 10 23:19 02.11.2019
5067 Mist 5 991 100 6000 3.1 10 22:56 02.11.2019
5068 Mist 5 991 100 6000 3.1 10 22:56 02.11.2019
5069 Mist 5 991 100 6000 2.6 360 22:38 02.11.2019
5070 Mist 5 991 100 6000 2.6 360 22:19 02.11.2019
5071 Mist 5 991 100 6000 2.6 360 22:19 02.11.2019
5072 Mist 5 991 100 4400 3.1 360 21:56 02.11.2019
5073 Mist 6 991 100 4400 3.1 360 21:38 02.11.2019
5074 Mist 6 991 100 2800 2.6 360 21:18 02.11.2019
5075 Mist 6 991 100 2800 2.6 360 21:18 02.11.2019
5076 Mist 5 991 100 4800 3.1 350 20:59 02.11.2019
5077 Mist 5 991 100 4800 3.1 350 20:39 02.11.2019
5078 Mist 6 991 93 2900 1.5 350 20:20 02.11.2019
5079 Mist 6 991 93 2900 1.5 350 20:20 02.11.2019
5080 Mist 5 991 100 2400 1.5 340 19:55 02.11.2019
5081 Mist 5 991 100 2400 1.5 340 19:36 02.11.2019
5082 Mist 6 991 93 2100 1.5 340 19:18 02.11.2019
5083 Mist 6 991 93 2100 1.5 340 19:18 02.11.2019
5084 Mist 6 991 93 2800 1.5 340 18:42 02.11.2019
5085 Mist 6 991 93 2800 0.5 0 18:24 02.11.2019
5086 Mist 6 991 100 2700 1 40 17:59 02.11.2019
5087 Mist 6 991 100 2700 1 40 17:40 02.11.2019
5088 Mist 6 991 100 2700 1 10 17:22 02.11.2019
5089 Mist 6 991 100 3400 1 60 16:58 02.11.2019
5090 Mist 6 991 100 3400 1 60 16:38 02.11.2019
5091 Mist 6 991 100 3400 1 60 16:38 02.11.2019
5092 Mist 6 992 100 2400 1 360 16:20 02.11.2019
5093 Mist 6 992 100 3000 0.5 360 15:42 02.11.2019
5094 Drizzle 6 992 93 3000 1 350 15:20 02.11.2019
5095 Clouds 6 992 93 8000 1.59 26 14:43 02.11.2019
5096 Clouds 6 992 93 8000 1.99 164 14:24 02.11.2019
5097 Drizzle 6 993 87 6000 1.5 0 13:58 02.11.2019
5098 Drizzle 6 993 87 6000 1.5 0 13:39 02.11.2019
5099 Clouds 6 993 87 10000 1.5 50 13:20 02.11.2019
5100 Clouds 7 993 87 10000 1.5 30 12:56 02.11.2019
5101 Clouds 7 993 87 10000 1.5 30 12:37 02.11.2019
5102 Clouds 7 994 87 10000 1.5 50 12:18 02.11.2019
5103 Clouds 6 994 87 10000 1.5 30 11:41 02.11.2019
5104 Clouds 6 994 87 10000 1.5 30 11:23 02.11.2019
5105 Clouds 6 995 87 8000 1 40 10:55 02.11.2019
5106 Clouds 6 995 93 10000 0.5 60 10:36 02.11.2019
5107 Clouds 5 995 93 10000 0.5 60 10:18 02.11.2019
5108 Clouds 5 996 100 10000 0.5 70 09:40 02.11.2019
5109 Clouds 5 996 100 8000 1 90 09:21 02.11.2019
5110 Clouds 5 997 93 8000 2 147 08:50 02.11.2019
5111 Mist 4 997 100 5000 2.07 141 08:23 02.11.2019
5112 Mist 5 997 100 4400 2.17 139 07:52 02.11.2019
5113 Mist 5 997 100 4400 2.17 139 07:33 02.11.2019
5114 Clouds 5 998 93 10000 1 40 06:59 02.11.2019
5115 Clouds 5 998 93 10000 1 40 06:41 02.11.2019
5116 Clouds 5 998 93 10000 1 90 06:20 02.11.2019
5117 Clouds 5 1000 93 10000 1.5 110 05:33 02.11.2019
5118 Clouds 5 1001 86 10000 2.6 140 04:23 02.11.2019
5119 Clouds 5 1001 93 10000 1.5 120 03:50 02.11.2019
5120 Clouds 5 1002 93 10000 2.1 110 02:50 02.11.2019
5121 Clouds 4 1003 93 10000 2.1 110 01:57 02.11.2019
5122 Clouds 4 1004 86 10000 2.1 120 01:27 02.11.2019
5123 Clouds 4 1005 86 10000 1.5 120 00:55 02.11.2019
5124 Clouds 4 1005 93 10000 1.5 130 00:28 02.11.2019
5125 Clouds 4 1006 93 10000 2.1 150 23:55 01.11.2019
5126 Clouds 4 1006 93 10000 2.1 150 23:37 01.11.2019
5127 Clouds 4 1006 93 10000 2.1 150 23:18 01.11.2019
5128 Clouds 4 1007 100 10000 1.5 140 22:41 01.11.2019
5129 Clouds 4 1007 100 10000 1.5 140 22:20 01.11.2019
5130 Clouds 4 1008 93 10000 1.5 150 21:42 01.11.2019
5131 Clouds 4 1008 93 10000 1.5 0 21:24 01.11.2019
5132 Clouds 4 1008 93 10000 1.5 160 20:59 01.11.2019
5133 Clouds 4 1008 93 10000 1.5 160 20:41 01.11.2019
5134 Clouds 4 1008 93 10000 1.5 160 20:21 01.11.2019
5135 Clouds 4 1009 100 10000 2.1 160 19:57 01.11.2019
5136 Clouds 4 1009 100 10000 2.1 150 19:39 01.11.2019
5137 Clouds 4 1009 100 10000 2.1 150 19:20 01.11.2019
5138 Clouds 4 1010 100 10000 1.5 150 18:40 01.11.2019
5139 Clouds 4 1010 93 10000 1.5 150 18:21 01.11.2019
5140 Clouds 4 1010 100 10000 1.5 0 17:56 01.11.2019
5141 Clouds 4 1010 100 10000 1.5 0 17:56 01.11.2019
5142 Clouds 3 1010 100 10000 1.5 0 17:38 01.11.2019
5143 Clouds 4 1011 100 10000 1 0 17:19 01.11.2019
5144 Clouds 4 1011 93 10000 2.1 160 16:38 01.11.2019
5145 Clouds 4 1011 93 10000 2.1 170 16:20 01.11.2019
5146 Clouds 4 1012 93 10000 1.5 180 15:55 01.11.2019
5147 Clouds 4 1012 93 10000 1.5 180 15:37 01.11.2019
5148 Clouds 4 1012 93 10000 1 0 15:19 01.11.2019
5149 Clouds 5 1012 93 10000 1.5 170 14:42 01.11.2019
5150 Clouds 5 1012 86 10000 1.5 0 14:24 01.11.2019
5151 Clouds 5 1013 86 10000 1.5 0 13:57 01.11.2019
5152 Clouds 5 1013 86 10000 2.1 190 13:38 01.11.2019
5153 Clouds 4 1013 86 10000 2.1 190 13:20 01.11.2019
5154 Clouds 5 1014 80 10000 2.6 200 12:43 01.11.2019
5155 Clouds 5 1014 80 10000 2.1 190 12:25 01.11.2019
5156 Clouds 4 1014 86 10000 1.5 190 11:59 01.11.2019
5157 Clouds 4 1014 86 10000 1.5 190 11:40 01.11.2019
5158 Clouds 3 1015 100 10000 1.5 190 11:22 01.11.2019
5159 Fog 2 1015 81 10000 1.5 196 10:42 01.11.2019
5160 Fog 1 1015 81 10000 1.5 196 10:22 01.11.2019
5161 Fog 1 1015 81 700 1 0 09:57 01.11.2019
5162 Fog 1 1015 81 700 1 0 09:38 01.11.2019
5163 Clouds 0 1015 100 10000 1 0 09:19 01.11.2019
5164 Clouds 0 1015 100 10000 0.5 0 08:43 01.11.2019
5165 Clouds -2 1016 100 10000 0.5 0 08:22 01.11.2019
5166 Fog -2 1016 100 2000 1.6 224 07:56 01.11.2019
5167 Fog -2 1016 100 2000 1.6 224 07:37 01.11.2019
5168 Fog -2 1016 100 1500 1.6 224 07:18 01.11.2019
5169 Mist -2 1016 100 300 1.6 224 06:41 01.11.2019
5170 Fog -2 1016 100 450 1.6 224 06:21 01.11.2019
5171 Clouds -2 1016 100 10000 1.6 224 05:43 01.11.2019
5172 Mist -1 1017 100 2500 0.5 0 03:42 01.11.2019
5173 Mist -2 1017 100 10000 1.5 268 02:49 01.11.2019
5174 Clear -1 1018 100 10000 0.5 0 01:28 01.11.2019
5175 Mist -1 1018 100 10000 1.71 280 00:39 01.11.2019
5176 Clear 0 1018 100 10000 1.71 280 00:18 01.11.2019
5177 Clear 0 1018 100 10000 1.71 280 23:42 31.10.2019
5178 Fog 0 1018 100 1200 2.05 306 23:22 31.10.2019
5179 Clouds 0 1018 100 10000 2.05 306 22:54 31.10.2019
5180 Clouds 1 1018 100 10000 2.05 306 22:36 31.10.2019
5181 Clouds 1 1018 100 10000 2.05 306 22:18 31.10.2019
5182 Clouds 1 1018 84 10000 1.5 280 21:41 31.10.2019
5183 Clouds 1 1018 84 10000 1.5 280 21:41 31.10.2019
5184 Clouds 1 1018 84 10000 2.05 306 21:20 31.10.2019
5185 Clouds 2 1018 84 10000 0.5 0 20:56 31.10.2019
5186 Clouds 2 1018 84 10000 0.5 0 20:37 31.10.2019
5187 Clouds 2 1018 86 10000 1.5 260 20:19 31.10.2019
5188 Clouds 2 1018 86 10000 2.1 250 19:40 31.10.2019
5189 Clouds 3 1018 80 10000 2.1 270 19:40 31.10.2019
5190 Clouds 3 1018 80 10000 2.1 270 19:21 31.10.2019
5191 Clouds 3 1018 80 10000 3.1 260 18:56 31.10.2019
5192 Clouds 3 1018 75 10000 3.1 260 18:37 31.10.2019
5193 Clouds 3 1018 75 10000 3.1 260 18:18 31.10.2019
5194 Clouds 4 1018 75 10000 2.6 260 17:41 31.10.2019
5195 Clear 4 1018 75 10000 3.1 260 17:21 31.10.2019
5196 Clear 4 1018 75 10000 2.6 250 16:57 31.10.2019
5197 Clear 4 1018 75 10000 2.6 250 16:39 31.10.2019
5198 Clear 5 1018 70 10000 2.6 250 16:20 31.10.2019
5199 Clear 6 1018 70 10000 3.6 260 15:54 31.10.2019
5200 Clear 6 1018 70 10000 3.6 260 15:36 31.10.2019
5201 Clear 7 1018 65 10000 3.6 260 15:18 31.10.2019
5202 Clear 7 1017 65 10000 4.1 260 14:41 31.10.2019
5203 Clouds 7 1017 65 10000 4.6 280 14:23 31.10.2019
5204 Clouds 7 1017 66 10000 4.6 270 13:59 31.10.2019
5205 Clouds 6 1017 66 10000 5.1 280 13:39 31.10.2019
5206 Clouds 6 1017 66 10000 5.1 280 13:20 31.10.2019
5207 Clouds 6 1017 66 10000 4.1 280 12:58 31.10.2019
5208 Clouds 6 1017 66 10000 4.1 280 12:38 31.10.2019
5209 Clouds 6 1017 66 10000 4.6 290 12:20 31.10.2019
5210 Clouds 5 1018 70 10000 4.1 290 11:46 31.10.2019
5211 Clouds 5 1017 75 10000 4.1 280 11:21 31.10.2019
5212 Clouds 5 1018 80 10000 4.6 270 10:59 31.10.2019
5213 Clouds 4 1018 80 10000 4.6 270 10:40 31.10.2019
5214 Clouds 4 1017 80 10000 3.6 260 10:21 31.10.2019
5215 Clouds 3 1017 86 10000 4.1 260 09:56 31.10.2019
5216 Clouds 2 1017 86 10000 4.1 260 09:38 31.10.2019
5217 Clouds 2 1017 86 10000 4.1 270 09:18 31.10.2019
5218 Clouds 2 1017 86 10000 3.6 260 08:46 31.10.2019
5219 Clouds 2 1017 86 10000 3.6 260 08:46 31.10.2019
5220 Clouds 2 1017 93 10000 3.1 260 08:26 31.10.2019
5221 Clouds 2 1017 78 10000 3.1 260 07:48 31.10.2019
5222 Clouds 2 1017 78 10000 2.6 280 07:28 31.10.2019
5223 Clouds 1 1017 78 10000 3.1 260 06:55 31.10.2019
5224 Clouds 1 1017 78 10000 3.1 260 06:32 31.10.2019
5225 Clouds 2 1017 93 10000 3.1 250 05:28 31.10.2019
5226 Clouds 2 1018 79 10000 2.6 250 03:21 31.10.2019
5227 Clouds 2 1019 93 10000 2.6 250 02:30 31.10.2019
5228 Clouds 3 1019 93 10000 3.1 250 01:25 31.10.2019
5229 Clouds 3 1019 93 10000 2.6 230 00:34 31.10.2019
5230 Clouds 3 1020 93 10000 2.6 220 23:53 30.10.2019
5231 Clouds 2 1020 100 10000 2.1 230 23:27 30.10.2019
5232 Clouds 3 1020 93 10000 2.6 220 22:43 30.10.2019
5233 Clouds 2 1021 93 10000 2.1 220 22:20 30.10.2019
5234 Clouds 3 1021 86 10000 2.1 220 21:55 30.10.2019
5235 Clouds 3 1021 86 10000 2.1 220 21:37 30.10.2019
5236 Clouds 3 1021 86 10000 2.1 220 21:37 30.10.2019
5237 Clouds 3 1021 93 10000 3.6 210 21:18 30.10.2019
5238 Clouds 3 1021 93 10000 3.1 210 20:58 30.10.2019
5239 Clouds 3 1021 93 10000 3.1 210 20:39 30.10.2019
5240 Clouds 3 1021 93 10000 3.1 210 20:39 30.10.2019
5241 Clouds 3 1021 93 10000 2.6 210 20:21 30.10.2019
5242 Clouds 2 1022 93 10000 2.6 210 19:57 30.10.2019
5243 Clouds 2 1022 93 10000 2.6 210 19:37 30.10.2019
5244 Clouds 2 1022 93 10000 2.1 210 19:19 30.10.2019
5245 Clouds 2 1023 93 10000 2.1 210 18:39 30.10.2019
5246 Clouds 3 1023 93 10000 1.5 200 18:20 30.10.2019
5247 Clouds 3 1023 92 10000 1.5 210 17:58 30.10.2019
5248 Clouds 2 1023 92 10000 1.5 210 17:40 30.10.2019
5249 Clouds 3 1023 85 10000 2.1 210 17:19 30.10.2019
5250 Clouds 3 1023 85 10000 2.1 210 16:55 30.10.2019
5251 Clouds 3 1024 85 10000 2.6 220 16:37 30.10.2019
5252 Clouds 3 1024 85 10000 2.6 220 16:19 30.10.2019
5253 Clouds 3 1024 85 10000 2.1 220 15:55 30.10.2019
5254 Clouds 4 1024 85 10000 2.1 220 15:37 30.10.2019
5255 Clouds 4 1024 85 10000 2.6 250 15:19 30.10.2019
5256 Clouds 5 1024 85 10000 5.1 250 14:42 30.10.2019
5257 Clouds 5 1024 70 10000 5.1 250 14:22 30.10.2019
5258 Clouds 5 1025 70 10000 5.1 240 13:58 30.10.2019
5259 Clouds 5 1025 70 10000 5.1 240 13:40 30.10.2019
5260 Clouds 5 1025 70 10000 4.6 230 13:20 30.10.2019
5261 Clouds 5 1025 70 10000 4.6 250 12:57 30.10.2019
5262 Clouds 5 1025 70 10000 4.6 250 12:38 30.10.2019
5263 Clouds 4 1025 65 10000 3.6 240 12:19 30.10.2019
5264 Clouds 4 1025 69 10000 2.6 200 11:41 30.10.2019
5265 Clouds 3 1026 69 10000 3.1 230 11:23 30.10.2019
5266 Clouds 3 1026 69 10000 3.1 230 11:23 30.10.2019
5267 Clouds 3 1026 74 10000 3.1 220 10:46 30.10.2019
5268 Clouds 2 1026 74 10000 2.6 210 10:27 30.10.2019
5269 Clouds 2 1026 80 10000 1.5 200 09:59 30.10.2019
5270 Clouds 1 1026 80 10000 1.5 200 09:39 30.10.2019
5271 Clouds 1 1026 86 10000 1.5 190 09:21 30.10.2019
5272 Clouds 0 1026 100 10000 2.1 210 08:42 30.10.2019
5273 Clouds 0 1026 100 10000 2.1 210 08:42 30.10.2019
5274 Clouds -1 1027 100 10000 1 220 08:22 30.10.2019
5275 Clouds -1 1027 100 10000 1.56 251 07:57 30.10.2019
5276 Clouds -2 1027 100 10000 1.56 251 07:37 30.10.2019
5277 Clouds -2 1027 100 10000 1.56 251 06:46 30.10.2019
5278 Clouds -2 1027 100 10000 0.5 160 06:27 30.10.2019
5279 Clouds -2 1027 100 10000 1.56 251 05:54 30.10.2019
5280 Clouds -2 1027 100 10000 1 290 05:35 30.10.2019
5281 Clouds -1 1027 92 10000 1.5 250 03:50 30.10.2019
5282 Clouds -1 1027 92 10000 1.5 280 03:21 30.10.2019
5283 Clouds -1 1027 92 10000 2.1 280 02:48 30.10.2019
5284 Clouds -1 1027 86 10000 2.1 290 01:43 30.10.2019
5285 Clouds 0 1026 86 10000 1.5 310 00:37 30.10.2019
5286 Clouds 0 1026 86 10000 1.5 310 00:18 30.10.2019
5287 Clouds 0 1026 82 10000 2.6 300 23:39 29.10.2019
5288 Clear 0 1026 83 10000 3.1 290 23:18 29.10.2019
5289 Clear 1 1025 80 10000 3.1 320 22:41 29.10.2019
5290 Clear 1 1025 80 10000 3.1 320 22:19 29.10.2019
5291 Clear 1 1025 80 10000 3.6 310 21:55 29.10.2019
5292 Clear 1 1025 80 10000 2.1 320 21:36 29.10.2019
5293 Clear 1 1025 80 10000 2.1 320 21:18 29.10.2019
5294 Clouds 2 1024 74 10000 2.1 320 20:42 29.10.2019
5295 Clouds 2 1024 74 10000 4.1 320 20:23 29.10.2019
5296 Clouds 3 1024 74 10000 3.1 320 19:59 29.10.2019
5297 Clouds 3 1024 74 10000 3.1 320 19:40 29.10.2019
5298 Clouds 3 1023 74 10000 3.6 320 19:21 29.10.2019
5299 Clouds 3 1023 69 10000 4.6 320 18:58 29.10.2019
5300 Clouds 3 1023 69 10000 4.6 320 18:40 29.10.2019
5301 Clouds 4 1022 69 10000 4.1 300 18:20 29.10.2019
5302 Clouds 4 1022 76 10000 4.1 320 17:57 29.10.2019
5303 Clouds 4 1022 76 10000 4.1 320 17:38 29.10.2019
5304 Clouds 4 1022 65 10000 5.7 310 17:20 29.10.2019
5305 Clouds 4 1021 65 10000 5.7 290 16:57 29.10.2019
5306 Clouds 5 1021 65 10000 6.2 290 16:38 29.10.2019
5307 Clouds 5 1021 65 10000 6.2 290 16:18 29.10.2019
5308 Clouds 5 1021 65 10000 7.7 290 15:42 29.10.2019
5309 Clouds 5 1021 60 10000 5.1 290 15:21 29.10.2019
5310 Clouds 5 1021 65 10000 6.7 290 14:57 29.10.2019
5311 Clouds 6 1021 65 10000 5.1 300 14:39 29.10.2019
5312 Clouds 5 1021 65 10000 5.1 300 14:21 29.10.2019
5313 Clear 5 1021 65 10000 5.1 290 13:57 29.10.2019
5314 Clear 5 1021 65 10000 5.1 280 13:37 29.10.2019
5315 Clear 5 1021 65 10000 5.1 280 13:18 29.10.2019
5316 Clear 5 1021 65 10000 4.6 290 12:42 29.10.2019
5317 Clear 5 1021 69 10000 4.6 290 12:24 29.10.2019
5318 Clear 4 1021 69 10000 3.6 290 11:55 29.10.2019
5319 Clear 4 1021 69 10000 4.1 320 11:36 29.10.2019
5320 Clear 4 1021 69 10000 4.1 320 11:18 29.10.2019
5321 Clear 3 1021 69 10000 4.6 310 10:56 29.10.2019
5322 Clear 3 1021 69 10000 4.6 310 10:37 29.10.2019
5323 Clear 3 1021 69 10000 4.6 310 10:19 29.10.2019
5324 Clear 2 1021 74 10000 4.6 310 09:41 29.10.2019
5325 Clear 2 1021 74 10000 4.6 310 09:41 29.10.2019
5326 Clear 2 1021 74 10000 4.6 310 09:41 29.10.2019
5327 Clear 2 1020 80 10000 3.6 310 09:23 29.10.2019
5328 Clear 2 1020 86 10000 4.1 310 08:55 29.10.2019
5329 Clear 1 1020 86 10000 4.1 310 08:36 29.10.2019
5330 Clouds 1 1020 86 10000 4.1 310 08:18 29.10.2019
5331 Clouds 1 1019 90 10000 3.1 300 07:47 29.10.2019
5332 Clouds 1 1019 90 10000 3.1 300 07:19 29.10.2019
5333 Clouds 1 1019 90 10000 3.1 300 06:52 29.10.2019
5334 Clouds 1 1018 86 10000 3.1 310 06:29 29.10.2019
5335 Clouds 1 1018 86 10000 3.6 310 05:53 29.10.2019
5336 Clouds 1 1018 86 10000 3.1 310 05:35 29.10.2019
5337 Clouds 1 1018 85 10000 3.1 310 04:34 29.10.2019
5338 Clouds 0 1017 86 10000 2.6 280 02:34 29.10.2019
5339 Clear 0 1017 84 10000 2.1 270 01:55 29.10.2019
5340 Clear 0 1017 92 10000 2.11 295 01:33 29.10.2019
5341 Clear 0 1017 92 10000 2.11 295 00:52 29.10.2019
5342 Clear -1 1017 100 10000 2.11 295 23:58 28.10.2019
5343 Clear -1 1017 100 10000 2.11 295 23:37 28.10.2019
5344 Clear -1 1017 92 10000 2.02 311 23:19 28.10.2019
5345 Clear -1 1017 92 10000 1 210 22:39 28.10.2019
5346 Clear -1 1017 92 10000 0.5 270 22:20 28.10.2019
5347 Clear -1 1016 86 10000 1.5 300 21:57 28.10.2019
5348 Clear 0 1016 86 10000 2.1 300 21:39 28.10.2019
5349 Clear 0 1016 86 10000 2.1 300 21:21 28.10.2019
5350 Clear 0 1016 86 10000 2.1 300 20:57 28.10.2019
5351 Clear 0 1016 86 10000 2.1 300 20:39 28.10.2019
5352 Clouds 0 1016 80 10000 2.6 290 20:20 28.10.2019
5353 Clouds 0 1016 80 10000 2.6 290 20:20 28.10.2019
5354 Clouds 1 1016 80 10000 2.1 280 19:54 28.10.2019
5355 Clouds 1 1016 80 10000 2.1 280 19:36 28.10.2019
5356 Clouds 1 1016 74 10000 3.1 280 19:18 28.10.2019
5357 Clouds 1 1016 80 10000 2.1 290 18:55 28.10.2019
5358 Clouds 1 1016 80 10000 2.1 290 18:36 28.10.2019
5359 Clouds 1 1015 74 10000 2.6 300 18:18 28.10.2019
5360 Clouds 2 1015 74 10000 3.1 300 17:54 28.10.2019
5361 Clouds 2 1015 74 10000 3.1 310 17:36 28.10.2019
5362 Clouds 2 1015 74 10000 3.1 310 17:18 28.10.2019
5363 Clouds 3 1015 74 10000 3.1 310 16:44 28.10.2019
5364 Clouds 3 1014 69 10000 3.6 310 16:24 28.10.2019
5365 Clouds 3 1014 64 10000 5.1 310 15:59 28.10.2019
5366 Clouds 4 1014 69 10000 5.1 320 15:40 28.10.2019
5367 Clouds 4 1014 69 10000 5.1 320 15:22 28.10.2019
5368 Clouds 4 1014 69 10000 5.7 320 14:58 28.10.2019
5369 Clouds 4 1014 69 10000 5.7 320 14:40 28.10.2019
5370 Clouds 4 1013 68 10000 5.1 310 14:19 28.10.2019
5371 Clouds 4 1013 68 10000 5.1 310 13:58 28.10.2019
5372 Clouds 4 1013 68 10000 5.1 310 13:40 28.10.2019
5373 Clouds 4 1013 68 10000 5.1 320 13:18 28.10.2019
5374 Clouds 4 1013 68 10000 4.6 310 12:43 28.10.2019
5375 Clouds 4 1013 68 10000 5.1 320 12:21 28.10.2019
5376 Clear 4 1012 68 10000 4.6 320 11:58 28.10.2019
5377 Clear 3 1012 68 10000 5.1 320 11:37 28.10.2019
5378 Clear 3 1012 75 10000 5.1 320 11:19 28.10.2019
5379 Clear 3 1012 75 10000 4.6 310 10:41 28.10.2019
5380 Clear 2 1011 75 10000 3.6 300 10:22 28.10.2019
5381 Clouds 2 1011 75 10000 3.6 310 09:58 28.10.2019
5382 Clouds 2 1011 75 10000 3.6 310 09:39 28.10.2019
5383 Clear 1 1011 75 10000 3.1 300 09:19 28.10.2019
5384 Clear 1 1010 75 10000 3.1 300 08:57 28.10.2019
5385 Clear 1 1010 75 10000 3.1 300 08:57 28.10.2019
5386 Clear 0 1010 76 10000 2.6 280 08:38 28.10.2019
5387 Clear 0 1010 84 10000 2.6 280 08:19 28.10.2019
5388 Clear 0 1009 84 10000 2.6 290 07:56 28.10.2019
5389 Clear -1 1009 84 10000 2.6 290 07:36 28.10.2019
5390 Clear -1 1009 84 10000 2.6 290 07:18 28.10.2019
5391 Clear -1 1009 84 10000 2.1 280 06:40 28.10.2019
5392 Clear -1 1008 84 10000 1.5 270 05:41 28.10.2019
5393 Mist -1 1007 89 9000 1.5 290 03:48 28.10.2019
5394 Clear 0 1007 100 10000 1.5 250 02:54 28.10.2019
5395 Clear 0 1007 89 10000 1.5 260 02:34 28.10.2019
5396 Clear 0 1007 100 10000 2.1 240 00:57 28.10.2019
5397 Clear 0 1007 100 10000 1.5 240 00:33 28.10.2019
5398 Clear 0 1007 100 10000 2.1 270 23:47 27.10.2019
5399 Clear 1 1006 93 10000 2.1 260 23:24 27.10.2019
5400 Clear 1 1006 100 10000 1.5 240 22:59 27.10.2019
5401 Clear 1 1006 100 10000 1.5 240 22:40 27.10.2019
5402 Clear 2 1006 86 10000 2.1 260 22:21 27.10.2019
5403 Clear 2 1006 86 10000 2.1 260 22:21 27.10.2019
5404 Clouds 2 1006 93 10000 2.6 250 21:57 27.10.2019
5405 Clouds 2 1006 93 10000 2.6 250 21:39 27.10.2019
5406 Clouds 2 1006 93 10000 2.6 250 21:39 27.10.2019
5407 Clouds 3 1006 93 10000 3.1 250 21:21 27.10.2019
5408 Clouds 3 1005 86 10000 3.1 260 20:57 27.10.2019
5409 Clouds 3 1005 86 10000 3.6 260 20:38 27.10.2019
5410 Clouds 3 1005 86 10000 3.6 260 20:20 27.10.2019
5411 Clouds 3 1005 86 10000 3.6 260 19:55 27.10.2019
5412 Clouds 3 1005 86 10000 4.1 260 19:36 27.10.2019
5413 Clouds 4 1005 86 10000 4.1 260 19:18 27.10.2019
5414 Clouds 4 1005 86 10000 3.1 260 18:55 27.10.2019
5415 Clouds 4 1004 86 10000 3.1 260 18:36 27.10.2019
5416 Clouds 4 1004 86 10000 3.1 260 18:18 27.10.2019
5417 Clouds 4 1003 93 10000 3.6 260 17:40 27.10.2019
5418 Clouds 4 1003 93 10000 3.6 260 17:20 27.10.2019
5419 Clouds 4 1003 93 10000 3.6 310 16:58 27.10.2019
5420 Clouds 4 1003 93 10000 3.6 310 16:39 27.10.2019
5421 Clouds 4 1002 93 10000 4.6 300 16:21 27.10.2019
5422 Clouds 4 1002 86 10000 5.1 270 15:56 27.10.2019
5423 Clouds 4 1002 86 10000 5.1 270 15:38 27.10.2019
5424 Clouds 4 1001 86 10000 4.6 270 15:19 27.10.2019
5425 Clouds 5 1001 86 10000 5.1 270 14:43 27.10.2019
5426 Clouds 4 1000 86 10000 5.7 270 14:21 27.10.2019
5427 Clouds 5 1000 86 10000 6.7 280 13:58 27.10.2019
5428 Clouds 5 1000 86 10000 6.7 280 13:39 27.10.2019
5429 Clouds 4 999 86 10000 6.7 280 13:21 27.10.2019
5430 Clouds 5 999 93 10000 4.1 290 12:57 27.10.2019
5431 Clouds 5 999 93 10000 4.1 290 12:38 27.10.2019
5432 Clouds 4 998 86 10000 4.6 310 12:19 27.10.2019
5433 Clouds 4 998 93 10000 5.1 300 11:41 27.10.2019
5434 Rain 4 997 93 10000 3.6 300 11:21 27.10.2019
5435 Rain 4 997 93 10000 2.6 290 10:45 27.10.2019
5436 Rain 4 997 93 10000 1.5 310 10:26 27.10.2019
5437 Rain 3 996 100 10000 3.1 320 09:58 27.10.2019
5438 Rain 3 996 100 10000 3.1 320 09:39 27.10.2019
5439 Rain 3 996 86 6000 3.6 320 09:19 27.10.2019
5440 Rain 4 996 93 9000 2.6 350 08:56 27.10.2019
5441 Rain 4 996 93 9000 2.6 350 08:37 27.10.2019
5442 Rain 4 996 100 10000 2.1 350 08:18 27.10.2019
5443 Rain 4 996 100 10000 2.1 350 08:18 27.10.2019
5444 Rain 4 996 100 10000 2.1 10 07:45 27.10.2019
5445 Rain 4 996 100 10000 1 0 07:24 27.10.2019
5446 Rain 4 997 93 10000 1 60 06:51 27.10.2019
5447 Rain 4 997 100 7000 0.5 0 06:27 27.10.2019
5448 Rain 4 997 100 8000 0.5 0 05:45 27.10.2019
5449 Rain 4 997 100 8000 0.5 0 05:45 27.10.2019
5450 Rain 4 999 100 10000 0.43 32 04:55 27.10.2019
5451 Clouds 4 1000 100 10000 0.43 32 03:24 27.10.2019
5452 Clouds 4 1001 100 10000 0.76 293 02:21 27.10.2019
5453 Clouds 4 1001 93 10000 0.5 0 01:54 27.10.2019
5454 Clouds 4 1002 100 10000 2.1 220 01:23 27.10.2019
5455 Clouds 4 1002 93 10000 0.5 0 00:51 27.10.2019
5456 Clouds 5 1002 93 10000 1.5 220 00:28 27.10.2019
5457 Drizzle 5 1003 93 10000 1 210 23:57 26.10.2019
5458 Clouds 5 1003 93 10000 1.5 220 23:38 26.10.2019
5459 Clouds 5 1003 93 10000 1.5 220 23:20 26.10.2019
5460 Clouds 5 1003 93 10000 1.5 230 22:56 26.10.2019
5461 Clouds 5 1003 93 10000 1.5 230 22:37 26.10.2019
5462 Clouds 5 1003 100 10000 2.6 240 22:18 26.10.2019
5463 Clouds 5 1003 100 10000 2.6 240 21:43 26.10.2019
5464 Clouds 5 1003 100 10000 2.1 230 21:22 26.10.2019
5465 Clouds 5 1003 93 10000 1.5 230 20:58 26.10.2019
5466 Clouds 5 1003 93 10000 1.5 230 20:38 26.10.2019
5467 Clouds 5 1003 93 10000 1.5 220 20:18 26.10.2019
5468 Clouds 5 1003 93 10000 1.5 260 19:42 26.10.2019
5469 Clouds 5 1003 93 10000 1.5 270 19:20 26.10.2019
5470 Clouds 5 1003 93 10000 1.5 270 19:20 26.10.2019
5471 Clouds 5 1002 93 10000 2.6 290 18:57 26.10.2019
5472 Clouds 5 1002 93 10000 2.6 290 18:39 26.10.2019
5473 Clouds 5 1002 100 10000 2.6 300 18:19 26.10.2019
5474 Clouds 5 1002 100 10000 3.1 300 17:56 26.10.2019
5475 Clouds 5 1001 100 10000 3.1 280 17:37 26.10.2019
5476 Clouds 5 1001 100 10000 3.1 280 17:19 26.10.2019
5477 Clouds 5 1001 100 9000 3.6 290 16:43 26.10.2019
5478 Drizzle 5 1001 100 3000 3.6 300 16:25 26.10.2019
5479 Drizzle 5 1001 100 3000 3.6 300 16:25 26.10.2019
5480 Drizzle 5 1000 100 3000 3.6 300 15:59 26.10.2019
5481 Drizzle 5 1000 100 3000 3.6 300 15:37 26.10.2019
5482 Mist 5 999 100 2300 3.6 310 15:18 26.10.2019
5483 Drizzle 5 999 100 3700 4.1 310 14:38 26.10.2019
5484 Clouds 6 998 93 10000 3.6 320 14:19 26.10.2019
5485 Rain 6 998 90 0 2.22 330 13:55 26.10.2019
5486 Rain 6 998 90 0 2.22 330 13:36 26.10.2019
5487 Clouds 6 996 100 10000 3.6 340 13:18 26.10.2019
5488 Drizzle 6 996 100 6000 2.6 340 12:42 26.10.2019
5489 Drizzle 7 995 100 3000 1.5 30 12:18 26.10.2019
5490 Drizzle 7 995 100 3000 1.5 30 11:45 26.10.2019
5491 Drizzle 7 995 100 3000 1.5 30 11:24 26.10.2019
5492 Drizzle 5 996 100 3000 2.6 80 10:46 26.10.2019
5493 Rain 5 997 93 4000 3.1 70 10:25 26.10.2019
5494 Rain 5 998 93 8000 4.1 90 09:49 26.10.2019
5495 Rain 4 999 100 8000 4.1 80 09:30 26.10.2019
5496 Rain 4 1000 93 7000 4.1 90 08:55 26.10.2019
5497 Rain 4 1000 93 7000 4.1 90 08:36 26.10.2019
5498 Rain 4 1001 93 8000 3.1 80 08:18 26.10.2019
5499 Rain 5 1002 93 10000 3.1 100 07:42 26.10.2019
5500 Rain 5 1003 93 10000 2.6 120 07:22 26.10.2019
5501 Rain 6 1006 81 10000 2.6 200 06:40 26.10.2019
5502 Rain 7 1006 75 10000 4.6 220 05:56 26.10.2019
5503 Clouds 7 1007 75 10000 3.1 200 05:19 26.10.2019
5504 Clouds 7 1008 70 10000 4.6 220 03:45 26.10.2019
5505 Clouds 7 1008 81 10000 4.1 230 02:33 26.10.2019
5506 Clouds 7 1008 81 10000 5.1 220 01:47 26.10.2019
5507 Clouds 8 1008 81 10000 5.7 230 00:52 26.10.2019
5508 Clouds 8 1008 81 10000 5.1 230 23:56 25.10.2019
5509 Clouds 8 1008 81 10000 5.1 230 23:37 25.10.2019
5510 Clouds 8 1007 87 10000 6.2 230 23:18 25.10.2019
5511 Clouds 8 1007 87 10000 5.1 230 22:39 25.10.2019
5512 Clouds 8 1007 81 10000 5.7 240 22:21 25.10.2019
5513 Clouds 9 1006 81 10000 5.1 240 21:56 25.10.2019
5514 Clouds 9 1006 81 10000 6.2 230 21:38 25.10.2019
5515 Clouds 9 1006 81 10000 6.2 230 21:19 25.10.2019
5516 Clouds 9 1006 81 10000 5.7 230 20:43 25.10.2019
5517 Clouds 10 1005 81 10000 5.7 230 20:20 25.10.2019
5518 Clouds 10 1005 76 10000 6.2 220 19:47 25.10.2019
5519 Clouds 10 1005 76 10000 6.2 220 19:47 25.10.2019
5520 Clouds 11 1004 71 10000 6.7 230 19:29 25.10.2019
5521 Clouds 11 1004 62 10000 7.2 230 18:58 25.10.2019
5522 Clouds 11 1004 62 10000 7.2 230 18:40 25.10.2019
5523 Clouds 12 1003 66 10000 5.7 230 18:20 25.10.2019
5524 Clouds 12 1003 66 10000 6.7 230 17:40 25.10.2019
5525 Clouds 12 1003 62 10000 6.7 230 17:20 25.10.2019
5526 Clouds 13 1003 62 10000 8.2 230 16:47 25.10.2019
5527 Clouds 13 1002 62 10000 8.7 230 16:23 25.10.2019
5528 Clouds 13 1002 66 10000 7.2 230 15:57 25.10.2019
5529 Clouds 13 1002 66 10000 7.2 230 15:39 25.10.2019
5530 Clouds 13 1002 66 10000 7.2 230 15:21 25.10.2019
5531 Clouds 13 1002 58 10000 7.7 240 14:43 25.10.2019
5532 Clouds 14 1002 62 10000 8.2 230 14:23 25.10.2019
5533 Clouds 14 1002 62 10000 8.2 230 14:23 25.10.2019
5534 Clouds 14 1000 58 10000 10.8 230 13:59 25.10.2019
5535 Clouds 14 1001 72 10000 5.1 210 13:39 25.10.2019
5536 Clouds 14 1001 82 10000 5.1 210 13:21 25.10.2019
5537 Clouds 14 1002 82 10000 5.7 200 12:54 25.10.2019
5538 Clouds 14 1002 82 10000 6.7 200 12:36 25.10.2019
5539 Clouds 14 1002 82 10000 6.7 200 12:18 25.10.2019
5540 Clouds 13 1002 87 10000 5.1 180 11:39 25.10.2019
5541 Clouds 13 1002 87 10000 5.1 180 11:39 25.10.2019
5542 Clouds 13 1002 87 10000 5.1 190 11:20 25.10.2019
5543 Clouds 12 1002 87 10000 5.1 190 10:42 25.10.2019
5544 Clouds 12 1002 87 10000 5.1 180 10:23 25.10.2019
5545 Clouds 12 1002 87 10000 5.1 200 09:59 25.10.2019
5546 Clouds 12 1002 87 10000 5.1 200 09:39 25.10.2019
5547 Clouds 12 1002 87 10000 4.1 190 09:20 25.10.2019
5548 Clouds 11 1002 93 9000 4.1 180 08:52 25.10.2019
5549 Clouds 11 1003 93 8000 3.6 190 08:33 25.10.2019
5550 Clouds 11 1003 93 6000 3.6 200 07:58 25.10.2019
5551 Clouds 11 1003 93 6000 3.6 200 07:40 25.10.2019
5552 Clouds 11 1003 93 6000 3.6 200 07:22 25.10.2019
5553 Mist 11 1003 93 6000 3.6 180 06:36 25.10.2019
5554 Mist 11 1003 93 6000 3.1 170 05:48 25.10.2019
5555 Mist 11 1003 93 3200 3.1 180 05:21 25.10.2019
5556 Mist 11 1005 93 6000 6.7 180 03:59 25.10.2019
5557 Mist 12 1005 93 9000 5.7 150 02:22 25.10.2019
5558 Clouds 12 1006 93 10000 5.1 150 01:51 25.10.2019
5559 Clouds 11 1007 87 10000 5.7 150 00:26 25.10.2019
5560 Clouds 11 1007 93 10000 5.1 140 23:41 24.10.2019
5561 Clouds 11 1008 93 10000 4.6 140 23:23 24.10.2019
5562 Clouds 11 1008 93 10000 4.1 140 22:57 24.10.2019
5563 Clouds 11 1008 93 10000 4.1 140 22:38 24.10.2019
5564 Clouds 11 1009 93 10000 4.6 140 22:19 24.10.2019
5565 Clouds 11 1009 93 10000 4.6 140 22:19 24.10.2019
5566 Clouds 11 1009 93 10000 4.1 140 21:57 24.10.2019
5567 Clouds 11 1009 93 10000 4.1 140 21:38 24.10.2019
5568 Clouds 11 1009 93 10000 4.1 140 21:38 24.10.2019
5569 Clouds 11 1010 93 10000 3.1 140 21:19 24.10.2019
5570 Clouds 11 1010 93 10000 3.6 130 20:57 24.10.2019
5571 Clouds 11 1010 93 10000 3.6 130 20:38 24.10.2019
5572 Clouds 11 1010 87 10000 3.6 150 20:20 24.10.2019
5573 Clouds 11 1010 87 9000 4.1 170 19:54 24.10.2019
5574 Clouds 11 1010 87 8000 4.1 160 19:36 24.10.2019
5575 Clouds 11 1010 87 8000 4.1 160 19:18 24.10.2019
5576 Clouds 11 1011 87 10000 3.1 160 18:40 24.10.2019
5577 Clouds 11 1011 87 10000 3.1 160 18:22 24.10.2019
5578 Clouds 11 1011 87 10000 4.1 160 17:59 24.10.2019
5579 Clouds 11 1011 87 10000 4.1 160 17:40 24.10.2019
5580 Clouds 11 1011 87 10000 4.6 160 17:20 24.10.2019
5581 Clouds 11 1011 87 10000 4.6 160 17:20 24.10.2019
5582 Clouds 11 1011 87 10000 4.1 170 16:55 24.10.2019
5583 Clouds 12 1011 87 10000 4.1 170 16:37 24.10.2019
5584 Clouds 12 1011 87 10000 5.1 170 16:19 24.10.2019
5585 Clouds 12 1012 87 10000 4.6 180 15:55 24.10.2019
5586 Clouds 12 1012 87 10000 4.6 180 15:37 24.10.2019
5587 Clouds 12 1012 87 10000 4.6 190 15:19 24.10.2019
5588 Clouds 12 1012 87 10000 4.6 190 14:44 24.10.2019
5589 Clouds 12 1012 87 10000 4.6 180 14:26 24.10.2019
5590 Clouds 11 1012 87 10000 3.6 190 13:59 24.10.2019
5591 Clouds 11 1012 87 10000 3.6 190 13:39 24.10.2019
5592 Clouds 11 1013 87 10000 4.1 180 13:19 24.10.2019
5593 Clouds 11 1013 93 10000 4.1 190 12:57 24.10.2019
5594 Clouds 10 1013 93 10000 4.1 190 12:38 24.10.2019
5595 Clouds 10 1013 87 10000 3.6 200 12:19 24.10.2019
5596 Clouds 10 1013 87 10000 4.1 200 11:56 24.10.2019
5597 Clouds 10 1013 87 10000 3.6 190 11:36 24.10.2019
5598 Clouds 10 1013 87 10000 3.6 190 11:36 24.10.2019
5599 Clouds 10 1013 87 10000 3.6 190 11:18 24.10.2019
5600 Clouds 9 1013 87 10000 2.6 180 10:42 24.10.2019
5601 Clouds 9 1013 87 10000 3.1 180 10:23 24.10.2019
5602 Clouds 8 1013 87 10000 2.6 200 09:55 24.10.2019
5603 Clouds 8 1013 93 10000 3.1 200 09:36 24.10.2019
5604 Clouds 8 1013 93 10000 3.1 200 09:18 24.10.2019
5605 Clouds 7 1013 93 10000 2.6 200 08:42 24.10.2019
5606 Clouds 7 1013 93 10000 2.6 200 08:20 24.10.2019
5607 Clouds 7 1013 93 10000 3.6 210 07:48 24.10.2019
5608 Clouds 7 1013 93 10000 4.1 210 07:23 24.10.2019
5609 Clouds 7 1013 93 10000 4.1 210 07:23 24.10.2019
5610 Clouds 7 1013 87 10000 3.1 210 06:56 24.10.2019
5611 Clouds 7 1013 87 10000 1.5 190 06:36 24.10.2019
5612 Clouds 8 1013 93 10000 2.1 210 05:55 24.10.2019
5613 Clouds 8 1013 93 10000 2.1 200 05:33 24.10.2019
5614 Clouds 8 1013 87 10000 2.6 210 04:33 24.10.2019
5615 Clouds 8 1013 81 10000 3.6 210 03:36 24.10.2019
5616 Clouds 8 1014 87 10000 4.1 210 02:41 24.10.2019
5617 Clouds 8 1014 87 10000 3.6 210 02:20 24.10.2019
5618 Clouds 8 1014 87 10000 3.6 200 01:31 24.10.2019
5619 Clouds 8 1014 87 10000 3.6 200 00:57 24.10.2019
5620 Clouds 8 1014 81 10000 3.1 210 00:30 24.10.2019
5621 Clouds 8 1014 81 10000 3.6 210 23:57 23.10.2019
5622 Clouds 8 1014 81 10000 3.6 210 23:38 23.10.2019
5623 Clouds 9 1014 81 10000 3.1 210 23:19 23.10.2019
5624 Clouds 9 1014 87 10000 3.6 210 22:56 23.10.2019
5625 Clouds 8 1014 87 10000 3.6 210 22:37 23.10.2019
5626 Clouds 8 1014 87 10000 3.1 210 22:18 23.10.2019
5627 Clouds 9 1013 81 10000 3.1 210 21:56 23.10.2019
5628 Clouds 9 1013 81 10000 3.1 210 21:37 23.10.2019
5629 Clouds 9 1013 81 10000 3.1 210 21:19 23.10.2019
5630 Clouds 9 1013 81 10000 2.1 200 20:54 23.10.2019
5631 Clouds 9 1013 81 10000 2.1 200 20:36 23.10.2019
5632 Clouds 9 1013 81 10000 2.1 210 20:18 23.10.2019
5633 Clouds 10 1013 81 10000 2.1 200 19:42 23.10.2019
5634 Clouds 10 1013 76 10000 2.1 210 19:19 23.10.2019
5635 Clouds 10 1013 71 10000 3.1 230 18:57 23.10.2019
5636 Clouds 11 1013 71 10000 3.1 230 18:39 23.10.2019
5637 Clouds 11 1012 66 10000 6.2 240 18:19 23.10.2019
5638 Clouds 11 1013 71 10000 3.6 230 17:46 23.10.2019
5639 Clouds 12 1013 71 10000 4.6 240 17:21 23.10.2019
5640 Clouds 12 1013 71 10000 4.1 240 16:59 23.10.2019
5641 Clouds 12 1013 71 10000 4.1 240 16:40 23.10.2019
5642 Clouds 12 1013 71 10000 4.1 240 16:40 23.10.2019
5643 Clouds 12 1013 71 10000 5.1 250 16:20 23.10.2019
5644 Clouds 12 1013 71 10000 5.1 240 15:56 23.10.2019
5645 Clouds 12 1013 71 10000 5.1 240 15:37 23.10.2019
5646 Clouds 12 1013 76 10000 5.1 240 15:18 23.10.2019
5647 Clouds 12 1013 76 10000 4.1 240 14:55 23.10.2019
5648 Clouds 12 1013 76 10000 4.1 240 14:37 23.10.2019
5649 Clouds 12 1013 76 10000 5.7 250 14:18 23.10.2019
5650 Clouds 12 1013 76 10000 5.7 250 14:18 23.10.2019
5651 Clouds 12 1013 76 10000 6.2 240 13:42 23.10.2019
5652 Clouds 12 1013 76 10000 4.6 250 13:24 23.10.2019
5653 Clouds 12 1013 76 10000 4.6 240 12:57 23.10.2019
5654 Clouds 12 1013 76 10000 4.6 240 12:38 23.10.2019
5655 Clouds 12 1013 76 10000 5.1 250 12:19 23.10.2019
5656 Clouds 12 1013 76 10000 4.1 240 11:57 23.10.2019
5657 Clouds 12 1013 76 10000 4.1 240 11:39 23.10.2019
5658 Clouds 11 1013 76 10000 4.1 240 11:20 23.10.2019
5659 Clouds 11 1013 81 10000 3.1 230 10:46 23.10.2019
5660 Clouds 11 1013 81 10000 2.6 220 10:26 23.10.2019
5661 Clouds 10 1013 87 10000 3.1 220 09:58 23.10.2019
5662 Clouds 10 1013 87 10000 3.1 220 09:39 23.10.2019
5663 Clouds 10 1013 87 10000 3.1 220 09:21 23.10.2019
5664 Clouds 9 1012 87 10000 2.6 220 08:43 23.10.2019
5665 Clouds 9 1012 87 10000 2.6 220 08:43 23.10.2019
5666 Clouds 9 1012 87 10000 3.1 230 08:25 23.10.2019
5667 Clouds 9 1012 87 10000 2.6 220 07:47 23.10.2019
5668 Clouds 8 1012 87 10000 2.1 200 07:27 23.10.2019
5669 Clouds 9 1012 81 10000 2.6 230 06:48 23.10.2019
5670 Clouds 9 1012 81 10000 3.1 240 06:23 23.10.2019
5671 Clouds 9 1012 81 10000 3.6 250 05:59 23.10.2019
5672 Clouds 10 1012 81 10000 3.6 250 05:18 23.10.2019
5673 Clouds 10 1012 76 10000 5.1 250 03:37 23.10.2019
5674 Clouds 10 1012 76 10000 5.1 250 02:42 23.10.2019
5675 Clouds 10 1011 76 10000 5.1 260 01:35 23.10.2019
5676 Clouds 10 1011 76 10000 5.7 250 00:59 23.10.2019
5677 Clouds 10 1010 71 10000 6.2 250 00:33 23.10.2019
5678 Clouds 10 1010 76 10000 7.2 250 23:43 22.10.2019
5679 Clouds 10 1010 76 10000 6.2 240 23:20 22.10.2019
5680 Clouds 10 1009 71 10000 7.7 240 22:59 22.10.2019
5681 Clouds 10 1009 71 10000 7.7 240 22:40 22.10.2019
5682 Clouds 10 1009 76 10000 6.7 240 22:22 22.10.2019
5683 Clouds 11 1009 76 10000 6.2 250 21:57 22.10.2019
5684 Clouds 11 1009 76 10000 6.2 250 21:38 22.10.2019
5685 Clouds 11 1009 76 10000 7.2 240 21:19 22.10.2019
5686 Clouds 11 1009 76 10000 7.2 250 20:58 22.10.2019
5687 Clouds 11 1009 76 10000 7.2 250 20:40 22.10.2019
5688 Clouds 11 1009 76 10000 7.2 250 20:22 22.10.2019
5689 Clouds 11 1009 76 10000 8.2 240 19:56 22.10.2019
5690 Clouds 11 1009 76 10000 8.2 240 19:38 22.10.2019
5691 Clouds 11 1009 71 10000 7.7 240 19:20 22.10.2019
5692 Drizzle 11 1009 76 10000 7.2 240 18:55 22.10.2019
5693 Drizzle 11 1009 76 10000 7.2 240 18:37 22.10.2019
5694 Clouds 11 1009 71 10000 8.2 240 18:19 22.10.2019
5695 Clouds 11 1009 66 10000 7.7 240 17:54 22.10.2019
5696 Clouds 11 1009 66 10000 7.7 240 17:36 22.10.2019
5697 Clouds 11 1009 66 10000 8.2 240 17:18 22.10.2019
5698 Clouds 12 1009 66 10000 6.7 240 16:39 22.10.2019
5699 Clouds 12 1009 66 10000 6.7 240 16:39 22.10.2019
5700 Clouds 12 1009 66 10000 6.7 230 16:20 22.10.2019
5701 Clouds 12 1009 66 10000 6.7 230 16:20 22.10.2019
5702 Clouds 12 1009 66 10000 6.7 240 15:58 22.10.2019
5703 Clouds 12 1009 66 10000 6.7 240 15:40 22.10.2019
5704 Clouds 12 1009 66 10000 7.7 230 15:19 22.10.2019
5705 Clouds 12 1009 66 10000 8.7 240 14:46 22.10.2019
5706 Clouds 12 1010 66 10000 9.8 240 14:22 22.10.2019
5707 Clouds 12 1010 66 10000 8.7 230 13:55 22.10.2019
5708 Clouds 12 1010 66 10000 8.7 230 13:55 22.10.2019
5709 Clouds 12 1010 66 10000 8.7 230 13:37 22.10.2019
5710 Clouds 11 1010 66 10000 8.2 240 13:18 22.10.2019
5711 Clouds 11 1011 71 10000 8.2 240 12:41 22.10.2019
5712 Clouds 11 1011 71 10000 8.2 240 12:22 22.10.2019
5713 Clouds 11 1011 71 10000 7.7 230 11:59 22.10.2019
5714 Clouds 10 1011 71 10000 7.7 230 11:40 22.10.2019
5715 Clouds 10 1011 76 10000 7.2 230 11:22 22.10.2019
5716 Clouds 10 1011 76 10000 6.2 230 10:58 22.10.2019
5717 Clouds 9 1011 76 10000 6.2 230 10:37 22.10.2019
5718 Clouds 10 1011 76 10000 6.2 230 10:19 22.10.2019
5719 Clouds 9 1012 76 10000 5.7 240 09:56 22.10.2019
5720 Clouds 9 1012 76 10000 5.7 240 09:37 22.10.2019
5721 Clouds 9 1012 81 10000 6.7 240 09:19 22.10.2019
5722 Clouds 9 1012 81 10000 5.7 260 08:43 22.10.2019
5723 Clouds 9 1012 93 10000 4.1 230 08:22 22.10.2019
5724 Clouds 9 1012 93 10000 4.1 230 07:50 22.10.2019
5725 Clouds 9 1012 93 10000 3.6 220 07:30 22.10.2019
5726 Clouds 9 1012 93 10000 2.6 220 06:52 22.10.2019
5727 Clouds 9 1013 93 10000 4.1 220 06:32 22.10.2019
5728 Clouds 9 1013 93 10000 3.1 210 05:59 22.10.2019
5729 Clouds 9 1013 93 10000 2.6 210 05:24 22.10.2019
5730 Clouds 9 1015 93 10000 2.6 220 03:38 22.10.2019
5731 Clouds 9 1016 93 10000 3.6 200 02:29 22.10.2019
5732 Clouds 9 1017 93 10000 4.1 190 01:32 22.10.2019
5733 Clouds 9 1017 93 10000 4.1 200 00:59 22.10.2019
5734 Clouds 9 1017 93 10000 4.1 200 00:40 22.10.2019
5735 Clouds 9 1017 93 10000 3.6 180 00:21 22.10.2019
5736 Clouds 9 1017 93 10000 3.1 180 23:57 21.10.2019
5737 Clouds 9 1017 93 10000 3.1 180 23:37 21.10.2019
5738 Clouds 9 1018 93 10000 3.1 180 23:18 21.10.2019
5739 Clouds 9 1018 93 10000 2.6 190 22:57 21.10.2019
5740 Clouds 9 1018 93 10000 2.6 190 22:38 21.10.2019
5741 Clouds 9 1018 93 10000 3.1 180 22:19 21.10.2019
5742 Clouds 8 1018 93 10000 2.6 180 21:55 21.10.2019
5743 Clouds 8 1018 93 10000 2.6 180 21:55 21.10.2019
5744 Clouds 8 1018 93 10000 2.6 180 21:37 21.10.2019
5745 Clouds 8 1019 100 10000 2.6 160 21:19 21.10.2019
5746 Clouds 8 1019 100 10000 2.6 160 20:55 21.10.2019
5747 Clouds 8 1019 100 10000 2.6 160 20:37 21.10.2019
5748 Clouds 8 1019 93 10000 2.1 150 20:18 21.10.2019
5749 Clouds 8 1019 93 10000 2.6 140 19:41 21.10.2019
5750 Clouds 8 1019 93 10000 2.1 0 19:22 21.10.2019
5751 Clouds 7 1020 100 10000 3.1 150 18:57 21.10.2019
5752 Clouds 7 1020 100 10000 3.1 150 18:57 21.10.2019
5753 Clouds 7 1020 100 10000 3.1 150 18:38 21.10.2019
5754 Clouds 7 1020 87 10000 2.1 150 18:19 21.10.2019
5755 Clouds 7 1020 87 10000 2.6 160 17:59 21.10.2019
5756 Clouds 7 1020 87 10000 2.6 160 17:38 21.10.2019
5757 Clouds 7 1020 93 10000 2.6 140 17:19 21.10.2019
5758 Clouds 7 1020 93 10000 2.6 140 16:57 21.10.2019
5759 Clouds 7 1020 93 10000 2.6 140 16:39 21.10.2019
5760 Clouds 7 1020 93 10000 2.6 140 16:20 21.10.2019
5761 Clouds 7 1021 87 10000 2.6 150 15:47 21.10.2019
5762 Clouds 7 1021 81 10000 2.6 140 15:27 21.10.2019
5763 Clouds 7 1021 81 10000 2.6 130 14:59 21.10.2019
5764 Clouds 7 1021 81 10000 2.6 130 14:40 21.10.2019
5765 Clouds 7 1021 87 10000 1.5 110 14:21 21.10.2019
5766 Clouds 7 1021 87 10000 1.5 0 13:57 21.10.2019
5767 Clouds 7 1021 87 10000 1.5 0 13:39 21.10.2019
5768 Clouds 7 1021 87 10000 2.1 70 13:19 21.10.2019
5769 Clouds 7 1021 87 10000 2.1 60 12:42 21.10.2019
5770 Clouds 7 1021 87 10000 1.5 40 12:23 21.10.2019
5771 Mist 7 1020 87 10000 1.5 30 11:58 21.10.2019
5772 Mist 7 1020 87 10000 1.5 30 11:39 21.10.2019
5773 Clouds 7 1020 87 10000 1.5 0 11:20 21.10.2019
5774 Clouds 6 1020 93 10000 1.5 40 10:57 21.10.2019
5775 Clouds 6 1020 93 10000 1.5 40 10:38 21.10.2019
5776 Clouds 6 1020 93 10000 1.5 0 10:19 21.10.2019
5777 Clouds 6 1019 93 10000 2.6 30 09:51 21.10.2019
5778 Clouds 6 1019 87 10000 2.6 30 09:26 21.10.2019
5779 Clouds 6 1019 93 10000 1.5 30 08:59 21.10.2019
5780 Clouds 6 1019 93 10000 1.5 30 08:40 21.10.2019
5781 Clouds 6 1019 93 10000 3.1 20 08:22 21.10.2019
5782 Clouds 6 1018 93 10000 2.6 360 07:44 21.10.2019
5783 Clouds 6 1018 93 10000 2.6 10 07:21 21.10.2019
5784 Mist 6 1018 93 10000 2.6 350 06:57 21.10.2019
5785 Mist 6 1018 93 10000 2.6 350 06:39 21.10.2019
5786 Mist 6 1017 93 10000 2.6 10 05:57 21.10.2019
5787 Mist 6 1017 93 10000 2.6 10 05:57 21.10.2019
5788 Clouds 6 1016 100 10000 2.6 360 04:50 21.10.2019
5789 Mist 7 1015 100 10000 2.6 360 03:38 21.10.2019
5790 Mist 8 1015 100 10000 2.1 320 02:37 21.10.2019
5791 Mist 8 1014 100 10000 1 0 02:19 21.10.2019
5792 Mist 8 1014 100 10000 1 0 01:43 21.10.2019
5793 Mist 8 1014 100 10000 2.1 280 00:51 21.10.2019
5794 Clouds 8 1014 100 10000 1.5 300 00:28 21.10.2019
5795 Clouds 8 1013 93 10000 1.5 290 23:43 20.10.2019
5796 Mist 8 1013 100 10000 1.5 260 23:23 20.10.2019
5797 Mist 9 1013 93 10000 2.1 300 22:58 20.10.2019
5798 Clouds 9 1013 93 10000 2.1 300 22:39 20.10.2019
5799 Mist 9 1012 100 10000 2.1 280 22:19 20.10.2019
5800 Clouds 9 1012 100 10000 2.6 270 21:59 20.10.2019
5801 Clouds 9 1012 100 10000 2.6 270 21:39 20.10.2019
5802 Clouds 9 1012 93 10000 2.1 270 21:21 20.10.2019
5803 Clouds 9 1011 100 10000 2.1 270 20:55 20.10.2019
5804 Clouds 9 1011 100 10000 2.1 270 20:37 20.10.2019
5805 Clouds 9 1011 100 10000 1 240 20:18 20.10.2019
5806 Clouds 9 1011 100 10000 1.5 0 19:55 20.10.2019
5807 Clouds 9 1011 100 10000 1.5 0 19:36 20.10.2019
5808 Clouds 10 1011 100 10000 1.5 250 19:18 20.10.2019
5809 Mist 10 1010 100 10000 1.5 240 18:40 20.10.2019
5810 Mist 10 1010 93 10000 1.5 230 18:20 20.10.2019
5811 Mist 10 1010 93 10000 2.1 250 17:56 20.10.2019
5812 Mist 10 1010 93 10000 2.1 250 17:56 20.10.2019
5813 Mist 10 1010 93 10000 2.1 250 17:38 20.10.2019
5814 Mist 11 1010 93 10000 3.1 260 17:19 20.10.2019
5815 Clouds 12 1009 87 10000 2.1 250 16:43 20.10.2019
5816 Clouds 11 1009 93 10000 2.6 240 16:24 20.10.2019
5817 Clouds 12 1009 93 10000 2.6 240 15:59 20.10.2019
5818 Clouds 11 1009 93 10000 2.6 240 15:39 20.10.2019
5819 Clouds 11 1009 93 10000 2.6 230 15:20 20.10.2019
5820 Clouds 11 1009 100 10000 2.1 210 14:58 20.10.2019
5821 Clouds 11 1009 100 10000 2.1 210 14:38 20.10.2019
5822 Clouds 11 1009 100 10000 2.1 210 14:19 20.10.2019
5823 Mist 11 1009 100 10000 2.1 210 13:56 20.10.2019
5824 Mist 11 1009 100 10000 2.1 210 13:56 20.10.2019
5825 Mist 11 1009 100 10000 2.1 210 13:37 20.10.2019
5826 Rain 11 1009 100 8000 2.1 190 13:18 20.10.2019
5827 Drizzle 11 1009 93 7000 1.5 150 12:56 20.10.2019
5828 Drizzle 11 1009 93 7000 1.5 150 12:38 20.10.2019
5829 Rain 10 1009 100 10000 2.6 120 12:20 20.10.2019
5830 Rain 10 1009 100 10000 4.1 90 11:57 20.10.2019
5831 Rain 10 1009 100 10000 4.1 90 11:38 20.10.2019
5832 Rain 10 1009 93 10000 4.1 100 11:20 20.10.2019
5833 Rain 10 1009 100 7000 4.1 110 10:41 20.10.2019
5834 Rain 10 1009 100 7000 4.1 110 10:41 20.10.2019
5835 Rain 10 1010 100 8000 3.6 90 10:22 20.10.2019
5836 Rain 10 1009 100 10000 4.1 90 09:59 20.10.2019
5837 Drizzle 10 1009 100 10000 4.1 90 09:41 20.10.2019
5838 Rain 10 1010 100 10000 3.1 80 09:21 20.10.2019
5839 Rain 10 1010 100 9000 2.6 80 08:49 20.10.2019
5840 Rain 9 1010 100 10000 2.1 90 08:27 20.10.2019
5841 Rain 9 1010 100 8000 2.6 110 07:51 20.10.2019
5842 Rain 9 1010 100 6000 2.1 80 07:31 20.10.2019
5843 Rain 9 1010 100 8000 2.6 120 06:59 20.10.2019
5844 Drizzle 9 1010 100 10000 2.1 120 06:21 20.10.2019
5845 Drizzle 8 1010 100 10000 1.5 110 04:28 20.10.2019
5846 Drizzle 9 1010 100 10000 1 130 03:48 20.10.2019
5847 Drizzle 8 1010 93 10000 1.52 185.673 03:21 20.10.2019
5848 Drizzle 8 1010 93 10000 0.5 0 02:44 20.10.2019
5849 Mist 8 1010 100 10000 1.5 130 01:59 20.10.2019
5850 Fog 7 1010 100 8000 1.5 140 01:24 20.10.2019
5851 Mist 7 1010 100 10000 1.5 150 00:58 20.10.2019
5852 Mist 8 1010 100 10000 1.5 150 00:39 20.10.2019
5853 Fog 8 1010 100 8000 1 0 00:20 20.10.2019
5854 Mist 7 1010 100 7000 1.5 140 23:42 19.10.2019
5855 Mist 7 1009 93 3900 1.5 130 23:23 19.10.2019
5856 Clouds 8 1009 100 6000 1.5 120 22:57 19.10.2019
5857 Clouds 8 1009 100 6000 1.5 120 22:38 19.10.2019
5858 Clouds 8 1009 93 6000 1.5 140 22:20 19.10.2019
5859 Clouds 9 1009 93 10000 1.5 170 21:46 19.10.2019
5860 Clouds 9 1009 100 10000 2.6 170 21:24 19.10.2019
5861 Clouds 9 1008 93 10000 2.6 150 20:54 19.10.2019
5862 Clouds 9 1008 93 10000 2.6 150 20:36 19.10.2019
5863 Clouds 9 1008 93 10000 2.1 150 20:18 19.10.2019
5864 Clouds 9 1008 87 10000 2.6 160 19:41 19.10.2019
5865 Clouds 10 1007 87 10000 3.1 160 19:23 19.10.2019
5866 Clouds 10 1007 87 10000 2.1 180 18:43 19.10.2019
5867 Clouds 10 1007 87 10000 2.1 170 18:25 19.10.2019
5868 Rain 11 1007 87 10000 2.6 180 17:59 19.10.2019
5869 Rain 11 1007 87 10000 2.6 180 17:37 19.10.2019
5870 Clouds 11 1006 87 10000 1.5 170 17:19 19.10.2019
5871 Clouds 12 1006 81 10000 2.6 180 16:40 19.10.2019
5872 Clouds 12 1006 81 10000 3.1 180 16:20 19.10.2019
5873 Clouds 12 1005 81 10000 4.1 190 15:59 19.10.2019
5874 Clouds 12 1005 81 10000 4.1 190 15:39 19.10.2019
5875 Clouds 12 1005 81 10000 3.6 190 15:21 19.10.2019
5876 Clouds 12 1005 81 10000 4.1 200 14:38 19.10.2019
5877 Clouds 12 1005 81 10000 4.1 200 14:38 19.10.2019
5878 Clouds 12 1005 81 10000 4.1 200 14:20 19.10.2019
5879 Clouds 12 1004 76 10000 5.1 200 13:56 19.10.2019
5880 Clouds 12 1004 76 10000 5.1 200 13:38 19.10.2019
5881 Clouds 12 1004 81 10000 5.1 210 13:18 19.10.2019
5882 Clouds 12 1004 76 10000 5.7 200 12:41 19.10.2019
5883 Clouds 12 1004 81 10000 5.1 200 12:22 19.10.2019
5884 Clouds 12 1003 81 10000 5.1 200 11:59 19.10.2019
5885 Clouds 12 1003 81 10000 5.1 200 11:40 19.10.2019
5886 Clouds 11 1003 87 10000 4.6 200 11:22 19.10.2019
5887 Clouds 11 1003 87 10000 5.1 200 10:54 19.10.2019
5888 Clouds 11 1003 87 10000 5.1 200 10:36 19.10.2019
5889 Clouds 11 1003 87 10000 4.6 200 10:18 19.10.2019
5890 Clouds 10 1003 93 10000 4.6 200 09:41 19.10.2019
5891 Clouds 10 1002 93 10000 4.6 200 09:23 19.10.2019
5892 Clouds 10 1002 93 10000 3.6 200 08:58 19.10.2019
5893 Clouds 10 1002 93 10000 3.6 200 08:58 19.10.2019
5894 Clouds 10 1002 93 10000 3.6 200 08:39 19.10.2019
5895 Rain 10 1002 93 10000 4.1 210 08:20 19.10.2019
5896 Rain 10 1002 93 10000 4.1 210 08:20 19.10.2019
5897 Rain 11 1001 93 10000 4.1 210 07:42 19.10.2019
5898 Rain 11 1001 93 10000 4.1 200 07:23 19.10.2019
5899 Rain 11 1001 100 10000 3.1 190 06:40 19.10.2019
5900 Rain 11 1001 100 10000 4.1 140 05:55 19.10.2019
5901 Rain 11 1001 100 10000 3.6 140 05:27 19.10.2019
5902 Rain 11 1002 100 10000 4.1 130 03:25 19.10.2019
5903 Clouds 11 1003 93 10000 3.6 140 02:38 19.10.2019
5904 Mist 11 1003 93 10000 3.6 160 01:51 19.10.2019
5905 Mist 11 1004 93 10000 4.1 150 01:18 19.10.2019
5906 Mist 11 1004 100 10000 3.1 150 00:45 19.10.2019
5907 Mist 11 1005 100 7000 3.1 150 00:22 19.10.2019
5908 Rain 11 1005 100 5000 3.1 120 23:40 18.10.2019
5909 Rain 11 1005 100 4100 3.6 110 23:21 18.10.2019
5910 Rain 11 1005 100 2700 3.6 110 22:55 18.10.2019
5911 Rain 10 1006 93 5000 3.6 110 22:37 18.10.2019
5912 Rain 10 1005 100 2700 3.6 110 22:37 18.10.2019
5913 Rain 10 1006 93 5000 3.6 110 22:19 18.10.2019
5914 Rain 10 1006 93 8000 3.6 110 21:56 18.10.2019
5915 Rain 10 1006 93 8000 3.6 110 21:36 18.10.2019
5916 Rain 10 1006 93 10000 4.1 110 21:18 18.10.2019
5917 Clouds 10 1007 93 10000 3.6 110 20:43 18.10.2019
5918 Clouds 10 1007 93 10000 3.1 0 20:24 18.10.2019
5919 Mist 10 1007 87 10000 3.1 110 19:58 18.10.2019
5920 Mist 10 1007 87 10000 3.1 110 19:40 18.10.2019
5921 Mist 10 1007 87 10000 3.1 110 19:40 18.10.2019
5922 Clouds 10 1008 93 10000 2.1 140 19:22 18.10.2019
5923 Clouds 10 1008 93 10000 1.5 120 18:59 18.10.2019
5924 Clouds 10 1008 93 10000 1.5 120 18:59 18.10.2019
5925 Clouds 10 1008 87 10000 1.5 150 18:41 18.10.2019
5926 Clouds 10 1008 93 10000 1.5 120 18:41 18.10.2019
5927 Clouds 10 1008 87 10000 1.5 150 18:23 18.10.2019
5928 Clear 10 1008 87 10000 0.5 0 17:56 18.10.2019
5929 Clear 11 1008 87 10000 0.5 0 17:37 18.10.2019
5930 Clear 11 1008 87 10000 1 0 17:19 18.10.2019
5931 -273 0 0 0 0 0 16:43 18.10.2019
5932 -273 0 0 0 0 0 16:43 18.10.2019
5933 -273 0 0 0 0 0 16:43 18.10.2019
5934 Clear 11 1008 87 10000 2.1 190 16:42 18.10.2019
5935 Clouds 11 1009 87 10000 1.5 220 16:21 18.10.2019
5936 Clouds 11 1008 81 10000 2.6 240 15:58 18.10.2019
5937 Clouds 12 1008 81 10000 2.6 240 15:38 18.10.2019
5938 Rain 12 1009 81 10000 2.6 240 15:20 18.10.2019
5939 Drizzle 12 1009 81 10000 2.6 250 14:57 18.10.2019
5940 Drizzle 12 1009 81 10000 2.6 250 14:38 18.10.2019
5941 Drizzle 12 1009 81 10000 2.6 250 14:38 18.10.2019
5942 Mist 12 1009 81 10000 4.6 230 14:19 18.10.2019
5943 Clouds 12 1009 81 10000 3.6 220 13:56 18.10.2019
5944 Clouds 12 1009 81 10000 3.6 220 13:37 18.10.2019
5945 Clouds 12 1009 87 10000 3.6 200 13:18 18.10.2019
5946 Drizzle 12 1009 87 10000 2.6 210 12:55 18.10.2019
5947 Drizzle 11 1009 87 10000 2.6 210 12:37 18.10.2019
5948 Mist 11 1009 100 10000 3.1 210 12:18 18.10.2019
5949 Mist 11 1009 100 10000 3.1 210 11:41 18.10.2019
5950 Rain 10 1009 100 10000 2.6 190 11:20 18.10.2019
5951 Mist 10 1009 100 4800 1.5 140 10:58 18.10.2019
5952 Mist 10 1009 100 4800 1.5 140 10:40 18.10.2019
5953 Mist 10 1009 100 2200 2.1 130 10:20 18.10.2019
5954 Rain 10 1009 100 1200 2.1 120 09:57 18.10.2019
5955 Rain 10 1009 100 1200 2.1 120 09:39 18.10.2019
5956 Rain 10 1009 100 1200 2.1 130 09:19 18.10.2019
5957 Mist 9 1009 100 3300 2.1 110 08:45 18.10.2019
5958 Mist 9 1009 100 4500 1.5 120 08:25 18.10.2019
5959 Mist 9 1009 100 4400 3.1 120 07:57 18.10.2019
5960 Mist 9 1009 100 4400 3.1 120 07:38 18.10.2019
5961 Drizzle 9 1009 100 10000 2.6 120 06:56 18.10.2019
5962 Drizzle 8 1009 100 10000 2.6 120 06:36 18.10.2019
5963 Mist 8 1009 100 6000 2.6 110 06:18 18.10.2019
5964 Rain 8 1010 100 2100 2.6 110 05:52 18.10.2019
5965 Rain 8 1010 93 3700 2.6 120 05:19 18.10.2019
5966 Mist 8 1010 100 7000 1.5 120 03:38 18.10.2019
5967 Mist 8 1010 100 4400 1.5 120 02:54 18.10.2019
5968 Mist 8 1010 100 5000 1.5 120 02:32 18.10.2019
5969 Mist 8 1010 100 5000 1.5 120 02:32 18.10.2019
5970 Mist 8 1010 100 7000 1.5 140 01:40 18.10.2019
5971 Mist 8 1010 100 7000 1.5 140 01:21 18.10.2019
5972 Mist 8 1010 100 8000 2.1 130 00:43 18.10.2019
5973 Mist 8 1011 100 9000 1 150 00:20 18.10.2019
5974 Mist 8 1011 100 8000 1 160 23:40 17.10.2019
5975 Mist 8 1011 100 5000 1 170 23:21 17.10.2019
5976 Mist 8 1011 100 4800 0.41 202.214 22:57 17.10.2019
5977 Mist 8 1011 100 4800 0.41 202.214 22:39 17.10.2019
5978 Clouds 7 1011 100 8000 0.41 202.214 22:19 17.10.2019
5979 Clouds 8 1010 100 6000 0.41 202.214 21:57 17.10.2019
5980 Clouds 8 1010 100 6000 0.41 202.214 21:39 17.10.2019
5981 Clouds 7 1010 93 6000 0.59 243.26 21:20 17.10.2019
5982 Clouds 8 1010 93 8000 0.24 308.089 20:58 17.10.2019
5983 Mist 8 1010 93 8000 0.5 360 20:39 17.10.2019
5984 Mist 8 1010 93 8000 0.5 360 20:19 17.10.2019
5985 Clouds 8 1010 93 9000 0.5 0 19:59 17.10.2019
5986 Clouds 8 1010 93 9000 0.5 0 19:39 17.10.2019
5987 Clouds 8 1010 93 9000 1 340 19:19 17.10.2019
5988 Clouds 8 1010 93 9000 1 340 19:19 17.10.2019
5989 Clouds 8 1010 93 10000 1.5 300 18:58 17.10.2019
5990 Clouds 8 1010 93 10000 1.5 300 18:38 17.10.2019
5991 Clouds 8 1010 93 10000 1.5 280 18:19 17.10.2019
5992 Clouds 8 1010 93 10000 0.5 10 17:42 17.10.2019
5993 Clouds 8 1010 93 10000 2.1 310 17:23 17.10.2019
5994 Clouds 8 1010 93 10000 1.5 280 16:57 17.10.2019
5995 Clouds 8 1009 93 10000 1 300 16:38 17.10.2019
5996 Clouds 8 1009 93 10000 1 300 16:18 17.10.2019
5997 Clouds 8 1009 93 10000 2.1 310 15:55 17.10.2019
5998 Clouds 8 1009 93 10000 2.1 310 15:37 17.10.2019
5999 Clouds 8 1009 93 10000 1.5 310 15:19 17.10.2019
6000 Clouds 8 1009 93 10000 1.5 320 14:42 17.10.2019
6001 Clouds 8 1009 93 10000 2.6 320 14:23 17.10.2019
6002 Clouds 8 1009 93 10000 2.6 300 13:56 17.10.2019
6003 Clouds 8 1009 93 10000 2.6 300 13:38 17.10.2019
6004 Clouds 8 1008 93 10000 1.5 350 13:18 17.10.2019
6005 Clouds 8 1008 93 10000 2.1 350 12:41 17.10.2019
6006 Clouds 8 1008 93 10000 2.6 340 12:21 17.10.2019
6007 Clouds 8 1008 93 10000 2.6 350 11:59 17.10.2019
6008 Clouds 8 1008 93 10000 2.6 350 11:59 17.10.2019
6009 Clouds 8 1008 93 10000 2.6 350 11:40 17.10.2019
6010 Clouds 8 1008 93 10000 2.6 350 11:19 17.10.2019
6011 Clouds 8 1008 93 10000 2.6 350 11:19 17.10.2019
6012 Rain 8 1007 93 10000 2.1 350 10:55 17.10.2019
6013 Rain 8 1007 93 10000 2.1 350 10:37 17.10.2019
6014 Rain 7 1007 100 10000 2.1 340 10:18 17.10.2019
6015 Rain 7 1007 100 10000 2.6 350 09:42 17.10.2019
6016 Rain 7 1007 100 8000 3.1 20 09:23 17.10.2019
6017 Drizzle 7 1007 100 8000 2.1 340 08:59 17.10.2019
6018 Drizzle 7 1007 100 8000 2.1 340 08:41 17.10.2019
6019 Rain 7 1006 93 8000 2.6 330 08:21 17.10.2019
6020 Rain 7 1006 100 6000 3.1 350 07:56 17.10.2019
6021 Rain 7 1006 100 6000 3.1 350 07:37 17.10.2019
6022 Drizzle 7 1006 100 6000 2.6 350 07:18 17.10.2019
6023 Mist 7 1006 100 4200 3.1 360 06:40 17.10.2019
6024 Mist 7 1006 100 2700 3.6 350 06:21 17.10.2019
6025 Mist 7 1006 100 2400 3.6 350 05:54 17.10.2019
6026 Mist 7 1006 100 2200 3.1 350 05:32 17.10.2019
6027 Mist 7 1006 100 2200 2.1 360 04:55 17.10.2019
6028 Mist 7 1006 100 5000 2.6 10 03:55 17.10.2019
6029 Mist 7 1006 100 6000 3.6 20 02:37 17.10.2019
6030 Rain 7 1006 93 3600 3.6 40 01:31 17.10.2019
6031 Rain 8 1006 93 2700 2.6 20 00:40 17.10.2019
6032 Mist 8 1006 93 3800 3.6 20 00:19 17.10.2019
6033 Rain 8 1006 93 10000 3.1 30 23:42 16.10.2019
6034 Mist 8 1006 100 5000 3.1 10 23:21 16.10.2019
6035 Mist 8 1006 100 6000 3.1 20 22:56 16.10.2019
6036 Mist 8 1006 100 6000 3.1 20 22:56 16.10.2019
6037 Mist 8 1006 100 6000 3.1 20 22:37 16.10.2019
6038 Drizzle 8 1006 100 4200 3.1 20 22:19 16.10.2019
6039 Drizzle 8 1006 100 3200 3.6 20 21:56 16.10.2019
6040 Drizzle 8 1006 100 3200 3.6 20 21:37 16.10.2019
6041 Drizzle 8 1007 100 3500 3.1 40 21:19 16.10.2019
6042 Mist 8 1007 100 500 2.6 30 20:58 16.10.2019
6043 Mist 8 1007 100 500 2.6 30 20:39 16.10.2019
6044 Drizzle 8 1007 100 550 3.1 30 20:20 16.10.2019
6045 Drizzle 8 1007 93 10000 3.6 40 19:59 16.10.2019
6046 Mist 8 1007 93 7000 4.1 50 19:38 16.10.2019
6047 Mist 8 1007 93 7000 4.1 50 19:20 16.10.2019
6048 Mist 8 1007 93 7000 4.1 50 19:20 16.10.2019
6049 Clouds 8 1007 93 10000 4.6 50 18:39 16.10.2019
6050 Clouds 8 1007 93 10000 4.1 50 18:20 16.10.2019
6051 Clouds 8 1007 93 9000 4.1 50 17:58 16.10.2019
6052 Clouds 8 1007 93 9000 4.1 50 17:58 16.10.2019
6053 Clouds 8 1007 93 9000 4.1 50 17:39 16.10.2019
6054 Drizzle 9 1007 100 7000 5.1 50 17:21 16.10.2019
6055 Mist 9 1007 100 4500 4.1 40 17:00 16.10.2019
6056 Mist 9 1007 100 4500 4.1 40 16:41 16.10.2019
6057 Mist 9 1007 100 4000 3.1 40 16:21 16.10.2019
6058 Mist 9 1007 100 6000 3.1 50 15:57 16.10.2019
6059 Mist 9 1007 100 6000 3.1 50 15:38 16.10.2019
6060 Clouds 9 1007 100 10000 4.1 40 15:18 16.10.2019
6061 Clouds 9 1007 100 10000 4.1 40 14:56 16.10.2019
6062 Clouds 9 1007 100 10000 2.6 40 14:38 16.10.2019
6063 Clouds 9 1007 100 10000 2.6 40 14:18 16.10.2019
6064 Clouds 9 1007 100 10000 3.6 40 13:56 16.10.2019
6065 Clouds 9 1007 100 10000 3.6 40 13:56 16.10.2019
6066 Clouds 9 1007 100 10000 3.6 40 13:56 16.10.2019
6067 Clouds 9 1007 100 10000 3.6 40 13:37 16.10.2019
6068 Clouds 9 1007 100 10000 3.6 50 13:18 16.10.2019
6069 Clouds 9 1007 100 10000 4.1 60 12:41 16.10.2019
6070 Clouds 10 1007 93 10000 4.1 60 12:19 16.10.2019
6071 Clouds 10 1008 93 10000 4.1 60 11:43 16.10.2019
6072 Clouds 10 1008 93 8000 4.6 70 11:18 16.10.2019
6073 Drizzle 10 1008 93 5000 4.1 70 10:41 16.10.2019
6074 Clouds 10 1008 100 6000 4.1 70 10:22 16.10.2019
6075 Clouds 10 1008 100 10000 3.6 70 09:58 16.10.2019
6076 Clouds 10 1008 100 10000 3.6 70 09:38 16.10.2019
6077 Clouds 10 1008 100 10000 3.1 60 09:20 16.10.2019
6078 Mist 10 1008 100 5000 3.6 60 08:43 16.10.2019
6079 Mist 10 1008 100 4000 3.1 80 08:25 16.10.2019
6080 Mist 10 1008 100 5000 3.1 70 07:56 16.10.2019
6081 -273 0 0 0 0 0 07:56 16.10.2019
6082 Mist 10 1008 100 5000 3.1 70 07:38 16.10.2019
6083 Mist 10 1009 100 6000 2.6 70 07:19 16.10.2019
6084 Mist 10 1009 100 6000 2.6 60 06:40 16.10.2019
6085 Mist 9 1009 100 7000 2.1 60 06:19 16.10.2019
6086 Mist 10 1009 100 8000 2.6 80 03:33 16.10.2019
6087 Clouds 10 1010 100 10000 3.6 90 02:50 16.10.2019
6088 Clouds 10 1011 93 10000 5.1 100 01:20 16.10.2019
6089 -273 0 0 0 0 0 00:54 16.10.2019
6090 Clouds 10 1011 100 10000 5.1 110 00:35 16.10.2019
6091 Mist 9 1012 93 3700 2.6 100 23:42 15.10.2019
6092 Mist 9 1012 93 5000 4.1 100 23:22 15.10.2019
6093 Mist 9 1013 100 5000 4.1 100 22:57 15.10.2019
6094 Mist 9 1013 100 5000 4.1 100 22:38 15.10.2019
6095 Mist 9 1013 100 5000 4.6 90 22:20 15.10.2019
6096 Mist 9 1013 93 5000 3.6 90 21:57 15.10.2019
6097 Drizzle 9 1013 93 2200 4.1 80 21:38 15.10.2019
6098 Drizzle 9 1013 93 2200 4.1 80 21:20 15.10.2019
6099 Drizzle 9 1014 100 2100 3.6 70 20:58 15.10.2019
6100 Drizzle 8 1014 100 2300 3.6 70 20:39 15.10.2019
6101 Drizzle 8 1014 100 2300 3.6 70 20:21 15.10.2019
6102 Drizzle 8 1014 100 3100 4.6 90 19:59 15.10.2019
6103 Drizzle 8 1014 100 3000 5.7 90 19:40 15.10.2019
6104 Drizzle 8 1014 100 3000 5.7 90 19:20 15.10.2019
6105 Drizzle 8 1015 100 3000 5.1 90 18:55 15.10.2019
6106 Drizzle 8 1015 100 3000 5.1 90 18:36 15.10.2019
6107 Rain 8 1015 93 3000 5.1 80 18:18 15.10.2019
6108 Rain 8 1015 93 5000 4.6 70 17:41 15.10.2019
6109 Rain 8 1015 93 5000 4.6 70 17:41 15.10.2019
6110 Rain 8 1016 93 7000 4.1 70 17:20 15.10.2019
6111 Drizzle 8 1015 93 7000 5.1 80 16:58 15.10.2019
6112 Drizzle 8 1015 93 7000 5.1 80 16:39 15.10.2019
6113 Rain 8 1016 93 7000 4.6 80 16:20 15.10.2019
6114 Drizzle 8 1017 87 10000 4.1 90 15:55 15.10.2019
6115 -273 0 0 0 0 0 15:55 15.10.2019
6116 Drizzle 8 1017 87 10000 4.1 90 15:36 15.10.2019
6117 Drizzle 8 1017 87 10000 5.1 110 15:18 15.10.2019
6118 Clouds 8 1018 87 10000 3.1 90 14:38 15.10.2019
6119 Clouds 8 1018 87 10000 3.1 90 14:38 15.10.2019
6120 Rain 8 1018 87 10000 3.6 110 14:20 15.10.2019
6121 Drizzle 9 1018 93 10000 2.6 80 13:58 15.10.2019
6122 Drizzle 9 1018 93 10000 2.6 80 13:40 15.10.2019
6123 Clouds 9 1018 87 9000 3.1 80 13:19 15.10.2019
6124 Clouds 9 1018 87 10000 3.6 70 12:44 15.10.2019
6125 Clouds 9 1018 81 10000 3.1 70 12:22 15.10.2019
6126 Clouds 9 1019 81 10000 3.1 80 11:58 15.10.2019
6127 Clouds 9 1019 81 10000 3.1 80 11:40 15.10.2019
6128 Clouds 8 1019 81 10000 3.6 100 11:19 15.10.2019
6129 Clouds 8 1019 81 10000 3.1 90 10:45 15.10.2019
6130 Clouds 8 1019 81 10000 3.1 90 10:23 15.10.2019
6131 Clouds 8 1019 93 10000 2.6 90 09:59 15.10.2019
6132 Clouds 8 1019 93 10000 2.6 90 09:40 15.10.2019
6133 Clouds 7 1019 93 10000 2.1 80 09:20 15.10.2019
6134 Clouds 7 1019 93 10000 2.1 80 08:57 15.10.2019
6135 Clouds 7 1019 93 10000 2.1 80 08:57 15.10.2019
6136 Clouds 7 1018 87 10000 2.1 90 08:37 15.10.2019
6137 Clouds 7 1018 87 10000 2.1 90 08:18 15.10.2019
6138 Clouds 7 1019 100 10000 2.1 60 07:43 15.10.2019
6139 Clouds 7 1019 100 10000 2.1 60 07:21 15.10.2019
6140 Clouds 6 1019 100 10000 1 70 06:54 15.10.2019
6141 Clouds 6 1019 100 10000 1 0 06:36 15.10.2019
6142 Clouds 6 1019 93 10000 0.92 109.612 05:56 15.10.2019
6143 Clouds 6 1019 93 10000 0.92 109.612 05:36 15.10.2019
6144 Clouds 6 1019 93 10000 1 0 04:40 15.10.2019
6145 Clouds 6 1019 100 10000 1 60 03:59 15.10.2019
6146 Clouds 6 1019 100 10000 0.92 109.612 03:30 15.10.2019
6147 Clouds 6 1019 100 10000 0.5 0 01:51 15.10.2019
6148 Clouds 6 1018 100 10000 0.71 143.877 01:26 15.10.2019
6149 Clouds 6 1018 100 10000 0.71 143.877 00:59 15.10.2019
6150 Clouds 6 1018 100 10000 0.67 12.593 00:24 15.10.2019
6151 Clouds 6 1018 100 10000 0.67 12.593 23:57 14.10.2019
6152 Fog 6 1018 100 550 1 260 23:37 14.10.2019
6153 Fog 6 1018 100 550 1 260 23:18 14.10.2019
6154 Clouds 6 1017 100 7000 1 320 22:39 14.10.2019
6155 Clouds 6 1017 100 7000 1 320 22:20 14.10.2019
6156 Clouds 6 1016 93 8000 1.5 300 21:57 14.10.2019
6157 Clouds 6 1016 93 10000 1 300 21:39 14.10.2019
6158 Clouds 6 1016 93 10000 1 300 21:20 14.10.2019
6159 Clouds 6 1015 93 10000 2.1 340 20:57 14.10.2019
6160 Clouds 6 1015 93 10000 2.1 340 20:38 14.10.2019
6161 Clouds 7 1015 93 10000 2.6 340 20:38 14.10.2019
6162 Clouds 6 1015 93 10000 2.1 340 20:38 14.10.2019
6163 Clouds 7 1015 93 10000 2.6 340 20:19 14.10.2019
6164 Clouds 7 1014 93 10000 2.6 350 19:43 14.10.2019
6165 Clouds 7 1014 93 10000 2.1 350 19:25 14.10.2019
6166 Clouds 8 1013 87 10000 2.1 340 18:59 14.10.2019
6167 Clouds 8 1013 87 10000 2.1 340 18:40 14.10.2019
6168 Clouds 8 1013 87 10000 2.6 350 18:20 14.10.2019
6169 Clouds 8 1013 87 10000 2.6 350 18:20 14.10.2019
6170 Clouds 9 1012 87 10000 3.1 350 17:58 14.10.2019
6171 Clouds 9 1012 87 10000 3.1 350 17:40 14.10.2019
6172 Clouds 9 1011 87 10000 4.1 350 17:22 14.10.2019
6173 Clouds 9 1010 81 10000 4.1 340 16:44 14.10.2019
6174 Clouds 9 1010 87 10000 3.1 350 16:22 14.10.2019
6175 Rain 9 1008 81 10000 2.6 360 15:57 14.10.2019
6176 Rain 9 1008 81 10000 2.6 360 15:38 14.10.2019
6177 Rain 9 1008 87 10000 3.6 360 15:20 14.10.2019
6178 Clouds 9 1007 93 10000 3.6 10 14:43 14.10.2019
6179 -273 0 0 0 0 0 14:24 14.10.2019
6180 Rain 9 1005 93 10000 4.1 20 13:57 14.10.2019
6181 Rain 9 1005 93 10000 4.1 20 13:38 14.10.2019
6182 Rain 9 1004 93 10000 3.6 10 13:19 14.10.2019
6183 Rain 9 1003 93 10000 5.1 30 12:41 14.10.2019
6184 Rain 8 1003 100 7000 4.6 20 12:19 14.10.2019
6185 Rain 8 1002 100 7000 4.6 30 11:47 14.10.2019
6186 Rain 8 1002 100 5000 4.6 30 11:27 14.10.2019
6187 Rain 8 1001 93 4500 5.1 40 10:59 14.10.2019
6188 Rain 8 1001 93 4500 5.1 40 10:40 14.10.2019
6189 Rain 8 1001 100 5000 4.1 40 10:21 14.10.2019
6190 Rain 8 1000 100 3500 4.6 60 09:57 14.10.2019
6191 Rain 8 1000 100 3500 4.6 60 09:38 14.10.2019
6192 Rain 8 1000 93 5000 5.1 50 09:19 14.10.2019
6193 Rain 8 1000 93 5000 5.7 60 08:45 14.10.2019
6194 Rain 8 1001 93 5000 5.1 70 08:22 14.10.2019
6195 Rain 8 1001 93 7000 4.1 60 07:44 14.10.2019
6196 Rain 8 1002 93 6000 4.1 60 07:21 14.10.2019
6197 Rain 8 1002 93 7000 3.6 100 06:54 14.10.2019
6198 Rain 8 1002 93 10000 5.7 110 06:27 14.10.2019
6199 Rain 8 1002 93 10000 5.1 110 05:50 14.10.2019
6200 Rain 8 1004 100 10000 1.5 90 04:49 14.10.2019
6201 Rain 8 1005 100 10000 2.1 90 03:48 14.10.2019
6202 Rain 8 1006 100 10000 2.1 90 03:21 14.10.2019
6203 Rain 7 1007 93 10000 1.5 110 01:36 14.10.2019
6204 Rain 7 1008 93 10000 1 120 01:18 14.10.2019
6205 Clouds 7 1008 93 10000 1.5 120 00:23 14.10.2019
6206 Clouds 7 1009 93 10000 1 120 23:46 13.10.2019
6207 Clouds 7 1010 100 10000 1 110 23:21 13.10.2019
6208 Clouds 7 1010 100 10000 1.5 140 23:00 13.10.2019
6209 Clouds 7 1010 100 10000 1.5 140 22:41 13.10.2019
6210 Clear 7 1010 93 10000 1 160 22:22 13.10.2019
6211 Clear 7 1010 93 10000 1 160 22:22 13.10.2019
6212 Clouds 7 1010 93 10000 1.5 0 21:58 13.10.2019
6213 Clouds 6 1010 93 10000 1.5 0 21:38 13.10.2019
6214 Clouds 6 1010 93 10000 1.5 150 21:19 13.10.2019
6215 Clouds 6 1010 100 10000 1.5 140 20:58 13.10.2019
6216 Clouds 6 1010 100 10000 1.5 140 20:58 13.10.2019
6217 Clouds 6 1010 100 10000 1.5 140 20:40 13.10.2019
6218 Clouds 6 1010 100 10000 2.03 192.792 20:21 13.10.2019
6219 -273 0 0 0 0 0 19:59 13.10.2019
6220 Mist 6 1010 93 10000 1.5 0 19:39 13.10.2019
6221 Mist 6 1010 93 10000 1.5 0 19:39 13.10.2019
6222 Mist 6 1010 93 10000 1.5 0 19:39 13.10.2019
6223 Clouds 6 1010 93 10000 2.03 192.792 19:21 13.10.2019
6224 Clouds 7 1010 87 10000 2.03 192.792 18:59 13.10.2019
6225 Clouds 7 1010 87 10000 2.03 192.792 18:59 13.10.2019
6226 Clouds 7 1010 87 10000 2.03 192.792 18:58 13.10.2019
6227 Clouds 7 1010 87 10000 2.03 192.792 18:58 13.10.2019
6228 Clouds 7 1010 87 10000 2.03 192.792 18:58 13.10.2019
6229 Clouds 7 1010 87 10000 2.03 192.792 18:38 13.10.2019
6230 Clear 7 1010 81 10000 1.5 0 18:38 13.10.2019
6231 Clear 8 1010 81 10000 1.5 0 18:19 13.10.2019
6232 Clear 8 1010 81 10000 1.5 0 18:19 13.10.2019
6233 Clear 9 1010 76 10000 1 210 17:58 13.10.2019
6234 Clear 10 1010 76 10000 1 210 17:39 13.10.2019
6235 Clear 11 1010 71 10000 2.1 230 17:21 13.10.2019
6236 Clouds 11 1009 66 10000 2.6 240 16:43 13.10.2019
6237 Clouds 12 1009 66 10000 3.6 250 16:19 13.10.2019
6238 Clouds 12 1009 58 10000 4.1 240 15:57 13.10.2019
6239 Clouds 12 1009 58 10000 4.1 260 15:38 13.10.2019
6240 Clouds 12 1009 58 10000 4.1 260 15:19 13.10.2019
6241 Clouds 12 1008 66 10000 4.6 260 14:57 13.10.2019
6242 Clouds 12 1008 66 10000 4.6 260 14:38 13.10.2019
6243 Clouds 12 1008 66 10000 4.1 260 14:19 13.10.2019
6244 Clouds 11 1008 71 10000 3.6 250 13:42 13.10.2019
6245 Clouds 11 1008 71 10000 3.6 250 13:42 13.10.2019
6246 Clouds 11 1008 76 10000 4.1 270 13:23 13.10.2019
6247 Clouds 11 1007 71 10000 4.1 230 12:59 13.10.2019
6248 Clouds 11 1007 81 10000 4.1 280 12:39 13.10.2019
6249 Clouds 10 1007 81 10000 4.1 280 12:21 13.10.2019
6250 Clouds 10 1007 76 10000 4.6 280 11:59 13.10.2019
6251 Clouds 10 1006 81 10000 4.1 250 11:39 13.10.2019
6252 Clouds 10 1006 81 10000 4.1 250 11:21 13.10.2019
6253 Clouds 10 1006 81 10000 4.6 250 10:59 13.10.2019
6254 Clouds 9 1006 81 10000 4.6 250 10:39 13.10.2019
6255 Clouds 9 1006 81 10000 4.6 250 10:39 13.10.2019
6256 Clouds 9 1005 81 10000 4.6 250 10:20 13.10.2019
6257 Clouds 9 1005 81 10000 4.6 270 09:39 13.10.2019
6258 Clouds 9 1004 81 10000 5.1 260 09:21 13.10.2019
6259 Clouds 9 1004 81 10000 5.1 260 09:21 13.10.2019
6260 Clouds 9 1004 81 10000 5.7 260 08:51 13.10.2019
6261 Clouds 10 1003 81 10000 4.6 250 08:27 13.10.2019
6262 Clouds 9 1002 81 10000 5.1 270 07:55 13.10.2019
6263 Clouds 10 1002 81 10000 5.1 270 07:35 13.10.2019
6264 Drizzle 10 1001 81 10000 4.6 260 06:54 13.10.2019
6265 Clouds 10 1001 81 10000 4.6 250 06:24 13.10.2019
6266 Clouds 10 1000 81 10000 5.7 250 05:27 13.10.2019
6267 Clouds 10 1000 81 10000 5.7 250 05:27 13.10.2019
6268 Drizzle 10 999 81 10000 6.2 240 04:35 13.10.2019
6269 Rain 10 999 81 10000 5.1 230 03:34 13.10.2019
6270 Drizzle 10 998 81 10000 5.1 230 02:31 13.10.2019
6271 Drizzle 10 998 81 10000 5.1 230 02:31 13.10.2019
6272 Clouds 11 998 81 10000 5.1 240 01:37 13.10.2019
6273 Clouds 10 998 81 10000 5.1 230 00:59 13.10.2019
6274 Clouds 11 997 81 10000 5.1 240 00:38 13.10.2019
6275 Clouds 11 997 81 10000 5.1 240 00:19 13.10.2019
6276 Clouds 11 997 81 10000 5.1 240 23:42 12.10.2019
6277 Clouds 11 997 81 10000 5.1 230 23:23 12.10.2019
6278 Clouds 11 997 81 10000 5.1 240 22:59 12.10.2019
6279 Clouds 11 997 81 10000 5.1 240 22:40 12.10.2019
6280 Clouds 11 997 81 10000 5.1 230 22:22 12.10.2019
6281 Rain 11 996 81 10000 5.7 230 21:58 12.10.2019
6282 Rain 11 996 81 10000 5.7 230 21:40 12.10.2019
6283 Rain 11 996 81 10000 5.7 230 21:40 12.10.2019
6284 Rain 11 996 81 10000 5.7 230 21:40 12.10.2019
6285 Rain 11 996 81 10000 5.1 220 21:21 12.10.2019
6286 -273 0 0 0 0 0 20:54 12.10.2019
6287 Rain 11 996 81 10000 4.6 210 20:36 12.10.2019
6288 Rain 11 996 76 10000 3.6 220 20:18 12.10.2019
6289 Rain 11 996 71 10000 3.6 220 19:36 12.10.2019
6290 Rain 11 996 71 10000 4.1 220 19:18 12.10.2019
6291 Rain 11 996 71 10000 3.6 210 18:43 12.10.2019
6292 Rain 11 996 71 10000 3.6 220 18:24 12.10.2019
6293 Rain 12 996 66 10000 3.6 230 17:46 12.10.2019
6294 Clear 12 996 71 10000 4.1 240 17:22 12.10.2019
6295 Clouds 12 995 71 10000 5.1 240 16:59 12.10.2019
6296 Clouds 12 995 71 10000 5.1 240 16:40 12.10.2019
6297 Clouds 12 995 71 10000 5.1 240 16:40 12.10.2019
6298 Clouds 12 995 71 10000 5.7 230 16:21 12.10.2019
6299 Clouds 12 995 81 10000 4.1 230 15:56 12.10.2019
6300 Clouds 12 995 81 10000 4.1 230 15:37 12.10.2019
6301 Rain 12 995 76 10000 4.6 240 15:18 12.10.2019
6302 Rain 12 995 76 10000 4.1 230 14:40 12.10.2019
6303 Rain 12 995 81 10000 4.1 220 14:20 12.10.2019
6304 Rain 12 994 81 10000 4.1 220 13:51 12.10.2019
6305 Clouds 11 994 81 10000 4.1 230 13:32 12.10.2019
6306 Clouds 11 994 87 10000 4.1 230 12:56 12.10.2019
6307 Clouds 11 994 87 10000 3.6 240 12:38 12.10.2019
6308 Clouds 11 994 87 10000 3.6 240 12:38 12.10.2019
6309 Clouds 11 994 87 10000 3.6 240 12:20 12.10.2019
6310 Clouds 11 994 87 10000 3.6 240 12:20 12.10.2019
6311 Clouds 10 994 93 10000 4.1 240 11:45 12.10.2019
6312 Clouds 10 993 93 10000 4.1 240 11:24 12.10.2019
6313 Clouds 10 993 93 10000 3.1 240 10:58 12.10.2019
6314 Clouds 10 993 93 10000 3.1 240 10:39 12.10.2019
6315 Clouds 10 993 93 8000 4.1 230 10:20 12.10.2019
6316 -273 0 0 0 0 0 09:57 12.10.2019
6317 Rain 10 992 93 10000 5.7 240 09:57 12.10.2019
6318 Rain 10 992 93 10000 5.7 240 09:38 12.10.2019
6319 Rain 10 992 87 10000 3.6 240 09:19 12.10.2019
6320 Rain 9 991 93 10000 4.1 240 08:44 12.10.2019
6321 Rain 9 991 93 10000 4.1 240 08:25 12.10.2019
6322 Clouds 9 991 93 10000 4.1 240 07:59 12.10.2019
6323 Clouds 9 991 93 10000 4.1 240 07:31 12.10.2019
6324 Clouds 9 991 93 10000 4.6 240 06:37 12.10.2019
6325 Clouds 9 990 93 10000 4.1 240 05:44 12.10.2019
6326 Rain 9 990 87 10000 5.7 250 04:43 12.10.2019
6327 Rain 10 990 93 10000 4.6 240 03:56 12.10.2019
6328 Rain 10 990 93 10000 4.1 230 02:50 12.10.2019
6329 Rain 10 991 93 10000 3.1 220 01:34 12.10.2019
6330 Rain 11 991 93 10000 3.1 210 00:56 12.10.2019
6331 Rain 11 991 93 10000 2.6 200 00:38 12.10.2019
6332 Rain 10 991 93 10000 3.6 210 23:55 11.10.2019
6333 Rain 10 991 93 10000 3.6 210 23:37 11.10.2019
6334 Rain 11 991 93 10000 2.6 190 23:18 11.10.2019
6335 Rain 11 992 93 10000 3.1 190 22:38 11.10.2019
6336 Rain 11 992 93 10000 3.1 190 22:19 11.10.2019
6337 Drizzle 10 992 93 10000 2.6 180 21:44 11.10.2019
6338 Rain 10 993 100 10000 2.6 150 21:22 11.10.2019
6339 Rain 10 993 93 10000 2.1 170 20:59 11.10.2019
6340 Rain 10 993 93 10000 2.1 170 20:41 11.10.2019
6341 Clouds 10 993 93 10000 2.1 170 20:23 11.10.2019
6342 Clouds 10 994 93 10000 3.6 180 19:55 11.10.2019
6343 Clouds 10 994 93 10000 3.6 180 19:37 11.10.2019
6344 Clouds 10 994 93 10000 3.6 180 19:37 11.10.2019
6345 Clouds 10 994 93 10000 2.1 170 19:18 11.10.2019
6346 Clouds 10 994 93 10000 2.1 170 19:18 11.10.2019
6347 Clouds 10 994 93 10000 2.1 170 19:18 11.10.2019
6348 Clouds 10 994 93 10000 2.1 170 19:18 11.10.2019
6349 Drizzle 10 995 93 10000 2.6 170 18:56 11.10.2019
6350 Drizzle 10 995 93 10000 2.6 170 18:37 11.10.2019
6351 Rain 10 995 87 10000 3.6 160 18:18 11.10.2019
6352 Rain 11 995 87 10000 2.6 170 17:55 11.10.2019
6353 Rain 11 995 87 10000 2.6 170 17:36 11.10.2019
6354 Clouds 11 996 87 10000 3.1 180 17:18 11.10.2019
6355 Clouds 11 996 87 10000 3.1 170 16:40 11.10.2019
6356 Clouds 11 996 87 10000 3.6 190 16:20 11.10.2019
6357 Clouds 11 996 87 10000 3.1 190 15:59 11.10.2019
6358 Clouds 11 996 87 10000 3.1 190 15:59 11.10.2019
6359 Clouds 11 996 87 10000 3.1 190 15:38 11.10.2019
6360 Drizzle 11 997 87 10000 3.6 190 15:19 11.10.2019
6361 Drizzle 11 997 87 10000 4.1 190 14:47 11.10.2019
6362 Rain 11 997 87 10000 3.6 210 14:29 11.10.2019
6363 Clouds 11 998 81 10000 3.6 210 13:57 11.10.2019
6364 Clouds 11 998 81 10000 3.6 210 13:38 11.10.2019
6365 Clouds 11 998 81 10000 3.1 210 13:19 11.10.2019
6366 Clouds 11 998 81 10000 3.6 220 12:56 11.10.2019
6367 Clouds 11 998 81 10000 3.6 220 12:38 11.10.2019
6368 Clouds 11 998 81 10000 5.1 230 12:18 11.10.2019
6369 Clouds 11 998 81 10000 5.1 220 11:41 11.10.2019
6370 Clouds 10 998 87 10000 4.1 220 11:22 11.10.2019
6371 Clouds 10 998 87 10000 4.1 210 10:58 11.10.2019
6372 Clouds 10 998 87 10000 4.1 210 10:40 11.10.2019
6373 Clouds 10 998 87 10000 4.1 210 10:22 11.10.2019
6374 Clouds 9 998 93 10000 4.1 210 09:55 11.10.2019
6375 Clouds 9 998 93 10000 4.1 210 09:37 11.10.2019
6376 Clouds 9 998 93 10000 4.1 220 09:18 11.10.2019
6377 Clouds 8 998 100 10000 3.6 210 08:55 11.10.2019
6378 Clouds 8 998 93 10000 3.6 210 08:36 11.10.2019
6379 Clouds 8 998 93 10000 3.6 210 08:18 11.10.2019
6380 Mist 8 998 93 10000 3.6 210 07:41 11.10.2019
6381 Drizzle 7 998 93 4500 4.1 210 07:22 11.10.2019
6382 Clouds 7 999 100 10000 2.6 200 06:47 11.10.2019
6383 Clouds 8 999 100 10000 2.1 200 06:22 11.10.2019
6384 Clouds 7 999 100 10000 1.5 180 05:39 11.10.2019
6385 Clouds 8 999 100 10000 3.1 220 04:59 11.10.2019
6386 Clouds 8 999 100 10000 2.1 200 04:24 11.10.2019
6387 Clouds 9 1000 93 10000 2.6 220 02:32 11.10.2019
6388 Clouds 9 999 93 10000 2.6 220 00:49 11.10.2019
6389 Clouds 9 999 93 10000 2.6 230 00:29 11.10.2019
6390 Clouds 9 999 93 10000 2.6 240 23:44 10.10.2019
6391 Clouds 9 999 100 10000 2.1 220 23:22 10.10.2019
6392 Clouds 9 999 100 10000 2.1 220 22:57 10.10.2019
6393 Clouds 9 999 100 10000 2.1 220 22:39 10.10.2019
6394 Rain 9 999 100 10000 2.6 220 22:20 10.10.2019
6395 Rain 9 999 93 10000 2.6 220 21:57 10.10.2019
6396 Rain 9 999 93 10000 2.6 220 21:39 10.10.2019
6397 Rain 9 999 93 10000 2.1 210 21:20 10.10.2019
6398 Rain 9 999 93 10000 2.1 200 20:43 10.10.2019
6399 Clouds 10 999 87 10000 2.1 200 20:22 10.10.2019
6400 Clouds 9 999 87 10000 2.1 200 19:59 10.10.2019
6401 Clouds 10 999 87 10000 2.1 200 19:41 10.10.2019
6402 Clouds 10 999 87 10000 2.1 200 19:41 10.10.2019
6403 Clouds 9 999 87 10000 2.1 200 19:41 10.10.2019
6404 Clouds 10 999 87 10000 2.1 200 19:21 10.10.2019
6405 Clear 10 999 87 10000 1.5 210 18:59 10.10.2019
6406 Clear 10 999 87 10000 1.5 210 18:39 10.10.2019
6407 Clouds 10 999 81 10000 2.1 220 18:20 10.10.2019
6408 Clouds 10 999 81 10000 2.1 230 17:55 10.10.2019
6409 Clouds 10 999 81 10000 2.1 230 17:36 10.10.2019
6410 Clouds 11 999 81 10000 2.6 240 17:18 10.10.2019
6411 Clouds 11 999 76 10000 3.6 240 16:44 10.10.2019
6412 Clouds 11 999 76 10000 3.1 230 16:26 10.10.2019
6413 Clouds 11 999 81 10000 2.6 270 15:57 10.10.2019
6414 Clouds 11 999 81 10000 2.6 270 15:37 10.10.2019
6415 Rain 11 998 87 10000 2.1 260 15:19 10.10.2019
6416 Clouds 11 998 81 10000 1.5 180 14:54 10.10.2019
6417 Clouds 11 998 76 10000 2.1 190 14:36 10.10.2019
6418 Clouds 11 998 76 10000 2.1 190 14:18 10.10.2019
6419 Clouds 11 998 76 10000 2.6 220 13:41 10.10.2019
6420 Clouds 11 998 81 10000 2.1 190 13:23 10.10.2019
6421 Clouds 11 998 87 10000 2.6 200 12:57 10.10.2019
6422 Clouds 11 998 87 10000 2.6 200 12:39 10.10.2019
6423 Mist 10 998 87 10000 2.6 200 12:20 10.10.2019
6424 Mist 10 998 87 10000 2.6 200 12:20 10.10.2019
6425 Mist 10 998 93 10000 1.5 190 11:56 10.10.2019
6426 Mist 10 998 93 10000 1.5 190 11:38 10.10.2019
6427 Clouds 10 998 93 10000 1.5 0 11:19 10.10.2019
6428 Mist 10 998 100 10000 1.5 160 10:44 10.10.2019
6429 Mist 9 998 100 10000 1.5 150 10:26 10.10.2019
6430 Fog 9 998 100 10000 1.5 170 09:56 10.10.2019
6431 Fog 9 998 100 10000 1.5 170 09:38 10.10.2019
6432 Fog 8 998 100 7000 1 0 09:20 10.10.2019
6433 Fog 8 998 100 7000 1.5 0 08:57 10.10.2019
6434 Fog 8 998 100 7000 1.5 0 08:37 10.10.2019
6435 Fog 8 998 100 4900 1.5 140 08:18 10.10.2019
6436 Fog 8 998 100 2300 1 0 07:44 10.10.2019
6437 Fog 8 998 100 800 1.5 150 07:21 10.10.2019
6438 Mist 8 998 100 9000 2.1 120 06:48 10.10.2019
6439 Mist 8 998 100 10000 1.5 120 06:29 10.10.2019
6440 Rain 7 998 100 10000 1.5 120 05:28 10.10.2019
6441 Rain 7 998 93 10000 2.1 100 04:47 10.10.2019
6442 Mist 7 998 93 10000 1.5 120 04:26 10.10.2019
6443 Fog 5 999 100 10000 1 0 01:44 10.10.2019
6444 Fog 5 999 100 10000 1 0 01:43 10.10.2019
6445 Fog 6 999 100 5000 1.83 132.472 01:25 10.10.2019
6446 Fog 6 1000 93 600 1.83 132.472 00:54 10.10.2019
6447 Fog 6 1000 100 1400 0.35 269.026 00:22 10.10.2019
6448 Fog 6 1000 100 10000 1 0 23:40 09.10.2019
6449 Fog 7 1000 100 10000 1 0 23:21 09.10.2019
6450 Fog 7 1000 100 10000 1 180 22:56 09.10.2019
6451 Fog 7 1000 100 10000 1 180 22:37 09.10.2019
6452 Mist 7 1000 93 10000 1 200 22:19 09.10.2019
6453 Mist 7 1000 93 10000 1.5 200 21:40 09.10.2019
6454 Mist 8 1000 93 10000 1.5 200 21:21 09.10.2019
6455 Mist 8 1000 93 10000 1 210 20:56 09.10.2019
6456 Mist 8 1000 93 10000 1 210 20:38 09.10.2019
6457 Mist 8 1000 93 10000 1 210 20:38 09.10.2019
6458 Mist 8 1000 93 10000 0.39 112.54 20:19 09.10.2019
6459 Mist 8 1000 93 10000 1 280 19:58 09.10.2019
6460 Mist 8 1000 93 10000 1 280 19:39 09.10.2019
6461 Mist 8 1000 93 10000 1.5 250 19:20 09.10.2019
6462 Rain 9 1000 93 10000 1.5 310 18:38 09.10.2019
6463 Clouds 9 1000 93 10000 1.5 0 18:19 09.10.2019
6464 Mist 9 1000 93 10000 1.5 200 17:57 09.10.2019
6465 Mist 9 1000 93 10000 1.5 200 17:37 09.10.2019
6466 Mist 9 1000 93 10000 1.5 200 17:37 09.10.2019
6467 Mist 9 999 93 10000 1.5 80 17:19 09.10.2019
6468 Mist 9 999 93 10000 1.5 80 17:19 09.10.2019
6469 Rain 9 999 93 10000 2.6 100 16:55 09.10.2019
6470 Rain 9 999 81 10000 2.1 90 16:36 09.10.2019
6471 Rain 9 999 81 10000 2.1 90 16:18 09.10.2019
6472 Clouds 9 999 81 10000 2.6 70 15:55 09.10.2019
6473 Clouds 9 999 81 10000 2.6 70 15:36 09.10.2019
6474 Drizzle 9 999 81 10000 2.6 90 15:18 09.10.2019
6475 Drizzle 9 999 81 10000 2.6 90 15:18 09.10.2019
6476 Rain 9 999 81 10000 2.6 100 14:41 09.10.2019
6477 Rain 9 999 81 10000 3.1 80 14:18 09.10.2019
6478 Rain 9 999 81 10000 3.6 80 13:55 09.10.2019
6479 Rain 9 999 81 10000 3.6 80 13:36 09.10.2019
6480 Drizzle 9 999 87 10000 3.6 100 13:18 09.10.2019
6481 Clouds 9 999 81 10000 3.6 100 12:42 09.10.2019
6482 Rain 8 999 87 10000 3.6 110 12:22 09.10.2019
6483 Clouds 8 999 87 10000 3.6 100 11:57 09.10.2019
6484 Clouds 8 999 87 10000 3.6 100 11:39 09.10.2019
6485 Drizzle 8 999 87 10000 3.6 100 11:20 09.10.2019
6486 Rain 7 999 81 10000 3.1 100 10:55 09.10.2019
6487 Rain 7 999 81 10000 3.1 100 10:37 09.10.2019
6488 Rain 7 998 87 10000 4.1 90 10:18 09.10.2019
6489 Rain 6 998 87 10000 3.6 90 09:42 09.10.2019
6490 Rain 6 998 87 10000 3.6 90 09:19 09.10.2019
6491 Clouds 6 998 87 10000 3.1 90 08:56 09.10.2019
6492 Drizzle 6 998 87 10000 2.6 80 08:37 09.10.2019
6493 Drizzle 6 998 87 10000 2.6 80 08:18 09.10.2019
6494 Drizzle 6 998 87 10000 2.6 80 08:18 09.10.2019
6495 Clouds 5 998 93 10000 1.5 60 07:43 09.10.2019
6496 Drizzle 5 998 93 10000 1.5 60 07:23 09.10.2019
6497 Rain 5 998 93 10000 2.1 60 06:52 09.10.2019
6498 Rain 5 998 100 10000 1.5 60 06:20 09.10.2019
6499 Rain 5 998 93 10000 1.5 50 05:46 09.10.2019
6500 Rain 5 998 93 10000 2.1 60 04:27 09.10.2019
6501 Drizzle 5 998 93 10000 2.34 81.901 02:54 09.10.2019
6502 Drizzle 5 998 87 10000 1.5 60 01:44 09.10.2019
6503 Drizzle 4 998 86 10000 1.5 50 01:21 09.10.2019
6504 Drizzle 4 998 86 10000 1.5 50 01:21 09.10.2019
6505 Drizzle 4 998 86 10000 1.5 50 01:21 09.10.2019
6506 Rain 4 998 86 10000 1 30 00:58 09.10.2019
6507 Rain 4 998 86 10000 1 30 00:40 09.10.2019
6508 Drizzle 4 999 81 10000 1.5 70 00:21 09.10.2019
6509 Rain 4 999 86 10000 1.5 80 23:57 08.10.2019
6510 Rain 4 999 86 10000 1.5 80 23:36 08.10.2019
6511 Mist 4 999 75 10000 1.5 50 23:18 08.10.2019
6512 Mist 4 999 86 10000 1 30 22:39 08.10.2019
6513 Mist 4 999 86 10000 0.5 360 22:20 08.10.2019
6514 Mist 4 999 86 10000 0.5 360 22:20 08.10.2019
6515 Drizzle 4 999 80 10000 0.64 84.085 21:57 08.10.2019
6516 Clouds 4 999 86 10000 0.64 84.085 21:39 08.10.2019
6517 Clouds 4 999 86 10000 1.02 139.185 21:19 08.10.2019
6518 Clear 4 1000 86 10000 1.5 140 20:57 08.10.2019
6519 Clear 4 1000 86 10000 1.5 140 20:39 08.10.2019
6520 Clear 4 1000 80 10000 1 0 20:21 08.10.2019
6521 Clouds 4 1000 80 10000 2.1 150 19:58 08.10.2019
6522 Clouds 5 1000 80 10000 2.1 150 19:40 08.10.2019
6523 Clouds 5 1000 80 10000 1.5 140 19:21 08.10.2019
6524 Clouds 5 1000 75 10000 2.1 150 18:55 08.10.2019
6525 Clouds 5 1000 75 10000 2.1 150 18:55 08.10.2019
6526 Clouds 5 1001 70 10000 1 0 18:36 08.10.2019
6527 Clouds 6 1001 70 10000 1 0 18:18 08.10.2019
6528 Clouds 7 1001 65 10000 2.1 180 17:40 08.10.2019
6529 Clouds 7 1001 65 10000 1.5 170 17:20 08.10.2019
6530 Clouds 7 1001 68 10000 2.1 180 16:58 08.10.2019
6531 Clouds 7 1001 68 10000 2.1 180 16:39 08.10.2019
6532 Clouds 7 1001 68 10000 2.1 160 16:21 08.10.2019
6533 Clouds 7 1001 68 10000 2.1 170 15:41 08.10.2019
6534 Clouds 7 1001 68 10000 2.1 170 15:41 08.10.2019
6535 Clouds 7 1002 65 10000 1 0 15:21 08.10.2019
6536 Clouds 7 1002 65 10000 1.5 160 14:58 08.10.2019
6537 Clouds 7 1002 65 10000 1.5 160 14:58 08.10.2019
6538 Clouds 7 1002 65 10000 1.5 160 14:39 08.10.2019
6539 Clouds 7 1003 65 10000 2.1 190 14:21 08.10.2019
6540 Clouds 7 1003 70 10000 2.1 220 13:57 08.10.2019
6541 Clouds 7 1003 70 10000 2.1 220 13:38 08.10.2019
6542 Clear 7 1003 75 10000 1.5 0 13:19 08.10.2019
6543 Clear 7 1004 81 10000 2.1 210 12:58 08.10.2019
6544 Clear 6 1004 81 10000 2.1 210 12:37 08.10.2019
6545 Clear 6 1004 81 10000 1 0 12:18 08.10.2019
6546 Clear 6 1004 87 10000 1.5 230 11:42 08.10.2019
6547 Clear 5 1005 93 10000 1.47 202.892 11:24 08.10.2019
6548 Clear 4 1005 100 10000 1.47 202.892 10:58 08.10.2019
6549 Clear 4 1005 100 10000 0.5 0 10:37 08.10.2019
6550 Clear 4 1005 100 10000 0.5 0 10:19 08.10.2019
6551 Clear 4 1005 100 10000 1.47 202.892 09:55 08.10.2019
6552 Clear 3 1005 100 10000 1.47 202.892 09:37 08.10.2019
6553 Clear 3 1006 100 10000 0.8 187.897 09:19 08.10.2019
6554 Clear 3 1006 100 10000 0.5 0 08:42 08.10.2019
6555 Clear 2 1006 100 10000 0.43 193.449 08:23 08.10.2019
6556 Clear 2 1006 100 10000 0.43 193.449 08:23 08.10.2019
6557 Clouds 2 1007 100 10000 1 0 07:44 08.10.2019
6558 Clear 2 1007 100 10000 2.6 240 07:21 08.10.2019
6559 Clear 2 1008 100 10000 1 0 06:51 08.10.2019
6560 Clouds 2 1008 100 10000 1.14 266.571 06:28 08.10.2019
6561 Mist 1 1008 100 9000 1 210 05:46 08.10.2019
6562 Clouds 1 1009 100 10000 0.5 250 05:26 08.10.2019
6563 Clouds 1 1010 100 10000 1.14 266.571 04:31 08.10.2019
6564 Clouds 2 1010 100 10000 1 200 03:29 08.10.2019
6565 Mist 2 1010 100 3600 1.68 302.821 02:37 08.10.2019
6566 Clouds 2 1011 93 10000 1.68 302.821 01:47 08.10.2019
6567 Clouds 2 1011 100 10000 1.52 307.951 01:28 08.10.2019
6568 Fog 2 1012 100 10000 1 250 00:48 08.10.2019
6569 Mist 2 1012 93 6000 1.5 270 00:21 08.10.2019
6570 Fog 2 1012 93 10000 1 280 23:41 07.10.2019
6571 Fog 2 1012 93 10000 1 280 23:20 07.10.2019
6572 Fog 2 1012 93 10000 1 280 23:20 07.10.2019
6573 Fog 3 1013 93 10000 1 290 22:57 07.10.2019
6574 Fog 3 1013 93 10000 1 290 22:39 07.10.2019
6575 Fog 3 1014 86 10000 2.1 280 22:20 07.10.2019
6576 Mist 3 1014 93 10000 1.5 290 21:57 07.10.2019
6577 Mist 3 1014 93 10000 1.5 290 21:38 07.10.2019
6578 Clear 4 1014 86 10000 2.1 290 21:20 07.10.2019
6579 Clear 4 1014 93 10000 1.5 0 20:57 07.10.2019
6580 Clouds 5 1014 93 10000 1.5 350 20:39 07.10.2019
6581 Clouds 5 1014 93 10000 1.5 350 20:20 07.10.2019
6582 Clouds 5 1014 87 10000 3.1 350 19:58 07.10.2019
6583 Clouds 5 1014 87 10000 3.1 350 19:39 07.10.2019
6584 Clouds 5 1015 87 10000 3.6 340 19:19 07.10.2019
6585 Clouds 5 1015 87 10000 2.1 320 18:56 07.10.2019
6586 Clouds 5 1015 87 10000 2.1 320 18:56 07.10.2019
6587 Clouds 5 1015 87 10000 2.1 320 18:38 07.10.2019
6588 Rain 6 1015 87 10000 3.1 320 18:18 07.10.2019
6589 Rain 6 1015 75 10000 3.6 310 17:43 07.10.2019
6590 Rain 7 1015 75 10000 3.6 310 17:20 07.10.2019
6591 Rain 7 1015 75 10000 4.6 280 16:57 07.10.2019
6592 Rain 7 1015 75 10000 4.6 280 16:38 07.10.2019
6593 Rain 7 1015 75 10000 3.1 290 16:20 07.10.2019
6594 Rain 8 1016 70 10000 4.1 300 15:45 07.10.2019
6595 Rain 8 1016 70 10000 3.6 310 15:25 07.10.2019
6596 Rain 8 1016 75 10000 4.1 320 14:55 07.10.2019
6597 Rain 8 1016 75 10000 4.1 320 14:37 07.10.2019
6598 Rain 8 1016 70 10000 3.6 330 14:18 07.10.2019
6599 Clouds 8 1016 70 10000 3.1 310 13:41 07.10.2019
6600 Clouds 7 1016 70 10000 3.1 310 13:20 07.10.2019
6601 Clouds 8 1016 70 10000 3.6 290 12:55 07.10.2019
6602 Clouds 7 1016 70 10000 3.6 290 12:37 07.10.2019
6603 Clear 7 1017 75 10000 3.1 290 12:19 07.10.2019
6604 Clear 6 1017 75 10000 3.1 300 11:57 07.10.2019
6605 Clear 6 1017 75 10000 3.1 300 11:37 07.10.2019
6606 Clear 6 1017 75 10000 2.6 300 11:18 07.10.2019
6607 Clear 4 1017 80 10000 2.6 310 10:41 07.10.2019
6608 Clear 4 1017 80 10000 2.6 310 10:41 07.10.2019
6609 Clear 4 1017 80 10000 2.6 310 10:41 07.10.2019
6610 Clear 4 1017 80 10000 2.6 300 10:20 07.10.2019
6611 Clear 4 1017 80 10000 2.6 300 10:20 07.10.2019
6612 Clear 3 1017 65 10000 2.1 330 09:42 07.10.2019
6613 Clear 3 1017 65 10000 2.1 330 09:42 07.10.2019
6614 Clear 2 1017 86 10000 2.1 300 09:23 07.10.2019
6615 Clear 1 1017 71 10000 2.1 290 08:57 07.10.2019
6616 Clear 1 1017 71 10000 2.1 290 08:38 07.10.2019
6617 Clear 0 1017 92 10000 2.1 280 08:19 07.10.2019
6618 Clear 0 1017 92 10000 2.1 270 07:41 07.10.2019
6619 Clear -1 1017 92 10000 1.5 290 07:23 07.10.2019
6620 Clear 0 1017 71 10000 1.5 270 06:54 07.10.2019
6621 Clouds 0 1018 86 10000 1.5 270 06:34 07.10.2019
6622 Clouds 1 1018 80 10000 1.5 300 05:49 07.10.2019
6623 Clouds 1 1018 80 10000 1.5 280 05:23 07.10.2019
6624 Clouds 2 1018 74 10000 1.5 270 04:28 07.10.2019
6625 Clouds 2 1018 74 10000 2.1 280 03:45 07.10.2019
6626 Clouds 2 1018 74 10000 2.1 280 03:45 07.10.2019
6627 Clouds 2 1019 71 10000 2.1 280 03:21 07.10.2019
6628 Clouds 2 1019 71 10000 2.1 280 02:22 07.10.2019
6629 Clouds 2 1019 71 10000 2.1 280 02:22 07.10.2019
6630 Clouds 2 1019 71 10000 2.1 280 01:52 07.10.2019
6631 Clouds 2 1019 86 10000 1.5 270 01:22 07.10.2019
6632 Clouds 2 1020 69 10000 0.5 280 00:41 07.10.2019
6633 Clouds 2 1020 86 10000 1.87 309.57 00:21 07.10.2019
6634 Clouds 2 1020 86 10000 0.5 290 23:54 06.10.2019
6635 Clouds 2 1020 86 10000 1 290 23:36 06.10.2019
6636 Clouds 1 1020 86 10000 1 290 23:18 06.10.2019
6637 Clouds 2 1020 86 10000 1 280 22:41 06.10.2019
6638 Clear 1 1021 74 10000 1 270 22:22 06.10.2019
6639 Clear 1 1021 74 10000 2.1 270 21:58 06.10.2019
6640 Clear 1 1021 74 10000 2.1 270 21:38 06.10.2019
6641 Clear 1 1021 74 10000 2.1 300 21:19 06.10.2019
6642 Clear 2 1021 74 10000 2.1 280 20:58 06.10.2019
6643 Clear 2 1021 74 10000 2.1 280 20:40 06.10.2019
6644 Clear 2 1021 69 10000 2.1 290 20:21 06.10.2019
6645 Clear 3 1022 69 10000 2.1 300 19:58 06.10.2019
6646 Clear 3 1022 69 10000 2.1 300 19:38 06.10.2019
6647 Clear 3 1022 64 10000 1.5 290 19:19 06.10.2019
6648 Clear 4 1022 64 10000 2.6 300 18:57 06.10.2019
6649 Clear 4 1022 64 10000 2.6 300 18:39 06.10.2019
6650 Clear 5 1022 60 10000 4.1 300 18:19 06.10.2019
6651 Clear 5 1022 60 10000 3.6 300 17:58 06.10.2019
6652 Clear 5 1022 60 10000 3.6 300 17:39 06.10.2019
6653 Clear 6 1022 52 10000 4.1 290 17:19 06.10.2019
6654 Clear 6 1022 52 10000 4.6 310 16:42 06.10.2019
6655 Clear 6 1023 52 10000 4.1 330 16:24 06.10.2019
6656 Clear 6 1023 56 10000 4.6 300 15:58 06.10.2019
6657 Clear 6 1023 56 10000 4.6 300 15:39 06.10.2019
6658 Clear 6 1023 52 10000 4.1 310 15:18 06.10.2019
6659 Clear 7 1023 48 10000 4.6 310 14:43 06.10.2019
6660 Clear 6 1023 52 10000 4.1 310 14:24 06.10.2019
6661 Clear 6 1023 52 10000 3.6 320 13:58 06.10.2019
6662 Clear 6 1023 48 10000 4.1 320 13:39 06.10.2019
6663 Clear 6 1023 48 10000 4.1 320 13:20 06.10.2019
6664 Clear 6 1023 48 10000 4.1 310 12:57 06.10.2019
6665 Clear 6 1023 48 10000 4.1 310 12:57 06.10.2019
6666 Clear 6 1023 48 10000 4.1 310 12:57 06.10.2019
6667 Clear 6 1023 48 10000 4.1 310 12:38 06.10.2019
6668 Clear 5 1024 52 10000 4.1 330 12:20 06.10.2019
6669 Clear 5 1024 52 10000 4.6 340 11:56 06.10.2019
6670 Clear 5 1024 52 10000 4.6 340 11:37 06.10.2019
6671 Clouds 4 1024 55 10000 5.1 330 11:18 06.10.2019
6672 Clouds 4 1024 55 10000 4.6 340 10:43 06.10.2019
6673 Clouds 4 1024 59 10000 4.6 330 10:25 06.10.2019
6674 Clouds 3 1024 59 10000 4.1 330 09:58 06.10.2019
6675 Clouds 4 1024 59 10000 4.1 330 09:39 06.10.2019
6676 Clouds 3 1024 59 10000 3.1 320 09:18 06.10.2019
6677 Clouds 3 1024 64 10000 3.6 330 08:43 06.10.2019
6678 Clouds 3 1024 64 10000 3.6 330 08:20 06.10.2019
6679 Clouds 2 1024 74 10000 3.1 330 07:44 06.10.2019
6680 Clouds 2 1024 80 10000 2.6 330 07:19 06.10.2019
6681 Clear 2 1024 80 10000 2.6 320 06:20 06.10.2019
6682 Clear 2 1024 74 10000 1.5 320 05:34 06.10.2019
6683 Clear 2 1024 80 10000 2.1 340 03:42 06.10.2019
6684 Clouds 2 1024 85 10000 2.1 340 02:43 06.10.2019
6685 Clouds 2 1024 85 10000 1.5 330 02:21 06.10.2019
6686 Clouds 2 1025 85 10000 1.5 340 01:44 06.10.2019
6687 Clouds 2 1025 83 10000 1.5 340 01:26 06.10.2019
6688 Clouds 2 1024 83 10000 2.1 350 00:52 06.10.2019
6689 Clouds 2 1024 83 10000 2.1 340 00:26 06.10.2019
6690 Clouds 3 1024 73 10000 3.1 340 23:44 05.10.2019
6691 Clouds 2 1024 73 10000 3.6 340 23:22 05.10.2019
6692 Clouds 2 1024 74 10000 3.1 330 22:58 05.10.2019
6693 Clouds 2 1024 74 10000 3.1 330 22:40 05.10.2019
6694 Clouds 2 1024 74 10000 3.1 330 22:40 05.10.2019
6695 Clouds 2 1024 74 10000 2.6 320 22:20 05.10.2019
6696 Clouds 3 1024 74 10000 3.6 320 21:56 05.10.2019
6697 Clouds 3 1024 74 10000 3.6 320 21:38 05.10.2019
6698 Clouds 3 1024 74 10000 4.1 320 21:18 05.10.2019
6699 Clouds 3 1024 80 10000 3.1 320 20:55 05.10.2019
6700 Clouds 3 1024 74 10000 3.1 310 20:37 05.10.2019
6701 Clouds 3 1024 74 10000 3.1 310 20:18 05.10.2019
6702 Clouds 3 1024 69 10000 3.1 320 19:37 05.10.2019
6703 Clouds 3 1023 74 10000 2.6 330 19:19 05.10.2019
6704 Clouds 3 1023 74 10000 2.6 330 19:19 05.10.2019
6705 Clouds 3 1023 69 10000 4.1 320 18:55 05.10.2019
6706 Clouds 3 1023 69 10000 4.1 320 18:55 05.10.2019
6707 Clouds 3 1023 69 10000 4.1 320 18:37 05.10.2019
6708 Clouds 4 1023 69 10000 4.6 330 18:19 05.10.2019
6709 Clouds 4 1023 65 10000 5.7 350 17:43 05.10.2019
6710 Clear 5 1022 60 10000 4.6</